<?xml version='1.0' encoding='UTF-8'?><gpx version="1.1" creator="JPX - https://github.com/jenetics/jpx" xmlns="http://www.topografix.com/GPX/1/1"><trk><trkseg><trkpt lat="45.86946820424602" lon="11.51382724153574"><ele>1006.0</ele><time>2026-04-19T10:09:48.999Z</time></trkpt><trkpt lat="45.869433995445505" lon="11.514019932207251"><ele>1005.9999999999999</ele><time>2026-04-19T10:09:50.999Z</time></trkpt><trkpt lat="45.86940795185659" lon="11.514126336772112"><ele>1005.9999999999999</ele><time>2026-04-19T10:09:51.999Z</time></trkpt><trkpt lat="45.86938386188792" lon="11.514252306634669"><ele>1006.0</ele><time>2026-04-19T10:09:52.999Z</time></trkpt><trkpt lat="45.8693606824697" lon="11.51437157810025"><ele>1006.0</ele><time>2026-04-19T10:09:53.999Z</time></trkpt><trkpt lat="45.869337857360996" lon="11.514484524362162"><ele>1006.0</ele><time>2026-04-19T10:09:54.999Z</time></trkpt><trkpt lat="45.86930510858375" lon="11.514624684338859"><ele>1006.0</ele><time>2026-04-19T10:09:55.999Z</time></trkpt><trkpt lat="45.86925876742034" lon="11.514779523708063"><ele>1006.0</ele><time>2026-04-19T10:09:56.999Z</time></trkpt><trkpt lat="45.86919347017375" lon="11.5149497126882"><ele>1006.0</ele><time>2026-04-19T10:09:58Z</time></trkpt><trkpt lat="45.86909780811217" lon="11.515167231592168"><ele>1003.0</ele><time>2026-04-19T10:09:59Z</time></trkpt><trkpt lat="45.86901039230689" lon="11.51535836059522"><ele>1000.0</ele><time>2026-04-19T10:10:00Z</time></trkpt><trkpt lat="45.86893956728478" lon="11.515542263899459"><ele>997.0</ele><time>2026-04-19T10:10:01Z</time></trkpt><trkpt lat="45.8688604987645" lon="11.515691363478505"><ele>994.0</ele><time>2026-04-19T10:10:02Z</time></trkpt><trkpt lat="45.86876221747661" lon="11.515833388371782"><ele>994.0</ele><time>2026-04-19T10:10:03Z</time></trkpt><trkpt lat="45.868697528744" lon="11.515984695858942"><ele>994.0000000000001</ele><time>2026-04-19T10:10:04Z</time></trkpt><trkpt lat="45.868626282346135" lon="11.5160975143584"><ele>994.0000000000001</ele><time>2026-04-19T10:10:05Z</time></trkpt><trkpt lat="45.86855792222709" lon="11.516190351086614"><ele>994.0</ele><time>2026-04-19T10:10:06Z</time></trkpt><trkpt lat="45.868506068986854" lon="11.516270155836004"><ele>994.0</ele><time>2026-04-19T10:10:07Z</time></trkpt><trkpt lat="45.868474019097796" lon="11.516377433897599"><ele>993.8333333333333</ele><time>2026-04-19T10:10:08Z</time></trkpt><trkpt lat="45.86842433538188" lon="11.516505060557261"><ele>993.6666666666666</ele><time>2026-04-19T10:10:10Z</time></trkpt><trkpt lat="45.86840430448818" lon="11.516595920616158"><ele>993.5</ele><time>2026-04-19T10:10:11Z</time></trkpt><trkpt lat="45.868360607702556" lon="11.516671963825948"><ele>993.3333333333333</ele><time>2026-04-19T10:10:13Z</time></trkpt><trkpt lat="45.868356772916734" lon="11.516776290073464"><ele>993.1666666666666</ele><time>2026-04-19T10:10:36Z</time></trkpt><trkpt lat="45.86839780436791" lon="11.516851000392409"><ele>993.0</ele><time>2026-04-19T10:10:38Z</time></trkpt><trkpt lat="45.86853475671935" lon="11.516715835504819"><ele>993.25</ele><time>2026-04-19T10:10:40Z</time></trkpt><trkpt lat="45.86859267089235" lon="11.516602159546089"><ele>993.5</ele><time>2026-04-19T10:10:41Z</time></trkpt><trkpt lat="45.86860773372488" lon="11.516391175827172"><ele>993.75</ele><time>2026-04-19T10:10:42Z</time></trkpt><trkpt lat="45.86869396548839" lon="11.516195941896683"><ele>994.0</ele><time>2026-04-19T10:10:43Z</time></trkpt><trkpt lat="45.86878885709376" lon="11.516006094827056"><ele>994.0</ele><time>2026-04-19T10:10:44Z</time></trkpt><trkpt lat="45.86885265550121" lon="11.515827395984138"><ele>994.0</ele><time>2026-04-19T10:10:45.001Z</time></trkpt><trkpt lat="45.86889757243639" lon="11.515650934394897"><ele>994.0</ele><time>2026-04-19T10:10:46.001Z</time></trkpt><trkpt lat="45.86895073264111" lon="11.515480662997458"><ele>994.0</ele><time>2026-04-19T10:10:47.001Z</time></trkpt><trkpt lat="45.868998106082415" lon="11.515311558565688"><ele>993.75</ele><time>2026-04-19T10:10:48.001Z</time></trkpt><trkpt lat="45.8690578459121" lon="11.515160994180803"><ele>993.5</ele><time>2026-04-19T10:10:49.001Z</time></trkpt><trkpt lat="45.86918008365904" lon="11.515072551841403"><ele>993.25</ele><time>2026-04-19T10:10:50.001Z</time></trkpt><trkpt lat="45.86924428996969" lon="11.514926121313204"><ele>993.0</ele><time>2026-04-19T10:10:51.001Z</time></trkpt><trkpt lat="45.86930409850366" lon="11.514756675674716"><ele>996.25</ele><time>2026-04-19T10:10:52.001Z</time></trkpt><trkpt lat="45.86935043661542" lon="11.514585043970149"><ele>999.5</ele><time>2026-04-19T10:10:53.001Z</time></trkpt><trkpt lat="45.86938336004163" lon="11.514430813039949"><ele>1002.75</ele><time>2026-04-19T10:10:54.001Z</time></trkpt><trkpt lat="45.869418581154335" lon="11.514251202582324"><ele>1006.0</ele><time>2026-04-19T10:10:55.001Z</time></trkpt><trkpt lat="45.869455347639786" lon="11.514058945459144"><ele>1006.0</ele><time>2026-04-19T10:10:56.001Z</time></trkpt><trkpt lat="45.86948843376176" lon="11.513885933799148"><ele>1006.0</ele><time>2026-04-19T10:10:57.001Z</time></trkpt><trkpt lat="45.86953069966616" lon="11.513749244977857"><ele>1006.0</ele><time>2026-04-19T10:10:58.001Z</time></trkpt><trkpt lat="45.86959684914847" lon="11.513619146663755"><ele>1006.0</ele><time>2026-04-19T10:10:59.001Z</time></trkpt><trkpt lat="45.86967805195952" lon="11.513515348272758"><ele>1003.75</ele><time>2026-04-19T10:11:00.001Z</time></trkpt><trkpt lat="45.869767077362305" lon="11.513408277212735"><ele>1001.5</ele><time>2026-04-19T10:11:01.001Z</time></trkpt><trkpt lat="45.86986152834459" lon="11.513324470632758"><ele>999.25</ele><time>2026-04-19T10:11:02.001Z</time></trkpt><trkpt lat="45.869973787228226" lon="11.513235205037807"><ele>997.0</ele><time>2026-04-19T10:11:03.001Z</time></trkpt><trkpt lat="45.87007741823231" lon="11.513156039202233"><ele>997.0</ele><time>2026-04-19T10:11:04.001Z</time></trkpt><trkpt lat="45.87018831484286" lon="11.513073170881647"><ele>997.0</ele><time>2026-04-19T10:11:05.001Z</time></trkpt><trkpt lat="45.87029467449525" lon="11.512974964786205"><ele>997.0</ele><time>2026-04-19T10:11:06.001Z</time></trkpt><trkpt lat="45.87041335285908" lon="11.512906831550524"><ele>997.0</ele><time>2026-04-19T10:11:07.001Z</time></trkpt><trkpt lat="45.870525120050466" lon="11.512842340268566"><ele>997.0</ele><time>2026-04-19T10:11:08.001Z</time></trkpt><trkpt lat="45.870634159685366" lon="11.512770134389955"><ele>997.0</ele><time>2026-04-19T10:11:09.001Z</time></trkpt><trkpt lat="45.870729088998694" lon="11.512709620926016"><ele>997.0</ele><time>2026-04-19T10:11:10.001Z</time></trkpt><trkpt lat="45.870818533523085" lon="11.512645202822618"><ele>997.0</ele><time>2026-04-19T10:11:11.001Z</time></trkpt><trkpt lat="45.87089776269765" lon="11.51256307616377"><ele>997.0</ele><time>2026-04-19T10:11:12.001Z</time></trkpt><trkpt lat="45.870977282097726" lon="11.512475515654003"><ele>996.9999999999999</ele><time>2026-04-19T10:11:13.001Z</time></trkpt><trkpt lat="45.871051928160135" lon="11.512418421067478"><ele>997.0</ele><time>2026-04-19T10:11:14.001Z</time></trkpt><trkpt lat="45.87111894153212" lon="11.512353665803493"><ele>997.0</ele><time>2026-04-19T10:11:15.001Z</time></trkpt><trkpt lat="45.87117855907697" lon="11.512296414337229"><ele>997.0</ele><time>2026-04-19T10:11:16.001Z</time></trkpt><trkpt lat="45.87123537827138" lon="11.512241850193904"><ele>996.9999999999999</ele><time>2026-04-19T10:11:17.001Z</time></trkpt><trkpt lat="45.871318660507214" lon="11.512161873878387"><ele>997.0</ele><time>2026-04-19T10:11:19.001Z</time></trkpt><trkpt lat="45.8713692330571" lon="11.512065282944905"><ele>997.0</ele><time>2026-04-19T10:11:22.001Z</time></trkpt><trkpt lat="45.871436076743194" lon="11.511986733066344"><ele>997.0</ele><time>2026-04-19T10:11:25.001Z</time></trkpt><trkpt lat="45.871506097000655" lon="11.511941274417964"><ele>997.0</ele><time>2026-04-19T10:11:28.001Z</time></trkpt><trkpt lat="45.87159902179388" lon="11.511863496700718"><ele>997.0</ele><time>2026-04-19T10:11:31.001Z</time></trkpt><trkpt lat="45.871703962525274" lon="11.511771698238409"><ele>997.0</ele><time>2026-04-19T10:11:33.001Z</time></trkpt><trkpt lat="45.87176326543551" lon="11.511724891562663"><ele>997.0</ele><time>2026-04-19T10:11:34.001Z</time></trkpt><trkpt lat="45.87188141356008" lon="11.511647239246651"><ele>997.0</ele><time>2026-04-19T10:11:36.001Z</time></trkpt><trkpt lat="45.87195906833904" lon="11.511630572652207"><ele>997.0</ele><time>2026-04-19T10:11:37.001Z</time></trkpt><trkpt lat="45.872031826349115" lon="11.511608976329969"><ele>997.0</ele><time>2026-04-19T10:11:38.001Z</time></trkpt><trkpt lat="45.87211269234598" lon="11.511585112510666"><ele>997.0</ele><time>2026-04-19T10:11:39.001Z</time></trkpt><trkpt lat="45.87219851109775" lon="11.511567778653323"><ele>997.0</ele><time>2026-04-19T10:11:39.999Z</time></trkpt><trkpt lat="45.872364579085406" lon="11.511528037027004"><ele>997.0</ele><time>2026-04-19T10:11:41.999Z</time></trkpt><trkpt lat="45.87245473212825" lon="11.511510400902443"><ele>997.0</ele><time>2026-04-19T10:11:42.999Z</time></trkpt><trkpt lat="45.87254392617732" lon="11.511484968829263"><ele>997.0</ele><time>2026-04-19T10:11:43.999Z</time></trkpt><trkpt lat="45.87263265942011" lon="11.511456356651028"><ele>997.0</ele><time>2026-04-19T10:11:44.999Z</time></trkpt><trkpt lat="45.8727184393943" lon="11.5114409228855"><ele>997.4000000000001</ele><time>2026-04-19T10:11:45.999Z</time></trkpt><trkpt lat="45.87280566606583" lon="11.511419164146078"><ele>997.8000000000001</ele><time>2026-04-19T10:11:46.999Z</time></trkpt><trkpt lat="45.87289313477644" lon="11.511399089936116"><ele>998.2</ele><time>2026-04-19T10:11:47.999Z</time></trkpt><trkpt lat="45.872980172116" lon="11.511381649931879"><ele>998.6</ele><time>2026-04-19T10:11:48.999Z</time></trkpt><trkpt lat="45.873065978481286" lon="11.511358402974336"><ele>999.0</ele><time>2026-04-19T10:11:49.999Z</time></trkpt><trkpt lat="45.87316400315681" lon="11.511335795996217"><ele>999.0</ele><time>2026-04-19T10:11:50.999Z</time></trkpt><trkpt lat="45.8732563820284" lon="11.511317280292342"><ele>999.0</ele><time>2026-04-19T10:11:51.999Z</time></trkpt><trkpt lat="45.87333549460074" lon="11.511289896118956"><ele>999.0</ele><time>2026-04-19T10:11:52.999Z</time></trkpt><trkpt lat="45.87341164232412" lon="11.511261990583087"><ele>999.0</ele><time>2026-04-19T10:11:53.999Z</time></trkpt><trkpt lat="45.873494890508496" lon="11.511245469622954"><ele>999.0</ele><time>2026-04-19T10:11:54.999Z</time></trkpt><trkpt lat="45.873573701841615" lon="11.511227058490546"><ele>999.0</ele><time>2026-04-19T10:11:55.999Z</time></trkpt><trkpt lat="45.87365654073491" lon="11.511206067138525"><ele>999.3333333333334</ele><time>2026-04-19T10:11:56.999Z</time></trkpt><trkpt lat="45.87373907210482" lon="11.511181385044406"><ele>999.6666666666667</ele><time>2026-04-19T10:11:57.999Z</time></trkpt><trkpt lat="45.87382145146897" lon="11.511157021193002"><ele>1000.0</ele><time>2026-04-19T10:11:59Z</time></trkpt><trkpt lat="45.87390604495606" lon="11.511132155884507"><ele>1000.3333333333334</ele><time>2026-04-19T10:12:00Z</time></trkpt><trkpt lat="45.87398922660629" lon="11.511105621602217"><ele>1000.6666666666667</ele><time>2026-04-19T10:12:01Z</time></trkpt><trkpt lat="45.874068820148395" lon="11.511092068381897"><ele>1001.0</ele><time>2026-04-19T10:12:02Z</time></trkpt><trkpt lat="45.87414932131323" lon="11.511076009060165"><ele>1001.0000000000001</ele><time>2026-04-19T10:12:03Z</time></trkpt><trkpt lat="45.87422742243401" lon="11.511057479624712"><ele>1001.0</ele><time>2026-04-19T10:12:04Z</time></trkpt><trkpt lat="45.8742989246188" lon="11.51104408050937"><ele>1001.0</ele><time>2026-04-19T10:12:05Z</time></trkpt><trkpt lat="45.87437109913201" lon="11.511030350344454"><ele>1001.0</ele><time>2026-04-19T10:12:06Z</time></trkpt><trkpt lat="45.8744880869905" lon="11.51097362497116"><ele>1001.0000000000001</ele><time>2026-04-19T10:12:08Z</time></trkpt><trkpt lat="45.87455399401093" lon="11.510956612723914"><ele>1001.0</ele><time>2026-04-19T10:12:09Z</time></trkpt><trkpt lat="45.8746274164616" lon="11.510949587121617"><ele>1001.1666666666667</ele><time>2026-04-19T10:12:10Z</time></trkpt><trkpt lat="45.874699130111885" lon="11.510939210394222"><ele>1001.3333333333334</ele><time>2026-04-19T10:12:11Z</time></trkpt><trkpt lat="45.874829347286514" lon="11.510906547679296"><ele>1001.5</ele><time>2026-04-19T10:12:13Z</time></trkpt><trkpt lat="45.874911608955166" lon="11.510887206871628"><ele>1001.6666666666667</ele><time>2026-04-19T10:12:14Z</time></trkpt><trkpt lat="45.87498877315741" lon="11.510875110402642"><ele>1001.8333333333334</ele><time>2026-04-19T10:12:15Z</time></trkpt><trkpt lat="45.875067307767054" lon="11.510860676643777"><ele>1002.0</ele><time>2026-04-19T10:12:16Z</time></trkpt><trkpt lat="45.87514381542669" lon="11.510844646076501"><ele>1002.0</ele><time>2026-04-19T10:12:17Z</time></trkpt><trkpt lat="45.87521567711202" lon="11.510828642263052"><ele>1002.0</ele><time>2026-04-19T10:12:18Z</time></trkpt><trkpt lat="45.87527687413243" lon="11.510800355153028"><ele>1002.0</ele><time>2026-04-19T10:12:19Z</time></trkpt><trkpt lat="45.87534278926416" lon="11.510784262001387"><ele>1002.0</ele><time>2026-04-19T10:12:20Z</time></trkpt><trkpt lat="45.87544782999965" lon="11.51074302527569"><ele>1002.0</ele><time>2026-04-19T10:12:22Z</time></trkpt><trkpt lat="45.87554823657711" lon="11.510689072270536"><ele>1002.0</ele><time>2026-04-19T10:12:24Z</time></trkpt><trkpt lat="45.87562482137687" lon="11.510746515598202"><ele>1002.0</ele><time>2026-04-19T10:12:25Z</time></trkpt><trkpt lat="45.875689254344614" lon="11.510771909759049"><ele>1002.0</ele><time>2026-04-19T10:12:26Z</time></trkpt><trkpt lat="45.87574902915537" lon="11.510806642391081"><ele>1002.0</ele><time>2026-04-19T10:12:27Z</time></trkpt><trkpt lat="45.87581366555965" lon="11.510857896389023"><ele>1002.0</ele><time>2026-04-19T10:12:28Z</time></trkpt><trkpt lat="45.87587349696654" lon="11.510914054340521"><ele>1002.0</ele><time>2026-04-19T10:12:29Z</time></trkpt><trkpt lat="45.87597188457472" lon="11.511023050039258"><ele>1002.0</ele><time>2026-04-19T10:12:31Z</time></trkpt><trkpt lat="45.87602179569028" lon="11.511080799965622"><ele>1002.5</ele><time>2026-04-19T10:12:32Z</time></trkpt><trkpt lat="45.87607389316633" lon="11.511133923607943"><ele>1003.0</ele><time>2026-04-19T10:12:33Z</time></trkpt><trkpt lat="45.87613185749539" lon="11.511193147189696"><ele>1003.5</ele><time>2026-04-19T10:12:34Z</time></trkpt><trkpt lat="45.876188613653255" lon="11.511256865916698"><ele>1004.0</ele><time>2026-04-19T10:12:35Z</time></trkpt><trkpt lat="45.876256802497814" lon="11.511319921113323"><ele>1004.5</ele><time>2026-04-19T10:12:36Z</time></trkpt><trkpt lat="45.876323258491745" lon="11.511388725865759"><ele>1005.0</ele><time>2026-04-19T10:12:37Z</time></trkpt><trkpt lat="45.87640151851701" lon="11.51147434842367"><ele>1005.1666666666666</ele><time>2026-04-19T10:12:38Z</time></trkpt><trkpt lat="45.876459316094525" lon="11.511548355005518"><ele>1005.3333333333333</ele><time>2026-04-19T10:12:39Z</time></trkpt><trkpt lat="45.87652456710762" lon="11.511621958828192"><ele>1005.5</ele><time>2026-04-19T10:12:40Z</time></trkpt><trkpt lat="45.87659056009657" lon="11.511704185267789"><ele>1005.6666666666666</ele><time>2026-04-19T10:12:41.001Z</time></trkpt><trkpt lat="45.876658489011966" lon="11.511773349234565"><ele>1005.8333333333333</ele><time>2026-04-19T10:12:42.001Z</time></trkpt><trkpt lat="45.87673059953606" lon="11.511837922863723"><ele>1006.0</ele><time>2026-04-19T10:12:43.001Z</time></trkpt><trkpt lat="45.876800828824415" lon="11.511908468594099"><ele>1006.1666666666666</ele><time>2026-04-19T10:12:44.001Z</time></trkpt><trkpt lat="45.87687446391549" lon="11.511984366606175"><ele>1006.3333333333333</ele><time>2026-04-19T10:12:45.001Z</time></trkpt><trkpt lat="45.876944500248825" lon="11.512061592068461"><ele>1006.5</ele><time>2026-04-19T10:12:46.001Z</time></trkpt><trkpt lat="45.87700839849874" lon="11.512151038333286"><ele>1006.6666666666667</ele><time>2026-04-19T10:12:47.001Z</time></trkpt><trkpt lat="45.87706886934784" lon="11.512231131141501"><ele>1006.8333333333334</ele><time>2026-04-19T10:12:48.001Z</time></trkpt><trkpt lat="45.8771334675331" lon="11.512310980648415"><ele>1007.0</ele><time>2026-04-19T10:12:49.001Z</time></trkpt><trkpt lat="45.87720132640231" lon="11.512386163567202"><ele>1006.6666666666667</ele><time>2026-04-19T10:12:50.001Z</time></trkpt><trkpt lat="45.87726493383999" lon="11.512478900691118"><ele>1006.3333333333334</ele><time>2026-04-19T10:12:51.001Z</time></trkpt><trkpt lat="45.87732629913533" lon="11.512559090645889"><ele>1006.0</ele><time>2026-04-19T10:12:52.001Z</time></trkpt><trkpt lat="45.87738014247747" lon="11.512628406955834"><ele>1005.6666666666667</ele><time>2026-04-19T10:12:53.001Z</time></trkpt><trkpt lat="45.877439748146145" lon="11.512689623882283"><ele>1005.3333333333334</ele><time>2026-04-19T10:12:54.001Z</time></trkpt><trkpt lat="45.877486850454716" lon="11.512774067828406"><ele>1005.0</ele><time>2026-04-19T10:12:55.001Z</time></trkpt><trkpt lat="45.87753352364626" lon="11.512864459251398"><ele>1005.2</ele><time>2026-04-19T10:12:56.001Z</time></trkpt><trkpt lat="45.87755510055256" lon="11.51299021550372"><ele>1005.4</ele><time>2026-04-19T10:12:57.001Z</time></trkpt><trkpt lat="45.877622872785054" lon="11.51307854996638"><ele>1005.5999999999999</ele><time>2026-04-19T10:12:58.001Z</time></trkpt><trkpt lat="45.87768392834643" lon="11.513189521868723"><ele>1005.8</ele><time>2026-04-19T10:12:59.001Z</time></trkpt><trkpt lat="45.87774050112384" lon="11.513304865935009"><ele>1006.0</ele><time>2026-04-19T10:13:00.001Z</time></trkpt><trkpt lat="45.87780200377232" lon="11.513453199171753"><ele>1006.25</ele><time>2026-04-19T10:13:01.001Z</time></trkpt><trkpt lat="45.87785837040461" lon="11.51359327205606"><ele>1006.5</ele><time>2026-04-19T10:13:02.001Z</time></trkpt><trkpt lat="45.8779202683615" lon="11.5137332612219"><ele>1006.75</ele><time>2026-04-19T10:13:03.001Z</time></trkpt><trkpt lat="45.877982385724586" lon="11.513881651207129"><ele>1007.0</ele><time>2026-04-19T10:13:04.001Z</time></trkpt><trkpt lat="45.87804527771767" lon="11.514027311965252"><ele>1007.25</ele><time>2026-04-19T10:13:05.001Z</time></trkpt><trkpt lat="45.878115432215765" lon="11.51416487277391"><ele>1007.5</ele><time>2026-04-19T10:13:06.001Z</time></trkpt><trkpt lat="45.878176882037884" lon="11.514314134071256"><ele>1007.75</ele><time>2026-04-19T10:13:07.001Z</time></trkpt><trkpt lat="45.87822764825768" lon="11.514455605139062"><ele>1008.0</ele><time>2026-04-19T10:13:08.001Z</time></trkpt><trkpt lat="45.87828988766855" lon="11.514590960143904"><ele>1008.0</ele><time>2026-04-19T10:13:09.001Z</time></trkpt><trkpt lat="45.878345198466164" lon="11.514741582124447"><ele>1008.0</ele><time>2026-04-19T10:13:10.001Z</time></trkpt><trkpt lat="45.87840035865398" lon="11.514892572935098"><ele>1008.0</ele><time>2026-04-19T10:13:11.001Z</time></trkpt><trkpt lat="45.87846318230941" lon="11.515040865790487"><ele>1008.0</ele><time>2026-04-19T10:13:12.001Z</time></trkpt><trkpt lat="45.87852684138565" lon="11.515187113161852"><ele>1009.5</ele><time>2026-04-19T10:13:13.001Z</time></trkpt><trkpt lat="45.87858273599723" lon="11.515349018099016"><ele>1011.0</ele><time>2026-04-19T10:13:14.001Z</time></trkpt><trkpt lat="45.87862568528901" lon="11.515492596433573"><ele>1012.5</ele><time>2026-04-19T10:13:15.001Z</time></trkpt><trkpt lat="45.87866307308853" lon="11.515664707875427"><ele>1014.0</ele><time>2026-04-19T10:13:16.001Z</time></trkpt><trkpt lat="45.878706929674834" lon="11.515830346817907"><ele>1014.0</ele><time>2026-04-19T10:13:17.001Z</time></trkpt><trkpt lat="45.87873898167944" lon="11.516003249601049"><ele>1014.0</ele><time>2026-04-19T10:13:18.001Z</time></trkpt><trkpt lat="45.87878451142983" lon="11.516170134950283"><ele>1014.0</ele><time>2026-04-19T10:13:19.001Z</time></trkpt><trkpt lat="45.8788372234849" lon="11.516344070304473"><ele>1014.0</ele><time>2026-04-19T10:13:20.001Z</time></trkpt><trkpt lat="45.87888819807949" lon="11.516518667536312"><ele>1013.75</ele><time>2026-04-19T10:13:21.001Z</time></trkpt><trkpt lat="45.87892779499623" lon="11.516697953887595"><ele>1013.5</ele><time>2026-04-19T10:13:22.001Z</time></trkpt><trkpt lat="45.878967774688036" lon="11.516879234033018"><ele>1013.25</ele><time>2026-04-19T10:13:23.001Z</time></trkpt><trkpt lat="45.87901488588381" lon="11.517053997442325"><ele>1013.0</ele><time>2026-04-19T10:13:24.001Z</time></trkpt><trkpt lat="45.879058694542714" lon="11.517210347999681"><ele>1013.0</ele><time>2026-04-19T10:13:25.001Z</time></trkpt><trkpt lat="45.87911457544639" lon="11.517372842838906"><ele>1013.0</ele><time>2026-04-19T10:13:26.001Z</time></trkpt><trkpt lat="45.87915634678879" lon="11.517533957454662"><ele>1013.0</ele><time>2026-04-19T10:13:27.001Z</time></trkpt><trkpt lat="45.87919146404529" lon="11.517693466993292"><ele>1013.0</ele><time>2026-04-19T10:13:28.001Z</time></trkpt><trkpt lat="45.87922724758848" lon="11.517858119355804"><ele>1014.0</ele><time>2026-04-19T10:13:29.001Z</time></trkpt><trkpt lat="45.87928637796622" lon="11.518017708522528"><ele>1015.0</ele><time>2026-04-19T10:13:30.001Z</time></trkpt><trkpt lat="45.87932191243411" lon="11.518172407044712"><ele>1016.0</ele><time>2026-04-19T10:13:31.001Z</time></trkpt><trkpt lat="45.87935129359975" lon="11.518325729518777"><ele>1017.0</ele><time>2026-04-19T10:13:32.001Z</time></trkpt><trkpt lat="45.87938932520458" lon="11.518469385221435"><ele>1017.0</ele><time>2026-04-19T10:13:33.001Z</time></trkpt><trkpt lat="45.8794317369355" lon="11.518619479417746"><ele>1017.0</ele><time>2026-04-19T10:13:34.001Z</time></trkpt><trkpt lat="45.87946661283689" lon="11.518772789812287"><ele>1017.0</ele><time>2026-04-19T10:13:35.002Z</time></trkpt><trkpt lat="45.87949880805875" lon="11.518928917116146"><ele>1017.0</ele><time>2026-04-19T10:13:36.002Z</time></trkpt><trkpt lat="45.87954292090455" lon="11.519092481457145"><ele>1016.75</ele><time>2026-04-19T10:13:37.002Z</time></trkpt><trkpt lat="45.87959902938429" lon="11.519256428326447"><ele>1016.5</ele><time>2026-04-19T10:13:38.002Z</time></trkpt><trkpt lat="45.87962989772802" lon="11.519440182842485"><ele>1016.25</ele><time>2026-04-19T10:13:39.002Z</time></trkpt><trkpt lat="45.879678080295825" lon="11.51962063747041"><ele>1016.0</ele><time>2026-04-19T10:13:40.002Z</time></trkpt><trkpt lat="45.8797341618766" lon="11.51982827738121"><ele>1016.0</ele><time>2026-04-19T10:13:41.002Z</time></trkpt><trkpt lat="45.879802371110614" lon="11.52004511271182"><ele>1016.0</ele><time>2026-04-19T10:13:42.002Z</time></trkpt><trkpt lat="45.87986813024801" lon="11.520241796884783"><ele>1016.0</ele><time>2026-04-19T10:13:43.002Z</time></trkpt><trkpt lat="45.879944746850896" lon="11.520458865541261"><ele>1017.3333333333334</ele><time>2026-04-19T10:13:44.002Z</time></trkpt><trkpt lat="45.88002172332593" lon="11.520667685610094"><ele>1018.6666666666667</ele><time>2026-04-19T10:13:45.002Z</time></trkpt><trkpt lat="45.88010050926992" lon="11.520876559717628"><ele>1020.0</ele><time>2026-04-19T10:13:45.999Z</time></trkpt><trkpt lat="45.88018446795423" lon="11.52110927201941"><ele>1022.5</ele><time>2026-04-19T10:13:46.999Z</time></trkpt><trkpt lat="45.88024705148548" lon="11.5212988041947"><ele>1025.0</ele><time>2026-04-19T10:13:47.999Z</time></trkpt><trkpt lat="45.88030558250984" lon="11.52149209419951"><ele>1027.5</ele><time>2026-04-19T10:13:48.999Z</time></trkpt><trkpt lat="45.880350293790855" lon="11.52167227140713"><ele>1030.0</ele><time>2026-04-19T10:13:49.999Z</time></trkpt><trkpt lat="45.88038771300385" lon="11.521842436867956"><ele>1030.0</ele><time>2026-04-19T10:13:50.999Z</time></trkpt><trkpt lat="45.88042914893174" lon="11.522042351222462"><ele>1030.0</ele><time>2026-04-19T10:13:51.999Z</time></trkpt><trkpt lat="45.88046981512873" lon="11.522242483673036"><ele>1030.0</ele><time>2026-04-19T10:13:52.999Z</time></trkpt><trkpt lat="45.88050521278943" lon="11.522446250859762"><ele>1030.0</ele><time>2026-04-19T10:13:53.999Z</time></trkpt><trkpt lat="45.88053555986864" lon="11.522644891038764"><ele>1029.3333333333333</ele><time>2026-04-19T10:13:54.999Z</time></trkpt><trkpt lat="45.88055613636603" lon="11.522828758874935"><ele>1028.6666666666667</ele><time>2026-04-19T10:13:55.999Z</time></trkpt><trkpt lat="45.880578015408595" lon="11.523101161643769"><ele>1028.0</ele><time>2026-04-19T10:13:56.999Z</time></trkpt><trkpt lat="45.88059109936721" lon="11.523326353737673"><ele>1027.6666666666667</ele><time>2026-04-19T10:13:57.999Z</time></trkpt><trkpt lat="45.88058888978233" lon="11.52356367283555"><ele>1027.3333333333333</ele><time>2026-04-19T10:13:58.999Z</time></trkpt><trkpt lat="45.8805814336487" lon="11.52378198549721"><ele>1027.0</ele><time>2026-04-19T10:13:59.999Z</time></trkpt><trkpt lat="45.88056962642722" lon="11.524014510481432"><ele>1027.6666666666665</ele><time>2026-04-19T10:14:00.999Z</time></trkpt><trkpt lat="45.88055569939898" lon="11.524248127708878"><ele>1028.3333333333333</ele><time>2026-04-19T10:14:01.999Z</time></trkpt><trkpt lat="45.880537478481806" lon="11.524520033607008"><ele>1029.0</ele><time>2026-04-19T10:14:02.999Z</time></trkpt><trkpt lat="45.88051918103916" lon="11.524778917584829"><ele>1029.0</ele><time>2026-04-19T10:14:03.999Z</time></trkpt><trkpt lat="45.88049947887591" lon="11.525058089352317"><ele>1029.0</ele><time>2026-04-19T10:14:04.999Z</time></trkpt><trkpt lat="45.88048168931989" lon="11.525334121428559"><ele>1029.0</ele><time>2026-04-19T10:14:05.999Z</time></trkpt><trkpt lat="45.8804664576948" lon="11.525584663089463"><ele>1029.25</ele><time>2026-04-19T10:14:06.999Z</time></trkpt><trkpt lat="45.88045385016846" lon="11.52579413341239"><ele>1029.5</ele><time>2026-04-19T10:14:07.999Z</time></trkpt><trkpt lat="45.88044270836239" lon="11.525982251137144"><ele>1029.75</ele><time>2026-04-19T10:14:08.999Z</time></trkpt><trkpt lat="45.88046389936278" lon="11.526139542124096"><ele>1030.0</ele><time>2026-04-19T10:14:10Z</time></trkpt><trkpt lat="45.880463739752365" lon="11.52623980129859"><ele>1031.25</ele><time>2026-04-19T10:14:11Z</time></trkpt><trkpt lat="45.88045958491831" lon="11.526422578703917"><ele>1032.5</ele><time>2026-04-19T10:14:12Z</time></trkpt><trkpt lat="45.880420159819565" lon="11.526617427594529"><ele>1033.75</ele><time>2026-04-19T10:14:13Z</time></trkpt><trkpt lat="45.88037652003008" lon="11.526813581724618"><ele>1035.0</ele><time>2026-04-19T10:14:14Z</time></trkpt><trkpt lat="45.880342475682205" lon="11.526999911121585"><ele>1035.25</ele><time>2026-04-19T10:14:15Z</time></trkpt><trkpt lat="45.88030689859927" lon="11.527180388060403"><ele>1035.5</ele><time>2026-04-19T10:14:16Z</time></trkpt><trkpt lat="45.88028898731354" lon="11.527366301925962"><ele>1035.75</ele><time>2026-04-19T10:14:17Z</time></trkpt><trkpt lat="45.88028865991971" lon="11.52752102501391"><ele>1036.0</ele><time>2026-04-19T10:14:18Z</time></trkpt><trkpt lat="45.88049594859416" lon="11.527635985702998"><ele>1036.0</ele><time>2026-04-19T10:14:19Z</time></trkpt><trkpt lat="45.880307218288486" lon="11.527840646773976"><ele>1036.0</ele><time>2026-04-19T10:14:20Z</time></trkpt><trkpt lat="45.88030757304372" lon="11.527996561568695"><ele>1036.0</ele><time>2026-04-19T10:14:21Z</time></trkpt><trkpt lat="45.880328477014174" lon="11.528165415708054"><ele>1035.0</ele><time>2026-04-19T10:14:22Z</time></trkpt><trkpt lat="45.88037994725195" lon="11.528332958616867"><ele>1034.0</ele><time>2026-04-19T10:14:23Z</time></trkpt><trkpt lat="45.88059880566044" lon="11.528477838085825"><ele>1033.0</ele><time>2026-04-19T10:14:24Z</time></trkpt><trkpt lat="45.8807165634736" lon="11.528940964441261"><ele>1032.5</ele><time>2026-04-19T10:14:25Z</time></trkpt><trkpt lat="45.880755834979674" lon="11.529139226947239"><ele>1032.0</ele><time>2026-04-19T10:14:26Z</time></trkpt><trkpt lat="45.88080550603024" lon="11.529316145566495"><ele>1031.5</ele><time>2026-04-19T10:14:27Z</time></trkpt><trkpt lat="45.880851169909725" lon="11.52949741686475"><ele>1031.0</ele><time>2026-04-19T10:14:28Z</time></trkpt><trkpt lat="45.880895304325534" lon="11.529674824157194"><ele>1032.5</ele><time>2026-04-19T10:14:29Z</time></trkpt><trkpt lat="45.880944926531946" lon="11.529852355285746"><ele>1034.0</ele><time>2026-04-19T10:14:30Z</time></trkpt><trkpt lat="45.880992918041564" lon="11.530035261274818"><ele>1035.5</ele><time>2026-04-19T10:14:31Z</time></trkpt><trkpt lat="45.88103768016742" lon="11.530215595278678"><ele>1037.0</ele><time>2026-04-19T10:14:32Z</time></trkpt><trkpt lat="45.881081870026954" lon="11.530404773267747"><ele>1037.0</ele><time>2026-04-19T10:14:33Z</time></trkpt><trkpt lat="45.88112768970851" lon="11.53058961328318"><ele>1037.0</ele><time>2026-04-19T10:14:34Z</time></trkpt><trkpt lat="45.88117607532735" lon="11.530773603521993"><ele>1037.0</ele><time>2026-04-19T10:14:35Z</time></trkpt><trkpt lat="45.881231254844344" lon="11.530959373586667"><ele>1037.0</ele><time>2026-04-19T10:14:36Z</time></trkpt><trkpt lat="45.881284482224146" lon="11.531137243288354"><ele>1036.75</ele><time>2026-04-19T10:14:37Z</time></trkpt><trkpt lat="45.88135956031852" lon="11.531308493943646"><ele>1036.5</ele><time>2026-04-19T10:14:38Z</time></trkpt><trkpt lat="45.88143085020566" lon="11.531464880201478"><ele>1036.25</ele><time>2026-04-19T10:14:39Z</time></trkpt><trkpt lat="45.881517095384396" lon="11.531619770465632"><ele>1036.0</ele><time>2026-04-19T10:14:40Z</time></trkpt><trkpt lat="45.88160192824247" lon="11.531770993479244"><ele>1036.0</ele><time>2026-04-19T10:14:41Z</time></trkpt><trkpt lat="45.88168452015256" lon="11.531909897093032"><ele>1036.0</ele><time>2026-04-19T10:14:42Z</time></trkpt><trkpt lat="45.88176876086357" lon="11.532052616035337"><ele>1036.0</ele><time>2026-04-19T10:14:43Z</time></trkpt><trkpt lat="45.88183799097327" lon="11.532186359851202"><ele>1036.0</ele><time>2026-04-19T10:14:44Z</time></trkpt><trkpt lat="45.88192672795666" lon="11.532326080161676"><ele>1039.75</ele><time>2026-04-19T10:14:45.001Z</time></trkpt><trkpt lat="45.882028139655894" lon="11.53245309170356"><ele>1043.5</ele><time>2026-04-19T10:14:46.001Z</time></trkpt><trkpt lat="45.88212327389124" lon="11.532590549916472"><ele>1047.25</ele><time>2026-04-19T10:14:47.001Z</time></trkpt><trkpt lat="45.88221879012711" lon="11.532723019056421"><ele>1051.0</ele><time>2026-04-19T10:14:48.001Z</time></trkpt><trkpt lat="45.882318630538286" lon="11.532852166817342"><ele>1051.3333333333333</ele><time>2026-04-19T10:14:49.001Z</time></trkpt><trkpt lat="45.88242350439231" lon="11.532968478399704"><ele>1051.6666666666667</ele><time>2026-04-19T10:14:50.001Z</time></trkpt><trkpt lat="45.88254306109972" lon="11.533078886395115"><ele>1052.0</ele><time>2026-04-19T10:14:51.001Z</time></trkpt><trkpt lat="45.88270203925376" lon="11.533230550854825"><ele>1052.0</ele><time>2026-04-19T10:14:52.001Z</time></trkpt><trkpt lat="45.88288924842055" lon="11.533367096502914"><ele>1052.0</ele><time>2026-04-19T10:14:53.001Z</time></trkpt><trkpt lat="45.88304509180076" lon="11.533520822228398"><ele>1052.0</ele><time>2026-04-19T10:14:54.001Z</time></trkpt><trkpt lat="45.88318794483841" lon="11.533673117922827"><ele>1052.0</ele><time>2026-04-19T10:14:55.001Z</time></trkpt><trkpt lat="45.883311127038446" lon="11.533785928369387"><ele>1052.0</ele><time>2026-04-19T10:14:56.001Z</time></trkpt><trkpt lat="45.88343394675872" lon="11.533924533363614"><ele>1052.0</ele><time>2026-04-19T10:14:57.001Z</time></trkpt><trkpt lat="45.88353825525604" lon="11.534035307787864"><ele>1052.0</ele><time>2026-04-19T10:14:58.001Z</time></trkpt><trkpt lat="45.88364097157878" lon="11.534178781644298"><ele>1053.25</ele><time>2026-04-19T10:14:59.001Z</time></trkpt><trkpt lat="45.88373941129539" lon="11.534312495512205"><ele>1054.5</ele><time>2026-04-19T10:15:00.001Z</time></trkpt><trkpt lat="45.88383454303111" lon="11.534466812178193"><ele>1055.75</ele><time>2026-04-19T10:15:01.001Z</time></trkpt><trkpt lat="45.88393253555984" lon="11.53462582273409"><ele>1057.0</ele><time>2026-04-19T10:15:02.001Z</time></trkpt><trkpt lat="45.88400740095696" lon="11.534791414034798"><ele>1057.3333333333333</ele><time>2026-04-19T10:15:03.001Z</time></trkpt><trkpt lat="45.88409407091678" lon="11.534982372323418"><ele>1057.6666666666667</ele><time>2026-04-19T10:15:04.001Z</time></trkpt><trkpt lat="45.884174205052645" lon="11.535168087612176"><ele>1058.0</ele><time>2026-04-19T10:15:05.001Z</time></trkpt><trkpt lat="45.884255872643074" lon="11.535354280970976"><ele>1060.0</ele><time>2026-04-19T10:15:06.001Z</time></trkpt><trkpt lat="45.88433590024799" lon="11.535552614069783"><ele>1062.0</ele><time>2026-04-19T10:15:07.001Z</time></trkpt><trkpt lat="45.88442410257337" lon="11.535750507669668"><ele>1064.0</ele><time>2026-04-19T10:15:08.001Z</time></trkpt><trkpt lat="45.88451039064924" lon="11.535935913233784"><ele>1064.0</ele><time>2026-04-19T10:15:09.001Z</time></trkpt><trkpt lat="45.88458737904604" lon="11.536149022492028"><ele>1064.0</ele><time>2026-04-19T10:15:10.001Z</time></trkpt><trkpt lat="45.884682188122326" lon="11.536323722935334"><ele>1064.0</ele><time>2026-04-19T10:15:11.001Z</time></trkpt><trkpt lat="45.88478831188005" lon="11.536501477004323"><ele>1063.6666666666667</ele><time>2026-04-19T10:15:12.001Z</time></trkpt><trkpt lat="45.88489452071553" lon="11.536684847046871"><ele>1063.3333333333333</ele><time>2026-04-19T10:15:13.001Z</time></trkpt><trkpt lat="45.885009415515746" lon="11.536869168031885"><ele>1063.0</ele><time>2026-04-19T10:15:14.001Z</time></trkpt><trkpt lat="45.88511686958591" lon="11.53703820977642"><ele>1065.0</ele><time>2026-04-19T10:15:15.001Z</time></trkpt><trkpt lat="45.88522596178437" lon="11.537224417744426"><ele>1067.0</ele><time>2026-04-19T10:15:16.001Z</time></trkpt><trkpt lat="45.88534122301781" lon="11.537414829036615"><ele>1069.0</ele><time>2026-04-19T10:15:17.001Z</time></trkpt><trkpt lat="45.88545121367099" lon="11.537593409929945"><ele>1069.0</ele><time>2026-04-19T10:15:18.001Z</time></trkpt><trkpt lat="45.88555552460913" lon="11.537765807341017"><ele>1069.0</ele><time>2026-04-19T10:15:19.001Z</time></trkpt><trkpt lat="45.88566968389514" lon="11.537940357536975"><ele>1069.0</ele><time>2026-04-19T10:15:20.001Z</time></trkpt><trkpt lat="45.885778647251506" lon="11.538111817293876"><ele>1069.6666666666665</ele><time>2026-04-19T10:15:21.001Z</time></trkpt><trkpt lat="45.88588730513776" lon="11.538272209339942"><ele>1070.3333333333333</ele><time>2026-04-19T10:15:22.001Z</time></trkpt><trkpt lat="45.8860016061748" lon="11.53844152252265"><ele>1071.0</ele><time>2026-04-19T10:15:23.001Z</time></trkpt><trkpt lat="45.88609900661337" lon="11.53862169764746"><ele>1071.75</ele><time>2026-04-19T10:15:24.001Z</time></trkpt><trkpt lat="45.88620031018059" lon="11.538788052649249"><ele>1072.5</ele><time>2026-04-19T10:15:25.001Z</time></trkpt><trkpt lat="45.886306816843906" lon="11.538933635799737"><ele>1073.25</ele><time>2026-04-19T10:15:26.001Z</time></trkpt><trkpt lat="45.88641696733711" lon="11.539069021294333"><ele>1074.0</ele><time>2026-04-19T10:15:27.001Z</time></trkpt><trkpt lat="45.8865257064789" lon="11.539203708096156"><ele>1074.0</ele><time>2026-04-19T10:15:28.001Z</time></trkpt><trkpt lat="45.886630710725065" lon="11.539328587933591"><ele>1074.0</ele><time>2026-04-19T10:15:29.001Z</time></trkpt><trkpt lat="45.88674668824539" lon="11.539441763925332"><ele>1074.0</ele><time>2026-04-19T10:15:30.001Z</time></trkpt><trkpt lat="45.88686164708916" lon="11.539564477524808"><ele>1074.0</ele><time>2026-04-19T10:15:31.002Z</time></trkpt><trkpt lat="45.88696559570378" lon="11.539689728745488"><ele>1074.0</ele><time>2026-04-19T10:15:32.002Z</time></trkpt><trkpt lat="45.887080402915785" lon="11.53982339499616"><ele>1074.0</ele><time>2026-04-19T10:15:33.002Z</time></trkpt><trkpt lat="45.88719159434631" lon="11.539937377998472"><ele>1074.0</ele><time>2026-04-19T10:15:34.002Z</time></trkpt><trkpt lat="45.88732142809064" lon="11.540058414210353"><ele>1074.0</ele><time>2026-04-19T10:15:35.002Z</time></trkpt><trkpt lat="45.88742488629875" lon="11.54017316543489"><ele>1074.0</ele><time>2026-04-19T10:15:36.002Z</time></trkpt><trkpt lat="45.88753627519472" lon="11.540286793823897"><ele>1074.0</ele><time>2026-04-19T10:15:37.002Z</time></trkpt><trkpt lat="45.887649206885875" lon="11.540414697398052"><ele>1074.0</ele><time>2026-04-19T10:15:38.002Z</time></trkpt><trkpt lat="45.887763821847145" lon="11.540537617028729"><ele>1074.0</ele><time>2026-04-19T10:15:39.002Z</time></trkpt><trkpt lat="45.887874513466414" lon="11.540656621205626"><ele>1072.75</ele><time>2026-04-19T10:15:40.002Z</time></trkpt><trkpt lat="45.88799810061043" lon="11.540764203160805"><ele>1071.5</ele><time>2026-04-19T10:15:41.002Z</time></trkpt><trkpt lat="45.888130541879626" lon="11.540840772882417"><ele>1070.25</ele><time>2026-04-19T10:15:42.002Z</time></trkpt><trkpt lat="45.88826206693546" lon="11.54087731227141"><ele>1069.0</ele><time>2026-04-19T10:15:43.002Z</time></trkpt><trkpt lat="45.88841958377287" lon="11.540892879956676"><ele>1070.0</ele><time>2026-04-19T10:15:44.002Z</time></trkpt><trkpt lat="45.888577815178245" lon="11.540904738413035"><ele>1071.0</ele><time>2026-04-19T10:15:45.002Z</time></trkpt><trkpt lat="45.8887173284315" lon="11.540939528994317"><ele>1072.0</ele><time>2026-04-19T10:15:46.002Z</time></trkpt><trkpt lat="45.88885341874847" lon="11.540956956069214"><ele>1073.0</ele><time>2026-04-19T10:15:47.002Z</time></trkpt><trkpt lat="45.8889736128335" lon="11.540972306836636"><ele>1073.0</ele><time>2026-04-19T10:15:48.002Z</time></trkpt><trkpt lat="45.889092740335094" lon="11.540988543515011"><ele>1073.0</ele><time>2026-04-19T10:15:49.002Z</time></trkpt><trkpt lat="45.88918264708062" lon="11.54101300423429"><ele>1073.0</ele><time>2026-04-19T10:15:50.002Z</time></trkpt><trkpt lat="45.889288597454886" lon="11.541028880887135"><ele>1073.0</ele><time>2026-04-19T10:15:51.002Z</time></trkpt><trkpt lat="45.88940325685607" lon="11.541035360169039"><ele>1073.0</ele><time>2026-04-19T10:15:52Z</time></trkpt><trkpt lat="45.889500621529066" lon="11.541052662630522"><ele>1073.6</ele><time>2026-04-19T10:15:53Z</time></trkpt><trkpt lat="45.88960222125252" lon="11.541097798862848"><ele>1074.1999999999998</ele><time>2026-04-19T10:15:54Z</time></trkpt><trkpt lat="45.889712537242495" lon="11.541157736374736"><ele>1074.8</ele><time>2026-04-19T10:15:55Z</time></trkpt><trkpt lat="45.889819636399764" lon="11.541208970374527"><ele>1075.3999999999999</ele><time>2026-04-19T10:15:56Z</time></trkpt><trkpt lat="45.889923331230456" lon="11.54126094095634"><ele>1076.0</ele><time>2026-04-19T10:15:57Z</time></trkpt><trkpt lat="45.89002816001298" lon="11.541308912683832"><ele>1075.2</ele><time>2026-04-19T10:15:58Z</time></trkpt><trkpt lat="45.890124308851135" lon="11.541369082727826"><ele>1074.3999999999999</ele><time>2026-04-19T10:15:59Z</time></trkpt><trkpt lat="45.8902245450041" lon="11.541454513662687"><ele>1073.6</ele><time>2026-04-19T10:16:00Z</time></trkpt><trkpt lat="45.89031843859448" lon="11.54152642201239"><ele>1072.8</ele><time>2026-04-19T10:16:01Z</time></trkpt><trkpt lat="45.89040563082522" lon="11.541588547885386"><ele>1072.0</ele><time>2026-04-19T10:16:02Z</time></trkpt><trkpt lat="45.89049145648275" lon="11.541653866285985"><ele>1072.0</ele><time>2026-04-19T10:16:03Z</time></trkpt><trkpt lat="45.890580172229704" lon="11.541727837475586"><ele>1072.0</ele><time>2026-04-19T10:16:04Z</time></trkpt><trkpt lat="45.890668078467634" lon="11.541803148666473"><ele>1072.0</ele><time>2026-04-19T10:16:05Z</time></trkpt><trkpt lat="45.89075894351096" lon="11.541878031237523"><ele>1072.0</ele><time>2026-04-19T10:16:06Z</time></trkpt><trkpt lat="45.8908635945519" lon="11.54197623455009"><ele>1072.0</ele><time>2026-04-19T10:16:07Z</time></trkpt><trkpt lat="45.89095148937658" lon="11.542045277157241"><ele>1072.6</ele><time>2026-04-19T10:16:08Z</time></trkpt><trkpt lat="45.89104391760874" lon="11.54212848873213"><ele>1073.2</ele><time>2026-04-19T10:16:09Z</time></trkpt><trkpt lat="45.89112770821456" lon="11.542198953437717"><ele>1073.8</ele><time>2026-04-19T10:16:10Z</time></trkpt><trkpt lat="45.891216971371584" lon="11.542275373163692"><ele>1074.4</ele><time>2026-04-19T10:16:11Z</time></trkpt><trkpt lat="45.89131106527203" lon="11.54235300930573"><ele>1075.0</ele><time>2026-04-19T10:16:12Z</time></trkpt><trkpt lat="45.89140612487684" lon="11.54243910507793"><ele>1075.0</ele><time>2026-04-19T10:16:13Z</time></trkpt><trkpt lat="45.8914891501576" lon="11.542521870764011"><ele>1075.0</ele><time>2026-04-19T10:16:14Z</time></trkpt><trkpt lat="45.891562120113306" lon="11.542595777968382"><ele>1075.0</ele><time>2026-04-19T10:16:15Z</time></trkpt><trkpt lat="45.89163983777951" lon="11.542673565942948"><ele>1075.0</ele><time>2026-04-19T10:16:16Z</time></trkpt><trkpt lat="45.891736595905115" lon="11.542776976959255"><ele>1075.0</ele><time>2026-04-19T10:16:17Z</time></trkpt><trkpt lat="45.891811989058446" lon="11.542870210137766"><ele>1074.6</ele><time>2026-04-19T10:16:18Z</time></trkpt><trkpt lat="45.89188285271255" lon="11.54296870018236"><ele>1074.2</ele><time>2026-04-19T10:16:19Z</time></trkpt><trkpt lat="45.89195144927007" lon="11.543069810903054"><ele>1073.8</ele><time>2026-04-19T10:16:20Z</time></trkpt><trkpt lat="45.89202196834147" lon="11.543165923070541"><ele>1073.4</ele><time>2026-04-19T10:16:21Z</time></trkpt><trkpt lat="45.89209139231077" lon="11.543267305134824"><ele>1073.0</ele><time>2026-04-19T10:16:22Z</time></trkpt><trkpt lat="45.8921432294933" lon="11.54336535313567"><ele>1073.0</ele><time>2026-04-19T10:16:23Z</time></trkpt><trkpt lat="45.89219255215768" lon="11.543468462151568"><ele>1073.0</ele><time>2026-04-19T10:16:24Z</time></trkpt><trkpt lat="45.89224782599132" lon="11.543560944961799"><ele>1073.0</ele><time>2026-04-19T10:16:25Z</time></trkpt><trkpt lat="45.892292176896774" lon="11.543673372510632"><ele>1073.0</ele><time>2026-04-19T10:16:26Z</time></trkpt><trkpt lat="45.89233501787828" lon="11.543795819419769"><ele>1073.0</ele><time>2026-04-19T10:16:27Z</time></trkpt><trkpt lat="45.89239081442432" lon="11.543886235098963"><ele>1073.0</ele><time>2026-04-19T10:16:28Z</time></trkpt><trkpt lat="45.89243797355125" lon="11.544008084142451"><ele>1073.4</ele><time>2026-04-19T10:16:29Z</time></trkpt><trkpt lat="45.89247842310836" lon="11.54411709397198"><ele>1073.8</ele><time>2026-04-19T10:16:30Z</time></trkpt><trkpt lat="45.89249723935122" lon="11.54424685213387"><ele>1074.2</ele><time>2026-04-19T10:16:31Z</time></trkpt><trkpt lat="45.89249892660155" lon="11.544384173893636"><ele>1074.6</ele><time>2026-04-19T10:16:32.001Z</time></trkpt><trkpt lat="45.89253593280566" lon="11.54452497930093"><ele>1075.0</ele><time>2026-04-19T10:16:33.001Z</time></trkpt><trkpt lat="45.892583617587334" lon="11.544673326485622"><ele>1076.0</ele><time>2026-04-19T10:16:34.001Z</time></trkpt><trkpt lat="45.89262587835135" lon="11.544824883087113"><ele>1077.0</ele><time>2026-04-19T10:16:35.001Z</time></trkpt><trkpt lat="45.89267949653379" lon="11.544971359646766"><ele>1078.0</ele><time>2026-04-19T10:16:36.001Z</time></trkpt><trkpt lat="45.8927350614723" lon="11.545106649477697"><ele>1079.0</ele><time>2026-04-19T10:16:37.001Z</time></trkpt><trkpt lat="45.89279485392884" lon="11.545257946498392"><ele>1079.0</ele><time>2026-04-19T10:16:38.001Z</time></trkpt><trkpt lat="45.89283161317841" lon="11.545401369601032"><ele>1079.0</ele><time>2026-04-19T10:16:39.001Z</time></trkpt><trkpt lat="45.892873783650884" lon="11.545551743781404"><ele>1079.0</ele><time>2026-04-19T10:16:40.001Z</time></trkpt><trkpt lat="45.89291759284011" lon="11.545693369623335"><ele>1079.0</ele><time>2026-04-19T10:16:41.001Z</time></trkpt><trkpt lat="45.892957376043135" lon="11.545837219096612"><ele>1079.0</ele><time>2026-04-19T10:16:42.001Z</time></trkpt><trkpt lat="45.892975596486394" lon="11.545992418407018"><ele>1079.0</ele><time>2026-04-19T10:16:43.001Z</time></trkpt><trkpt lat="45.89298885957882" lon="11.546142524146427"><ele>1079.0</ele><time>2026-04-19T10:16:44.001Z</time></trkpt><trkpt lat="45.89299253989219" lon="11.54630010128376"><ele>1079.0</ele><time>2026-04-19T10:16:45.001Z</time></trkpt><trkpt lat="45.89296580200414" lon="11.546437470584726"><ele>1079.0</ele><time>2026-04-19T10:16:46.001Z</time></trkpt><trkpt lat="45.89292974367846" lon="11.546577466050412"><ele>1079.0</ele><time>2026-04-19T10:16:47.001Z</time></trkpt><trkpt lat="45.892886164714234" lon="11.546697344897224"><ele>1079.2</ele><time>2026-04-19T10:16:48.001Z</time></trkpt><trkpt lat="45.892828346881146" lon="11.5467761689802"><ele>1079.4</ele><time>2026-04-19T10:16:49.001Z</time></trkpt><trkpt lat="45.89276559386966" lon="11.546875089769271"><ele>1079.6</ele><time>2026-04-19T10:16:50.001Z</time></trkpt><trkpt lat="45.892679150172036" lon="11.547010534226654"><ele>1079.8</ele><time>2026-04-19T10:16:51.001Z</time></trkpt><trkpt lat="45.89263474720572" lon="11.547130296066014"><ele>1080.0</ele><time>2026-04-19T10:16:52.001Z</time></trkpt><trkpt lat="45.892578109815545" lon="11.547235491414074"><ele>1081.0</ele><time>2026-04-19T10:16:53.001Z</time></trkpt><trkpt lat="45.89253444513223" lon="11.547327798790906"><ele>1082.0</ele><time>2026-04-19T10:16:54.001Z</time></trkpt><trkpt lat="45.892507690598954" lon="11.547411086556961"><ele>1083.0</ele><time>2026-04-19T10:16:55.001Z</time></trkpt><trkpt lat="45.89250728988431" lon="11.54756919027985"><ele>1084.0</ele><time>2026-04-19T10:16:57.001Z</time></trkpt><trkpt lat="45.892485724357755" lon="11.547666668583483"><ele>1085.0</ele><time>2026-04-19T10:16:58.001Z</time></trkpt><trkpt lat="45.89247592427647" lon="11.547786275744604"><ele>1086.0</ele><time>2026-04-19T10:16:59.001Z</time></trkpt><trkpt lat="45.89246910110061" lon="11.547905946563953"><ele>1086.0</ele><time>2026-04-19T10:17:00.001Z</time></trkpt><trkpt lat="45.89246117887673" lon="11.548047902914396"><ele>1086.0</ele><time>2026-04-19T10:17:01.001Z</time></trkpt><trkpt lat="45.892452245583904" lon="11.548179658261004"><ele>1086.0</ele><time>2026-04-19T10:17:02.001Z</time></trkpt><trkpt lat="45.89244201183376" lon="11.548320021415329"><ele>1086.0</ele><time>2026-04-19T10:17:03.001Z</time></trkpt><trkpt lat="45.89242096299009" lon="11.54848054006784"><ele>1086.0</ele><time>2026-04-19T10:17:04.001Z</time></trkpt><trkpt lat="45.89239848394391" lon="11.548638520990275"><ele>1086.0</ele><time>2026-04-19T10:17:05.001Z</time></trkpt><trkpt lat="45.89237297626672" lon="11.54880698284554"><ele>1086.0</ele><time>2026-04-19T10:17:06.001Z</time></trkpt><trkpt lat="45.89235493498834" lon="11.548948685861104"><ele>1086.0</ele><time>2026-04-19T10:17:07.001Z</time></trkpt><trkpt lat="45.892336551163915" lon="11.549110327247163"><ele>1086.0</ele><time>2026-04-19T10:17:08.001Z</time></trkpt><trkpt lat="45.89231701360591" lon="11.549263337370656"><ele>1086.0</ele><time>2026-04-19T10:17:09.001Z</time></trkpt><trkpt lat="45.89228671195644" lon="11.54941160034711"><ele>1086.8</ele><time>2026-04-19T10:17:10.001Z</time></trkpt><trkpt lat="45.89227448231993" lon="11.549568324489869"><ele>1087.6</ele><time>2026-04-19T10:17:11.001Z</time></trkpt><trkpt lat="45.892243491036744" lon="11.549719178264862"><ele>1088.4</ele><time>2026-04-19T10:17:12.001Z</time></trkpt><trkpt lat="45.892213397735546" lon="11.549868645498528"><ele>1089.2</ele><time>2026-04-19T10:17:13.001Z</time></trkpt><trkpt lat="45.89219955689784" lon="11.550020103187972"><ele>1090.0</ele><time>2026-04-19T10:17:14.001Z</time></trkpt><trkpt lat="45.89218329671093" lon="11.550173724693005"><ele>1090.0</ele><time>2026-04-19T10:17:15.001Z</time></trkpt><trkpt lat="45.89216619006793" lon="11.55032879596098"><ele>1090.0</ele><time>2026-04-19T10:17:16.002Z</time></trkpt><trkpt lat="45.89213855113932" lon="11.550490113882365"><ele>1090.0</ele><time>2026-04-19T10:17:17.002Z</time></trkpt><trkpt lat="45.89211243470539" lon="11.550654910352934"><ele>1090.0</ele><time>2026-04-19T10:17:18.002Z</time></trkpt><trkpt lat="45.89211770047562" lon="11.550814390107295"><ele>1091.5</ele><time>2026-04-19T10:17:19.002Z</time></trkpt><trkpt lat="45.892097246726536" lon="11.55098641118255"><ele>1093.0</ele><time>2026-04-19T10:17:20.002Z</time></trkpt><trkpt lat="45.892076092251706" lon="11.551159708788354"><ele>1094.5</ele><time>2026-04-19T10:17:21.002Z</time></trkpt><trkpt lat="45.89205322086313" lon="11.551340059849645"><ele>1096.0</ele><time>2026-04-19T10:17:22.002Z</time></trkpt><trkpt lat="45.89202778828992" lon="11.551518443386602"><ele>1096.3999999999999</ele><time>2026-04-19T10:17:23.002Z</time></trkpt><trkpt lat="45.891998360842145" lon="11.551691176131284"><ele>1096.8</ele><time>2026-04-19T10:17:24.002Z</time></trkpt><trkpt lat="45.891978023170665" lon="11.551853771944016"><ele>1097.1999999999998</ele><time>2026-04-19T10:17:25.002Z</time></trkpt><trkpt lat="45.891953902679184" lon="11.552008671357475"><ele>1097.6</ele><time>2026-04-19T10:17:26.002Z</time></trkpt><trkpt lat="45.89194891161774" lon="11.552150533727039"><ele>1098.0</ele><time>2026-04-19T10:17:27.002Z</time></trkpt><trkpt lat="45.89193113416167" lon="11.552271728074116"><ele>1098.4</ele><time>2026-04-19T10:17:28.002Z</time></trkpt><trkpt lat="45.891916683079344" lon="11.552371480445844"><ele>1098.8</ele><time>2026-04-19T10:17:29.002Z</time></trkpt><trkpt lat="45.89195717647977" lon="11.55249555853119"><ele>1099.2</ele><time>2026-04-19T10:17:30.002Z</time></trkpt><trkpt lat="45.89200326277074" lon="11.552624847080837"><ele>1099.6</ele><time>2026-04-19T10:17:31.002Z</time></trkpt><trkpt lat="45.89203226843921" lon="11.55275881418045"><ele>1100.0</ele><time>2026-04-19T10:17:32.002Z</time></trkpt><trkpt lat="45.892055566955754" lon="11.552888403878535"><ele>1100.4</ele><time>2026-04-19T10:17:33.002Z</time></trkpt><trkpt lat="45.89207203674036" lon="11.553031876552604"><ele>1100.8</ele><time>2026-04-19T10:17:34.002Z</time></trkpt><trkpt lat="45.8920721081413" lon="11.553185695537735"><ele>1101.2</ele><time>2026-04-19T10:17:35.002Z</time></trkpt><trkpt lat="45.89206050680229" lon="11.553361831231294"><ele>1101.6</ele><time>2026-04-19T10:17:36.002Z</time></trkpt><trkpt lat="45.89204878562352" lon="11.553528427352154"><ele>1102.0</ele><time>2026-04-19T10:17:37.002Z</time></trkpt><trkpt lat="45.89203983547097" lon="11.55370376121239"><ele>1104.0</ele><time>2026-04-19T10:17:38.002Z</time></trkpt><trkpt lat="45.89203995245856" lon="11.553874623004514"><ele>1106.0</ele><time>2026-04-19T10:17:39.002Z</time></trkpt><trkpt lat="45.89204415182422" lon="11.55406207062678"><ele>1108.0</ele><time>2026-04-19T10:17:40.002Z</time></trkpt><trkpt lat="45.892036498087265" lon="11.55425511975361"><ele>1110.0</ele><time>2026-04-19T10:17:41.002Z</time></trkpt><trkpt lat="45.89205181359558" lon="11.554446279163033"><ele>1110.75</ele><time>2026-04-19T10:17:42.002Z</time></trkpt><trkpt lat="45.89207499767548" lon="11.55463646672943"><ele>1111.5</ele><time>2026-04-19T10:17:43.002Z</time></trkpt><trkpt lat="45.89210537333736" lon="11.554831224524378"><ele>1112.25</ele><time>2026-04-19T10:17:44.002Z</time></trkpt><trkpt lat="45.89214992821699" lon="11.555025412439491"><ele>1113.0</ele><time>2026-04-19T10:17:45.002Z</time></trkpt><trkpt lat="45.892198463728036" lon="11.555225223596466"><ele>1113.0</ele><time>2026-04-19T10:17:46.002Z</time></trkpt><trkpt lat="45.89223531652483" lon="11.555443428535419"><ele>1113.0</ele><time>2026-04-19T10:17:47.002Z</time></trkpt><trkpt lat="45.892261831015475" lon="11.555673577158531"><ele>1113.0</ele><time>2026-04-19T10:17:48.002Z</time></trkpt><trkpt lat="45.89228242881442" lon="11.555891524957316"><ele>1113.0</ele><time>2026-04-19T10:17:49.002Z</time></trkpt><trkpt lat="45.89231158751645" lon="11.556104878722447"><ele>1113.0</ele><time>2026-04-19T10:17:50.002Z</time></trkpt><trkpt lat="45.89236274206771" lon="11.556315624912175"><ele>1113.0</ele><time>2026-04-19T10:17:51.002Z</time></trkpt><trkpt lat="45.89243190385784" lon="11.556514252587496"><ele>1112.3333333333333</ele><time>2026-04-19T10:17:52.002Z</time></trkpt><trkpt lat="45.89250791267215" lon="11.556703462802343"><ele>1111.6666666666665</ele><time>2026-04-19T10:17:53.002Z</time></trkpt><trkpt lat="45.892592264427805" lon="11.55688810652764"><ele>1111.0</ele><time>2026-04-19T10:17:54.002Z</time></trkpt><trkpt lat="45.892689626357765" lon="11.557060294686922"><ele>1115.6666666666665</ele><time>2026-04-19T10:17:55.002Z</time></trkpt><trkpt lat="45.89277756026962" lon="11.557254844691684"><ele>1120.3333333333333</ele><time>2026-04-19T10:17:56.002Z</time></trkpt><trkpt lat="45.89288836749194" lon="11.557446354245394"><ele>1125.0</ele><time>2026-04-19T10:17:57.002Z</time></trkpt><trkpt lat="45.893002241548274" lon="11.557636724269484"><ele>1125.0</ele><time>2026-04-19T10:17:58Z</time></trkpt><trkpt lat="45.893115907587145" lon="11.55781055554892"><ele>1125.0</ele><time>2026-04-19T10:17:59Z</time></trkpt><trkpt lat="45.89322742540565" lon="11.557977820153527"><ele>1125.0</ele><time>2026-04-19T10:18:00Z</time></trkpt><trkpt lat="45.893340005096086" lon="11.55814335210218"><ele>1130.3333333333333</ele><time>2026-04-19T10:18:01Z</time></trkpt><trkpt lat="45.89344947963845" lon="11.55829977816127"><ele>1135.6666666666665</ele><time>2026-04-19T10:18:02Z</time></trkpt><trkpt lat="45.89356580302977" lon="11.558445642634846"><ele>1141.0</ele><time>2026-04-19T10:18:03Z</time></trkpt><trkpt lat="45.893674788997984" lon="11.558607421421897"><ele>1137.0</ele><time>2026-04-19T10:18:04Z</time></trkpt><trkpt lat="45.893798318465166" lon="11.558765694806821"><ele>1133.0</ele><time>2026-04-19T10:18:05Z</time></trkpt><trkpt lat="45.89395278223104" lon="11.558921231719049"><ele>1129.0</ele><time>2026-04-19T10:18:06Z</time></trkpt><trkpt lat="45.894134351595106" lon="11.559075878573523"><ele>1144.0</ele><time>2026-04-19T10:18:07Z</time></trkpt><trkpt lat="45.89432450062547" lon="11.55926257325093"><ele>1159.0</ele><time>2026-04-19T10:18:08Z</time></trkpt><trkpt lat="45.89452969335659" lon="11.559462358318031"><ele>1153.3333333333333</ele><time>2026-04-19T10:18:09Z</time></trkpt><trkpt lat="45.894695743314614" lon="11.559686494866297"><ele>1147.6666666666667</ele><time>2026-04-19T10:18:10Z</time></trkpt><trkpt lat="45.894848784572446" lon="11.559902770319429"><ele>1142.0</ele><time>2026-04-19T10:18:11Z</time></trkpt><trkpt lat="45.89498055386629" lon="11.560095217990602"><ele>1140.75</ele><time>2026-04-19T10:18:12Z</time></trkpt><trkpt lat="45.895111858336094" lon="11.560256215254144"><ele>1139.5</ele><time>2026-04-19T10:18:13Z</time></trkpt><trkpt lat="45.89519938869797" lon="11.560421137367495"><ele>1138.25</ele><time>2026-04-19T10:18:14Z</time></trkpt><trkpt lat="45.89528242331898" lon="11.560557762817206"><ele>1137.0</ele><time>2026-04-19T10:18:15Z</time></trkpt><trkpt lat="45.89537052507641" lon="11.56065324214561"><ele>1137.0</ele><time>2026-04-19T10:18:16Z</time></trkpt><trkpt lat="45.89548112118824" lon="11.560697592768674"><ele>1137.0</ele><time>2026-04-19T10:18:17Z</time></trkpt><trkpt lat="45.895608101379835" lon="11.560663290671013"><ele>1137.0</ele><time>2026-04-19T10:18:18Z</time></trkpt><trkpt lat="45.89572367279655" lon="11.560563284131197"><ele>1137.0</ele><time>2026-04-19T10:18:19Z</time></trkpt><trkpt lat="45.895823369272975" lon="11.560395248757766"><ele>1136.0</ele><time>2026-04-19T10:18:20Z</time></trkpt><trkpt lat="45.8959081503415" lon="11.56017877867601"><ele>1135.0</ele><time>2026-04-19T10:18:21Z</time></trkpt><trkpt lat="45.89597126452723" lon="11.559913742404733"><ele>1134.0</ele><time>2026-04-19T10:18:22Z</time></trkpt><trkpt lat="45.895985610418705" lon="11.55967879213969"><ele>1143.5</ele><time>2026-04-19T10:18:23Z</time></trkpt><trkpt lat="45.89601846798494" lon="11.559444487224932"><ele>1153.0</ele><time>2026-04-19T10:18:24Z</time></trkpt><trkpt lat="45.896034283447754" lon="11.559268203831474"><ele>1162.5</ele><time>2026-04-19T10:18:25Z</time></trkpt><trkpt lat="45.89608133987325" lon="11.559127995777938"><ele>1172.0</ele><time>2026-04-19T10:18:26Z</time></trkpt><trkpt lat="45.89617750628004" lon="11.559045806696037"><ele>1172.0</ele><time>2026-04-19T10:18:27Z</time></trkpt><trkpt lat="45.89630390773872" lon="11.55906268722178"><ele>1172.0</ele><time>2026-04-19T10:18:28Z</time></trkpt><trkpt lat="45.896451895376934" lon="11.55906807217033"><ele>1172.0</ele><time>2026-04-19T10:18:29.001Z</time></trkpt><trkpt lat="45.896622724124285" lon="11.559107002252398"><ele>1172.0</ele><time>2026-04-19T10:18:30.001Z</time></trkpt><trkpt lat="45.896793217958944" lon="11.559113600040995"><ele>1174.0</ele><time>2026-04-19T10:18:31.001Z</time></trkpt><trkpt lat="45.89695782190443" lon="11.55907604836008"><ele>1176.0</ele><time>2026-04-19T10:18:32.001Z</time></trkpt><trkpt lat="45.897102477189634" lon="11.559021556148323"><ele>1178.0</ele><time>2026-04-19T10:18:33.001Z</time></trkpt><trkpt lat="45.897211078689566" lon="11.558964948389487"><ele>1180.0</ele><time>2026-04-19T10:18:34.001Z</time></trkpt><trkpt lat="45.89746841228052" lon="11.559001715146438"><ele>1180.6666666666665</ele><time>2026-04-19T10:18:35.001Z</time></trkpt><trkpt lat="45.897636762311016" lon="11.559163813536912"><ele>1181.3333333333333</ele><time>2026-04-19T10:18:36.001Z</time></trkpt><trkpt lat="45.89782337008455" lon="11.559383008467469"><ele>1182.0</ele><time>2026-04-19T10:18:37.001Z</time></trkpt><trkpt lat="45.89796747354959" lon="11.55961681257058"><ele>1182.0</ele><time>2026-04-19T10:18:38.001Z</time></trkpt><trkpt lat="45.898107558235935" lon="11.559825948032527"><ele>1182.0</ele><time>2026-04-19T10:18:39.001Z</time></trkpt><trkpt lat="45.898337419591016" lon="11.560169489254235"><ele>1186.3333333333333</ele><time>2026-04-19T10:18:40.001Z</time></trkpt><trkpt lat="45.89844235820405" lon="11.560382611736836"><ele>1190.6666666666665</ele><time>2026-04-19T10:18:41.001Z</time></trkpt><trkpt lat="45.89854119532813" lon="11.560561994874485"><ele>1195.0</ele><time>2026-04-19T10:18:42.001Z</time></trkpt><trkpt lat="45.89863051815462" lon="11.560697952654222"><ele>1195.0</ele><time>2026-04-19T10:18:43.001Z</time></trkpt><trkpt lat="45.89876484403531" lon="11.560825416228985"><ele>1195.0</ele><time>2026-04-19T10:18:44.001Z</time></trkpt><trkpt lat="45.898927948692496" lon="11.560935319786909"><ele>1195.0</ele><time>2026-04-19T10:18:45.001Z</time></trkpt><trkpt lat="45.89907100566913" lon="11.561035173245743"><ele>1195.0</ele><time>2026-04-19T10:18:46.001Z</time></trkpt><trkpt lat="45.89919481426482" lon="11.561120106604184"><ele>1195.0</ele><time>2026-04-19T10:18:47.001Z</time></trkpt><trkpt lat="45.89930758497843" lon="11.561207599158852"><ele>1195.0</ele><time>2026-04-19T10:18:48.001Z</time></trkpt><trkpt lat="45.899450231536186" lon="11.561258070480852"><ele>1195.0</ele><time>2026-04-19T10:18:49.001Z</time></trkpt><trkpt lat="45.89961919053431" lon="11.56127368165769"><ele>1197.0</ele><time>2026-04-19T10:18:50.001Z</time></trkpt><trkpt lat="45.899755302891556" lon="11.56111356293977"><ele>1199.0</ele><time>2026-04-19T10:18:51.001Z</time></trkpt><trkpt lat="45.8998393935471" lon="11.560946436302501"><ele>1201.0</ele><time>2026-04-19T10:18:52.001Z</time></trkpt><trkpt lat="45.89997047186167" lon="11.56081593735823"><ele>1206.6666666666665</ele><time>2026-04-19T10:18:53.001Z</time></trkpt><trkpt lat="45.90015287673096" lon="11.560664127703971"><ele>1212.3333333333333</ele><time>2026-04-19T10:18:54.001Z</time></trkpt><trkpt lat="45.90029219780301" lon="11.560514166370373"><ele>1218.0</ele><time>2026-04-19T10:18:55.001Z</time></trkpt><trkpt lat="45.90038749497099" lon="11.560402324136419"><ele>1218.0</ele><time>2026-04-19T10:18:56.001Z</time></trkpt><trkpt lat="45.900460083668406" lon="11.56033751455371"><ele>1218.0</ele><time>2026-04-19T10:18:57.001Z</time></trkpt><trkpt lat="45.900538002011366" lon="11.560310248843466"><ele>1218.0</ele><time>2026-04-19T10:18:58.001Z</time></trkpt><trkpt lat="45.90060309941979" lon="11.560341271818444"><ele>1218.0</ele><time>2026-04-19T10:18:59.001Z</time></trkpt><trkpt lat="45.900648841851" lon="11.560473207368075"><ele>1218.0</ele><time>2026-04-19T10:19:00.001Z</time></trkpt><trkpt lat="45.90066109549976" lon="11.560661068158105"><ele>1218.0</ele><time>2026-04-19T10:19:01.001Z</time></trkpt><trkpt lat="45.900716631564634" lon="11.560877892186934"><ele>1218.0</ele><time>2026-04-19T10:19:02.001Z</time></trkpt><trkpt lat="45.90080728352715" lon="11.56112475832072"><ele>1218.0</ele><time>2026-04-19T10:19:03.001Z</time></trkpt><trkpt lat="45.900893987472166" lon="11.561346661797346"><ele>1225.0</ele><time>2026-04-19T10:19:04.001Z</time></trkpt><trkpt lat="45.90097386149751" lon="11.561521707975727"><ele>1232.0</ele><time>2026-04-19T10:19:05.001Z</time></trkpt><trkpt lat="45.901081263385876" lon="11.561668993166071"><ele>1239.0</ele><time>2026-04-19T10:19:06.001Z</time></trkpt><trkpt lat="45.901219291446914" lon="11.561788914019965"><ele>1239.0</ele><time>2026-04-19T10:19:07.001Z</time></trkpt><trkpt lat="45.90134731419715" lon="11.561872299413348"><ele>1239.0</ele><time>2026-04-19T10:19:08.001Z</time></trkpt><trkpt lat="45.90140624509862" lon="11.562012841981689"><ele>1239.0</ele><time>2026-04-19T10:19:09.001Z</time></trkpt><trkpt lat="45.901405208400995" lon="11.562132809427467"><ele>1239.0</ele><time>2026-04-19T10:19:10.001Z</time></trkpt><trkpt lat="45.90139286645953" lon="11.562344771808494"><ele>1239.0</ele><time>2026-04-19T10:19:11.001Z</time></trkpt><trkpt lat="45.90140569501416" lon="11.562594935778085"><ele>1239.0</ele><time>2026-04-19T10:19:12.001Z</time></trkpt><trkpt lat="45.9014119296196" lon="11.56286517468796"><ele>1239.0</ele><time>2026-04-19T10:19:13.001Z</time></trkpt><trkpt lat="45.90138356335069" lon="11.563098357578161"><ele>1239.25</ele><time>2026-04-19T10:19:14.001Z</time></trkpt><trkpt lat="45.90135164479129" lon="11.563294807132243"><ele>1239.5</ele><time>2026-04-19T10:19:15.002Z</time></trkpt><trkpt lat="45.90134412458062" lon="11.563436506554458"><ele>1239.75</ele><time>2026-04-19T10:19:16.002Z</time></trkpt><trkpt lat="45.90138770448947" lon="11.563584935329288"><ele>1240.0</ele><time>2026-04-19T10:19:17.002Z</time></trkpt><trkpt lat="45.90148361908953" lon="11.563728174566988"><ele>1237.3333333333333</ele><time>2026-04-19T10:19:18.002Z</time></trkpt><trkpt lat="45.901579288606385" lon="11.563885013850596"><ele>1234.6666666666667</ele><time>2026-04-19T10:19:19.002Z</time></trkpt><trkpt lat="45.9016838330046" lon="11.564073133393869"><ele>1232.0</ele><time>2026-04-19T10:19:20.002Z</time></trkpt><trkpt lat="45.90179316056581" lon="11.564274257668606"><ele>1235.6666666666667</ele><time>2026-04-19T10:19:21.002Z</time></trkpt><trkpt lat="45.90190844125661" lon="11.564491712775391"><ele>1239.3333333333333</ele><time>2026-04-19T10:19:22.002Z</time></trkpt><trkpt lat="45.902000031848814" lon="11.564659495296636"><ele>1243.0</ele><time>2026-04-19T10:19:23.002Z</time></trkpt><trkpt lat="45.90211722563324" lon="11.564787751496722"><ele>1243.0</ele><time>2026-04-19T10:19:24.002Z</time></trkpt><trkpt lat="45.90226545370786" lon="11.564865673383434"><ele>1243.0</ele><time>2026-04-19T10:19:25.002Z</time></trkpt><trkpt lat="45.90245448188022" lon="11.564985645158481"><ele>1243.0</ele><time>2026-04-19T10:19:26.002Z</time></trkpt><trkpt lat="45.90266421157785" lon="11.56513063092811"><ele>1244.5</ele><time>2026-04-19T10:19:27.002Z</time></trkpt><trkpt lat="45.902912194999494" lon="11.565302248544493"><ele>1246.0</ele><time>2026-04-19T10:19:28.002Z</time></trkpt><trkpt lat="45.903125665087735" lon="11.565469948538018"><ele>1246.0</ele><time>2026-04-19T10:19:29.002Z</time></trkpt><trkpt lat="45.9033571415077" lon="11.565631839418385"><ele>1246.0</ele><time>2026-04-19T10:19:30.002Z</time></trkpt><trkpt lat="45.903603725898165" lon="11.565794843926426"><ele>1260.0</ele><time>2026-04-19T10:19:31.002Z</time></trkpt><trkpt lat="45.903868888022714" lon="11.565926341751172"><ele>1274.0</ele><time>2026-04-19T10:19:32.002Z</time></trkpt><trkpt lat="45.90410122397252" lon="11.566004670099517"><ele>1276.0</ele><time>2026-04-19T10:19:33.002Z</time></trkpt><trkpt lat="45.904324862038365" lon="11.566143700058829"><ele>1278.0</ele><time>2026-04-19T10:19:34.002Z</time></trkpt><trkpt lat="45.904539685732054" lon="11.566305270951052"><ele>1278.0</ele><time>2026-04-19T10:19:35.002Z</time></trkpt><trkpt lat="45.904776611000955" lon="11.566494136843229"><ele>1278.0</ele><time>2026-04-19T10:19:36.002Z</time></trkpt><trkpt lat="45.90501674066248" lon="11.566684323329872"><ele>1280.5</ele><time>2026-04-19T10:19:37.002Z</time></trkpt><trkpt lat="45.905235094726315" lon="11.566858440962221"><ele>1283.0</ele><time>2026-04-19T10:19:38.002Z</time></trkpt><trkpt lat="45.90549766297185" lon="11.567093522507115"><ele>1283.0</ele><time>2026-04-19T10:19:39.002Z</time></trkpt><trkpt lat="45.905733974314" lon="11.567303897228214"><ele>1283.0</ele><time>2026-04-19T10:19:40.002Z</time></trkpt><trkpt lat="45.90596035924661" lon="11.567509537802"><ele>1300.0</ele><time>2026-04-19T10:19:41.002Z</time></trkpt><trkpt lat="45.90617847012855" lon="11.567679716486262"><ele>1317.0</ele><time>2026-04-19T10:19:42.002Z</time></trkpt><trkpt lat="45.90638536546347" lon="11.567822683680264"><ele>1315.0</ele><time>2026-04-19T10:19:43.002Z</time></trkpt><trkpt lat="45.90655794954379" lon="11.567947401735253"><ele>1313.0</ele><time>2026-04-19T10:19:44.002Z</time></trkpt><trkpt lat="45.90672536297127" lon="11.568070348959047"><ele>1311.0</ele><time>2026-04-19T10:19:45.002Z</time></trkpt><trkpt lat="45.90688299942231" lon="11.568162005014921"><ele>1311.0</ele><time>2026-04-19T10:19:46.002Z</time></trkpt><trkpt lat="45.90708257295487" lon="11.568233529771696"><ele>1311.0</ele><time>2026-04-19T10:19:47.002Z</time></trkpt><trkpt lat="45.90725738841895" lon="11.56834424178763"><ele>1311.0</ele><time>2026-04-19T10:19:48.002Z</time></trkpt><trkpt lat="45.90743578422449" lon="11.568411785213629"><ele>1316.0</ele><time>2026-04-19T10:19:49.002Z</time></trkpt><trkpt lat="45.90758798360295" lon="11.568451379327497"><ele>1321.0</ele><time>2026-04-19T10:19:50.002Z</time></trkpt><trkpt lat="45.90774459257928" lon="11.568463102811295"><ele>1326.0</ele><time>2026-04-19T10:19:51.002Z</time></trkpt><trkpt lat="45.90788630468568" lon="11.568422533581844"><ele>1326.0</ele><time>2026-04-19T10:19:52.002Z</time></trkpt><trkpt lat="45.90803238314833" lon="11.568431019785221"><ele>1326.0</ele><time>2026-04-19T10:19:53.002Z</time></trkpt><trkpt lat="45.90819054658294" lon="11.568418721593394"><ele>1326.0</ele><time>2026-04-19T10:19:54.002Z</time></trkpt><trkpt lat="45.9083421146814" lon="11.568403346138885"><ele>1329.25</ele><time>2026-04-19T10:19:55.002Z</time></trkpt><trkpt lat="45.90848866596452" lon="11.568388666286303"><ele>1332.5</ele><time>2026-04-19T10:19:56.002Z</time></trkpt><trkpt lat="45.90862208927662" lon="11.568374848514798"><ele>1335.75</ele><time>2026-04-19T10:19:57.002Z</time></trkpt><trkpt lat="45.908761511172145" lon="11.568358317978781"><ele>1339.0</ele><time>2026-04-19T10:19:58.002Z</time></trkpt><trkpt lat="45.908880463144115" lon="11.568342554974924"><ele>1339.0</ele><time>2026-04-19T10:19:59.002Z</time></trkpt><trkpt lat="45.90904483623015" lon="11.568316700860954"><ele>1339.0</ele><time>2026-04-19T10:20:00.002Z</time></trkpt><trkpt lat="45.90917825923148" lon="11.5682949560889"><ele>1339.0</ele><time>2026-04-19T10:20:01.003Z</time></trkpt><trkpt lat="45.909319598171415" lon="11.56827288332066"><ele>1339.0</ele><time>2026-04-19T10:20:02.003Z</time></trkpt><trkpt lat="45.90948007625253" lon="11.568255063813554"><ele>1340.25</ele><time>2026-04-19T10:20:03.003Z</time></trkpt><trkpt lat="45.90963175522798" lon="11.568227390727357"><ele>1341.5</ele><time>2026-04-19T10:20:04.001Z</time></trkpt><trkpt lat="45.90977136423525" lon="11.568219654456474"><ele>1342.75</ele><time>2026-04-19T10:20:05.001Z</time></trkpt><trkpt lat="45.90991195797306" lon="11.568190853298915"><ele>1344.0</ele><time>2026-04-19T10:20:06.001Z</time></trkpt><trkpt lat="45.910048995763894" lon="11.568143446698272"><ele>1345.8000000000002</ele><time>2026-04-19T10:20:07.001Z</time></trkpt><trkpt lat="45.91016563719437" lon="11.568100211158834"><ele>1347.6000000000001</ele><time>2026-04-19T10:20:08.001Z</time></trkpt><trkpt lat="45.910260887778435" lon="11.568056044592549"><ele>1349.4</ele><time>2026-04-19T10:20:09.001Z</time></trkpt><trkpt lat="45.910357986157365" lon="11.568044294142776"><ele>1351.2</ele><time>2026-04-19T10:20:10.001Z</time></trkpt><trkpt lat="45.91044307726979" lon="11.568028350487424"><ele>1353.0</ele><time>2026-04-19T10:20:11.001Z</time></trkpt><trkpt lat="45.910517290355905" lon="11.568014980374018"><ele>1353.0</ele><time>2026-04-19T10:20:12.001Z</time></trkpt><trkpt lat="45.91059732901949" lon="11.5679995253681"><ele>1353.0</ele><time>2026-04-19T10:20:13.001Z</time></trkpt><trkpt lat="45.91068587129478" lon="11.567977823668063"><ele>1353.0</ele><time>2026-04-19T10:20:14.001Z</time></trkpt><trkpt lat="45.91077679020647" lon="11.567950559324974"><ele>1353.0</ele><time>2026-04-19T10:20:15.001Z</time></trkpt><trkpt lat="45.910873945956666" lon="11.567911011460847"><ele>1353.0</ele><time>2026-04-19T10:20:16.001Z</time></trkpt><trkpt lat="45.91097590655314" lon="11.567853548024969"><ele>1359.2</ele><time>2026-04-19T10:20:17.001Z</time></trkpt><trkpt lat="45.91107291068996" lon="11.567804735064499"><ele>1365.4</ele><time>2026-04-19T10:20:18.001Z</time></trkpt><trkpt lat="45.91116541836191" lon="11.567774952067774"><ele>1371.6000000000001</ele><time>2026-04-19T10:20:19.001Z</time></trkpt><trkpt lat="45.91128539403534" lon="11.567753625692934"><ele>1377.8000000000002</ele><time>2026-04-19T10:20:20.001Z</time></trkpt><trkpt lat="45.911391002229145" lon="11.567741992424706"><ele>1384.0</ele><time>2026-04-19T10:20:21.001Z</time></trkpt><trkpt lat="45.91148731197835" lon="11.56771514026753"><ele>1384.0</ele><time>2026-04-19T10:20:22.001Z</time></trkpt><trkpt lat="45.911605704550965" lon="11.567690687782239"><ele>1384.0</ele><time>2026-04-19T10:20:23.001Z</time></trkpt><trkpt lat="45.91172303316481" lon="11.56772333974294"><ele>1384.0</ele><time>2026-04-19T10:20:24.001Z</time></trkpt><trkpt lat="45.91182634859014" lon="11.56777211990123"><ele>1384.0</ele><time>2026-04-19T10:20:25.001Z</time></trkpt><trkpt lat="45.91199934496295" lon="11.567873212155877"><ele>1385.4</ele><time>2026-04-19T10:20:26.001Z</time></trkpt><trkpt lat="45.91214106139202" lon="11.567924380488648"><ele>1386.8000000000002</ele><time>2026-04-19T10:20:27.001Z</time></trkpt><trkpt lat="45.91225469461381" lon="11.56792895721716"><ele>1388.1999999999998</ele><time>2026-04-19T10:20:28.001Z</time></trkpt><trkpt lat="45.912355409817565" lon="11.567965360265298"><ele>1389.6</ele><time>2026-04-19T10:20:29.001Z</time></trkpt><trkpt lat="45.9124351743034" lon="11.567946402712144"><ele>1391.0</ele><time>2026-04-19T10:20:30.001Z</time></trkpt><trkpt lat="45.9125460248773" lon="11.567916186031919"><ele>1391.6</ele><time>2026-04-19T10:20:32.001Z</time></trkpt><trkpt lat="45.91262357802097" lon="11.567833123211834"><ele>1392.1999999999998</ele><time>2026-04-19T10:21:47.002Z</time></trkpt><trkpt lat="45.91269862928342" lon="11.567790540512254"><ele>1392.8000000000002</ele><time>2026-04-19T10:21:48.002Z</time></trkpt><trkpt lat="45.91278186625999" lon="11.567731651616944"><ele>1393.4</ele><time>2026-04-19T10:21:49.002Z</time></trkpt><trkpt lat="45.9128618911009" lon="11.567653673049058"><ele>1394.0</ele><time>2026-04-19T10:21:50.002Z</time></trkpt><trkpt lat="45.91295623788488" lon="11.567630442078594"><ele>1394.0</ele><time>2026-04-19T10:21:51.002Z</time></trkpt><trkpt lat="45.913041124400365" lon="11.567572942439497"><ele>1394.0</ele><time>2026-04-19T10:21:52.002Z</time></trkpt><trkpt lat="45.913147846675734" lon="11.567549390460359"><ele>1394.0</ele><time>2026-04-19T10:21:53.002Z</time></trkpt><trkpt lat="45.913269585772376" lon="11.567527662283947"><ele>1394.0</ele><time>2026-04-19T10:21:54.002Z</time></trkpt><trkpt lat="45.91340675778492" lon="11.567499400420456"><ele>1397.0</ele><time>2026-04-19T10:21:55.002Z</time></trkpt><trkpt lat="45.913558010667444" lon="11.567448177758488"><ele>1400.0</ele><time>2026-04-19T10:21:56.002Z</time></trkpt><trkpt lat="45.913747043244925" lon="11.56737131730334"><ele>1403.0</ele><time>2026-04-19T10:21:57.002Z</time></trkpt><trkpt lat="45.91393534526603" lon="11.567276637901985"><ele>1403.0</ele><time>2026-04-19T10:21:58.002Z</time></trkpt><trkpt lat="45.9141432082097" lon="11.567161562076555"><ele>1403.0</ele><time>2026-04-19T10:21:59.002Z</time></trkpt><trkpt lat="45.91436641377849" lon="11.567041978668284"><ele>1405.0</ele><time>2026-04-19T10:22:00.002Z</time></trkpt><trkpt lat="45.91458822049389" lon="11.566961070018602"><ele>1407.0</ele><time>2026-04-19T10:22:01.002Z</time></trkpt><trkpt lat="45.914778293272924" lon="11.566877648993048"><ele>1409.0</ele><time>2026-04-19T10:22:02.002Z</time></trkpt><trkpt lat="45.91494971900468" lon="11.566796361710132"><ele>1410.25</ele><time>2026-04-19T10:22:03.002Z</time></trkpt><trkpt lat="45.91510253595662" lon="11.566720597337376"><ele>1411.5</ele><time>2026-04-19T10:22:04.003Z</time></trkpt><trkpt lat="45.91522963192396" lon="11.566650069974935"><ele>1412.75</ele><time>2026-04-19T10:22:05.003Z</time></trkpt><trkpt lat="45.915348490532985" lon="11.566545688360277"><ele>1414.0</ele><time>2026-04-19T10:22:06.003Z</time></trkpt><trkpt lat="45.91547912454355" lon="11.566462522097297"><ele>1414.0</ele><time>2026-04-19T10:22:07.003Z</time></trkpt><trkpt lat="45.91559219679635" lon="11.566373036382444"><ele>1414.0</ele><time>2026-04-19T10:22:08.003Z</time></trkpt><trkpt lat="45.91570559431776" lon="11.566282359395808"><ele>1414.0</ele><time>2026-04-19T10:22:09.003Z</time></trkpt><trkpt lat="45.9158181439529" lon="11.56618816076238"><ele>1414.0</ele><time>2026-04-19T10:22:10.001Z</time></trkpt><trkpt lat="45.91594130175833" lon="11.566082492992631"><ele>1413.5</ele><time>2026-04-19T10:22:11.001Z</time></trkpt><trkpt lat="45.91605083483241" lon="11.565979936381826"><ele>1413.0</ele><time>2026-04-19T10:22:12.001Z</time></trkpt><trkpt lat="45.916176199905046" lon="11.565851412246053"><ele>1412.5</ele><time>2026-04-19T10:22:13.001Z</time></trkpt><trkpt lat="45.916299581542766" lon="11.565725998434875"><ele>1412.0</ele><time>2026-04-19T10:22:14.001Z</time></trkpt><trkpt lat="45.916417369270526" lon="11.565591361304014"><ele>1412.0</ele><time>2026-04-19T10:22:15.001Z</time></trkpt><trkpt lat="45.91654525021897" lon="11.565459390248257"><ele>1412.0</ele><time>2026-04-19T10:22:16.001Z</time></trkpt><trkpt lat="45.91667448629866" lon="11.565312812293413"><ele>1412.0</ele><time>2026-04-19T10:22:17.001Z</time></trkpt><trkpt lat="45.91681103415675" lon="11.565196467799582"><ele>1416.3333333333335</ele><time>2026-04-19T10:22:18.001Z</time></trkpt><trkpt lat="45.91693989071501" lon="11.565062783686573"><ele>1420.6666666666667</ele><time>2026-04-19T10:22:19.001Z</time></trkpt><trkpt lat="45.91706737405496" lon="11.56490370278039"><ele>1425.0</ele><time>2026-04-19T10:22:20.001Z</time></trkpt><trkpt lat="45.917211099779344" lon="11.564739016913412"><ele>1425.0</ele><time>2026-04-19T10:22:21.001Z</time></trkpt><trkpt lat="45.917338236758454" lon="11.564556018267929"><ele>1425.0</ele><time>2026-04-19T10:22:22.001Z</time></trkpt><trkpt lat="45.91745879010765" lon="11.564343897214279"><ele>1425.0</ele><time>2026-04-19T10:22:23.001Z</time></trkpt><trkpt lat="45.917571496838995" lon="11.56414785619047"><ele>1426.25</ele><time>2026-04-19T10:22:24.001Z</time></trkpt><trkpt lat="45.91766940218866" lon="11.563973321294382"><ele>1427.5</ele><time>2026-04-19T10:22:25.001Z</time></trkpt><trkpt lat="45.91775140244107" lon="11.563807591013822"><ele>1428.75</ele><time>2026-04-19T10:22:26.001Z</time></trkpt><trkpt lat="45.91781377503083" lon="11.563633018474391"><ele>1430.0</ele><time>2026-04-19T10:22:27.001Z</time></trkpt><trkpt lat="45.91782842632257" lon="11.563473056843339"><ele>1430.0</ele><time>2026-04-19T10:22:28.001Z</time></trkpt><trkpt lat="45.917842188476484" lon="11.563287972535102"><ele>1430.0</ele><time>2026-04-19T10:22:29.001Z</time></trkpt><trkpt lat="45.91783741127766" lon="11.56308247921952"><ele>1430.0</ele><time>2026-04-19T10:22:30.001Z</time></trkpt><trkpt lat="45.91786745490984" lon="11.562893106243594"><ele>1430.0</ele><time>2026-04-19T10:22:31.001Z</time></trkpt><trkpt lat="45.91789407252412" lon="11.562713772733213"><ele>1429.25</ele><time>2026-04-19T10:22:32.001Z</time></trkpt><trkpt lat="45.917951641431735" lon="11.562535477988018"><ele>1428.5</ele><time>2026-04-19T10:22:33.001Z</time></trkpt><trkpt lat="45.91803112861229" lon="11.562363933722569"><ele>1427.75</ele><time>2026-04-19T10:22:34.001Z</time></trkpt><trkpt lat="45.91813093001933" lon="11.562193914156438"><ele>1427.0</ele><time>2026-04-19T10:22:35.001Z</time></trkpt><trkpt lat="45.91823327360887" lon="11.562051419036758"><ele>1427.25</ele><time>2026-04-19T10:22:36.001Z</time></trkpt><trkpt lat="45.91834445377495" lon="11.56192252969372"><ele>1427.5</ele><time>2026-04-19T10:22:37.001Z</time></trkpt><trkpt lat="45.9184704478621" lon="11.561828781127348"><ele>1427.75</ele><time>2026-04-19T10:22:38.001Z</time></trkpt><trkpt lat="45.91858862494211" lon="11.5617657218492"><ele>1428.0</ele><time>2026-04-19T10:22:39.001Z</time></trkpt><trkpt lat="45.9187343166596" lon="11.561700512601947"><ele>1428.0</ele><time>2026-04-19T10:22:40.001Z</time></trkpt><trkpt lat="45.91887889749979" lon="11.561639725649771"><ele>1428.0</ele><time>2026-04-19T10:22:41.001Z</time></trkpt><trkpt lat="45.91902484044491" lon="11.561579227929585"><ele>1428.0</ele><time>2026-04-19T10:22:42.001Z</time></trkpt><trkpt lat="45.919169901543704" lon="11.561492654373026"><ele>1428.6666666666667</ele><time>2026-04-19T10:22:43.001Z</time></trkpt><trkpt lat="45.91931953426299" lon="11.561431329154782"><ele>1429.3333333333335</ele><time>2026-04-19T10:22:44.001Z</time></trkpt><trkpt lat="45.91947002143019" lon="11.561358962283405"><ele>1430.0</ele><time>2026-04-19T10:22:45.001Z</time></trkpt><trkpt lat="45.919631148974304" lon="11.561283844740421"><ele>1430.0</ele><time>2026-04-19T10:22:46.001Z</time></trkpt><trkpt lat="45.91976462924835" lon="11.561220910386533"><ele>1430.0</ele><time>2026-04-19T10:22:47.001Z</time></trkpt><trkpt lat="45.919886442487254" lon="11.56118500111453"><ele>1430.0</ele><time>2026-04-19T10:22:48.001Z</time></trkpt><trkpt lat="45.919993561876005" lon="11.56111545520139"><ele>1430.0</ele><time>2026-04-19T10:22:49.001Z</time></trkpt><trkpt lat="45.92008484991572" lon="11.561083452678579"><ele>1432.0</ele><time>2026-04-19T10:22:50.001Z</time></trkpt><trkpt lat="45.92014911855034" lon="11.561063264364158"><ele>1434.0</ele><time>2026-04-19T10:22:51.001Z</time></trkpt><trkpt lat="45.92021278349057" lon="11.561031193905086"><ele>1436.0</ele><time>2026-04-19T10:22:52.001Z</time></trkpt><trkpt lat="45.92029563394867" lon="11.561036466335096"><ele>1438.0</ele><time>2026-04-19T10:22:53.001Z</time></trkpt><trkpt lat="45.92039814514597" lon="11.561015521396046"><ele>1440.0</ele><time>2026-04-19T10:22:54.001Z</time></trkpt><trkpt lat="45.92051511823714" lon="11.561029180184711"><ele>1442.0</ele><time>2026-04-19T10:22:55.001Z</time></trkpt><trkpt lat="45.92063882904346" lon="11.561047639498996"><ele>1442.0</ele><time>2026-04-19T10:22:56.001Z</time></trkpt><trkpt lat="45.92076986419569" lon="11.561083709234602"><ele>1442.0</ele><time>2026-04-19T10:22:57.001Z</time></trkpt><trkpt lat="45.92093155162126" lon="11.561092914219891"><ele>1442.0</ele><time>2026-04-19T10:22:58.001Z</time></trkpt><trkpt lat="45.921113607434386" lon="11.561063282539365"><ele>1443.6666666666667</ele><time>2026-04-19T10:22:59.001Z</time></trkpt><trkpt lat="45.92130924048033" lon="11.561010379284413"><ele>1445.3333333333333</ele><time>2026-04-19T10:23:00.001Z</time></trkpt><trkpt lat="45.92150350284224" lon="11.560979691913483"><ele>1447.0</ele><time>2026-04-19T10:23:01.001Z</time></trkpt><trkpt lat="45.921684129541575" lon="11.560942569870814"><ele>1450.0</ele><time>2026-04-19T10:23:02.001Z</time></trkpt><trkpt lat="45.921853666458006" lon="11.560912352087534"><ele>1453.0</ele><time>2026-04-19T10:23:03.001Z</time></trkpt><trkpt lat="45.922015609078976" lon="11.56089843057366"><ele>1456.0</ele><time>2026-04-19T10:23:04.001Z</time></trkpt><trkpt lat="45.922167269285545" lon="11.560968168991707"><ele>1456.0</ele><time>2026-04-19T10:23:05.001Z</time></trkpt><trkpt lat="45.92231481909605" lon="11.561037881629852"><ele>1456.0</ele><time>2026-04-19T10:23:06.001Z</time></trkpt><trkpt lat="45.92245642172955" lon="11.561073031248174"><ele>1456.0</ele><time>2026-04-19T10:23:07.001Z</time></trkpt><trkpt lat="45.922598386915396" lon="11.561052755849074"><ele>1456.0</ele><time>2026-04-19T10:23:08.001Z</time></trkpt><trkpt lat="45.922767189414" lon="11.560956113791065"><ele>1458.6666666666665</ele><time>2026-04-19T10:23:09.001Z</time></trkpt><trkpt lat="45.92295751457008" lon="11.560869599501556"><ele>1461.3333333333333</ele><time>2026-04-19T10:23:10.001Z</time></trkpt><trkpt lat="45.92315615762738" lon="11.56076884746874"><ele>1464.0</ele><time>2026-04-19T10:23:11.001Z</time></trkpt><trkpt lat="45.92336037324756" lon="11.560671772887224"><ele>1465.0</ele><time>2026-04-19T10:23:12.001Z</time></trkpt><trkpt lat="45.923551266313744" lon="11.560595450378468"><ele>1466.0</ele><time>2026-04-19T10:23:13.001Z</time></trkpt><trkpt lat="45.92372568359352" lon="11.560540792042072"><ele>1467.0</ele><time>2026-04-19T10:23:14.001Z</time></trkpt><trkpt lat="45.923869038248704" lon="11.560495467083578"><ele>1467.0</ele><time>2026-04-19T10:23:15.001Z</time></trkpt><trkpt lat="45.92399724835702" lon="11.560481057987104"><ele>1467.0</ele><time>2026-04-19T10:23:16.001Z</time></trkpt><trkpt lat="45.92410906059182" lon="11.560574506464402"><ele>1467.0</ele><time>2026-04-19T10:23:17.001Z</time></trkpt><trkpt lat="45.92424333599289" lon="11.56061584332079"><ele>1467.0</ele><time>2026-04-19T10:23:18.001Z</time></trkpt><trkpt lat="45.924367864931774" lon="11.560637384703615"><ele>1466.3333333333333</ele><time>2026-04-19T10:23:19.001Z</time></trkpt><trkpt lat="45.92451240672384" lon="11.560651137663077"><ele>1465.6666666666665</ele><time>2026-04-19T10:23:20.001Z</time></trkpt><trkpt lat="45.92467943949407" lon="11.56062608315408"><ele>1465.0</ele><time>2026-04-19T10:23:21.001Z</time></trkpt><trkpt lat="45.92484589530293" lon="11.560626856323882"><ele>1465.0</ele><time>2026-04-19T10:23:22.001Z</time></trkpt><trkpt lat="45.92501818416199" lon="11.560611865988495"><ele>1465.0</ele><time>2026-04-19T10:23:23.001Z</time></trkpt><trkpt lat="45.92519703662466" lon="11.56059460125663"><ele>1465.0</ele><time>2026-04-19T10:23:24.002Z</time></trkpt><trkpt lat="45.92538019499173" lon="11.56056750718961"><ele>1465.3333333333333</ele><time>2026-04-19T10:23:25.002Z</time></trkpt><trkpt lat="45.92556175146996" lon="11.560534164812927"><ele>1465.6666666666667</ele><time>2026-04-19T10:23:26.002Z</time></trkpt><trkpt lat="45.92574144446477" lon="11.560493872671534"><ele>1466.0</ele><time>2026-04-19T10:23:27.002Z</time></trkpt><trkpt lat="45.92592713774006" lon="11.560451945169744"><ele>1468.0</ele><time>2026-04-19T10:23:28.002Z</time></trkpt><trkpt lat="45.926108059987115" lon="11.560414549446497"><ele>1470.0</ele><time>2026-04-19T10:23:29.002Z</time></trkpt><trkpt lat="45.92628419409259" lon="11.56038522124596"><ele>1472.0</ele><time>2026-04-19T10:23:30.002Z</time></trkpt><trkpt lat="45.926461675451044" lon="11.560371816129736"><ele>1472.0</ele><time>2026-04-19T10:23:31.002Z</time></trkpt><trkpt lat="45.9266365459148" lon="11.560377261120141"><ele>1472.0</ele><time>2026-04-19T10:23:32.002Z</time></trkpt><trkpt lat="45.926810590144804" lon="11.560380939260574"><ele>1472.0</ele><time>2026-04-19T10:23:33.002Z</time></trkpt><trkpt lat="45.926981056186406" lon="11.560361047216961"><ele>1471.6666666666667</ele><time>2026-04-19T10:23:34.002Z</time></trkpt><trkpt lat="45.92715608236921" lon="11.560303045022597"><ele>1471.3333333333333</ele><time>2026-04-19T10:23:35.002Z</time></trkpt><trkpt lat="45.92732414413408" lon="11.56020093590511"><ele>1471.0</ele><time>2026-04-19T10:23:36.002Z</time></trkpt><trkpt lat="45.92748821084061" lon="11.5601094765262"><ele>1473.3333333333333</ele><time>2026-04-19T10:23:37.002Z</time></trkpt><trkpt lat="45.927650151263016" lon="11.560065696159066"><ele>1475.6666666666667</ele><time>2026-04-19T10:23:38.002Z</time></trkpt><trkpt lat="45.927823957454734" lon="11.560035336362947"><ele>1478.0</ele><time>2026-04-19T10:23:39.002Z</time></trkpt><trkpt lat="45.9279976943622" lon="11.55998546180637"><ele>1478.0</ele><time>2026-04-19T10:23:40.002Z</time></trkpt><trkpt lat="45.928175115304136" lon="11.559924403512746"><ele>1478.0</ele><time>2026-04-19T10:23:41.002Z</time></trkpt><trkpt lat="45.92834022659305" lon="11.559885517310628"><ele>1478.0</ele><time>2026-04-19T10:23:42.002Z</time></trkpt><trkpt lat="45.928490453487036" lon="11.559894181458631"><ele>1478.6666666666667</ele><time>2026-04-19T10:23:43.002Z</time></trkpt><trkpt lat="45.92865441579316" lon="11.55993606616587"><ele>1479.3333333333333</ele><time>2026-04-19T10:23:44.002Z</time></trkpt><trkpt lat="45.92882258051882" lon="11.559992408328029"><ele>1480.0</ele><time>2026-04-19T10:23:45.002Z</time></trkpt><trkpt lat="45.929010271400024" lon="11.560058514732562"><ele>1480.0</ele><time>2026-04-19T10:23:46.002Z</time></trkpt><trkpt lat="45.929186201968676" lon="11.560101790831524"><ele>1480.0</ele><time>2026-04-19T10:23:47.002Z</time></trkpt><trkpt lat="45.92938559427691" lon="11.560086125894554"><ele>1480.0</ele><time>2026-04-19T10:23:48.002Z</time></trkpt><trkpt lat="45.92959550867938" lon="11.559995405278746"><ele>1482.5</ele><time>2026-04-19T10:23:49.002Z</time></trkpt><trkpt lat="45.92981051720227" lon="11.559869478672114"><ele>1485.0</ele><time>2026-04-19T10:23:50.002Z</time></trkpt><trkpt lat="45.930032651065936" lon="11.55976778462786"><ele>1487.3333333333333</ele><time>2026-04-19T10:23:51.002Z</time></trkpt><trkpt lat="45.9302121562161" lon="11.559698451611542"><ele>1489.6666666666665</ele><time>2026-04-19T10:23:52.002Z</time></trkpt><trkpt lat="45.93038554762105" lon="11.559625154004014"><ele>1492.0</ele><time>2026-04-19T10:23:53.002Z</time></trkpt><trkpt lat="45.93054889612984" lon="11.559541239906242"><ele>1492.1999999999998</ele><time>2026-04-19T10:23:54.002Z</time></trkpt><trkpt lat="45.930673004657194" lon="11.559450776930829"><ele>1492.4</ele><time>2026-04-19T10:23:55.002Z</time></trkpt><trkpt lat="45.93076484021896" lon="11.559368776897413"><ele>1492.6</ele><time>2026-04-19T10:23:56.002Z</time></trkpt><trkpt lat="45.930845685397976" lon="11.559302293677936"><ele>1492.8000000000002</ele><time>2026-04-19T10:23:57.002Z</time></trkpt><trkpt lat="45.93093359055459" lon="11.559216637114798"><ele>1493.0</ele><time>2026-04-19T10:23:58.002Z</time></trkpt><trkpt lat="45.931038337195965" lon="11.559149708163517"><ele>1491.5</ele><time>2026-04-19T10:23:59.002Z</time></trkpt><trkpt lat="45.93116711375089" lon="11.559101476795705"><ele>1490.0</ele><time>2026-04-19T10:24:00.002Z</time></trkpt><trkpt lat="45.93130916919005" lon="11.559042890088847"><ele>1488.5</ele><time>2026-04-19T10:24:01.002Z</time></trkpt><trkpt lat="45.931439541371745" lon="11.558938852430655"><ele>1487.0</ele><time>2026-04-19T10:24:02.002Z</time></trkpt><trkpt lat="45.93157397940879" lon="11.558827275396952"><ele>1486.0</ele><time>2026-04-19T10:24:03.002Z</time></trkpt><trkpt lat="45.93172877449702" lon="11.558707118018798"><ele>1485.0</ele><time>2026-04-19T10:24:04.002Z</time></trkpt><trkpt lat="45.93188419915704" lon="11.55861606309916"><ele>1484.0</ele><time>2026-04-19T10:24:05.002Z</time></trkpt><trkpt lat="45.9320697179642" lon="11.558542874371868"><ele>1484.0</ele><time>2026-04-19T10:24:06.002Z</time></trkpt><trkpt lat="45.932247801697535" lon="11.55847739967804"><ele>1484.0</ele><time>2026-04-19T10:24:07.002Z</time></trkpt><trkpt lat="45.932401559833394" lon="11.558402956226441"><ele>1484.0</ele><time>2026-04-19T10:24:08.002Z</time></trkpt><trkpt lat="45.93255465825215" lon="11.558324786687686"><ele>1485.6666666666667</ele><time>2026-04-19T10:24:09.002Z</time></trkpt><trkpt lat="45.93270663843682" lon="11.558256497946322"><ele>1487.3333333333333</ele><time>2026-04-19T10:24:10.002Z</time></trkpt><trkpt lat="45.93286294430941" lon="11.558204924204674"><ele>1489.0</ele><time>2026-04-19T10:24:11.002Z</time></trkpt><trkpt lat="45.93301857875668" lon="11.558181441843441"><ele>1489.0</ele><time>2026-04-19T10:24:12.002Z</time></trkpt><trkpt lat="45.933168722563664" lon="11.558178594010295"><ele>1489.0</ele><time>2026-04-19T10:24:13.002Z</time></trkpt><trkpt lat="45.93330087405504" lon="11.55817653192403"><ele>1489.0</ele><time>2026-04-19T10:24:14.002Z</time></trkpt><trkpt lat="45.933456723769126" lon="11.558163466612218"><ele>1489.0</ele><time>2026-04-19T10:24:15.002Z</time></trkpt><trkpt lat="45.93359641364586" lon="11.55812620504198"><ele>1491.3333333333333</ele><time>2026-04-19T10:24:16.001Z</time></trkpt><trkpt lat="45.93374044369106" lon="11.558063509997481"><ele>1493.6666666666667</ele><time>2026-04-19T10:24:17.001Z</time></trkpt><trkpt lat="45.933882651339665" lon="11.557993115054082"><ele>1496.0</ele><time>2026-04-19T10:24:18.001Z</time></trkpt><trkpt lat="45.93403473189587" lon="11.557923803932116"><ele>1496.6666666666667</ele><time>2026-04-19T10:24:19.001Z</time></trkpt><trkpt lat="45.93418225230197" lon="11.55785710344248"><ele>1497.3333333333333</ele><time>2026-04-19T10:24:20.001Z</time></trkpt><trkpt lat="45.934338187746405" lon="11.557802082631753"><ele>1498.0</ele><time>2026-04-19T10:24:21.001Z</time></trkpt><trkpt lat="45.934490717082966" lon="11.557726730110394"><ele>1498.0</ele><time>2026-04-19T10:24:22.001Z</time></trkpt><trkpt lat="45.93467649930977" lon="11.557655427429728"><ele>1498.0</ele><time>2026-04-19T10:24:23.001Z</time></trkpt><trkpt lat="45.934848195693014" lon="11.557645682550055"><ele>1498.0</ele><time>2026-04-19T10:24:24.001Z</time></trkpt><trkpt lat="45.93502082053437" lon="11.55761773160588"><ele>1499.6666666666665</ele><time>2026-04-19T10:24:25.001Z</time></trkpt><trkpt lat="45.93518400023623" lon="11.557601814365587"><ele>1501.3333333333333</ele><time>2026-04-19T10:24:26.001Z</time></trkpt><trkpt lat="45.93534268169066" lon="11.557582945172054"><ele>1503.0</ele><time>2026-04-19T10:24:27.001Z</time></trkpt><trkpt lat="45.935502834862916" lon="11.557585124920692"><ele>1503.0</ele><time>2026-04-19T10:24:28.001Z</time></trkpt><trkpt lat="45.935661282893506" lon="11.557627479603099"><ele>1503.0</ele><time>2026-04-19T10:24:29.001Z</time></trkpt><trkpt lat="45.93581153106731" lon="11.557702346223014"><ele>1503.0</ele><time>2026-04-19T10:24:30.001Z</time></trkpt><trkpt lat="45.93595953253765" lon="11.557774946388081"><ele>1503.4</ele><time>2026-04-19T10:24:31.001Z</time></trkpt><trkpt lat="45.93609026921321" lon="11.557833001912448"><ele>1503.8000000000002</ele><time>2026-04-19T10:24:32.001Z</time></trkpt><trkpt lat="45.93619916360508" lon="11.557845039149155"><ele>1504.2</ele><time>2026-04-19T10:24:33.001Z</time></trkpt><trkpt lat="45.93630358850291" lon="11.557846488263342"><ele>1504.6</ele><time>2026-04-19T10:24:34.001Z</time></trkpt><trkpt lat="45.93637767801969" lon="11.557806930803615"><ele>1505.0</ele><time>2026-04-19T10:24:35.001Z</time></trkpt><trkpt lat="45.936454842519225" lon="11.557761331683707"><ele>1505.0</ele><time>2026-04-19T10:24:36.001Z</time></trkpt><trkpt lat="45.9365452341848" lon="11.557710344204043"><ele>1505.0</ele><time>2026-04-19T10:24:37.001Z</time></trkpt><trkpt lat="45.93663889170478" lon="11.557658552260255"><ele>1505.0</ele><time>2026-04-19T10:24:38.001Z</time></trkpt><trkpt lat="45.93674420041031" lon="11.55759617480266"><ele>1505.0</ele><time>2026-04-19T10:24:39.001Z</time></trkpt><trkpt lat="45.9368532369737" lon="11.557516892680182"><ele>1505.0</ele><time>2026-04-19T10:24:40.001Z</time></trkpt><trkpt lat="45.93698013356362" lon="11.55742384062391"><ele>1507.3333333333335</ele><time>2026-04-19T10:24:41.001Z</time></trkpt><trkpt lat="45.93711605118619" lon="11.557273530766771"><ele>1509.6666666666667</ele><time>2026-04-19T10:24:42.001Z</time></trkpt><trkpt lat="45.93728084590432" lon="11.55713541189892"><ele>1512.0</ele><time>2026-04-19T10:24:43.001Z</time></trkpt><trkpt lat="45.937471599384416" lon="11.556985933471978"><ele>1514.0</ele><time>2026-04-19T10:24:44.001Z</time></trkpt><trkpt lat="45.93763955103506" lon="11.556852390422659"><ele>1516.0</ele><time>2026-04-19T10:24:45.001Z</time></trkpt><trkpt lat="45.93776351821616" lon="11.55670461035759"><ele>1518.0</ele><time>2026-04-19T10:24:46.001Z</time></trkpt><trkpt lat="45.937852454877756" lon="11.556545890327687"><ele>1518.0</ele><time>2026-04-19T10:24:47.001Z</time></trkpt><trkpt lat="45.937924778746726" lon="11.556429756901005"><ele>1518.0</ele><time>2026-04-19T10:24:48.001Z</time></trkpt><trkpt lat="45.93800565042247" lon="11.556302515009364"><ele>1518.0</ele><time>2026-04-19T10:24:49.001Z</time></trkpt><trkpt lat="45.93807743283761" lon="11.556194755250466"><ele>1518.0</ele><time>2026-04-19T10:24:50.001Z</time></trkpt><trkpt lat="45.93814326905937" lon="11.556102483280096"><ele>1518.0</ele><time>2026-04-19T10:24:51.001Z</time></trkpt><trkpt lat="45.93819470716632" lon="11.556028912443486"><ele>1517.6666666666667</ele><time>2026-04-19T10:24:52.001Z</time></trkpt><trkpt lat="45.93824354376176" lon="11.555956536624574"><ele>1517.3333333333333</ele><time>2026-04-19T10:24:53.001Z</time></trkpt><trkpt lat="45.93829027402796" lon="11.555893503570752"><ele>1517.0</ele><time>2026-04-19T10:24:54.001Z</time></trkpt><trkpt lat="45.93836978773467" lon="11.555788776459137"><ele>1516.6666666666665</ele><time>2026-04-19T10:24:56.001Z</time></trkpt><trkpt lat="45.9384349685671" lon="11.55569898935858"><ele>1516.3333333333333</ele><time>2026-04-19T10:24:58.001Z</time></trkpt><trkpt lat="45.93848076744067" lon="11.555631166790272"><ele>1516.0</ele><time>2026-04-19T10:25:00.001Z</time></trkpt><trkpt lat="45.938510705160624" lon="11.555550992618793"><ele>1516.0</ele><time>2026-04-19T10:25:37.001Z</time></trkpt><trkpt lat="45.9384481255622" lon="11.555571501523389"><ele>1516.0</ele><time>2026-04-19T10:25:51.002Z</time></trkpt><trkpt lat="45.938362440748044" lon="11.555510656561049"><ele>1516.0</ele><time>2026-04-19T10:25:53.002Z</time></trkpt><trkpt lat="45.93841805733263" lon="11.555365088491985"><ele>1516.0</ele><time>2026-04-19T10:25:55.002Z</time></trkpt><trkpt lat="45.938453502321025" lon="11.555227926246278"><ele>1516.0</ele><time>2026-04-19T10:25:56.002Z</time></trkpt><trkpt lat="45.938499463802955" lon="11.555100179500375"><ele>1516.8</ele><time>2026-04-19T10:25:57.002Z</time></trkpt><trkpt lat="45.93854942132748" lon="11.554995370279851"><ele>1517.6</ele><time>2026-04-19T10:25:58.002Z</time></trkpt><trkpt lat="45.93860445099435" lon="11.554899741837952"><ele>1518.4</ele><time>2026-04-19T10:25:59.002Z</time></trkpt><trkpt lat="45.93865777201343" lon="11.554772755022116"><ele>1519.2</ele><time>2026-04-19T10:26:00.002Z</time></trkpt><trkpt lat="45.93873836411491" lon="11.554664996383574"><ele>1520.0</ele><time>2026-04-19T10:26:01.002Z</time></trkpt><trkpt lat="45.93888379761292" lon="11.554428107870741"><ele>1520.0</ele><time>2026-04-19T10:26:03.002Z</time></trkpt><trkpt lat="45.938959970582864" lon="11.554303690230142"><ele>1520.0</ele><time>2026-04-19T10:26:04.002Z</time></trkpt><trkpt lat="45.93903005364258" lon="11.554179107182001"><ele>1520.0</ele><time>2026-04-19T10:26:05.002Z</time></trkpt><trkpt lat="45.93909612308369" lon="11.554045863924328"><ele>1520.0</ele><time>2026-04-19T10:26:06.002Z</time></trkpt><trkpt lat="45.93915695842346" lon="11.553917118584113"><ele>1520.0</ele><time>2026-04-19T10:26:07.002Z</time></trkpt><trkpt lat="45.93920100769841" lon="11.553781313596396"><ele>1520.4</ele><time>2026-04-19T10:26:08.002Z</time></trkpt><trkpt lat="45.939229479162" lon="11.553637358682508"><ele>1520.8</ele><time>2026-04-19T10:26:09.002Z</time></trkpt><trkpt lat="45.93923049244876" lon="11.553483706807615"><ele>1521.1999999999998</ele><time>2026-04-19T10:26:10.002Z</time></trkpt><trkpt lat="45.9392203732084" lon="11.553334764966005"><ele>1521.6</ele><time>2026-04-19T10:26:11.002Z</time></trkpt><trkpt lat="45.939226090101066" lon="11.553187203738048"><ele>1522.0</ele><time>2026-04-19T10:26:12.002Z</time></trkpt><trkpt lat="45.93921330645267" lon="11.5530382610808"><ele>1522.1999999999998</ele><time>2026-04-19T10:26:13.002Z</time></trkpt><trkpt lat="45.93919838613762" lon="11.552887039898705"><ele>1522.4</ele><time>2026-04-19T10:26:14.002Z</time></trkpt><trkpt lat="45.939181352409555" lon="11.552735542110337"><ele>1522.6</ele><time>2026-04-19T10:26:15.002Z</time></trkpt><trkpt lat="45.939158140676575" lon="11.5525821814731"><ele>1522.8000000000002</ele><time>2026-04-19T10:26:16.002Z</time></trkpt><trkpt lat="45.93914109632327" lon="11.552435403671545"><ele>1523.0</ele><time>2026-04-19T10:26:17.002Z</time></trkpt><trkpt lat="45.93912024610259" lon="11.552286552080702"><ele>1523.0</ele><time>2026-04-19T10:26:18.002Z</time></trkpt><trkpt lat="45.93909680629066" lon="11.552155336760942"><ele>1523.0</ele><time>2026-04-19T10:26:19.002Z</time></trkpt><trkpt lat="45.93907018007007" lon="11.552034092281108"><ele>1523.0</ele><time>2026-04-19T10:26:20.002Z</time></trkpt><trkpt lat="45.9390404680556" lon="11.551928601140784"><ele>1523.0</ele><time>2026-04-19T10:26:21.002Z</time></trkpt><trkpt lat="45.93901770642728" lon="11.551835688050822"><ele>1523.0</ele><time>2026-04-19T10:26:22.001Z</time></trkpt><trkpt lat="45.939000901410395" lon="11.551732388497044"><ele>1523.0</ele><time>2026-04-19T10:26:23.001Z</time></trkpt><trkpt lat="45.93902448730593" lon="11.551587824682715"><ele>1523.6000000000001</ele><time>2026-04-19T10:26:25.001Z</time></trkpt><trkpt lat="45.93911439429314" lon="11.551508462577402"><ele>1524.2</ele><time>2026-04-19T10:26:27.001Z</time></trkpt><trkpt lat="45.93918819913703" lon="11.551469262336274"><ele>1524.8</ele><time>2026-04-19T10:26:29.001Z</time></trkpt><trkpt lat="45.93927997196159" lon="11.551427260424694"><ele>1525.4</ele><time>2026-04-19T10:26:31.001Z</time></trkpt><trkpt lat="45.939383378007896" lon="11.551411329847092"><ele>1526.0</ele><time>2026-04-19T10:26:33.001Z</time></trkpt><trkpt lat="45.939450240507384" lon="11.551424582959582"><ele>1527.3333333333335</ele><time>2026-04-19T10:26:35Z</time></trkpt><trkpt lat="45.939499436787905" lon="11.551497848073547"><ele>1528.6666666666667</ele><time>2026-04-19T10:26:37Z</time></trkpt><trkpt lat="45.93952349947371" lon="11.551590112871956"><ele>1530.0</ele><time>2026-04-19T10:26:39Z</time></trkpt><trkpt lat="45.93954677655103" lon="11.5516984392594"><ele>1531.3333333333333</ele><time>2026-04-19T10:26:43Z</time></trkpt><trkpt lat="45.939624063691" lon="11.551742340979532"><ele>1532.6666666666665</ele><time>2026-04-19T10:26:46Z</time></trkpt><trkpt lat="45.93965910104731" lon="11.551564468266564"><ele>1534.0</ele><time>2026-04-19T10:27:33.001Z</time></trkpt><trkpt lat="45.939644834759314" lon="11.551654787682756"><ele>1534.0</ele><time>2026-04-19T10:27:46.001Z</time></trkpt><trkpt lat="45.939617944474115" lon="11.551754357374833"><ele>1534.0</ele><time>2026-04-19T10:28:41.001Z</time></trkpt><trkpt lat="45.939554382118665" lon="11.551800523364285"><ele>1534.0</ele><time>2026-04-19T10:28:46.001Z</time></trkpt><trkpt lat="45.939498052849835" lon="11.551850227514722"><ele>1534.0</ele><time>2026-04-19T10:28:52.001Z</time></trkpt><trkpt lat="45.93943690642294" lon="11.551880636217863"><ele>1534.0</ele><time>2026-04-19T10:28:58.001Z</time></trkpt><trkpt lat="45.93937989374139" lon="11.551826516075124"><ele>1534.0</ele><time>2026-04-19T10:29:08.001Z</time></trkpt><trkpt lat="45.939422251412914" lon="11.551631777548982"><ele>1541.0</ele><time>2026-04-19T10:29:41.001Z</time></trkpt><trkpt lat="45.93953002655829" lon="11.550886778015187"><ele>1537.5</ele><time>2026-04-19T10:29:43.001Z</time></trkpt><trkpt lat="45.93945197751787" lon="11.551503345059974"><ele>1534.0</ele><time>2026-04-19T10:29:49.001Z</time></trkpt><trkpt lat="45.939411101797894" lon="11.55164223230489"><ele>1534.0</ele><time>2026-04-19T10:31:30.43Z</time></trkpt><trkpt lat="45.939409569243416" lon="11.55182084581101"><ele>1534.0</ele><time>2026-04-19T10:31:35.002Z</time></trkpt><trkpt lat="45.93951366347881" lon="11.551759700462082"><ele>1534.0</ele><time>2026-04-19T10:31:41.003Z</time></trkpt><trkpt lat="45.93957716318308" lon="11.551760544304564"><ele>1534.0</ele><time>2026-04-19T10:31:52.002Z</time></trkpt><trkpt lat="45.939589179635405" lon="11.551648086043265"><ele>1534.0</ele><time>2026-04-19T10:31:55.002Z</time></trkpt><trkpt lat="45.9395574132774" lon="11.551729843167346"><ele>1534.0</ele><time>2026-04-19T10:32:25.001Z</time></trkpt><trkpt lat="45.93952334145623" lon="11.551807437095894"><ele>1534.0</ele><time>2026-04-19T10:32:29.001Z</time></trkpt><trkpt lat="45.93946441196134" lon="11.551894839729421"><ele>1534.0</ele><time>2026-04-19T10:32:36.001Z</time></trkpt><trkpt lat="45.939381282309775" lon="11.551920378056623"><ele>1534.0</ele><time>2026-04-19T10:32:41.001Z</time></trkpt><trkpt lat="45.939318686242636" lon="11.551895630609817"><ele>1534.0</ele><time>2026-04-19T10:32:45.001Z</time></trkpt><trkpt lat="45.93930074864449" lon="11.551808742674957"><ele>1534.0</ele><time>2026-04-19T10:32:50.001Z</time></trkpt><trkpt lat="45.93935004817095" lon="11.55190314735347"><ele>1534.0</ele><time>2026-04-19T11:28:40Z</time></trkpt><trkpt lat="45.93941673143277" lon="11.551904084299775"><ele>1534.0</ele><time>2026-04-19T11:28:46Z</time></trkpt><trkpt lat="45.939484658622696" lon="11.551865418206583"><ele>1534.0</ele><time>2026-04-19T11:28:51Z</time></trkpt><trkpt lat="45.93952380159591" lon="11.551783892221408"><ele>1534.0</ele><time>2026-04-19T11:28:56Z</time></trkpt><trkpt lat="45.9395869902911" lon="11.551736335527014"><ele>1534.0</ele><time>2026-04-19T11:29:01Z</time></trkpt><trkpt lat="45.93964086868286" lon="11.551681949437311"><ele>1534.0</ele><time>2026-04-19T11:29:06Z</time></trkpt><trkpt lat="45.93968788014905" lon="11.551758596253357"><ele>1534.0</ele><time>2026-04-19T11:31:05Z</time></trkpt><trkpt lat="45.93977010759922" lon="11.551827933547369"><ele>1534.0</ele><time>2026-04-19T11:31:08Z</time></trkpt><trkpt lat="45.93984212233346" lon="11.551853635492414"><ele>1534.0</ele><time>2026-04-19T11:31:10Z</time></trkpt><trkpt lat="45.93991171844353" lon="11.551871739467277"><ele>1534.0</ele><time>2026-04-19T11:31:12Z</time></trkpt><trkpt lat="45.939978457478404" lon="11.551883327742484"><ele>1534.0</ele><time>2026-04-19T11:31:14Z</time></trkpt><trkpt lat="45.94005882256205" lon="11.55193210652581"><ele>1534.0</ele><time>2026-04-19T11:31:16Z</time></trkpt><trkpt lat="45.94013065450266" lon="11.551975895768525"><ele>1534.0</ele><time>2026-04-19T11:31:18Z</time></trkpt><trkpt lat="45.940200692412866" lon="11.552018607643012"><ele>1534.0</ele><time>2026-04-19T11:31:20Z</time></trkpt><trkpt lat="45.94026950228937" lon="11.552061857708361"><ele>1534.0</ele><time>2026-04-19T11:31:22Z</time></trkpt><trkpt lat="45.94034768507678" lon="11.552114292464283"><ele>1533.8333333333333</ele><time>2026-04-19T11:31:24Z</time></trkpt><trkpt lat="45.9404258267615" lon="11.552165571227654"><ele>1533.6666666666665</ele><time>2026-04-19T11:31:26Z</time></trkpt><trkpt lat="45.94049778924289" lon="11.552226839947604"><ele>1533.5</ele><time>2026-04-19T11:31:28Z</time></trkpt><trkpt lat="45.94056789790913" lon="11.552299472454013"><ele>1533.3333333333333</ele><time>2026-04-19T11:31:30Z</time></trkpt><trkpt lat="45.940622874074315" lon="11.552396638752784"><ele>1533.1666666666667</ele><time>2026-04-19T11:31:32Z</time></trkpt><trkpt lat="45.9406679686708" lon="11.552505351697949"><ele>1533.0</ele><time>2026-04-19T11:31:34Z</time></trkpt><trkpt lat="45.940692965526445" lon="11.552640269340882"><ele>1533.0</ele><time>2026-04-19T11:31:36Z</time></trkpt><trkpt lat="45.940710265468695" lon="11.552768009455665"><ele>1533.0</ele><time>2026-04-19T11:31:38Z</time></trkpt><trkpt lat="45.94074018090083" lon="11.552893615451119"><ele>1533.0</ele><time>2026-04-19T11:31:40Z</time></trkpt><trkpt lat="45.940756508679826" lon="11.553008611462294"><ele>1533.0</ele><time>2026-04-19T11:31:42Z</time></trkpt><trkpt lat="45.94077388309027" lon="11.553127499677899"><ele>1533.0</ele><time>2026-04-19T11:31:44Z</time></trkpt><trkpt lat="45.94082394445684" lon="11.553240646998626"><ele>1533.0</ele><time>2026-04-19T11:31:46Z</time></trkpt><trkpt lat="45.940896403658165" lon="11.553336858521885"><ele>1535.0</ele><time>2026-04-19T11:31:48Z</time></trkpt><trkpt lat="45.940956865793254" lon="11.553465108024197"><ele>1537.0</ele><time>2026-04-19T11:31:50Z</time></trkpt><trkpt lat="45.94097894329186" lon="11.553550216478113"><ele>1539.0</ele><time>2026-04-19T11:31:51Z</time></trkpt><trkpt lat="45.94103219260507" lon="11.553711148468597"><ele>1541.0</ele><time>2026-04-19T11:31:53Z</time></trkpt><trkpt lat="45.9410887075984" lon="11.55382985652968"><ele>1543.0</ele><time>2026-04-19T11:31:55Z</time></trkpt><trkpt lat="45.94118302891895" lon="11.5538361021461"><ele>1543.0</ele><time>2026-04-19T11:31:57Z</time></trkpt><trkpt lat="45.94129034209686" lon="11.553782628034435"><ele>1543.0</ele><time>2026-04-19T11:31:59Z</time></trkpt><trkpt lat="45.941349564489514" lon="11.553735882537275"><ele>1543.0</ele><time>2026-04-19T11:32:00Z</time></trkpt><trkpt lat="45.94141328780711" lon="11.553627573544643"><ele>1543.0</ele><time>2026-04-19T11:32:01Z</time></trkpt><trkpt lat="45.9414725565381" lon="11.553533784043779"><ele>1543.0</ele><time>2026-04-19T11:32:02Z</time></trkpt><trkpt lat="45.94154652971968" lon="11.55347940091364"><ele>1543.0000000000002</ele><time>2026-04-19T11:32:03Z</time></trkpt><trkpt lat="45.94161559086543" lon="11.55342606776517"><ele>1543.0</ele><time>2026-04-19T11:32:04Z</time></trkpt><trkpt lat="45.941687223530565" lon="11.553380089707684"><ele>1543.0</ele><time>2026-04-19T11:32:05Z</time></trkpt><trkpt lat="45.941769003193215" lon="11.553351426590863"><ele>1543.0</ele><time>2026-04-19T11:32:06Z</time></trkpt><trkpt lat="45.941858683261536" lon="11.553328086547895"><ele>1543.0000000000002</ele><time>2026-04-19T11:32:07Z</time></trkpt><trkpt lat="45.94194730757777" lon="11.553295117102547"><ele>1543.0</ele><time>2026-04-19T11:32:08Z</time></trkpt><trkpt lat="45.942033007779834" lon="11.553271158513912"><ele>1544.4</ele><time>2026-04-19T11:32:09Z</time></trkpt><trkpt lat="45.94212636481027" lon="11.553256888597463"><ele>1545.8000000000002</ele><time>2026-04-19T11:32:10Z</time></trkpt><trkpt lat="45.94222027608161" lon="11.553242218713168"><ele>1547.2</ele><time>2026-04-19T11:32:11Z</time></trkpt><trkpt lat="45.94230797656224" lon="11.553232675025408"><ele>1548.6</ele><time>2026-04-19T11:32:12Z</time></trkpt><trkpt lat="45.9424050614834" lon="11.55323078743618"><ele>1550.0</ele><time>2026-04-19T11:32:13Z</time></trkpt><trkpt lat="45.94249573780272" lon="11.553230389799277"><ele>1551.4</ele><time>2026-04-19T11:32:14Z</time></trkpt><trkpt lat="45.942586278457995" lon="11.553222407574921"><ele>1552.8</ele><time>2026-04-19T11:32:15Z</time></trkpt><trkpt lat="45.94267626949429" lon="11.553217759674013"><ele>1554.1999999999998</ele><time>2026-04-19T11:32:16Z</time></trkpt><trkpt lat="45.94277555601494" lon="11.55321902007804"><ele>1555.6</ele><time>2026-04-19T11:32:17Z</time></trkpt><trkpt lat="45.9428768558871" lon="11.553226716922362"><ele>1557.0</ele><time>2026-04-19T11:32:18Z</time></trkpt><trkpt lat="45.9429808152009" lon="11.553244918355169"><ele>1557.0</ele><time>2026-04-19T11:32:19Z</time></trkpt><trkpt lat="45.94307373383516" lon="11.553262704244451"><ele>1557.0</ele><time>2026-04-19T11:32:20Z</time></trkpt><trkpt lat="45.94316499281559" lon="11.553293683223975"><ele>1557.0</ele><time>2026-04-19T11:32:21Z</time></trkpt><trkpt lat="45.94324219577659" lon="11.553365181926736"><ele>1557.0</ele><time>2026-04-19T11:32:22Z</time></trkpt><trkpt lat="45.94328072043746" lon="11.553469707677005"><ele>1557.0</ele><time>2026-04-19T11:32:23Z</time></trkpt><trkpt lat="45.94331702572782" lon="11.553576115646198"><ele>1557.0</ele><time>2026-04-19T11:32:24Z</time></trkpt><trkpt lat="45.94334563639251" lon="11.55368077543968"><ele>1557.8333333333333</ele><time>2026-04-19T11:32:25Z</time></trkpt><trkpt lat="45.94336809578421" lon="11.553772798718976"><ele>1558.6666666666665</ele><time>2026-04-19T11:32:26Z</time></trkpt><trkpt lat="45.94339254621419" lon="11.55387910765859"><ele>1559.5</ele><time>2026-04-19T11:32:27Z</time></trkpt><trkpt lat="45.943418127831315" lon="11.553991277850917"><ele>1560.3333333333333</ele><time>2026-04-19T11:32:28Z</time></trkpt><trkpt lat="45.943445726280764" lon="11.554117102110185"><ele>1561.1666666666665</ele><time>2026-04-19T11:32:29Z</time></trkpt><trkpt lat="45.94347107662548" lon="11.554232677366008"><ele>1562.0</ele><time>2026-04-19T11:32:30Z</time></trkpt><trkpt lat="45.94349733579819" lon="11.55435263301583"><ele>1564.8</ele><time>2026-04-19T11:32:31Z</time></trkpt><trkpt lat="45.94352313751698" lon="11.554472688892998"><ele>1567.6</ele><time>2026-04-19T11:32:32Z</time></trkpt><trkpt lat="45.94354503216547" lon="11.554574564653285"><ele>1570.3999999999999</ele><time>2026-04-19T11:32:33Z</time></trkpt><trkpt lat="45.94357582979016" lon="11.554717866330146"><ele>1573.1999999999998</ele><time>2026-04-19T11:32:34.998Z</time></trkpt><trkpt lat="45.94373688101817" lon="11.554674703512127"><ele>1576.0</ele><time>2026-04-19T11:32:35.998Z</time></trkpt><trkpt lat="45.943836826415975" lon="11.554623614259295"><ele>1576.0</ele><time>2026-04-19T11:32:36.998Z</time></trkpt><trkpt lat="45.94386826171561" lon="11.55449101843934"><ele>1576.0</ele><time>2026-04-19T11:32:37.998Z</time></trkpt><trkpt lat="45.94390511373609" lon="11.554362049347207"><ele>1576.0</ele><time>2026-04-19T11:32:38.998Z</time></trkpt><trkpt lat="45.943948880974766" lon="11.554219038587222"><ele>1576.0</ele><time>2026-04-19T11:32:39.998Z</time></trkpt><trkpt lat="45.94398631997245" lon="11.554122295918638"><ele>1576.0</ele><time>2026-04-19T11:32:40.999Z</time></trkpt><trkpt lat="45.944030186791494" lon="11.554016436092764"><ele>1576.0</ele><time>2026-04-19T11:32:41.999Z</time></trkpt><trkpt lat="45.94410634741826" lon="11.553885748829877"><ele>1576.0</ele><time>2026-04-19T11:32:42.999Z</time></trkpt><trkpt lat="45.9441730703843" lon="11.553750020649844"><ele>1576.0</ele><time>2026-04-19T11:32:43.999Z</time></trkpt><trkpt lat="45.94428699020473" lon="11.553601531954822"><ele>1576.0</ele><time>2026-04-19T11:32:44.999Z</time></trkpt><trkpt lat="45.94438662003894" lon="11.553475241180358"><ele>1578.25</ele><time>2026-04-19T11:32:45.999Z</time></trkpt><trkpt lat="45.94447317950918" lon="11.553375053972623"><ele>1580.5</ele><time>2026-04-19T11:32:46.999Z</time></trkpt><trkpt lat="45.944552132346374" lon="11.553296749442906"><ele>1582.75</ele><time>2026-04-19T11:32:47.999Z</time></trkpt><trkpt lat="45.944641722776545" lon="11.553180727684383"><ele>1585.0</ele><time>2026-04-19T11:32:48.999Z</time></trkpt><trkpt lat="45.944742307539215" lon="11.553065485494404"><ele>1585.0</ele><time>2026-04-19T11:32:50.999Z</time></trkpt><trkpt lat="45.94481953706937" lon="11.552922069324207"><ele>1585.0</ele><time>2026-04-19T11:32:51.999Z</time></trkpt><trkpt lat="45.94487930084699" lon="11.55277561966181"><ele>1585.0</ele><time>2026-04-19T11:32:52.999Z</time></trkpt><trkpt lat="45.94492764336975" lon="11.552598674203274"><ele>1585.0</ele><time>2026-04-19T11:32:53.999Z</time></trkpt><trkpt lat="45.94497377724891" lon="11.552432966724986"><ele>1584.1666666666667</ele><time>2026-04-19T11:32:54.999Z</time></trkpt><trkpt lat="45.944989787476295" lon="11.552278790260457"><ele>1583.3333333333335</ele><time>2026-04-19T11:32:55.999Z</time></trkpt><trkpt lat="45.94498655136328" lon="11.552151740983703"><ele>1582.5</ele><time>2026-04-19T11:32:56.999Z</time></trkpt><trkpt lat="45.94501212564918" lon="11.552064460592797"><ele>1581.6666666666665</ele><time>2026-04-19T11:32:57.999Z</time></trkpt><trkpt lat="45.94504807724145" lon="11.551964865159503"><ele>1580.8333333333333</ele><time>2026-04-19T11:32:59.999Z</time></trkpt><trkpt lat="45.94510132878261" lon="11.552094194158798"><ele>1580.0</ele><time>2026-04-19T11:33:01.999Z</time></trkpt><trkpt lat="45.94510697800405" lon="11.552284061170957"><ele>1582.8</ele><time>2026-04-19T11:33:03.999Z</time></trkpt><trkpt lat="45.9451217849376" lon="11.552410573471436"><ele>1585.6</ele><time>2026-04-19T11:33:04.999Z</time></trkpt><trkpt lat="45.945164823958926" lon="11.552546220234944"><ele>1588.4</ele><time>2026-04-19T11:33:05.999Z</time></trkpt><trkpt lat="45.94520697388191" lon="11.552684537281454"><ele>1591.2</ele><time>2026-04-19T11:33:06.999Z</time></trkpt><trkpt lat="45.94525251747592" lon="11.552836987050167"><ele>1594.0</ele><time>2026-04-19T11:33:07.999Z</time></trkpt><trkpt lat="45.945287769422016" lon="11.552987347853874"><ele>1594.0</ele><time>2026-04-19T11:33:08.999Z</time></trkpt><trkpt lat="45.94531249043206" lon="11.553129379503735"><ele>1594.0</ele><time>2026-04-19T11:33:09.999Z</time></trkpt><trkpt lat="45.94532183884529" lon="11.553252145247255"><ele>1594.0</ele><time>2026-04-19T11:33:10.999Z</time></trkpt><trkpt lat="45.94532116523398" lon="11.553352701462885"><ele>1594.0</ele><time>2026-04-19T11:33:11.999Z</time></trkpt><trkpt lat="45.94531399501022" lon="11.553459830917244"><ele>1594.0</ele><time>2026-04-19T11:33:12.999Z</time></trkpt><trkpt lat="45.94529022969814" lon="11.553640625303359"><ele>1595.5000000000002</ele><time>2026-04-19T11:33:15Z</time></trkpt><trkpt lat="45.94527042813348" lon="11.553743968716041"><ele>1597.0</ele><time>2026-04-19T11:33:16Z</time></trkpt><trkpt lat="45.94523806370187" lon="11.553866771855574"><ele>1598.5</ele><time>2026-04-19T11:33:17Z</time></trkpt><trkpt lat="45.94520692520304" lon="11.553978447187049"><ele>1600.0</ele><time>2026-04-19T11:33:18Z</time></trkpt><trkpt lat="45.94518541149355" lon="11.554080928578347"><ele>1601.5000000000002</ele><time>2026-04-19T11:33:19Z</time></trkpt><trkpt lat="45.94518968453058" lon="11.554182497884518"><ele>1603.0</ele><time>2026-04-19T11:33:20Z</time></trkpt><trkpt lat="45.94522767057396" lon="11.55427570093395"><ele>1603.0</ele><time>2026-04-19T11:33:21Z</time></trkpt><trkpt lat="45.94530623079912" lon="11.55433596571925"><ele>1603.0</ele><time>2026-04-19T11:33:22Z</time></trkpt><trkpt lat="45.94541034106345" lon="11.554362218108817"><ele>1603.0</ele><time>2026-04-19T11:33:23Z</time></trkpt><trkpt lat="45.945487178421395" lon="11.554384243485938"><ele>1603.0</ele><time>2026-04-19T11:33:24Z</time></trkpt><trkpt lat="45.94557501253703" lon="11.55436242886319"><ele>1603.0</ele><time>2026-04-19T11:33:25Z</time></trkpt><trkpt lat="45.94566537459711" lon="11.554367011481341"><ele>1603.0</ele><time>2026-04-19T11:33:26Z</time></trkpt><trkpt lat="45.94575849775066" lon="11.55434137261696"><ele>1603.0</ele><time>2026-04-19T11:33:27Z</time></trkpt><trkpt lat="45.94585349188117" lon="11.554310592124292"><ele>1603.0</ele><time>2026-04-19T11:33:28Z</time></trkpt><trkpt lat="45.945944149035604" lon="11.554257224738347"><ele>1603.0</ele><time>2026-04-19T11:33:29Z</time></trkpt><trkpt lat="45.94602577941053" lon="11.55418226399325"><ele>1603.0</ele><time>2026-04-19T11:33:30Z</time></trkpt><trkpt lat="45.94610632784853" lon="11.55408937466142"><ele>1605.0</ele><time>2026-04-19T11:33:31Z</time></trkpt><trkpt lat="45.94619177651608" lon="11.553977924332827"><ele>1607.0</ele><time>2026-04-19T11:33:32Z</time></trkpt><trkpt lat="45.946281992173674" lon="11.553854177894662"><ele>1609.0</ele><time>2026-04-19T11:33:33Z</time></trkpt><trkpt lat="45.94637562400034" lon="11.55373004347106"><ele>1611.0</ele><time>2026-04-19T11:33:34Z</time></trkpt><trkpt lat="45.94645639255938" lon="11.553624652733024"><ele>1611.0</ele><time>2026-04-19T11:33:35Z</time></trkpt><trkpt lat="45.94654322606213" lon="11.553495559642466"><ele>1611.0</ele><time>2026-04-19T11:33:36Z</time></trkpt><trkpt lat="45.94662216368735" lon="11.553379582369105"><ele>1611.0</ele><time>2026-04-19T11:33:37Z</time></trkpt><trkpt lat="45.946678148631" lon="11.553279857502119"><ele>1611.0</ele><time>2026-04-19T11:33:38Z</time></trkpt><trkpt lat="45.94670125109469" lon="11.553182185929257"><ele>1611.0</ele><time>2026-04-19T11:33:39Z</time></trkpt><trkpt lat="45.946734828020155" lon="11.553098804918868"><ele>1611.0</ele><time>2026-04-19T11:33:40Z</time></trkpt><trkpt lat="45.94682975633495" lon="11.553230399218066"><ele>1611.0</ele><time>2026-04-19T11:33:43Z</time></trkpt><trkpt lat="45.946759612923856" lon="11.55333794783176"><ele>1611.0</ele><time>2026-04-19T11:33:45Z</time></trkpt><trkpt lat="45.94668410842274" lon="11.553480136725607"><ele>1611.0</ele><time>2026-04-19T11:33:47Z</time></trkpt><trkpt lat="45.946648317248" lon="11.553601914075093"><ele>1611.5</ele><time>2026-04-19T11:33:48Z</time></trkpt><trkpt lat="45.946601663879655" lon="11.553714581908967"><ele>1612.0</ele><time>2026-04-19T11:33:49Z</time></trkpt><trkpt lat="45.94654784874195" lon="11.553851221628019"><ele>1612.5</ele><time>2026-04-19T11:33:50Z</time></trkpt><trkpt lat="45.94650447130144" lon="11.554039593333654"><ele>1613.0</ele><time>2026-04-19T11:33:51Z</time></trkpt><trkpt lat="45.94647769773433" lon="11.55424009475229"><ele>1613.0</ele><time>2026-04-19T11:33:52Z</time></trkpt><trkpt lat="45.94648221140207" lon="11.554434161655518"><ele>1613.0</ele><time>2026-04-19T11:33:53Z</time></trkpt><trkpt lat="45.94648620361305" lon="11.554598903494401"><ele>1613.0</ele><time>2026-04-19T11:33:54Z</time></trkpt><trkpt lat="45.94648843348483" lon="11.554733493928232"><ele>1613.0</ele><time>2026-04-19T11:33:55Z</time></trkpt><trkpt lat="45.94650780611326" lon="11.55484845297667"><ele>1613.0</ele><time>2026-04-19T11:33:56Z</time></trkpt><trkpt lat="45.94655166143584" lon="11.554944041115178"><ele>1613.3333333333333</ele><time>2026-04-19T11:33:57Z</time></trkpt><trkpt lat="45.94660558818597" lon="11.554998542986294"><ele>1613.6666666666665</ele><time>2026-04-19T11:33:58Z</time></trkpt><trkpt lat="45.94667261808832" lon="11.55504602235581"><ele>1614.0</ele><time>2026-04-19T11:33:59Z</time></trkpt><trkpt lat="45.946748260883794" lon="11.55504099503264"><ele>1614.3333333333335</ele><time>2026-04-19T11:34:00Z</time></trkpt><trkpt lat="45.94688367991333" lon="11.555011646727568"><ele>1614.6666666666667</ele><time>2026-04-19T11:34:02Z</time></trkpt><trkpt lat="45.946936735111635" lon="11.554950871865605"><ele>1615.0</ele><time>2026-04-19T11:34:03Z</time></trkpt><trkpt lat="45.94702460334376" lon="11.55484844288848"><ele>1614.1666666666667</ele><time>2026-04-19T11:34:05Z</time></trkpt><trkpt lat="45.94708956024784" lon="11.554752277406935"><ele>1613.3333333333335</ele><time>2026-04-19T11:34:07Z</time></trkpt><trkpt lat="45.94715846808206" lon="11.55468603337007"><ele>1612.5</ele><time>2026-04-19T11:34:09Z</time></trkpt><trkpt lat="45.94721533796561" lon="11.554619253123663"><ele>1611.6666666666665</ele><time>2026-04-19T11:34:11Z</time></trkpt><trkpt lat="45.947263617387925" lon="11.55455567394695"><ele>1610.8333333333333</ele><time>2026-04-19T11:34:13Z</time></trkpt><trkpt lat="45.947198772510504" lon="11.55458801643593"><ele>1610.0</ele><time>2026-04-19T11:35:05Z</time></trkpt><trkpt lat="45.94714037985395" lon="11.554710864030108"><ele>1609.9999999999998</ele><time>2026-04-19T11:35:07Z</time></trkpt><trkpt lat="45.947075859329814" lon="11.554763968135715"><ele>1610.0</ele><time>2026-04-19T11:35:08Z</time></trkpt><trkpt lat="45.94697769895441" lon="11.554863417589454"><ele>1610.0</ele><time>2026-04-19T11:35:09Z</time></trkpt><trkpt lat="45.94689962840288" lon="11.554947853167949"><ele>1610.0</ele><time>2026-04-19T11:35:10Z</time></trkpt><trkpt lat="45.94683669026402" lon="11.555000631509177"><ele>1609.9999999999998</ele><time>2026-04-19T11:35:11Z</time></trkpt><trkpt lat="45.94677430798985" lon="11.555031274248233"><ele>1610.0</ele><time>2026-04-19T11:35:12Z</time></trkpt><trkpt lat="45.94670442040083" lon="11.555046607180278"><ele>1610.6</ele><time>2026-04-19T11:35:13Z</time></trkpt><trkpt lat="45.94664182324607" lon="11.555012592249547"><ele>1611.2</ele><time>2026-04-19T11:35:14Z</time></trkpt><trkpt lat="45.94655996344461" lon="11.55489581193699"><ele>1611.8000000000002</ele><time>2026-04-19T11:35:16Z</time></trkpt><trkpt lat="45.94653454768741" lon="11.554792615514966"><ele>1612.4</ele><time>2026-04-19T11:35:17Z</time></trkpt><trkpt lat="45.94651129572263" lon="11.554665631236183"><ele>1613.0</ele><time>2026-04-19T11:35:18Z</time></trkpt><trkpt lat="45.94650881150728" lon="11.55451099925156"><ele>1613.0</ele><time>2026-04-19T11:35:19Z</time></trkpt><trkpt lat="45.94650560406515" lon="11.554318143376268"><ele>1613.0</ele><time>2026-04-19T11:35:20Z</time></trkpt><trkpt lat="45.946509260506495" lon="11.55412828115057"><ele>1613.0</ele><time>2026-04-19T11:35:21Z</time></trkpt><trkpt lat="45.94653025084033" lon="11.55394221857235"><ele>1613.0</ele><time>2026-04-19T11:35:22Z</time></trkpt><trkpt lat="45.94657061797166" lon="11.55379828462268"><ele>1612.6000000000001</ele><time>2026-04-19T11:35:23Z</time></trkpt><trkpt lat="45.94661901849281" lon="11.553673156585884"><ele>1612.2</ele><time>2026-04-19T11:35:24Z</time></trkpt><trkpt lat="45.94667438424988" lon="11.553564595422042"><ele>1611.8</ele><time>2026-04-19T11:35:25Z</time></trkpt><trkpt lat="45.946721047640004" lon="11.553468418748976"><ele>1611.4</ele><time>2026-04-19T11:35:26Z</time></trkpt><trkpt lat="45.946769894639964" lon="11.55337272588361"><ele>1611.0</ele><time>2026-04-19T11:35:27Z</time></trkpt><trkpt lat="45.9468209889647" lon="11.553233546257283"><ele>1611.0</ele><time>2026-04-19T11:35:29Z</time></trkpt><trkpt lat="45.94675073843448" lon="11.553139676180937"><ele>1611.0</ele><time>2026-04-19T11:35:31Z</time></trkpt><trkpt lat="45.946676779051366" lon="11.553229820533701"><ele>1611.0</ele><time>2026-04-19T11:35:33Z</time></trkpt><trkpt lat="45.94662088229008" lon="11.553367371200471"><ele>1611.0</ele><time>2026-04-19T11:35:34Z</time></trkpt><trkpt lat="45.94656011776647" lon="11.553503760887335"><ele>1611.0</ele><time>2026-04-19T11:35:35Z</time></trkpt><trkpt lat="45.94647774164567" lon="11.553644076892818"><ele>1611.5</ele><time>2026-04-19T11:35:36Z</time></trkpt><trkpt lat="45.9463998729123" lon="11.553797746437672"><ele>1612.0</ele><time>2026-04-19T11:35:37Z</time></trkpt><trkpt lat="45.9463063313732" lon="11.553938235108815"><ele>1612.5</ele><time>2026-04-19T11:35:38Z</time></trkpt><trkpt lat="45.94620571783561" lon="11.553997573842919"><ele>1613.0</ele><time>2026-04-19T11:35:39Z</time></trkpt><trkpt lat="45.94608699590867" lon="11.554049875257455"><ele>1613.0</ele><time>2026-04-19T11:35:40Z</time></trkpt><trkpt lat="45.94600304962315" lon="11.554136562410289"><ele>1613.0</ele><time>2026-04-19T11:35:41Z</time></trkpt><trkpt lat="45.945914666648505" lon="11.554214737439569"><ele>1613.0</ele><time>2026-04-19T11:35:42Z</time></trkpt><trkpt lat="45.945839986265185" lon="11.554266126706892"><ele>1613.0</ele><time>2026-04-19T11:35:43Z</time></trkpt><trkpt lat="45.945758074186216" lon="11.55430367945249"><ele>1613.0</ele><time>2026-04-19T11:35:44Z</time></trkpt><trkpt lat="45.94567414078099" lon="11.554325508578193"><ele>1611.0</ele><time>2026-04-19T11:35:45Z</time></trkpt><trkpt lat="45.945586308730206" lon="11.554332872308686"><ele>1609.0</ele><time>2026-04-19T11:35:46Z</time></trkpt><trkpt lat="45.945503024839915" lon="11.554332563890558"><ele>1607.0</ele><time>2026-04-19T11:35:47Z</time></trkpt><trkpt lat="45.94543018978136" lon="11.554323756751462"><ele>1605.0</ele><time>2026-04-19T11:35:48Z</time></trkpt><trkpt lat="45.94530449511677" lon="11.55427549475826"><ele>1603.0</ele><time>2026-04-19T11:35:50Z</time></trkpt><trkpt lat="45.94524524966097" lon="11.554171911034345"><ele>1603.0000000000002</ele><time>2026-04-19T11:35:52Z</time></trkpt><trkpt lat="45.94524656310397" lon="11.554043687029724"><ele>1603.0</ele><time>2026-04-19T11:35:53Z</time></trkpt><trkpt lat="45.945280244259635" lon="11.553907920107248"><ele>1603.0</ele><time>2026-04-19T11:35:54Z</time></trkpt><trkpt lat="45.94531541933556" lon="11.553785031914703"><ele>1603.0</ele><time>2026-04-19T11:35:55Z</time></trkpt><trkpt lat="45.94533670120633" lon="11.55367186755717"><ele>1603.0000000000002</ele><time>2026-04-19T11:35:56Z</time></trkpt><trkpt lat="45.945355569108465" lon="11.553551489935423"><ele>1603.0</ele><time>2026-04-19T11:35:57Z</time></trkpt><trkpt lat="45.945369975764955" lon="11.553413909061694"><ele>1602.5000000000002</ele><time>2026-04-19T11:35:58Z</time></trkpt><trkpt lat="45.94537541842758" lon="11.553290382038615"><ele>1602.0</ele><time>2026-04-19T11:35:59Z</time></trkpt><trkpt lat="45.94537265081989" lon="11.553158696100054"><ele>1601.5</ele><time>2026-04-19T11:36:00Z</time></trkpt><trkpt lat="45.94535281437671" lon="11.553054765533334"><ele>1601.0</ele><time>2026-04-19T11:36:01Z</time></trkpt><trkpt lat="45.94533474794945" lon="11.55295397422905"><ele>1600.5000000000002</ele><time>2026-04-19T11:36:02.001Z</time></trkpt><trkpt lat="45.94531176226137" lon="11.552857419851767"><ele>1600.0</ele><time>2026-04-19T11:36:03.001Z</time></trkpt><trkpt lat="45.94528470059054" lon="11.552760673124506"><ele>1600.0000000000002</ele><time>2026-04-19T11:36:04.001Z</time></trkpt><trkpt lat="45.94524543891854" lon="11.55263199876358"><ele>1600.0</ele><time>2026-04-19T11:36:05.001Z</time></trkpt><trkpt lat="45.94521409971586" lon="11.552529151323368"><ele>1600.0</ele><time>2026-04-19T11:36:06.001Z</time></trkpt><trkpt lat="45.94518578743026" lon="11.552436992799006"><ele>1600.0</ele><time>2026-04-19T11:36:07.001Z</time></trkpt><trkpt lat="45.94516439871555" lon="11.552347600982573"><ele>1600.0000000000002</ele><time>2026-04-19T11:36:08.001Z</time></trkpt><trkpt lat="45.945165856379425" lon="11.552253597654001"><ele>1600.0</ele><time>2026-04-19T11:36:09.001Z</time></trkpt><trkpt lat="45.945150245787836" lon="11.552095536208869"><ele>1602.0</ele><time>2026-04-19T11:36:11.001Z</time></trkpt><trkpt lat="45.945084614189476" lon="11.552013714400136"><ele>1604.0</ele><time>2026-04-19T11:36:13.001Z</time></trkpt><trkpt lat="45.94495825569546" lon="11.552030743342359"><ele>1606.0</ele><time>2026-04-19T11:36:15.001Z</time></trkpt><trkpt lat="45.944938893355214" lon="11.552213563334247"><ele>1608.0</ele><time>2026-04-19T11:36:16.001Z</time></trkpt><trkpt lat="45.944932959293354" lon="11.552317163616133"><ele>1610.0</ele><time>2026-04-19T11:36:17.001Z</time></trkpt><trkpt lat="45.94491545909761" lon="11.552434925951752"><ele>1605.8333333333333</ele><time>2026-04-19T11:36:18.001Z</time></trkpt><trkpt lat="45.94489158848415" lon="11.552548623217316"><ele>1601.6666666666665</ele><time>2026-04-19T11:36:19.001Z</time></trkpt><trkpt lat="45.94485570593312" lon="11.5526645183292"><ele>1597.5</ele><time>2026-04-19T11:36:20.001Z</time></trkpt><trkpt lat="45.94481164651793" lon="11.552776256502263"><ele>1593.3333333333335</ele><time>2026-04-19T11:36:21.001Z</time></trkpt><trkpt lat="45.94475998759441" lon="11.552885536082703"><ele>1589.1666666666667</ele><time>2026-04-19T11:36:22.001Z</time></trkpt><trkpt lat="45.9447031672646" lon="11.552990452439047"><ele>1585.0</ele><time>2026-04-19T11:36:23.001Z</time></trkpt><trkpt lat="45.94463561036966" lon="11.553092550958223"><ele>1585.0</ele><time>2026-04-19T11:36:24.001Z</time></trkpt><trkpt lat="45.94455482971111" lon="11.553196820613442"><ele>1585.0</ele><time>2026-04-19T11:36:25.001Z</time></trkpt><trkpt lat="45.944484640009286" lon="11.553287718025542"><ele>1585.0</ele><time>2026-04-19T11:36:26.001Z</time></trkpt><trkpt lat="45.944415584955436" lon="11.553375226320778"><ele>1585.0</ele><time>2026-04-19T11:36:27.001Z</time></trkpt><trkpt lat="45.944350964602926" lon="11.553456653169944"><ele>1585.0</ele><time>2026-04-19T11:36:28.001Z</time></trkpt><trkpt lat="45.94428778494044" lon="11.553536019354874"><ele>1585.0</ele><time>2026-04-19T11:36:29.001Z</time></trkpt><trkpt lat="45.944220222908406" lon="11.55362408253184"><ele>1585.0</ele><time>2026-04-19T11:36:30.001Z</time></trkpt><trkpt lat="45.94415469356983" lon="11.553709496528834"><ele>1585.0</ele><time>2026-04-19T11:36:31.001Z</time></trkpt><trkpt lat="45.94408949148158" lon="11.553798897109967"><ele>1585.0</ele><time>2026-04-19T11:36:32.001Z</time></trkpt><trkpt lat="45.944028701050804" lon="11.553897353425938"><ele>1585.0</ele><time>2026-04-19T11:36:33.001Z</time></trkpt><trkpt lat="45.94397605271694" lon="11.554006645061534"><ele>1585.4</ele><time>2026-04-19T11:36:34.001Z</time></trkpt><trkpt lat="45.943930090604695" lon="11.554119203283825"><ele>1585.8</ele><time>2026-04-19T11:36:35.001Z</time></trkpt><trkpt lat="45.94388049634432" lon="11.554257630292263"><ele>1586.1999999999998</ele><time>2026-04-19T11:36:36.001Z</time></trkpt><trkpt lat="45.94385657361527" lon="11.554397560107065"><ele>1586.6</ele><time>2026-04-19T11:36:37.001Z</time></trkpt><trkpt lat="45.943813717496106" lon="11.554507152586666"><ele>1587.0</ele><time>2026-04-19T11:36:38.001Z</time></trkpt><trkpt lat="45.94376623735966" lon="11.554602408112592"><ele>1587.0</ele><time>2026-04-19T11:36:39.001Z</time></trkpt><trkpt lat="45.94370082768524" lon="11.554676484727043"><ele>1587.0</ele><time>2026-04-19T11:36:40.001Z</time></trkpt><trkpt lat="45.94362288808418" lon="11.554685220079083"><ele>1587.0</ele><time>2026-04-19T11:36:41.001Z</time></trkpt><trkpt lat="45.94355977089367" lon="11.554707330942593"><ele>1587.0</ele><time>2026-04-19T11:36:42.001Z</time></trkpt><trkpt lat="45.94348879655117" lon="11.5547383691765"><ele>1587.0</ele><time>2026-04-19T11:36:43.001Z</time></trkpt><trkpt lat="45.943430671702686" lon="11.554775176862185"><ele>1587.0</ele><time>2026-04-19T11:36:44.001Z</time></trkpt><trkpt lat="45.94336861247663" lon="11.554813180573008"><ele>1587.0</ele><time>2026-04-19T11:36:45.001Z</time></trkpt><trkpt lat="45.94329082545752" lon="11.554820985533931"><ele>1584.3333333333333</ele><time>2026-04-19T11:36:46.001Z</time></trkpt><trkpt lat="45.943215852732266" lon="11.554844941439322"><ele>1581.6666666666665</ele><time>2026-04-19T11:36:47Z</time></trkpt><trkpt lat="45.94314124445126" lon="11.554869610869883"><ele>1579.0</ele><time>2026-04-19T11:36:48Z</time></trkpt><trkpt lat="45.94307581843426" lon="11.554910962052736"><ele>1576.3333333333333</ele><time>2026-04-19T11:36:49Z</time></trkpt><trkpt lat="45.94302110879569" lon="11.55500004053498"><ele>1573.6666666666665</ele><time>2026-04-19T11:36:50Z</time></trkpt><trkpt lat="45.94296782325102" lon="11.555093737591042"><ele>1571.0</ele><time>2026-04-19T11:36:51Z</time></trkpt><trkpt lat="45.942924279903885" lon="11.55521176056852"><ele>1570.9999999999998</ele><time>2026-04-19T11:36:52Z</time></trkpt><trkpt lat="45.942870715084204" lon="11.555296237375092"><ele>1571.0</ele><time>2026-04-19T11:36:53Z</time></trkpt><trkpt lat="45.94281494750674" lon="11.555375156940883"><ele>1571.0</ele><time>2026-04-19T11:36:54Z</time></trkpt><trkpt lat="45.942739302772985" lon="11.555386882107207"><ele>1571.0</ele><time>2026-04-19T11:36:55Z</time></trkpt><trkpt lat="45.94266856339989" lon="11.555428102095982"><ele>1570.9999999999998</ele><time>2026-04-19T11:36:56Z</time></trkpt><trkpt lat="45.942592370677886" lon="11.55549027087736"><ele>1571.0</ele><time>2026-04-19T11:36:57Z</time></trkpt><trkpt lat="45.94252883688545" lon="11.555558248496444"><ele>1572.4999999999998</ele><time>2026-04-19T11:36:58Z</time></trkpt><trkpt lat="45.94247753785899" lon="11.555644936655595"><ele>1574.0</ele><time>2026-04-19T11:36:59Z</time></trkpt><trkpt lat="45.942413976512405" lon="11.555720815462728"><ele>1575.5</ele><time>2026-04-19T11:37:00Z</time></trkpt><trkpt lat="45.94234283967909" lon="11.555796141640831"><ele>1577.0</ele><time>2026-04-19T11:37:01Z</time></trkpt><trkpt lat="45.94228945915814" lon="11.555869932342398"><ele>1578.4999999999998</ele><time>2026-04-19T11:37:02Z</time></trkpt><trkpt lat="45.942221827248176" lon="11.55598446536748"><ele>1580.0</ele><time>2026-04-19T11:37:04Z</time></trkpt><trkpt lat="45.942166858749765" lon="11.556064478601773"><ele>1579.9999999999998</ele><time>2026-04-19T11:37:05Z</time></trkpt><trkpt lat="45.94210276150487" lon="11.556147656446177"><ele>1580.0</ele><time>2026-04-19T11:37:06Z</time></trkpt><trkpt lat="45.94203849760975" lon="11.55624515278185"><ele>1580.0</ele><time>2026-04-19T11:37:07Z</time></trkpt><trkpt lat="45.941978218919374" lon="11.556314613228583"><ele>1580.0</ele><time>2026-04-19T11:37:08Z</time></trkpt><trkpt lat="45.941904546259295" lon="11.556388603292062"><ele>1579.9999999999998</ele><time>2026-04-19T11:37:09Z</time></trkpt><trkpt lat="45.94183729523567" lon="11.556437641876665"><ele>1580.0</ele><time>2026-04-19T11:37:10Z</time></trkpt><trkpt lat="45.94177677966383" lon="11.55649272369689"><ele>1580.8333333333333</ele><time>2026-04-19T11:37:11Z</time></trkpt><trkpt lat="45.941714239157434" lon="11.556539982403187"><ele>1581.6666666666665</ele><time>2026-04-19T11:37:12Z</time></trkpt><trkpt lat="45.941650670147766" lon="11.556570057260409"><ele>1582.5</ele><time>2026-04-19T11:37:13Z</time></trkpt><trkpt lat="45.94153964643052" lon="11.556612876579743"><ele>1583.3333333333335</ele><time>2026-04-19T11:37:15Z</time></trkpt><trkpt lat="45.94145621565737" lon="11.556664436369703"><ele>1584.1666666666667</ele><time>2026-04-19T11:37:17Z</time></trkpt><trkpt lat="45.94139040963524" lon="11.556744065489081"><ele>1585.0</ele><time>2026-04-19T11:37:19Z</time></trkpt><trkpt lat="45.941395641199335" lon="11.556899850039082"><ele>1585.0</ele><time>2026-04-19T11:37:21Z</time></trkpt><trkpt lat="45.94149217492347" lon="11.556954644669716"><ele>1585.0</ele><time>2026-04-19T11:37:23Z</time></trkpt><trkpt lat="45.941552709989566" lon="11.557076282185285"><ele>1585.0</ele><time>2026-04-19T11:37:25Z</time></trkpt><trkpt lat="45.941600507200945" lon="11.557204384556506"><ele>1585.0</ele><time>2026-04-19T11:37:26Z</time></trkpt><trkpt lat="45.94164002278356" lon="11.557306104049523"><ele>1585.0</ele><time>2026-04-19T11:37:27Z</time></trkpt><trkpt lat="45.9416841895812" lon="11.557392682442865"><ele>1585.5000000000002</ele><time>2026-04-19T11:37:28Z</time></trkpt><trkpt lat="45.94171498698234" lon="11.557486921128978"><ele>1586.0</ele><time>2026-04-19T11:37:29Z</time></trkpt><trkpt lat="45.94175052230771" lon="11.557570288655075"><ele>1586.5</ele><time>2026-04-19T11:37:30.001Z</time></trkpt><trkpt lat="45.94175645694994" lon="11.557681292237662"><ele>1587.0</ele><time>2026-04-19T11:37:31.001Z</time></trkpt><trkpt lat="45.94179450161385" lon="11.557787343604371"><ele>1587.5000000000002</ele><time>2026-04-19T11:37:32.001Z</time></trkpt><trkpt lat="45.94182604930321" lon="11.557902112716308"><ele>1588.0</ele><time>2026-04-19T11:37:33.001Z</time></trkpt><trkpt lat="45.94183280254836" lon="11.558031979703628"><ele>1592.5000000000002</ele><time>2026-04-19T11:37:34.001Z</time></trkpt><trkpt lat="45.94180198777653" lon="11.558132098792058"><ele>1597.0</ele><time>2026-04-19T11:37:35.001Z</time></trkpt><trkpt lat="45.941792350105274" lon="11.558236546996467"><ele>1601.5</ele><time>2026-04-19T11:37:36.001Z</time></trkpt><trkpt lat="45.94176699779647" lon="11.55835368918005"><ele>1606.0</ele><time>2026-04-19T11:37:37.001Z</time></trkpt><trkpt lat="45.94175274987488" lon="11.55848728439234"><ele>1610.5000000000002</ele><time>2026-04-19T11:37:38.001Z</time></trkpt><trkpt lat="45.941748604977185" lon="11.558606116391434"><ele>1615.0</ele><time>2026-04-19T11:37:39.001Z</time></trkpt><trkpt lat="45.94175120450768" lon="11.55871281067336"><ele>1615.0000000000002</ele><time>2026-04-19T11:37:40.001Z</time></trkpt><trkpt lat="45.941729585564744" lon="11.558879162411845"><ele>1615.0</ele><time>2026-04-19T11:37:42.001Z</time></trkpt><trkpt lat="45.9416542819219" lon="11.558936163641405"><ele>1615.0</ele><time>2026-04-19T11:37:44.001Z</time></trkpt><trkpt lat="45.941591369587535" lon="11.558982142184613"><ele>1615.0</ele><time>2026-04-19T11:37:46.001Z</time></trkpt><trkpt lat="45.941497713732424" lon="11.55898718339489"><ele>1615.0000000000002</ele><time>2026-04-19T11:37:48.001Z</time></trkpt><trkpt lat="45.941425510571285" lon="11.558964595874205"><ele>1615.0</ele><time>2026-04-19T11:37:49.001Z</time></trkpt><trkpt lat="45.94131652789328" lon="11.558954747424329"><ele>1612.1666666666667</ele><time>2026-04-19T11:37:51.001Z</time></trkpt><trkpt lat="45.94124637806954" lon="11.558975821681683"><ele>1609.3333333333335</ele><time>2026-04-19T11:37:52.001Z</time></trkpt><trkpt lat="45.94114590346697" lon="11.559020631402207"><ele>1606.5</ele><time>2026-04-19T11:37:53.001Z</time></trkpt><trkpt lat="45.94106720559269" lon="11.559058862901889"><ele>1603.6666666666665</ele><time>2026-04-19T11:37:54.001Z</time></trkpt><trkpt lat="45.94100205175128" lon="11.559113097196951"><ele>1600.8333333333333</ele><time>2026-04-19T11:37:55.001Z</time></trkpt><trkpt lat="45.94094477894581" lon="11.559191718091457"><ele>1598.0</ele><time>2026-04-19T11:37:56.001Z</time></trkpt><trkpt lat="45.94090192227202" lon="11.559270174551862"><ele>1597.8333333333333</ele><time>2026-04-19T11:37:57.001Z</time></trkpt><trkpt lat="45.940866068235486" lon="11.559355205824275"><ele>1597.6666666666665</ele><time>2026-04-19T11:37:58.001Z</time></trkpt><trkpt lat="45.940809929327195" lon="11.559477068383686"><ele>1597.5</ele><time>2026-04-19T11:38:00.001Z</time></trkpt><trkpt lat="45.94077109160199" lon="11.559567604037683"><ele>1597.3333333333335</ele><time>2026-04-19T11:38:02.001Z</time></trkpt><trkpt lat="45.94072632255247" lon="11.559632071170993"><ele>1597.1666666666667</ele><time>2026-04-19T11:38:03.001Z</time></trkpt><trkpt lat="45.94068152334577" lon="11.559747034063406"><ele>1597.0</ele><time>2026-04-19T11:38:05.001Z</time></trkpt><trkpt lat="45.94061800746151" lon="11.559860025046122"><ele>1597.0</ele><time>2026-04-19T11:38:07.001Z</time></trkpt><trkpt lat="45.940566158378616" lon="11.559987553715695"><ele>1597.0</ele><time>2026-04-19T11:38:09.001Z</time></trkpt><trkpt lat="45.94051821676822" lon="11.560110059823574"><ele>1597.0</ele><time>2026-04-19T11:38:11.001Z</time></trkpt><trkpt lat="45.9404667230987" lon="11.560209274176275"><ele>1597.0</ele><time>2026-04-19T11:38:13.001Z</time></trkpt><trkpt lat="45.94042551178513" lon="11.560329640021543"><ele>1597.0</ele><time>2026-04-19T11:38:15.001Z</time></trkpt><trkpt lat="45.94035103489866" lon="11.560366972449449"><ele>1597.0000000000002</ele><time>2026-04-19T11:38:17.001Z</time></trkpt><trkpt lat="45.94028588431244" lon="11.560402830054418"><ele>1597.0</ele><time>2026-04-19T11:38:19.001Z</time></trkpt><trkpt lat="45.94020877352573" lon="11.560388406084387"><ele>1597.0</ele><time>2026-04-19T11:38:21.001Z</time></trkpt><trkpt lat="45.94013034067625" lon="11.560348327288319"><ele>1597.0</ele><time>2026-04-19T11:38:23.001Z</time></trkpt><trkpt lat="45.94005569308779" lon="11.560291508367271"><ele>1597.0000000000002</ele><time>2026-04-19T11:38:25.001Z</time></trkpt><trkpt lat="45.93997194467831" lon="11.560221193711284"><ele>1597.0</ele><time>2026-04-19T11:38:27.001Z</time></trkpt><trkpt lat="45.939897338242034" lon="11.560212059055381"><ele>1598.5000000000002</ele><time>2026-04-19T11:38:30.001Z</time></trkpt><trkpt lat="45.939833612161415" lon="11.560195693544948"><ele>1600.0</ele><time>2026-04-19T11:38:32.001Z</time></trkpt><trkpt lat="45.93976643353697" lon="11.560199921534345"><ele>1601.5</ele><time>2026-04-19T11:38:34.001Z</time></trkpt><trkpt lat="45.9396769457925" lon="11.560229377934736"><ele>1603.0</ele><time>2026-04-19T11:38:36.001Z</time></trkpt><trkpt lat="45.93960744931627" lon="11.560277632338655"><ele>1604.5000000000002</ele><time>2026-04-19T11:38:38.001Z</time></trkpt><trkpt lat="45.93954080854966" lon="11.56032817273273"><ele>1606.0</ele><time>2026-04-19T11:38:40.002Z</time></trkpt><trkpt lat="45.93945718812197" lon="11.560379026566418"><ele>1606.0</ele><time>2026-04-19T11:38:42.002Z</time></trkpt><trkpt lat="45.93938204325658" lon="11.560441977860133"><ele>1606.0</ele><time>2026-04-19T11:38:44.002Z</time></trkpt><trkpt lat="45.9392964724983" lon="11.560515924428717"><ele>1606.0</ele><time>2026-04-19T11:38:58.001Z</time></trkpt><trkpt lat="45.93918845005271" lon="11.560577568888656"><ele>1606.0</ele><time>2026-04-19T11:39:00.001Z</time></trkpt><trkpt lat="45.93911148205676" lon="11.560617653481266"><ele>1606.0</ele><time>2026-04-19T11:39:01.001Z</time></trkpt><trkpt lat="45.9390286869703" lon="11.560679539530335"><ele>1605.4</ele><time>2026-04-19T11:39:02.001Z</time></trkpt><trkpt lat="45.93897451603889" lon="11.560745842530132"><ele>1604.8</ele><time>2026-04-19T11:39:03.001Z</time></trkpt><trkpt lat="45.938907344147275" lon="11.560884523489063"><ele>1604.2</ele><time>2026-04-19T11:39:05.001Z</time></trkpt><trkpt lat="45.938885191525095" lon="11.561095098674219"><ele>1603.6000000000001</ele><time>2026-04-19T11:39:07.001Z</time></trkpt><trkpt lat="45.93888528198907" lon="11.561196967553547"><ele>1603.0</ele><time>2026-04-19T11:39:08.001Z</time></trkpt><trkpt lat="45.9388878429317" lon="11.56132708831347"><ele>1603.0000000000002</ele><time>2026-04-19T11:39:09.001Z</time></trkpt><trkpt lat="45.93888348257433" lon="11.561457643278718"><ele>1603.0</ele><time>2026-04-19T11:39:10.001Z</time></trkpt><trkpt lat="45.93887421025619" lon="11.56155909165292"><ele>1603.0</ele><time>2026-04-19T11:39:11.001Z</time></trkpt><trkpt lat="45.93885817152388" lon="11.561660156360075"><ele>1603.0</ele><time>2026-04-19T11:39:12.001Z</time></trkpt><trkpt lat="45.938828511945104" lon="11.56177131582355"><ele>1603.0000000000002</ele><time>2026-04-19T11:39:13.001Z</time></trkpt><trkpt lat="45.93880086189862" lon="11.561884097512644"><ele>1603.0</ele><time>2026-04-19T11:39:14.001Z</time></trkpt><trkpt lat="45.938779701237614" lon="11.562003081262171"><ele>1603.75</ele><time>2026-04-19T11:39:15.001Z</time></trkpt><trkpt lat="45.938776359994364" lon="11.562207406600901"><ele>1604.5</ele><time>2026-04-19T11:39:17.001Z</time></trkpt><trkpt lat="45.93880814726865" lon="11.56231846758766"><ele>1605.25</ele><time>2026-04-19T11:39:18.001Z</time></trkpt><trkpt lat="45.93882987435319" lon="11.562421216574442"><ele>1606.0</ele><time>2026-04-19T11:39:19.001Z</time></trkpt><trkpt lat="45.938865705254884" lon="11.56264865606313"><ele>1606.0</ele><time>2026-04-19T11:39:21.001Z</time></trkpt><trkpt lat="45.93887650545954" lon="11.562811826003603"><ele>1606.0</ele><time>2026-04-19T11:39:22.001Z</time></trkpt><trkpt lat="45.93887262120476" lon="11.56295887614134"><ele>1606.0</ele><time>2026-04-19T11:39:23.001Z</time></trkpt><trkpt lat="45.93887091179681" lon="11.563071564015459"><ele>1606.0</ele><time>2026-04-19T11:39:24.001Z</time></trkpt><trkpt lat="45.93888217149561" lon="11.563179193059707"><ele>1606.0</ele><time>2026-04-19T11:39:25.001Z</time></trkpt><trkpt lat="45.938927195807054" lon="11.563328691385195"><ele>1605.4</ele><time>2026-04-19T11:39:27.001Z</time></trkpt><trkpt lat="45.93897467134961" lon="11.563415370648956"><ele>1604.8</ele><time>2026-04-19T11:39:28.001Z</time></trkpt><trkpt lat="45.93901550145981" lon="11.563584635343133"><ele>1604.2</ele><time>2026-04-19T11:39:30.001Z</time></trkpt><trkpt lat="45.93899590878014" lon="11.563733272906163"><ele>1603.6000000000001</ele><time>2026-04-19T11:39:32.001Z</time></trkpt><trkpt lat="45.93894952738996" lon="11.563847145763235"><ele>1603.0</ele><time>2026-04-19T11:39:34.001Z</time></trkpt><trkpt lat="45.938918463539515" lon="11.56398203986772"><ele>1602.6000000000001</ele><time>2026-04-19T11:39:36.001Z</time></trkpt><trkpt lat="45.93891809166856" lon="11.564126172901322"><ele>1602.2</ele><time>2026-04-19T11:39:38.001Z</time></trkpt><trkpt lat="45.93895118967682" lon="11.564274124248982"><ele>1601.8</ele><time>2026-04-19T11:39:40.001Z</time></trkpt><trkpt lat="45.9389932067166" lon="11.56434951506778"><ele>1601.4</ele><time>2026-04-19T11:39:41.001Z</time></trkpt><trkpt lat="45.93904645782475" lon="11.564442596529561"><ele>1601.0</ele><time>2026-04-19T11:39:43.001Z</time></trkpt><trkpt lat="45.939100601958714" lon="11.564549722184001"><ele>1601.0</ele><time>2026-04-19T11:39:45.001Z</time></trkpt><trkpt lat="45.93911835824067" lon="11.564703480555261"><ele>1601.0</ele><time>2026-04-19T11:39:54.001Z</time></trkpt><trkpt lat="45.93912246000612" lon="11.564840903634932"><ele>1601.0</ele><time>2026-04-19T11:39:56.001Z</time></trkpt><trkpt lat="45.93911681015166" lon="11.564967875998986"><ele>1601.0</ele><time>2026-04-19T11:39:58.001Z</time></trkpt><trkpt lat="45.93911586001137" lon="11.565092370049483"><ele>1601.0</ele><time>2026-04-19T11:40:00.001Z</time></trkpt><trkpt lat="45.93912046879998" lon="11.565215914109041"><ele>1600.9999999999998</ele><time>2026-04-19T11:40:02.001Z</time></trkpt><trkpt lat="45.93914944416663" lon="11.565320056171378"><ele>1601.0</ele><time>2026-04-19T11:40:04.001Z</time></trkpt><trkpt lat="45.93918681071641" lon="11.565454096398874"><ele>1601.0</ele><time>2026-04-19T11:40:06.001Z</time></trkpt><trkpt lat="45.93920402467415" lon="11.565545698525547"><ele>1601.0</ele><time>2026-04-19T11:40:07.001Z</time></trkpt><trkpt lat="45.939217874923656" lon="11.565701888872725"><ele>1600.9999999999998</ele><time>2026-04-19T11:40:09.001Z</time></trkpt><trkpt lat="45.939231422537375" lon="11.565814241799881"><ele>1601.0</ele><time>2026-04-19T11:40:11.001Z</time></trkpt><trkpt lat="45.939217939226516" lon="11.565717155445281"><ele>1600.9999999999998</ele><time>2026-04-19T11:40:23.001Z</time></trkpt><trkpt lat="45.93921160540581" lon="11.565562474509186"><ele>1601.0</ele><time>2026-04-19T11:40:26.001Z</time></trkpt><trkpt lat="45.93918689671289" lon="11.565444376887726"><ele>1601.0</ele><time>2026-04-19T11:40:28.001Z</time></trkpt><trkpt lat="45.939187538334316" lon="11.565344741324399"><ele>1601.0</ele><time>2026-04-19T11:40:30.001Z</time></trkpt><trkpt lat="45.93915119087524" lon="11.565234918509548"><ele>1600.9999999999998</ele><time>2026-04-19T11:40:33.001Z</time></trkpt><trkpt lat="45.93913781493669" lon="11.565138039618036"><ele>1601.0</ele><time>2026-04-19T11:40:35.002Z</time></trkpt><trkpt lat="45.93914357974679" lon="11.565009573804508"><ele>1601.0</ele><time>2026-04-19T11:40:37.002Z</time></trkpt><trkpt lat="45.93913183745337" lon="11.564903381146083"><ele>1601.0</ele><time>2026-04-19T11:40:39.002Z</time></trkpt><trkpt lat="45.93910745128185" lon="11.564758640608469"><ele>1601.0</ele><time>2026-04-19T11:40:41.002Z</time></trkpt><trkpt lat="45.93910217271549" lon="11.564618635168916"><ele>1601.0</ele><time>2026-04-19T11:40:43.002Z</time></trkpt><trkpt lat="45.939079656240125" lon="11.564479301699313"><ele>1601.0</ele><time>2026-04-19T11:40:45.002Z</time></trkpt><trkpt lat="45.93902942494829" lon="11.56436334820016"><ele>1601.0</ele><time>2026-04-19T11:40:47.002Z</time></trkpt><trkpt lat="45.938969833818334" lon="11.564254461196397"><ele>1601.0</ele><time>2026-04-19T11:40:49.002Z</time></trkpt><trkpt lat="45.93893733962897" lon="11.56414009439196"><ele>1601.0</ele><time>2026-04-19T11:40:51.002Z</time></trkpt><trkpt lat="45.93893381079307" lon="11.564023683346393"><ele>1601.0</ele><time>2026-04-19T11:40:53.002Z</time></trkpt><trkpt lat="45.93896092073721" lon="11.563887960025037"><ele>1601.0</ele><time>2026-04-19T11:40:55.002Z</time></trkpt><trkpt lat="45.93900787272142" lon="11.563759494927156"><ele>1601.3333333333333</ele><time>2026-04-19T11:40:57.002Z</time></trkpt><trkpt lat="45.93903086682355" lon="11.563610417195875"><ele>1601.6666666666665</ele><time>2026-04-19T11:40:59.001Z</time></trkpt><trkpt lat="45.93905788246373" lon="11.56347231433557"><ele>1602.0</ele><time>2026-04-19T11:41:01.001Z</time></trkpt><trkpt lat="45.939000338289766" lon="11.563400997247943"><ele>1602.3333333333335</ele><time>2026-04-19T11:41:02.001Z</time></trkpt><trkpt lat="45.93895967014209" lon="11.563323297369246"><ele>1602.6666666666667</ele><time>2026-04-19T11:41:03.001Z</time></trkpt><trkpt lat="45.938928058835934" lon="11.563238917464604"><ele>1603.0</ele><time>2026-04-19T11:41:04.001Z</time></trkpt><trkpt lat="45.93890319974785" lon="11.56310445494254"><ele>1603.0000000000002</ele><time>2026-04-19T11:41:06.001Z</time></trkpt><trkpt lat="45.9389038400079" lon="11.562963258700359"><ele>1603.0</ele><time>2026-04-19T11:41:08.001Z</time></trkpt><trkpt lat="45.93890928647144" lon="11.562857702557315"><ele>1603.0</ele><time>2026-04-19T11:41:09.001Z</time></trkpt><trkpt lat="45.93890679185299" lon="11.562754446095546"><ele>1603.0</ele><time>2026-04-19T11:41:10.001Z</time></trkpt><trkpt lat="45.93889132417937" lon="11.562577579908645"><ele>1603.0000000000002</ele><time>2026-04-19T11:41:12.001Z</time></trkpt><trkpt lat="45.9388753519897" lon="11.562484323825354"><ele>1603.0</ele><time>2026-04-19T11:41:13.001Z</time></trkpt><trkpt lat="45.938856649736664" lon="11.562378968306188"><ele>1603.0</ele><time>2026-04-19T11:41:14.001Z</time></trkpt><trkpt lat="45.938835873746925" lon="11.562278408281268"><ele>1603.0</ele><time>2026-04-19T11:41:15.001Z</time></trkpt><trkpt lat="45.938819494797436" lon="11.562187130674573"><ele>1603.0</ele><time>2026-04-19T11:41:16.001Z</time></trkpt><trkpt lat="45.93880895726088" lon="11.562091770396387"><ele>1603.0</ele><time>2026-04-19T11:41:17.001Z</time></trkpt><trkpt lat="45.93882687614006" lon="11.56191298076362"><ele>1603.0</ele><time>2026-04-19T11:41:19.001Z</time></trkpt><trkpt lat="45.93887620124965" lon="11.561728683872001"><ele>1603.0</ele><time>2026-04-19T11:41:21.001Z</time></trkpt><trkpt lat="45.93889963466539" lon="11.56161803517962"><ele>1603.0</ele><time>2026-04-19T11:41:22.001Z</time></trkpt><trkpt lat="45.93891127585277" lon="11.561529021904853"><ele>1603.0</ele><time>2026-04-19T11:41:23.001Z</time></trkpt><trkpt lat="45.938919994763815" lon="11.561367085550703"><ele>1603.0</ele><time>2026-04-19T11:41:25.001Z</time></trkpt><trkpt lat="45.93891648421191" lon="11.561181081408064"><ele>1603.0</ele><time>2026-04-19T11:41:27.001Z</time></trkpt><trkpt lat="45.93892550060046" lon="11.561081356233109"><ele>1603.5000000000002</ele><time>2026-04-19T11:41:28.001Z</time></trkpt><trkpt lat="45.93892214487269" lon="11.560988553407004"><ele>1604.0</ele><time>2026-04-19T11:41:29.001Z</time></trkpt><trkpt lat="45.93895584391759" lon="11.56083303651205"><ele>1604.5</ele><time>2026-04-19T11:41:31.001Z</time></trkpt><trkpt lat="45.938998716195215" lon="11.560765741103074"><ele>1605.0</ele><time>2026-04-19T11:41:32.001Z</time></trkpt><trkpt lat="45.939050368887244" lon="11.560706143187197"><ele>1605.5000000000002</ele><time>2026-04-19T11:41:33.001Z</time></trkpt><trkpt lat="45.939162468689794" lon="11.560642362470361"><ele>1606.0</ele><time>2026-04-19T11:41:35.001Z</time></trkpt><trkpt lat="45.93925987859346" lon="11.560591528037572"><ele>1606.0</ele><time>2026-04-19T11:41:37.001Z</time></trkpt><trkpt lat="45.939318907183484" lon="11.560553209520213"><ele>1606.0</ele><time>2026-04-19T11:41:38.001Z</time></trkpt><trkpt lat="45.93942473495686" lon="11.56048665799167"><ele>1606.0</ele><time>2026-04-19T11:41:40.001Z</time></trkpt><trkpt lat="45.93952856339092" lon="11.560404655973572"><ele>1606.0</ele><time>2026-04-19T11:41:42.001Z</time></trkpt><trkpt lat="45.939633110854864" lon="11.560330537437762"><ele>1606.0</ele><time>2026-04-19T11:41:44.001Z</time></trkpt><trkpt lat="45.939743338674774" lon="11.560256540700086"><ele>1606.8</ele><time>2026-04-19T11:41:46.001Z</time></trkpt><trkpt lat="45.93984929285472" lon="11.560238123322781"><ele>1607.6</ele><time>2026-04-19T11:41:48.001Z</time></trkpt><trkpt lat="45.939947690776734" lon="11.560256648728421"><ele>1608.4</ele><time>2026-04-19T11:41:50.001Z</time></trkpt><trkpt lat="45.94003529066478" lon="11.560317282274141"><ele>1609.2</ele><time>2026-04-19T11:41:52.001Z</time></trkpt><trkpt lat="45.94011045198459" lon="11.560368750802697"><ele>1610.0</ele><time>2026-04-19T11:41:54.001Z</time></trkpt><trkpt lat="45.9401828157066" lon="11.560415769947634"><ele>1610.0</ele><time>2026-04-19T11:41:56.001Z</time></trkpt><trkpt lat="45.94026018404902" lon="11.560424503994396"><ele>1610.0</ele><time>2026-04-19T11:41:58.001Z</time></trkpt><trkpt lat="45.94036945555601" lon="11.560423232620792"><ele>1610.0</ele><time>2026-04-19T11:42:00.001Z</time></trkpt><trkpt lat="45.94046618027794" lon="11.560309866805122"><ele>1610.0</ele><time>2026-04-19T11:42:02.001Z</time></trkpt><trkpt lat="45.940527579430466" lon="11.56019924949735"><ele>1610.0</ele><time>2026-04-19T11:42:04.001Z</time></trkpt><trkpt lat="45.94058854509481" lon="11.560052676985677"><ele>1607.4</ele><time>2026-04-19T11:42:06.001Z</time></trkpt><trkpt lat="45.940647020608445" lon="11.559969260383772"><ele>1604.8</ele><time>2026-04-19T11:42:08.001Z</time></trkpt><trkpt lat="45.940696933604" lon="11.559848164723833"><ele>1602.1999999999998</ele><time>2026-04-19T11:42:10.001Z</time></trkpt><trkpt lat="45.94077307013903" lon="11.559715106174192"><ele>1599.6</ele><time>2026-04-19T11:42:12.001Z</time></trkpt><trkpt lat="45.94083513902962" lon="11.55956235613741"><ele>1597.0</ele><time>2026-04-19T11:42:14.001Z</time></trkpt><trkpt lat="45.94086778420173" lon="11.559483224624291"><ele>1597.1666666666667</ele><time>2026-04-19T11:42:15.001Z</time></trkpt><trkpt lat="45.94090349891467" lon="11.55939709089089"><ele>1597.3333333333335</ele><time>2026-04-19T11:42:16.001Z</time></trkpt><trkpt lat="45.940951410519915" lon="11.55931742973963"><ele>1597.5</ele><time>2026-04-19T11:42:17.001Z</time></trkpt><trkpt lat="45.9409920239599" lon="11.559228468202445"><ele>1597.6666666666665</ele><time>2026-04-19T11:42:18.001Z</time></trkpt><trkpt lat="45.94103247225317" lon="11.559154389191889"><ele>1597.8333333333333</ele><time>2026-04-19T11:42:19.001Z</time></trkpt><trkpt lat="45.94112673993176" lon="11.559059872623807"><ele>1598.0</ele><time>2026-04-19T11:42:21.001Z</time></trkpt><trkpt lat="45.941233536635856" lon="11.559021618384218"><ele>1598.0</ele><time>2026-04-19T11:42:23.001Z</time></trkpt><trkpt lat="45.941343379857194" lon="11.558981990171302"><ele>1598.0</ele><time>2026-04-19T11:42:25.001Z</time></trkpt><trkpt lat="45.941441319178786" lon="11.55901524497058"><ele>1598.0</ele><time>2026-04-19T11:42:27.001Z</time></trkpt><trkpt lat="45.94153051003258" lon="11.559032510592953"><ele>1598.0</ele><time>2026-04-19T11:42:29.001Z</time></trkpt><trkpt lat="45.94163992073234" lon="11.559007429808934"><ele>1598.0</ele><time>2026-04-19T11:42:31.001Z</time></trkpt><trkpt lat="45.941737171475204" lon="11.558933063927615"><ele>1600.8333333333333</ele><time>2026-04-19T11:42:33.001Z</time></trkpt><trkpt lat="45.94178550417088" lon="11.558822763682032"><ele>1603.6666666666665</ele><time>2026-04-19T11:42:35.001Z</time></trkpt><trkpt lat="45.94178419830119" lon="11.558675336772225"><ele>1606.5</ele><time>2026-04-19T11:42:37.001Z</time></trkpt><trkpt lat="45.94178210469769" lon="11.558576823851844"><ele>1609.3333333333335</ele><time>2026-04-19T11:42:39.001Z</time></trkpt><trkpt lat="45.94178740913819" lon="11.558467954995667"><ele>1612.1666666666667</ele><time>2026-04-19T11:42:41.001Z</time></trkpt><trkpt lat="45.941808313694835" lon="11.55831789171118"><ele>1615.0</ele><time>2026-04-19T11:42:44.001Z</time></trkpt><trkpt lat="45.94182652451592" lon="11.558211326893451"><ele>1615.1666666666667</ele><time>2026-04-19T11:42:46.001Z</time></trkpt><trkpt lat="45.9418508901226" lon="11.558104601377764"><ele>1615.3333333333335</ele><time>2026-04-19T11:42:48.001Z</time></trkpt><trkpt lat="45.941871451298006" lon="11.55798027244309"><ele>1615.5</ele><time>2026-04-19T11:42:50.001Z</time></trkpt><trkpt lat="45.94187833600034" lon="11.557851792776066"><ele>1615.6666666666665</ele><time>2026-04-19T11:42:52.001Z</time></trkpt><trkpt lat="45.94184743495361" lon="11.557716178897902"><ele>1615.8333333333333</ele><time>2026-04-19T11:42:54.001Z</time></trkpt><trkpt lat="45.94180477318287" lon="11.557622597485327"><ele>1616.0</ele><time>2026-04-19T11:42:56.001Z</time></trkpt><trkpt lat="45.94175842426248" lon="11.557542000011859"><ele>1615.4999999999998</ele><time>2026-04-19T11:42:58.001Z</time></trkpt><trkpt lat="45.94174302544731" lon="11.557445142656691"><ele>1615.0</ele><time>2026-04-19T11:43:00.001Z</time></trkpt><trkpt lat="45.94170570764565" lon="11.557338837900405"><ele>1614.5</ele><time>2026-04-19T11:43:02.001Z</time></trkpt><trkpt lat="45.941660459867265" lon="11.557224989048521"><ele>1614.0</ele><time>2026-04-19T11:43:04.001Z</time></trkpt><trkpt lat="45.94159497596544" lon="11.55711670275544"><ele>1613.4999999999998</ele><time>2026-04-19T11:43:06.001Z</time></trkpt><trkpt lat="45.94154317334142" lon="11.557006457053454"><ele>1613.0</ele><time>2026-04-19T11:43:08.001Z</time></trkpt><trkpt lat="45.941485593135354" lon="11.55690230385516"><ele>1611.4285714285713</ele><time>2026-04-19T11:43:10.001Z</time></trkpt><trkpt lat="45.94144255370586" lon="11.556819077691438"><ele>1609.857142857143</ele><time>2026-04-19T11:43:12.001Z</time></trkpt><trkpt lat="45.94146565670053" lon="11.556721848487223"><ele>1608.2857142857142</ele><time>2026-04-19T11:43:15.001Z</time></trkpt><trkpt lat="45.94153820224979" lon="11.556667968616692"><ele>1606.7142857142858</ele><time>2026-04-19T11:43:17.001Z</time></trkpt><trkpt lat="45.94159764801961" lon="11.55662688178052"><ele>1605.142857142857</ele><time>2026-04-19T11:43:18Z</time></trkpt><trkpt lat="45.94167252058818" lon="11.556602524245406"><ele>1603.5714285714284</ele><time>2026-04-19T11:43:19Z</time></trkpt><trkpt lat="45.94173726144655" lon="11.556562139980668"><ele>1602.0</ele><time>2026-04-19T11:43:20Z</time></trkpt><trkpt lat="45.9418092136723" lon="11.55651672868121"><ele>1602.0</ele><time>2026-04-19T11:43:21Z</time></trkpt><trkpt lat="45.941877812461016" lon="11.556451901418734"><ele>1602.0</ele><time>2026-04-19T11:43:22Z</time></trkpt><trkpt lat="45.9419397668417" lon="11.556364076224641"><ele>1602.0</ele><time>2026-04-19T11:43:23Z</time></trkpt><trkpt lat="45.94202140965714" lon="11.556324032539218"><ele>1602.0</ele><time>2026-04-19T11:43:24Z</time></trkpt><trkpt lat="45.94208799514778" lon="11.556255385111074"><ele>1602.0</ele><time>2026-04-19T11:43:25Z</time></trkpt><trkpt lat="45.94214995766922" lon="11.55617285721218"><ele>1602.0</ele><time>2026-04-19T11:43:26Z</time></trkpt><trkpt lat="45.94220954939967" lon="11.55608405832156"><ele>1598.3333333333333</ele><time>2026-04-19T11:43:27Z</time></trkpt><trkpt lat="45.9422746384213" lon="11.55598433079407"><ele>1594.6666666666665</ele><time>2026-04-19T11:43:28Z</time></trkpt><trkpt lat="45.94233740165115" lon="11.555889827629663"><ele>1591.0</ele><time>2026-04-19T11:43:29Z</time></trkpt><trkpt lat="45.94239093628184" lon="11.555809660539074"><ele>1587.3333333333333</ele><time>2026-04-19T11:43:30Z</time></trkpt><trkpt lat="45.94244077332929" lon="11.555745482605767"><ele>1583.6666666666665</ele><time>2026-04-19T11:43:31Z</time></trkpt><trkpt lat="45.94249183163049" lon="11.555673518553496"><ele>1580.0</ele><time>2026-04-19T11:43:32Z</time></trkpt><trkpt lat="45.94254421577309" lon="11.555611586250079"><ele>1578.4999999999998</ele><time>2026-04-19T11:43:33Z</time></trkpt><trkpt lat="45.942599489123" lon="11.555554790949095"><ele>1577.0</ele><time>2026-04-19T11:43:34Z</time></trkpt><trkpt lat="45.94265758379238" lon="11.555499383058601"><ele>1575.5</ele><time>2026-04-19T11:43:35Z</time></trkpt><trkpt lat="45.94272686843736" lon="11.55545555981664"><ele>1574.0</ele><time>2026-04-19T11:43:36Z</time></trkpt><trkpt lat="45.942802832275376" lon="11.555405172147264"><ele>1572.4999999999998</ele><time>2026-04-19T11:43:37Z</time></trkpt><trkpt lat="45.94287468182037" lon="11.555354602940808"><ele>1571.0</ele><time>2026-04-19T11:43:38Z</time></trkpt><trkpt lat="45.94293962921532" lon="11.555273402081898"><ele>1570.9999999999998</ele><time>2026-04-19T11:43:39Z</time></trkpt><trkpt lat="45.94297768748038" lon="11.555184569027462"><ele>1571.0</ele><time>2026-04-19T11:43:40Z</time></trkpt><trkpt lat="45.94300837407502" lon="11.555090090279942"><ele>1571.0</ele><time>2026-04-19T11:43:41Z</time></trkpt><trkpt lat="45.94304574112522" lon="11.555015138947569"><ele>1571.0</ele><time>2026-04-19T11:43:42Z</time></trkpt><trkpt lat="45.943098665876896" lon="11.5549624085001"><ele>1571.0</ele><time>2026-04-19T11:43:43Z</time></trkpt><trkpt lat="45.943163337084336" lon="11.55492233831805"><ele>1570.9999999999998</ele><time>2026-04-19T11:43:44Z</time></trkpt><trkpt lat="45.943230841102064" lon="11.55488910780373"><ele>1571.0</ele><time>2026-04-19T11:43:45Z</time></trkpt><trkpt lat="45.943308011113096" lon="11.55487658632434"><ele>1571.0</ele><time>2026-04-19T11:43:46Z</time></trkpt><trkpt lat="45.94337522838373" lon="11.554862776233648"><ele>1571.0</ele><time>2026-04-19T11:43:47.001Z</time></trkpt><trkpt lat="45.94343756662046" lon="11.554846373009442"><ele>1571.0</ele><time>2026-04-19T11:43:48.001Z</time></trkpt><trkpt lat="45.94353061968742" lon="11.554818893134039"><ele>1571.0</ele><time>2026-04-19T11:43:50.001Z</time></trkpt><trkpt lat="45.94357895142987" lon="11.554758626212484"><ele>1571.0</ele><time>2026-04-19T11:43:52.001Z</time></trkpt><trkpt lat="45.9435488883276" lon="11.554429291168457"><ele>1572.25</ele><time>2026-04-19T11:43:55.001Z</time></trkpt><trkpt lat="45.94349584822382" lon="11.554238755655138"><ele>1573.5</ele><time>2026-04-19T11:43:56.001Z</time></trkpt><trkpt lat="45.94344826253511" lon="11.554029555639447"><ele>1574.75</ele><time>2026-04-19T11:43:57.001Z</time></trkpt><trkpt lat="45.94341032259904" lon="11.553847894267525"><ele>1576.0</ele><time>2026-04-19T11:43:58.001Z</time></trkpt><trkpt lat="45.94336966844017" lon="11.553689296112486"><ele>1571.25</ele><time>2026-04-19T11:43:59.001Z</time></trkpt><trkpt lat="45.94332523439097" lon="11.553532562911471"><ele>1566.5</ele><time>2026-04-19T11:44:00.001Z</time></trkpt><trkpt lat="45.943272908472814" lon="11.553402595461385"><ele>1561.75</ele><time>2026-04-19T11:44:01.001Z</time></trkpt><trkpt lat="45.94319600952291" lon="11.553283698420227"><ele>1557.0</ele><time>2026-04-19T11:44:02.001Z</time></trkpt><trkpt lat="45.94308589068895" lon="11.553227351903358"><ele>1557.0</ele><time>2026-04-19T11:44:03.001Z</time></trkpt><trkpt lat="45.94294989387144" lon="11.5531921525246"><ele>1557.0</ele><time>2026-04-19T11:44:04.001Z</time></trkpt><trkpt lat="45.9428014543055" lon="11.553177876632683"><ele>1557.0</ele><time>2026-04-19T11:44:05.001Z</time></trkpt><trkpt lat="45.94264882148704" lon="11.553178322562797"><ele>1557.0</ele><time>2026-04-19T11:44:06.001Z</time></trkpt><trkpt lat="45.94248958429288" lon="11.553180996121004"><ele>1554.6666666666665</ele><time>2026-04-19T11:44:07.001Z</time></trkpt><trkpt lat="45.94232829390182" lon="11.553188857226404"><ele>1552.3333333333333</ele><time>2026-04-19T11:44:08.001Z</time></trkpt><trkpt lat="45.9421647199245" lon="11.553205310060381"><ele>1550.0</ele><time>2026-04-19T11:44:09.001Z</time></trkpt><trkpt lat="45.94199423388343" lon="11.553237757653964"><ele>1550.0</ele><time>2026-04-19T11:44:10.001Z</time></trkpt><trkpt lat="45.94183193197178" lon="11.553302230634728"><ele>1550.0</ele><time>2026-04-19T11:44:11.001Z</time></trkpt><trkpt lat="45.941670176174796" lon="11.553329114668177"><ele>1550.0</ele><time>2026-04-19T11:44:12.001Z</time></trkpt><trkpt lat="45.94152541198389" lon="11.553437872415506"><ele>1551.25</ele><time>2026-04-19T11:44:13.001Z</time></trkpt><trkpt lat="45.941410665678724" lon="11.553580918480591"><ele>1552.5</ele><time>2026-04-19T11:44:14.001Z</time></trkpt><trkpt lat="45.941288985118604" lon="11.553694847581955"><ele>1553.75</ele><time>2026-04-19T11:44:15.001Z</time></trkpt><trkpt lat="45.94117802686862" lon="11.553796636417028"><ele>1555.0</ele><time>2026-04-19T11:44:16.001Z</time></trkpt><trkpt lat="45.94104968167048" lon="11.55379276338948"><ele>1550.6666666666667</ele><time>2026-04-19T11:44:17.001Z</time></trkpt><trkpt lat="45.94087597964871" lon="11.553800601884205"><ele>1546.3333333333335</ele><time>2026-04-19T11:44:18.001Z</time></trkpt><trkpt lat="45.94071253800745" lon="11.553804917055068"><ele>1542.0</ele><time>2026-04-19T11:44:19.001Z</time></trkpt><trkpt lat="45.94054902392405" lon="11.553816994422936"><ele>1542.0</ele><time>2026-04-19T11:44:20.001Z</time></trkpt><trkpt lat="45.940397688873844" lon="11.553838456961632"><ele>1542.0</ele><time>2026-04-19T11:44:21.001Z</time></trkpt><trkpt lat="45.94027354761884" lon="11.553875806255489"><ele>1542.0</ele><time>2026-04-19T11:44:22.001Z</time></trkpt><trkpt lat="45.94015735716267" lon="11.55395169113565"><ele>1542.0</ele><time>2026-04-19T11:44:23.001Z</time></trkpt><trkpt lat="45.940052410756415" lon="11.554100632378516"><ele>1536.6666666666667</ele><time>2026-04-19T11:44:24.001Z</time></trkpt><trkpt lat="45.939951485562005" lon="11.554271385964764"><ele>1531.3333333333335</ele><time>2026-04-19T11:44:25.001Z</time></trkpt><trkpt lat="45.93982384311713" lon="11.554437894881096"><ele>1526.0</ele><time>2026-04-19T11:44:26.001Z</time></trkpt><trkpt lat="45.939686287967305" lon="11.554514017647278"><ele>1528.6666666666667</ele><time>2026-04-19T11:44:27.001Z</time></trkpt><trkpt lat="45.93953794140566" lon="11.554550848660558"><ele>1531.3333333333333</ele><time>2026-04-19T11:44:28.001Z</time></trkpt><trkpt lat="45.93938971237049" lon="11.554620550135484"><ele>1534.0</ele><time>2026-04-19T11:44:29.001Z</time></trkpt><trkpt lat="45.93925045882105" lon="11.5546990679127"><ele>1530.75</ele><time>2026-04-19T11:44:30.001Z</time></trkpt><trkpt lat="45.93911995062788" lon="11.55480042585622"><ele>1527.5</ele><time>2026-04-19T11:44:31.001Z</time></trkpt><trkpt lat="45.93900621203196" lon="11.554911720644286"><ele>1524.25</ele><time>2026-04-19T11:44:32.001Z</time></trkpt><trkpt lat="45.93890381966765" lon="11.55503069104528"><ele>1521.0</ele><time>2026-04-19T11:44:33.001Z</time></trkpt><trkpt lat="45.938825814233105" lon="11.555123628606497"><ele>1521.0</ele><time>2026-04-19T11:44:34.001Z</time></trkpt><trkpt lat="45.938747917195215" lon="11.555240497183432"><ele>1521.0</ele><time>2026-04-19T11:44:35.001Z</time></trkpt><trkpt lat="45.938662961553916" lon="11.555309239465213"><ele>1521.0</ele><time>2026-04-19T11:44:36.001Z</time></trkpt><trkpt lat="45.93858765085256" lon="11.555370626225091"><ele>1521.0</ele><time>2026-04-19T11:44:37.001Z</time></trkpt><trkpt lat="45.93854147086972" lon="11.555455567476397"><ele>1521.0</ele><time>2026-04-19T11:44:38.001Z</time></trkpt><trkpt lat="45.938513805259895" lon="11.555541256604235"><ele>1521.0</ele><time>2026-04-19T11:44:40.001Z</time></trkpt><trkpt lat="45.93845653480667" lon="11.5555944636589"><ele>1521.8333333333333</ele><time>2026-04-19T11:44:42.001Z</time></trkpt><trkpt lat="45.938395766580655" lon="11.55564621200041"><ele>1522.6666666666667</ele><time>2026-04-19T11:44:43.001Z</time></trkpt><trkpt lat="45.938330267116356" lon="11.55573191404596"><ele>1523.5</ele><time>2026-04-19T11:44:44.001Z</time></trkpt><trkpt lat="45.93825640348373" lon="11.555829342798742"><ele>1524.3333333333335</ele><time>2026-04-19T11:44:45.001Z</time></trkpt><trkpt lat="45.93819624103313" lon="11.555908886899745"><ele>1525.1666666666667</ele><time>2026-04-19T11:44:46.001Z</time></trkpt><trkpt lat="45.93814310950855" lon="11.555979135006552"><ele>1526.0</ele><time>2026-04-19T11:44:47.001Z</time></trkpt><trkpt lat="45.938038801060486" lon="11.556126673914155"><ele>1524.0</ele><time>2026-04-19T11:44:49.001Z</time></trkpt><trkpt lat="45.937979162126034" lon="11.556233516910883"><ele>1522.0</ele><time>2026-04-19T11:44:50.001Z</time></trkpt><trkpt lat="45.937894804402525" lon="11.556356601181113"><ele>1520.0</ele><time>2026-04-19T11:44:51.001Z</time></trkpt><trkpt lat="45.937811761904456" lon="11.556491760697318"><ele>1518.0</ele><time>2026-04-19T11:44:52.001Z</time></trkpt><trkpt lat="45.937729373188105" lon="11.55664291447972"><ele>1518.0</ele><time>2026-04-19T11:44:53.001Z</time></trkpt><trkpt lat="45.93762368957241" lon="11.556787925538226"><ele>1518.0</ele><time>2026-04-19T11:44:54.001Z</time></trkpt><trkpt lat="45.93748876978034" lon="11.5569034118278"><ele>1518.0</ele><time>2026-04-19T11:44:55.001Z</time></trkpt><trkpt lat="45.93733331885816" lon="11.557020113324896"><ele>1516.0</ele><time>2026-04-19T11:44:56.001Z</time></trkpt><trkpt lat="45.937177460554736" lon="11.557139455491141"><ele>1514.0</ele><time>2026-04-19T11:44:57.001Z</time></trkpt><trkpt lat="45.937036180214875" lon="11.557276130625555"><ele>1512.0</ele><time>2026-04-19T11:44:58.001Z</time></trkpt><trkpt lat="45.93690901912979" lon="11.557404136750884"><ele>1512.0</ele><time>2026-04-19T11:44:59.001Z</time></trkpt><trkpt lat="45.93677974080274" lon="11.557514501206107"><ele>1512.0</ele><time>2026-04-19T11:45:00.001Z</time></trkpt><trkpt lat="45.93665070252142" lon="11.557595819139362"><ele>1512.0</ele><time>2026-04-19T11:45:01.001Z</time></trkpt><trkpt lat="45.936512369741635" lon="11.557678602430917"><ele>1512.0</ele><time>2026-04-19T11:45:02.001Z</time></trkpt><trkpt lat="45.936381421886196" lon="11.55774378527824"><ele>1510.25</ele><time>2026-04-19T11:45:03.001Z</time></trkpt><trkpt lat="45.93625326142017" lon="11.55777793248698"><ele>1508.5</ele><time>2026-04-19T11:45:04.001Z</time></trkpt><trkpt lat="45.936130254089555" lon="11.557784778331696"><ele>1506.75</ele><time>2026-04-19T11:45:05.001Z</time></trkpt><trkpt lat="45.93602390737649" lon="11.557764323494053"><ele>1505.0</ele><time>2026-04-19T11:45:06.001Z</time></trkpt><trkpt lat="45.93592487267549" lon="11.557730699788053"><ele>1504.6</ele><time>2026-04-19T11:45:07.001Z</time></trkpt><trkpt lat="45.935827909669634" lon="11.557658644163103"><ele>1504.2</ele><time>2026-04-19T11:45:08.001Z</time></trkpt><trkpt lat="45.935734834025595" lon="11.557634519335368"><ele>1503.8000000000002</ele><time>2026-04-19T11:45:09.001Z</time></trkpt><trkpt lat="45.93564502797804" lon="11.557577984819893"><ele>1503.4</ele><time>2026-04-19T11:45:10.001Z</time></trkpt><trkpt lat="45.93555134464014" lon="11.557533343973226"><ele>1503.0</ele><time>2026-04-19T11:45:11Z</time></trkpt><trkpt lat="45.93545077848605" lon="11.557500069456529"><ele>1503.0</ele><time>2026-04-19T11:45:12Z</time></trkpt><trkpt lat="45.93534324261773" lon="11.557483698108827"><ele>1503.0</ele><time>2026-04-19T11:45:13Z</time></trkpt><trkpt lat="45.935229217732285" lon="11.557492403862428"><ele>1503.0</ele><time>2026-04-19T11:45:14Z</time></trkpt><trkpt lat="45.93511384433876" lon="11.557511007356311"><ele>1503.0</ele><time>2026-04-19T11:45:15Z</time></trkpt><trkpt lat="45.93499577040151" lon="11.557527111430375"><ele>1501.75</ele><time>2026-04-19T11:45:16Z</time></trkpt><trkpt lat="45.93487335408725" lon="11.557539553574713"><ele>1500.5</ele><time>2026-04-19T11:45:17Z</time></trkpt><trkpt lat="45.934747372272035" lon="11.557557862791896"><ele>1499.25</ele><time>2026-04-19T11:45:18Z</time></trkpt><trkpt lat="45.93461855183482" lon="11.557592255309398"><ele>1498.0</ele><time>2026-04-19T11:45:19Z</time></trkpt><trkpt lat="45.93448410652392" lon="11.557638034379153"><ele>1498.0</ele><time>2026-04-19T11:45:20Z</time></trkpt><trkpt lat="45.93434794156801" lon="11.557693549207787"><ele>1498.0</ele><time>2026-04-19T11:45:21Z</time></trkpt><trkpt lat="45.934215686752445" lon="11.557761199385656"><ele>1498.0</ele><time>2026-04-19T11:45:22Z</time></trkpt><trkpt lat="45.93408047910167" lon="11.557833591264892"><ele>1498.0</ele><time>2026-04-19T11:45:23Z</time></trkpt><trkpt lat="45.93394309914767" lon="11.557902220621177"><ele>1497.3333333333333</ele><time>2026-04-19T11:45:24Z</time></trkpt><trkpt lat="45.933801485598785" lon="11.557965083725477"><ele>1496.6666666666667</ele><time>2026-04-19T11:45:25Z</time></trkpt><trkpt lat="45.933657582893204" lon="11.558027569956469"><ele>1496.0</ele><time>2026-04-19T11:45:26Z</time></trkpt><trkpt lat="45.933507119257406" lon="11.558078125937739"><ele>1493.6666666666667</ele><time>2026-04-19T11:45:27Z</time></trkpt><trkpt lat="45.9333554142554" lon="11.558109499414929"><ele>1491.3333333333333</ele><time>2026-04-19T11:45:28Z</time></trkpt><trkpt lat="45.933193423291954" lon="11.558116079382863"><ele>1489.0</ele><time>2026-04-19T11:45:29Z</time></trkpt><trkpt lat="45.933026349821006" lon="11.558124929393777"><ele>1489.0</ele><time>2026-04-19T11:45:30Z</time></trkpt><trkpt lat="45.93286129828784" lon="11.55814743744647"><ele>1489.0</ele><time>2026-04-19T11:45:31Z</time></trkpt><trkpt lat="45.93270493106243" lon="11.558200602981994"><ele>1489.0</ele><time>2026-04-19T11:45:32Z</time></trkpt><trkpt lat="45.93255102949685" lon="11.558251195277764"><ele>1487.3333333333333</ele><time>2026-04-19T11:45:33Z</time></trkpt><trkpt lat="45.93238745542254" lon="11.558334193833321"><ele>1485.6666666666667</ele><time>2026-04-19T11:45:34Z</time></trkpt><trkpt lat="45.932229015375825" lon="11.558433821766434"><ele>1484.0</ele><time>2026-04-19T11:45:35Z</time></trkpt><trkpt lat="45.93206538754974" lon="11.55849022202281"><ele>1484.0</ele><time>2026-04-19T11:45:36Z</time></trkpt><trkpt lat="45.93190870542098" lon="11.558544339501319"><ele>1484.0</ele><time>2026-04-19T11:45:37Z</time></trkpt><trkpt lat="45.93175476996491" lon="11.558625332231777"><ele>1484.0</ele><time>2026-04-19T11:45:38Z</time></trkpt><trkpt lat="45.931605775901744" lon="11.558734920520068"><ele>1485.0</ele><time>2026-04-19T11:45:39Z</time></trkpt><trkpt lat="45.93146847115716" lon="11.558846442955536"><ele>1486.0</ele><time>2026-04-19T11:45:40Z</time></trkpt><trkpt lat="45.93133278617276" lon="11.558950414543613"><ele>1487.0</ele><time>2026-04-19T11:45:41Z</time></trkpt><trkpt lat="45.93119168742181" lon="11.559041822206005"><ele>1487.0</ele><time>2026-04-19T11:45:42Z</time></trkpt><trkpt lat="45.931044553419895" lon="11.55911418140376"><ele>1487.0</ele><time>2026-04-19T11:45:43Z</time></trkpt><trkpt lat="45.93089988357012" lon="11.559210416458596"><ele>1487.0</ele><time>2026-04-19T11:45:44Z</time></trkpt><trkpt lat="45.93075886348496" lon="11.559317963122798"><ele>1488.25</ele><time>2026-04-19T11:45:45Z</time></trkpt><trkpt lat="45.93064089788254" lon="11.559445884521098"><ele>1489.5</ele><time>2026-04-19T11:45:46Z</time></trkpt><trkpt lat="45.930513211927995" lon="11.559524534745726"><ele>1490.75</ele><time>2026-04-19T11:45:47Z</time></trkpt><trkpt lat="45.93036150515537" lon="11.55958427877587"><ele>1492.0</ele><time>2026-04-19T11:45:48Z</time></trkpt><trkpt lat="45.930199716376926" lon="11.55963718505833"><ele>1489.6666666666665</ele><time>2026-04-19T11:45:49Z</time></trkpt><trkpt lat="45.93004185441855" lon="11.559701847539662"><ele>1487.3333333333333</ele><time>2026-04-19T11:45:50Z</time></trkpt><trkpt lat="45.929883452350175" lon="11.559767600589334"><ele>1485.0</ele><time>2026-04-19T11:45:51Z</time></trkpt><trkpt lat="45.92974380144475" lon="11.559851554835543"><ele>1485.0</ele><time>2026-04-19T11:45:52Z</time></trkpt><trkpt lat="45.92960395140578" lon="11.559933658018261"><ele>1485.0</ele><time>2026-04-19T11:45:53Z</time></trkpt><trkpt lat="45.92948042841845" lon="11.559984341085707"><ele>1485.0</ele><time>2026-04-19T11:45:54Z</time></trkpt><trkpt lat="45.92935438400563" lon="11.560025476742236"><ele>1485.0</ele><time>2026-04-19T11:45:55Z</time></trkpt><trkpt lat="45.92922870711942" lon="11.560032925462375"><ele>1483.75</ele><time>2026-04-19T11:45:56Z</time></trkpt><trkpt lat="45.929104113537" lon="11.559995859034771"><ele>1482.5</ele><time>2026-04-19T11:45:57Z</time></trkpt><trkpt lat="45.928969839823566" lon="11.559952728401196"><ele>1481.25</ele><time>2026-04-19T11:45:58Z</time></trkpt><trkpt lat="45.928836140231084" lon="11.559920124838513"><ele>1480.0</ele><time>2026-04-19T11:45:59Z</time></trkpt><trkpt lat="45.92869249990441" lon="11.559890197394996"><ele>1480.0</ele><time>2026-04-19T11:46:00Z</time></trkpt><trkpt lat="45.92854814663365" lon="11.559848941425546"><ele>1480.0</ele><time>2026-04-19T11:46:01Z</time></trkpt><trkpt lat="45.9284029620649" lon="11.559846955117958"><ele>1480.0</ele><time>2026-04-19T11:46:02Z</time></trkpt><trkpt lat="45.92825171364939" lon="11.559870199642447"><ele>1480.0</ele><time>2026-04-19T11:46:03Z</time></trkpt><trkpt lat="45.92810163494143" lon="11.55991577491203"><ele>1479.3333333333333</ele><time>2026-04-19T11:46:04Z</time></trkpt><trkpt lat="45.9279484706189" lon="11.55996555589601"><ele>1478.6666666666667</ele><time>2026-04-19T11:46:05Z</time></trkpt><trkpt lat="45.92779929663381" lon="11.55999942729201"><ele>1478.0</ele><time>2026-04-19T11:46:06Z</time></trkpt><trkpt lat="45.92762855851922" lon="11.56000585613615"><ele>1475.6666666666667</ele><time>2026-04-19T11:46:07Z</time></trkpt><trkpt lat="45.9274568737947" lon="11.56003060634375"><ele>1473.3333333333333</ele><time>2026-04-19T11:46:08Z</time></trkpt><trkpt lat="45.92730969970835" lon="11.560132195298484"><ele>1471.0</ele><time>2026-04-19T11:46:09Z</time></trkpt><trkpt lat="45.92715268058231" lon="11.560228516906006"><ele>1471.0</ele><time>2026-04-19T11:46:10Z</time></trkpt><trkpt lat="45.92698716079456" lon="11.560287490760784"><ele>1471.0</ele><time>2026-04-19T11:46:11Z</time></trkpt><trkpt lat="45.92682821159168" lon="11.560308514790588"><ele>1471.0</ele><time>2026-04-19T11:46:12Z</time></trkpt><trkpt lat="45.92667842107503" lon="11.560307898108183"><ele>1470.75</ele><time>2026-04-19T11:46:13Z</time></trkpt><trkpt lat="45.92654573196382" lon="11.560302139566948"><ele>1470.5</ele><time>2026-04-19T11:46:14Z</time></trkpt><trkpt lat="45.926424259510966" lon="11.560301477465568"><ele>1470.25</ele><time>2026-04-19T11:46:15.001Z</time></trkpt><trkpt lat="45.92629173031057" lon="11.560311453751568"><ele>1470.0</ele><time>2026-04-19T11:46:16.001Z</time></trkpt><trkpt lat="45.92615076258909" lon="11.560334417001833"><ele>1470.0</ele><time>2026-04-19T11:46:17.001Z</time></trkpt><trkpt lat="45.925980919289856" lon="11.56035418869582"><ele>1470.0</ele><time>2026-04-19T11:46:18.001Z</time></trkpt><trkpt lat="45.92582948062905" lon="11.560387733877917"><ele>1470.0</ele><time>2026-04-19T11:46:19.001Z</time></trkpt><trkpt lat="45.92569044257184" lon="11.560425722010752"><ele>1469.0</ele><time>2026-04-19T11:46:20.001Z</time></trkpt><trkpt lat="45.92554549400021" lon="11.560459815261515"><ele>1468.0</ele><time>2026-04-19T11:46:21.001Z</time></trkpt><trkpt lat="45.92539943143837" lon="11.56048746015757"><ele>1467.0</ele><time>2026-04-19T11:46:22.001Z</time></trkpt><trkpt lat="45.92525558229905" lon="11.56051062783836"><ele>1466.0</ele><time>2026-04-19T11:46:23.001Z</time></trkpt><trkpt lat="45.92511086913508" lon="11.560530299972193"><ele>1465.75</ele><time>2026-04-19T11:46:24.001Z</time></trkpt><trkpt lat="45.92496545945251" lon="11.560540168939083"><ele>1465.5</ele><time>2026-04-19T11:46:25.001Z</time></trkpt><trkpt lat="45.92483152348933" lon="11.560546615239364"><ele>1465.25</ele><time>2026-04-19T11:46:26.001Z</time></trkpt><trkpt lat="45.924704141854875" lon="11.560558217703166"><ele>1465.0</ele><time>2026-04-19T11:46:27.001Z</time></trkpt><trkpt lat="45.924595047062844" lon="11.560566454571635"><ele>1465.0</ele><time>2026-04-19T11:46:28.001Z</time></trkpt><trkpt lat="45.92450725496027" lon="11.560573938754818"><ele>1465.0</ele><time>2026-04-19T11:46:29.001Z</time></trkpt><trkpt lat="45.92443775786902" lon="11.560581129307485"><ele>1465.0</ele><time>2026-04-19T11:46:30.001Z</time></trkpt><trkpt lat="45.92437442830547" lon="11.560584493033577"><ele>1465.0</ele><time>2026-04-19T11:46:31.001Z</time></trkpt><trkpt lat="45.924254202982375" lon="11.56057900747653"><ele>1465.0</ele><time>2026-04-19T11:46:33.001Z</time></trkpt><trkpt lat="45.92414228890502" lon="11.560527350727048"><ele>1465.4</ele><time>2026-04-19T11:46:35.001Z</time></trkpt><trkpt lat="45.92406603952423" lon="11.560478814207197"><ele>1465.8</ele><time>2026-04-19T11:46:36.001Z</time></trkpt><trkpt lat="45.923980009878576" lon="11.56044306035186"><ele>1466.1999999999998</ele><time>2026-04-19T11:46:37.001Z</time></trkpt><trkpt lat="45.9238690828277" lon="11.560435080637957"><ele>1466.6</ele><time>2026-04-19T11:46:38.001Z</time></trkpt><trkpt lat="45.92374060482552" lon="11.560462473022291"><ele>1467.0</ele><time>2026-04-19T11:46:39.001Z</time></trkpt><trkpt lat="45.92359693919991" lon="11.560514645450386"><ele>1467.0</ele><time>2026-04-19T11:46:40.001Z</time></trkpt><trkpt lat="45.92344465077652" lon="11.560580015261378"><ele>1467.0</ele><time>2026-04-19T11:46:41.001Z</time></trkpt><trkpt lat="45.92330335230502" lon="11.560642408160035"><ele>1467.0</ele><time>2026-04-19T11:46:42.001Z</time></trkpt><trkpt lat="45.9231803529153" lon="11.560697152891985"><ele>1467.0</ele><time>2026-04-19T11:46:43.001Z</time></trkpt><trkpt lat="45.92304316085417" lon="11.560754017833162"><ele>1466.25</ele><time>2026-04-19T11:46:44.001Z</time></trkpt><trkpt lat="45.9229146715289" lon="11.560813659708094"><ele>1465.5</ele><time>2026-04-19T11:46:45.001Z</time></trkpt><trkpt lat="45.922797763913486" lon="11.560879009433107"><ele>1464.75</ele><time>2026-04-19T11:46:46.001Z</time></trkpt><trkpt lat="45.922692719335174" lon="11.560942739431706"><ele>1464.0</ele><time>2026-04-19T11:46:47.001Z</time></trkpt><trkpt lat="45.92259417425472" lon="11.560993358097022"><ele>1462.0</ele><time>2026-04-19T11:46:48.001Z</time></trkpt><trkpt lat="45.92251302740736" lon="11.5610225572893"><ele>1460.0</ele><time>2026-04-19T11:46:49.001Z</time></trkpt><trkpt lat="45.92243107403702" lon="11.561034696978382"><ele>1458.0</ele><time>2026-04-19T11:46:50.001Z</time></trkpt><trkpt lat="45.92229249735294" lon="11.561022955866525"><ele>1456.0</ele><time>2026-04-19T11:46:52.001Z</time></trkpt><trkpt lat="45.92214366690797" lon="11.560903682240278"><ele>1456.0</ele><time>2026-04-19T11:46:54.001Z</time></trkpt><trkpt lat="45.92194814975865" lon="11.560863993574014"><ele>1456.0</ele><time>2026-04-19T11:46:55.001Z</time></trkpt><trkpt lat="45.92178691818693" lon="11.560878042283296"><ele>1456.0</ele><time>2026-04-19T11:46:56.001Z</time></trkpt><trkpt lat="45.92162355830927" lon="11.560913488786953"><ele>1453.75</ele><time>2026-04-19T11:46:57.001Z</time></trkpt><trkpt lat="45.92149025758648" lon="11.560963730733544"><ele>1451.5</ele><time>2026-04-19T11:46:58.001Z</time></trkpt><trkpt lat="45.921347966430424" lon="11.56097181767377"><ele>1449.25</ele><time>2026-04-19T11:46:59.001Z</time></trkpt><trkpt lat="45.9212148418644" lon="11.56098962601143"><ele>1447.0</ele><time>2026-04-19T11:47:00.001Z</time></trkpt><trkpt lat="45.92107557335869" lon="11.560988175167807"><ele>1447.0</ele><time>2026-04-19T11:47:01.001Z</time></trkpt><trkpt lat="45.92093994556896" lon="11.561003034842736"><ele>1447.0</ele><time>2026-04-19T11:47:02.001Z</time></trkpt><trkpt lat="45.92081331303598" lon="11.560995418802372"><ele>1447.0</ele><time>2026-04-19T11:47:03.001Z</time></trkpt><trkpt lat="45.920702610705625" lon="11.560983079378818"><ele>1447.0</ele><time>2026-04-19T11:47:04.001Z</time></trkpt><trkpt lat="45.92058921177832" lon="11.560902887652759"><ele>1446.0</ele><time>2026-04-19T11:47:05.001Z</time></trkpt><trkpt lat="45.92048295953895" lon="11.560880949841717"><ele>1445.0</ele><time>2026-04-19T11:47:06.001Z</time></trkpt><trkpt lat="45.92035841422374" lon="11.560900077255953"><ele>1444.0</ele><time>2026-04-19T11:47:07.001Z</time></trkpt><trkpt lat="45.92024800299553" lon="11.560929005346146"><ele>1443.0</ele><time>2026-04-19T11:47:08.001Z</time></trkpt><trkpt lat="45.920157292469966" lon="11.560999007875074"><ele>1442.0</ele><time>2026-04-19T11:47:09.001Z</time></trkpt><trkpt lat="45.92005729674241" lon="11.561035912428885"><ele>1441.6</ele><time>2026-04-19T11:47:10.001Z</time></trkpt><trkpt lat="45.919955001505386" lon="11.561056751598366"><ele>1441.1999999999998</ele><time>2026-04-19T11:47:11.001Z</time></trkpt><trkpt lat="45.9198594910441" lon="11.56110257878611"><ele>1440.8</ele><time>2026-04-19T11:47:12.001Z</time></trkpt><trkpt lat="45.919762100653905" lon="11.561147044397657"><ele>1440.4</ele><time>2026-04-19T11:47:13.001Z</time></trkpt><trkpt lat="45.91966863948236" lon="11.561211879562233"><ele>1440.0</ele><time>2026-04-19T11:47:14.001Z</time></trkpt><trkpt lat="45.91956694799492" lon="11.561246416266155"><ele>1437.5</ele><time>2026-04-19T11:47:15.001Z</time></trkpt><trkpt lat="45.91945734864591" lon="11.561291424158846"><ele>1435.0</ele><time>2026-04-19T11:47:16.001Z</time></trkpt><trkpt lat="45.91935073868148" lon="11.56135947783449"><ele>1432.5</ele><time>2026-04-19T11:47:17Z</time></trkpt><trkpt lat="45.91923459926419" lon="11.561412163344087"><ele>1430.0</ele><time>2026-04-19T11:47:18Z</time></trkpt><trkpt lat="45.919123624225634" lon="11.561461868193549"><ele>1429.5</ele><time>2026-04-19T11:47:19Z</time></trkpt><trkpt lat="45.91901231232008" lon="11.561511726264818"><ele>1429.0</ele><time>2026-04-19T11:47:20Z</time></trkpt><trkpt lat="45.918901922296506" lon="11.561555723106977"><ele>1428.5</ele><time>2026-04-19T11:47:21Z</time></trkpt><trkpt lat="45.918788021358274" lon="11.561602938570893"><ele>1428.0</ele><time>2026-04-19T11:47:22Z</time></trkpt><trkpt lat="45.91867212649999" lon="11.561652833367734"><ele>1428.0</ele><time>2026-04-19T11:47:23Z</time></trkpt><trkpt lat="45.91855747600863" lon="11.561705379206554"><ele>1428.0</ele><time>2026-04-19T11:47:24Z</time></trkpt><trkpt lat="45.91843089382744" lon="11.56177430432297"><ele>1428.0</ele><time>2026-04-19T11:47:25Z</time></trkpt><trkpt lat="45.91833133482272" lon="11.561850413058307"><ele>1428.0</ele><time>2026-04-19T11:47:26Z</time></trkpt><trkpt lat="45.91822186533298" lon="11.5619429604587"><ele>1427.75</ele><time>2026-04-19T11:47:27Z</time></trkpt><trkpt lat="45.918135160437835" lon="11.562073886853714"><ele>1427.5</ele><time>2026-04-19T11:47:28Z</time></trkpt><trkpt lat="45.918058187937504" lon="11.562220349964813"><ele>1427.25</ele><time>2026-04-19T11:47:29Z</time></trkpt><trkpt lat="45.91799573834513" lon="11.562381166581913"><ele>1427.0</ele><time>2026-04-19T11:47:30Z</time></trkpt><trkpt lat="45.91791436441574" lon="11.562533061650115"><ele>1427.0</ele><time>2026-04-19T11:47:31Z</time></trkpt><trkpt lat="45.91786604596614" lon="11.562689768654401"><ele>1427.0</ele><time>2026-04-19T11:47:32Z</time></trkpt><trkpt lat="45.917838999848115" lon="11.562848328138148"><ele>1427.0</ele><time>2026-04-19T11:47:33Z</time></trkpt><trkpt lat="45.9178207648699" lon="11.563010726674708"><ele>1427.0</ele><time>2026-04-19T11:47:34Z</time></trkpt><trkpt lat="45.917812528121935" lon="11.56315956538248"><ele>1427.75</ele><time>2026-04-19T11:47:35Z</time></trkpt><trkpt lat="45.917784329271306" lon="11.563317235917925"><ele>1428.5</ele><time>2026-04-19T11:47:36Z</time></trkpt><trkpt lat="45.91775984572223" lon="11.563460512069339"><ele>1429.25</ele><time>2026-04-19T11:47:37Z</time></trkpt><trkpt lat="45.91774166901849" lon="11.563612237451675"><ele>1430.0</ele><time>2026-04-19T11:47:38Z</time></trkpt><trkpt lat="45.91769508062026" lon="11.563786093144019"><ele>1429.0</ele><time>2026-04-19T11:47:39Z</time></trkpt><trkpt lat="45.91762991891129" lon="11.563943697117121"><ele>1428.0</ele><time>2026-04-19T11:47:40Z</time></trkpt><trkpt lat="45.91754864708162" lon="11.564085351138878"><ele>1427.0</ele><time>2026-04-19T11:47:41Z</time></trkpt><trkpt lat="45.91747021784427" lon="11.564215240625034"><ele>1426.0</ele><time>2026-04-19T11:47:42Z</time></trkpt><trkpt lat="45.91739631115071" lon="11.564343762637593"><ele>1426.0</ele><time>2026-04-19T11:47:43Z</time></trkpt><trkpt lat="45.91734098498554" lon="11.564439108776165"><ele>1426.0</ele><time>2026-04-19T11:47:44Z</time></trkpt><trkpt lat="45.91727439935483" lon="11.564550869217232"><ele>1426.0</ele><time>2026-04-19T11:47:45Z</time></trkpt><trkpt lat="45.91723062663439" lon="11.564621974345476"><ele>1426.0</ele><time>2026-04-19T11:47:46Z</time></trkpt><trkpt lat="45.91718352846817" lon="11.56469848231198"><ele>1426.0</ele><time>2026-04-19T11:47:47Z</time></trkpt><trkpt lat="45.91711977735529" lon="11.564785002571613"><ele>1426.0</ele><time>2026-04-19T11:47:48Z</time></trkpt><trkpt lat="45.91705490191632" lon="11.564854236082056"><ele>1425.8333333333333</ele><time>2026-04-19T11:47:49Z</time></trkpt><trkpt lat="45.916998132842664" lon="11.564914800767294"><ele>1425.6666666666665</ele><time>2026-04-19T11:47:50Z</time></trkpt><trkpt lat="45.916938046258984" lon="11.564976623944286"><ele>1425.5</ele><time>2026-04-19T11:47:51Z</time></trkpt><trkpt lat="45.91688402717061" lon="11.56503220430814"><ele>1425.3333333333333</ele><time>2026-04-19T11:47:52Z</time></trkpt><trkpt lat="45.916814564121374" lon="11.565103925631368"><ele>1425.1666666666667</ele><time>2026-04-19T11:47:54Z</time></trkpt><trkpt lat="45.91675578373562" lon="11.56516592918868"><ele>1425.0</ele><time>2026-04-19T11:47:57Z</time></trkpt><trkpt lat="45.9166953782797" lon="11.565252057665056"><ele>1423.8</ele><time>2026-04-19T11:49:23.001Z</time></trkpt><trkpt lat="45.916611173734516" lon="11.5653288133951"><ele>1422.6</ele><time>2026-04-19T11:49:25.001Z</time></trkpt><trkpt lat="45.916536540802106" lon="11.565428280895812"><ele>1421.4</ele><time>2026-04-19T11:49:27.001Z</time></trkpt><trkpt lat="45.916443298382106" lon="11.565520361180672"><ele>1420.2</ele><time>2026-04-19T11:49:29.001Z</time></trkpt><trkpt lat="45.916357123121166" lon="11.565600097367703"><ele>1419.0</ele><time>2026-04-19T11:49:31.001Z</time></trkpt><trkpt lat="45.916279392839996" lon="11.565675978146546"><ele>1418.6666666666667</ele><time>2026-04-19T11:49:33.001Z</time></trkpt><trkpt lat="45.91619896963379" lon="11.565755912223974"><ele>1418.3333333333333</ele><time>2026-04-19T11:49:35Z</time></trkpt><trkpt lat="45.91611238537597" lon="11.565852284453598"><ele>1418.0</ele><time>2026-04-19T11:49:37Z</time></trkpt><trkpt lat="45.91605740139569" lon="11.565909970876609"><ele>1417.6666666666665</ele><time>2026-04-19T11:49:38Z</time></trkpt><trkpt lat="45.91599315462351" lon="11.565975393420722"><ele>1417.3333333333333</ele><time>2026-04-19T11:49:39Z</time></trkpt><trkpt lat="45.91591185786563" lon="11.566046216152342"><ele>1417.0</ele><time>2026-04-19T11:49:40Z</time></trkpt><trkpt lat="45.915833634127715" lon="11.566124303990545"><ele>1416.5</ele><time>2026-04-19T11:49:41Z</time></trkpt><trkpt lat="45.91575317370073" lon="11.566200912685966"><ele>1416.0</ele><time>2026-04-19T11:49:42Z</time></trkpt><trkpt lat="45.91567693253202" lon="11.566265036475855"><ele>1415.5</ele><time>2026-04-19T11:49:43Z</time></trkpt><trkpt lat="45.915617478888265" lon="11.566321738047622"><ele>1415.0</ele><time>2026-04-19T11:49:44Z</time></trkpt><trkpt lat="45.91555190096478" lon="11.566350698494375"><ele>1414.5</ele><time>2026-04-19T11:49:45Z</time></trkpt><trkpt lat="45.91545623097586" lon="11.566435485197731"><ele>1414.0</ele><time>2026-04-19T11:49:47Z</time></trkpt><trkpt lat="45.91535122033982" lon="11.566513313191546"><ele>1414.0</ele><time>2026-04-19T11:49:49Z</time></trkpt><trkpt lat="45.91524992543932" lon="11.566578466510407"><ele>1414.0</ele><time>2026-04-19T11:49:51Z</time></trkpt><trkpt lat="45.91519138645821" lon="11.566616493106942"><ele>1414.0</ele><time>2026-04-19T11:49:52Z</time></trkpt><trkpt lat="45.915124004727055" lon="11.566650796596646"><ele>1414.0</ele><time>2026-04-19T11:49:53Z</time></trkpt><trkpt lat="45.915036692310046" lon="11.566684979809121"><ele>1414.0</ele><time>2026-04-19T11:49:54Z</time></trkpt><trkpt lat="45.91494076399441" lon="11.566725423457987"><ele>1414.0</ele><time>2026-04-19T11:49:55Z</time></trkpt><trkpt lat="45.914830619826304" lon="11.56676725031471"><ele>1413.0</ele><time>2026-04-19T11:49:56Z</time></trkpt><trkpt lat="45.91471554594305" lon="11.566810309399225"><ele>1412.0</ele><time>2026-04-19T11:49:57Z</time></trkpt><trkpt lat="45.91460590462363" lon="11.566857217020553"><ele>1411.0</ele><time>2026-04-19T11:49:58Z</time></trkpt><trkpt lat="45.91451778850507" lon="11.566923465225425"><ele>1410.0</ele><time>2026-04-19T11:49:59Z</time></trkpt><trkpt lat="45.914431722399485" lon="11.566971744848459"><ele>1409.0</ele><time>2026-04-19T11:50:00Z</time></trkpt><trkpt lat="45.91434198784418" lon="11.567011514051513"><ele>1408.0</ele><time>2026-04-19T11:50:01Z</time></trkpt><trkpt lat="45.914260982809324" lon="11.567053678724156"><ele>1407.0</ele><time>2026-04-19T11:50:02Z</time></trkpt><trkpt lat="45.91418120036992" lon="11.56709617694278"><ele>1406.0</ele><time>2026-04-19T11:50:03Z</time></trkpt><trkpt lat="45.91409946468706" lon="11.567132510896448"><ele>1405.0</ele><time>2026-04-19T11:50:04Z</time></trkpt><trkpt lat="45.91402465074111" lon="11.56717333406986"><ele>1404.0</ele><time>2026-04-19T11:50:05Z</time></trkpt><trkpt lat="45.91395193896698" lon="11.567212408333475"><ele>1403.0</ele><time>2026-04-19T11:50:06Z</time></trkpt><trkpt lat="45.913888664571786" lon="11.567250283607487"><ele>1402.9999999999998</ele><time>2026-04-19T11:50:07Z</time></trkpt><trkpt lat="45.913827095136675" lon="11.56728781837639"><ele>1403.0</ele><time>2026-04-19T11:50:08Z</time></trkpt><trkpt lat="45.91376332687562" lon="11.567315107603656"><ele>1403.0</ele><time>2026-04-19T11:50:09Z</time></trkpt><trkpt lat="45.913701663337946" lon="11.567349981660524"><ele>1403.0</ele><time>2026-04-19T11:50:10.001Z</time></trkpt><trkpt lat="45.913639396163084" lon="11.56737875154321"><ele>1403.0</ele><time>2026-04-19T11:50:11.001Z</time></trkpt><trkpt lat="45.91356842857149" lon="11.567415329123708"><ele>1402.9999999999998</ele><time>2026-04-19T11:50:12.001Z</time></trkpt><trkpt lat="45.91347975728821" lon="11.567430406814893"><ele>1403.0</ele><time>2026-04-19T11:50:13.001Z</time></trkpt><trkpt lat="45.91337575995031" lon="11.567484864200699"><ele>1400.75</ele><time>2026-04-19T11:50:14.001Z</time></trkpt><trkpt lat="45.91325774306483" lon="11.567503449509926"><ele>1398.5</ele><time>2026-04-19T11:50:15.001Z</time></trkpt><trkpt lat="45.91314491343967" lon="11.567530216623082"><ele>1396.25</ele><time>2026-04-19T11:50:16.001Z</time></trkpt><trkpt lat="45.913032322983106" lon="11.567565466716875"><ele>1394.0</ele><time>2026-04-19T11:50:17.001Z</time></trkpt><trkpt lat="45.91292661711849" lon="11.567610017973694"><ele>1394.0</ele><time>2026-04-19T11:50:18.001Z</time></trkpt><trkpt lat="45.91283487174724" lon="11.567657331740271"><ele>1394.0</ele><time>2026-04-19T11:50:19.001Z</time></trkpt><trkpt lat="45.91276609406912" lon="11.567704590187464"><ele>1394.0</ele><time>2026-04-19T11:50:20.001Z</time></trkpt><trkpt lat="45.91270412098848" lon="11.567739002982815"><ele>1394.0</ele><time>2026-04-19T11:50:21.001Z</time></trkpt><trkpt lat="45.91264338700551" lon="11.567762925528136"><ele>1394.0</ele><time>2026-04-19T11:50:22.001Z</time></trkpt><trkpt lat="45.912580504398036" lon="11.567804822460499"><ele>1394.0</ele><time>2026-04-19T11:50:24.001Z</time></trkpt><trkpt lat="45.91261125932254" lon="11.568083099776633"><ele>1393.5</ele><time>2026-04-19T11:50:30.001Z</time></trkpt><trkpt lat="45.912554447373694" lon="11.56819271393162"><ele>1393.0</ele><time>2026-04-19T11:50:33.001Z</time></trkpt><trkpt lat="45.9124773404356" lon="11.568277299135596"><ele>1392.5</ele><time>2026-04-19T11:50:35.001Z</time></trkpt><trkpt lat="45.91241196972531" lon="11.568287567335505"><ele>1392.0</ele><time>2026-04-19T11:50:45.001Z</time></trkpt><trkpt lat="45.912325822448004" lon="11.568280497143334"><ele>1391.5</ele><time>2026-04-19T11:50:50.001Z</time></trkpt><trkpt lat="45.91224401693844" lon="11.568288608993289"><ele>1391.0</ele><time>2026-04-19T11:50:52.001Z</time></trkpt><trkpt lat="45.912176107028834" lon="11.568313357666401"><ele>1391.0</ele><time>2026-04-19T11:50:56.001Z</time></trkpt><trkpt lat="45.912252854870694" lon="11.568263092376638"><ele>1391.0</ele><time>2026-04-19T11:51:13.001Z</time></trkpt><trkpt lat="45.91233700045566" lon="11.568227075664094"><ele>1391.0</ele><time>2026-04-19T11:51:17.001Z</time></trkpt><trkpt lat="45.91241787132926" lon="11.568224830518778"><ele>1391.0</ele><time>2026-04-19T11:51:20.001Z</time></trkpt><trkpt lat="45.912486954630225" lon="11.568159340724"><ele>1391.0</ele><time>2026-04-19T11:51:44Z</time></trkpt><trkpt lat="45.91254125456636" lon="11.568080017402366"><ele>1391.0</ele><time>2026-04-19T11:51:46Z</time></trkpt><trkpt lat="45.91258486353478" lon="11.567976119764284"><ele>1391.0</ele><time>2026-04-19T11:51:49Z</time></trkpt><trkpt lat="45.91255955435388" lon="11.567887796777738"><ele>1391.0</ele><time>2026-04-19T11:51:51Z</time></trkpt><trkpt lat="45.91247893495608" lon="11.56783084928225"><ele>1391.0</ele><time>2026-04-19T11:51:53Z</time></trkpt><trkpt lat="45.91239204842747" lon="11.567825374304682"><ele>1391.0</ele><time>2026-04-19T11:51:54Z</time></trkpt><trkpt lat="45.91230235321754" lon="11.567848267889856"><ele>1391.0</ele><time>2026-04-19T11:51:55Z</time></trkpt><trkpt lat="45.912205808528505" lon="11.567860306602032"><ele>1391.0</ele><time>2026-04-19T11:51:56Z</time></trkpt><trkpt lat="45.91212974546991" lon="11.567860626265055"><ele>1391.1666666666667</ele><time>2026-04-19T11:51:57Z</time></trkpt><trkpt lat="45.912050705323516" lon="11.567833428002237"><ele>1391.3333333333335</ele><time>2026-04-19T11:51:58Z</time></trkpt><trkpt lat="45.91196073069325" lon="11.567789432706613"><ele>1391.5</ele><time>2026-04-19T11:51:59Z</time></trkpt><trkpt lat="45.91187873685257" lon="11.567741848257153"><ele>1391.6666666666667</ele><time>2026-04-19T11:52:00Z</time></trkpt><trkpt lat="45.9118010436717" lon="11.567694105932798"><ele>1391.8333333333333</ele><time>2026-04-19T11:52:01Z</time></trkpt><trkpt lat="45.911716729931705" lon="11.567655604878967"><ele>1392.0</ele><time>2026-04-19T11:52:02Z</time></trkpt><trkpt lat="45.91163454052207" lon="11.567633309006455"><ele>1390.6666666666667</ele><time>2026-04-19T11:52:03Z</time></trkpt><trkpt lat="45.91154761280291" lon="11.567627163312043"><ele>1389.3333333333333</ele><time>2026-04-19T11:52:04Z</time></trkpt><trkpt lat="45.911477220878766" lon="11.56765534479779"><ele>1388.0</ele><time>2026-04-19T11:52:05Z</time></trkpt><trkpt lat="45.911402715404655" lon="11.567676912601705"><ele>1386.6666666666665</ele><time>2026-04-19T11:52:06Z</time></trkpt><trkpt lat="45.91130695129323" lon="11.567675498018156"><ele>1385.3333333333333</ele><time>2026-04-19T11:52:07Z</time></trkpt><trkpt lat="45.91122345250891" lon="11.56768045376604"><ele>1384.0</ele><time>2026-04-19T11:52:08Z</time></trkpt><trkpt lat="45.911148573334614" lon="11.567712237150797"><ele>1384.0</ele><time>2026-04-19T11:52:09Z</time></trkpt><trkpt lat="45.91105607425277" lon="11.567739434892093"><ele>1384.0</ele><time>2026-04-19T11:52:10Z</time></trkpt><trkpt lat="45.910967610530214" lon="11.567774998067542"><ele>1384.0</ele><time>2026-04-19T11:52:11Z</time></trkpt><trkpt lat="45.91090608582484" lon="11.567800634683158"><ele>1384.0</ele><time>2026-04-19T11:52:12Z</time></trkpt><trkpt lat="45.910823825374344" lon="11.567861894053436"><ele>1384.0</ele><time>2026-04-19T11:52:13Z</time></trkpt><trkpt lat="45.91074855184031" lon="11.567886412408544"><ele>1384.0</ele><time>2026-04-19T11:52:14Z</time></trkpt><trkpt lat="45.910654739678286" lon="11.567937657274665"><ele>1379.5714285714284</ele><time>2026-04-19T11:52:16Z</time></trkpt><trkpt lat="45.91058134524022" lon="11.567975199899008"><ele>1375.1428571428573</ele><time>2026-04-19T11:52:17Z</time></trkpt><trkpt lat="45.910505691698965" lon="11.567963831688864"><ele>1370.7142857142858</ele><time>2026-04-19T11:52:18Z</time></trkpt><trkpt lat="45.91043173136928" lon="11.567979555372533"><ele>1366.2857142857142</ele><time>2026-04-19T11:52:19Z</time></trkpt><trkpt lat="45.91036287676534" lon="11.567996583116054"><ele>1361.8571428571427</ele><time>2026-04-19T11:52:20Z</time></trkpt><trkpt lat="45.91029059977095" lon="11.568018334329697"><ele>1357.4285714285716</ele><time>2026-04-19T11:52:21Z</time></trkpt><trkpt lat="45.91021886344988" lon="11.568039155807044"><ele>1353.0</ele><time>2026-04-19T11:52:22Z</time></trkpt><trkpt lat="45.91013148839318" lon="11.568060976390463"><ele>1350.75</ele><time>2026-04-19T11:52:23Z</time></trkpt><trkpt lat="45.91002184928613" lon="11.568090844685708"><ele>1348.5</ele><time>2026-04-19T11:52:24Z</time></trkpt><trkpt lat="45.90990640464808" lon="11.568136419357652"><ele>1346.25</ele><time>2026-04-19T11:52:25Z</time></trkpt><trkpt lat="45.909764720377545" lon="11.568149558373777"><ele>1344.0</ele><time>2026-04-19T11:52:26Z</time></trkpt><trkpt lat="45.909616711065325" lon="11.568174229021201"><ele>1344.0</ele><time>2026-04-19T11:52:27Z</time></trkpt><trkpt lat="45.90947178166561" lon="11.56819484791808"><ele>1344.0</ele><time>2026-04-19T11:52:28Z</time></trkpt><trkpt lat="45.909310913155025" lon="11.568203710002386"><ele>1344.0</ele><time>2026-04-19T11:52:29Z</time></trkpt><trkpt lat="45.909154243940314" lon="11.568234639145398"><ele>1342.3333333333333</ele><time>2026-04-19T11:52:30Z</time></trkpt><trkpt lat="45.908988164436565" lon="11.568267994440856"><ele>1340.6666666666665</ele><time>2026-04-19T11:52:31Z</time></trkpt><trkpt lat="45.90881093039135" lon="11.568290156798238"><ele>1339.0</ele><time>2026-04-19T11:52:32Z</time></trkpt><trkpt lat="45.908633162921475" lon="11.568304813354972"><ele>1339.0</ele><time>2026-04-19T11:52:33Z</time></trkpt><trkpt lat="45.90845513712532" lon="11.568318705275919"><ele>1339.0</ele><time>2026-04-19T11:52:34Z</time></trkpt><trkpt lat="45.90828001977752" lon="11.568330059054746"><ele>1339.0</ele><time>2026-04-19T11:52:35Z</time></trkpt><trkpt lat="45.9081036891428" lon="11.568339050678341"><ele>1334.6666666666665</ele><time>2026-04-19T11:52:36Z</time></trkpt><trkpt lat="45.90792976193319" lon="11.568356649164434"><ele>1330.3333333333333</ele><time>2026-04-19T11:52:37Z</time></trkpt><trkpt lat="45.90775627342722" lon="11.568379759114022"><ele>1326.0</ele><time>2026-04-19T11:52:38Z</time></trkpt><trkpt lat="45.90759445333208" lon="11.56839188809043"><ele>1321.0</ele><time>2026-04-19T11:52:39Z</time></trkpt><trkpt lat="45.90743932332753" lon="11.568386600102851"><ele>1316.0</ele><time>2026-04-19T11:52:40Z</time></trkpt><trkpt lat="45.90728995911821" lon="11.568309200293124"><ele>1311.0</ele><time>2026-04-19T11:52:41Z</time></trkpt><trkpt lat="45.90712523269552" lon="11.568226739287713"><ele>1311.0</ele><time>2026-04-19T11:52:42Z</time></trkpt><trkpt lat="45.90696189622943" lon="11.568157182802985"><ele>1311.0</ele><time>2026-04-19T11:52:43Z</time></trkpt><trkpt lat="45.90680616291736" lon="11.568083898957008"><ele>1311.0</ele><time>2026-04-19T11:52:44Z</time></trkpt><trkpt lat="45.90664502329764" lon="11.567986482395776"><ele>1313.0</ele><time>2026-04-19T11:52:45Z</time></trkpt><trkpt lat="45.90649581397555" lon="11.567879688041257"><ele>1315.0</ele><time>2026-04-19T11:52:46Z</time></trkpt><trkpt lat="45.90634618883466" lon="11.567763708567377"><ele>1317.0</ele><time>2026-04-19T11:52:47Z</time></trkpt><trkpt lat="45.90618288715573" lon="11.567626673541215"><ele>1317.0</ele><time>2026-04-19T11:52:48Z</time></trkpt><trkpt lat="45.906014745916295" lon="11.567490957973785"><ele>1317.0</ele><time>2026-04-19T11:52:49Z</time></trkpt><trkpt lat="45.90583205516044" lon="11.567354263182903"><ele>1317.0</ele><time>2026-04-19T11:52:50Z</time></trkpt><trkpt lat="45.90565799873312" lon="11.567190775588706"><ele>1315.0</ele><time>2026-04-19T11:52:51Z</time></trkpt><trkpt lat="45.905481336827066" lon="11.567017015328107"><ele>1313.0</ele><time>2026-04-19T11:52:52Z</time></trkpt><trkpt lat="45.905308485439676" lon="11.566859730559305"><ele>1311.0</ele><time>2026-04-19T11:52:53Z</time></trkpt><trkpt lat="45.90512112806123" lon="11.566694807614901"><ele>1300.0</ele><time>2026-04-19T11:52:54Z</time></trkpt><trkpt lat="45.90493329536785" lon="11.566563662642338"><ele>1289.0</ele><time>2026-04-19T11:52:55Z</time></trkpt><trkpt lat="45.90474946598142" lon="11.566422627101646"><ele>1278.0</ele><time>2026-04-19T11:52:56Z</time></trkpt><trkpt lat="45.90457895352523" lon="11.56627479865358"><ele>1276.6666666666667</ele><time>2026-04-19T11:52:57Z</time></trkpt><trkpt lat="45.90440423190214" lon="11.566123660103893"><ele>1275.3333333333335</ele><time>2026-04-19T11:52:58Z</time></trkpt><trkpt lat="45.90423558703622" lon="11.56598293847246"><ele>1274.0</ele><time>2026-04-19T11:52:59Z</time></trkpt><trkpt lat="45.90404253815284" lon="11.565904285783441"><ele>1274.0</ele><time>2026-04-19T11:53:00Z</time></trkpt><trkpt lat="45.90383476520744" lon="11.565839696639927"><ele>1274.0</ele><time>2026-04-19T11:53:01Z</time></trkpt><trkpt lat="45.90367002259746" lon="11.565756764610628"><ele>1274.0</ele><time>2026-04-19T11:53:02Z</time></trkpt><trkpt lat="45.90351737851848" lon="11.565640549343415"><ele>1275.0</ele><time>2026-04-19T11:53:03Z</time></trkpt><trkpt lat="45.90337948157955" lon="11.565568415655639"><ele>1276.0</ele><time>2026-04-19T11:53:04Z</time></trkpt><trkpt lat="45.90320576703424" lon="11.565451816518753"><ele>1277.0</ele><time>2026-04-19T11:53:05Z</time></trkpt><trkpt lat="45.90303585933747" lon="11.565327855244178"><ele>1277.0</ele><time>2026-04-19T11:53:06Z</time></trkpt><trkpt lat="45.90286796263113" lon="11.565204668191079"><ele>1277.0</ele><time>2026-04-19T11:53:07Z</time></trkpt><trkpt lat="45.902704906384685" lon="11.565095179757291"><ele>1277.0</ele><time>2026-04-19T11:53:08Z</time></trkpt><trkpt lat="45.90253913638539" lon="11.564958982721533"><ele>1265.6666666666667</ele><time>2026-04-19T11:53:09Z</time></trkpt><trkpt lat="45.902380686481976" lon="11.56485134787531"><ele>1254.3333333333333</ele><time>2026-04-19T11:53:10Z</time></trkpt><trkpt lat="45.90222130987542" lon="11.564762584106544"><ele>1243.0</ele><time>2026-04-19T11:53:11Z</time></trkpt><trkpt lat="45.90206888839459" lon="11.56466729361534"><ele>1239.3333333333333</ele><time>2026-04-19T11:53:12Z</time></trkpt><trkpt lat="45.90195413104137" lon="11.564521896694936"><ele>1235.6666666666667</ele><time>2026-04-19T11:53:13.001Z</time></trkpt><trkpt lat="45.90185244579722" lon="11.564305989710155"><ele>1232.0</ele><time>2026-04-19T11:53:14.001Z</time></trkpt><trkpt lat="45.901739581547766" lon="11.564097837497357"><ele>1232.0</ele><time>2026-04-19T11:53:15.001Z</time></trkpt><trkpt lat="45.90162479782115" lon="11.56388889719088"><ele>1232.0</ele><time>2026-04-19T11:53:16.001Z</time></trkpt><trkpt lat="45.90152923144407" lon="11.56373016088016"><ele>1232.0</ele><time>2026-04-19T11:53:17.001Z</time></trkpt><trkpt lat="45.90141387608215" lon="11.563522709559763"><ele>1233.75</ele><time>2026-04-19T11:53:18.001Z</time></trkpt><trkpt lat="45.901371750449385" lon="11.563368652275132"><ele>1235.5</ele><time>2026-04-19T11:53:19.001Z</time></trkpt><trkpt lat="45.90138307873278" lon="11.563226303782791"><ele>1237.25</ele><time>2026-04-19T11:53:20.001Z</time></trkpt><trkpt lat="45.9014181666583" lon="11.563095153143038"><ele>1239.0</ele><time>2026-04-19T11:53:21.001Z</time></trkpt><trkpt lat="45.901447155994084" lon="11.562831316070865"><ele>1239.0</ele><time>2026-04-19T11:53:22.001Z</time></trkpt><trkpt lat="45.9014404412406" lon="11.5626244909872"><ele>1239.0</ele><time>2026-04-19T11:53:23.001Z</time></trkpt><trkpt lat="45.901429249457586" lon="11.562396668646969"><ele>1239.0</ele><time>2026-04-19T11:53:24.001Z</time></trkpt><trkpt lat="45.90141914780451" lon="11.562212095563252"><ele>1239.0</ele><time>2026-04-19T11:53:25.001Z</time></trkpt><trkpt lat="45.90141449381778" lon="11.562056020781002"><ele>1239.0</ele><time>2026-04-19T11:53:26.001Z</time></trkpt><trkpt lat="45.9014014559436" lon="11.561938038100946"><ele>1239.0</ele><time>2026-04-19T11:53:27.001Z</time></trkpt><trkpt lat="45.90133598933958" lon="11.561807715369593"><ele>1239.0</ele><time>2026-04-19T11:53:28.001Z</time></trkpt><trkpt lat="45.901229638680825" lon="11.561733806700214"><ele>1239.0</ele><time>2026-04-19T11:53:29.001Z</time></trkpt><trkpt lat="45.90112077267026" lon="11.561649704327523"><ele>1239.0</ele><time>2026-04-19T11:53:30.001Z</time></trkpt><trkpt lat="45.90101514270568" lon="11.561543835977774"><ele>1239.0</ele><time>2026-04-19T11:53:31.001Z</time></trkpt><trkpt lat="45.90095360822248" lon="11.561394200045598"><ele>1239.0</ele><time>2026-04-19T11:53:32.001Z</time></trkpt><trkpt lat="45.90087772089817" lon="11.561193784888891"><ele>1239.0</ele><time>2026-04-19T11:53:33.001Z</time></trkpt><trkpt lat="45.90078622392254" lon="11.560980059231118"><ele>1235.75</ele><time>2026-04-19T11:53:34.001Z</time></trkpt><trkpt lat="45.90071218408349" lon="11.560797771364847"><ele>1232.5</ele><time>2026-04-19T11:53:35Z</time></trkpt><trkpt lat="45.90067758234326" lon="11.56063562987933"><ele>1229.25</ele><time>2026-04-19T11:53:36Z</time></trkpt><trkpt lat="45.900667627141225" lon="11.560483715129864"><ele>1226.0</ele><time>2026-04-19T11:53:37Z</time></trkpt><trkpt lat="45.90063267487388" lon="11.560361723781243"><ele>1226.0</ele><time>2026-04-19T11:53:38Z</time></trkpt><trkpt lat="45.900532020351385" lon="11.560253174824332"><ele>1226.0</ele><time>2026-04-19T11:53:40Z</time></trkpt><trkpt lat="45.90043025957337" lon="11.560259812908651"><ele>1226.0</ele><time>2026-04-19T11:53:41Z</time></trkpt><trkpt lat="45.9003137554488" lon="11.560421703223229"><ele>1226.0</ele><time>2026-04-19T11:53:42Z</time></trkpt><trkpt lat="45.90021565847971" lon="11.560544149852321"><ele>1224.3999999999999</ele><time>2026-04-19T11:53:43Z</time></trkpt><trkpt lat="45.90012527577851" lon="11.560640364743982"><ele>1222.8</ele><time>2026-04-19T11:53:44Z</time></trkpt><trkpt lat="45.90004702412016" lon="11.560704473503943"><ele>1221.1999999999998</ele><time>2026-04-19T11:53:45Z</time></trkpt><trkpt lat="45.8999705691695" lon="11.560775973368253"><ele>1219.6</ele><time>2026-04-19T11:53:46Z</time></trkpt><trkpt lat="45.89987341305953" lon="11.56086204352989"><ele>1218.0</ele><time>2026-04-19T11:53:47Z</time></trkpt><trkpt lat="45.89978564588888" lon="11.560955540600638"><ele>1214.6</ele><time>2026-04-19T11:53:48Z</time></trkpt><trkpt lat="45.89972379528864" lon="11.561077758640991"><ele>1211.1999999999998</ele><time>2026-04-19T11:53:49Z</time></trkpt><trkpt lat="45.89967519917871" lon="11.561200561723703"><ele>1207.8</ele><time>2026-04-19T11:53:50Z</time></trkpt><trkpt lat="45.89960905031535" lon="11.561285284273637"><ele>1204.3999999999999</ele><time>2026-04-19T11:53:51Z</time></trkpt><trkpt lat="45.89951261573465" lon="11.561262593344846"><ele>1201.0</ele><time>2026-04-19T11:53:52Z</time></trkpt><trkpt lat="45.899431487725934" lon="11.561197367143118"><ele>1201.0</ele><time>2026-04-19T11:53:53Z</time></trkpt><trkpt lat="45.89927746965264" lon="11.561097367715352"><ele>1201.0</ele><time>2026-04-19T11:53:54Z</time></trkpt><trkpt lat="45.899112469799775" lon="11.56098433622962"><ele>1201.0</ele><time>2026-04-19T11:53:55Z</time></trkpt><trkpt lat="45.898928218123146" lon="11.560858817920158"><ele>1199.0</ele><time>2026-04-19T11:53:56Z</time></trkpt><trkpt lat="45.89876702913132" lon="11.5607491799605"><ele>1197.0</ele><time>2026-04-19T11:53:57Z</time></trkpt><trkpt lat="45.89863306363018" lon="11.560627800687351"><ele>1195.0</ele><time>2026-04-19T11:53:58Z</time></trkpt><trkpt lat="45.89854508915625" lon="11.560454362025714"><ele>1190.6666666666665</ele><time>2026-04-19T11:53:59Z</time></trkpt><trkpt lat="45.89844480520486" lon="11.560268085359917"><ele>1186.3333333333333</ele><time>2026-04-19T11:54:00Z</time></trkpt><trkpt lat="45.898341829059" lon="11.56005917422765"><ele>1182.0</ele><time>2026-04-19T11:54:01Z</time></trkpt><trkpt lat="45.89819572491105" lon="11.559860149323699"><ele>1182.0</ele><time>2026-04-19T11:54:02Z</time></trkpt><trkpt lat="45.898066074319864" lon="11.559668500297061"><ele>1182.0</ele><time>2026-04-19T11:54:03Z</time></trkpt><trkpt lat="45.8979484814638" lon="11.559488727536495"><ele>1182.0</ele><time>2026-04-19T11:54:04Z</time></trkpt><trkpt lat="45.89783237970621" lon="11.559320708184494"><ele>1181.5</ele><time>2026-04-19T11:54:05Z</time></trkpt><trkpt lat="45.897707906402935" lon="11.559160509741716"><ele>1181.0</ele><time>2026-04-19T11:54:06Z</time></trkpt><trkpt lat="45.897596998494194" lon="11.55903213597495"><ele>1180.5</ele><time>2026-04-19T11:54:07Z</time></trkpt><trkpt lat="45.897500766568406" lon="11.558940273347213"><ele>1180.0</ele><time>2026-04-19T11:54:08Z</time></trkpt><trkpt lat="45.89740036349435" lon="11.558874812421134"><ele>1180.0</ele><time>2026-04-19T11:54:09Z</time></trkpt><trkpt lat="45.89727993937727" lon="11.558852099521747"><ele>1180.0</ele><time>2026-04-19T11:54:10Z</time></trkpt><trkpt lat="45.89714722140935" lon="11.558887389558373"><ele>1180.0</ele><time>2026-04-19T11:54:11Z</time></trkpt><trkpt lat="45.89699075063147" lon="11.558970920269854"><ele>1180.0</ele><time>2026-04-19T11:54:12Z</time></trkpt><trkpt lat="45.896836988844505" lon="11.559054902878932"><ele>1177.3333333333333</ele><time>2026-04-19T11:54:13Z</time></trkpt><trkpt lat="45.89667856517847" lon="11.559057916155853"><ele>1174.6666666666667</ele><time>2026-04-19T11:54:14Z</time></trkpt><trkpt lat="45.8965009352104" lon="11.559004981870055"><ele>1172.0</ele><time>2026-04-19T11:54:15Z</time></trkpt><trkpt lat="45.89635766788632" lon="11.558977796720642"><ele>1172.0</ele><time>2026-04-19T11:54:16Z</time></trkpt><trkpt lat="45.896235886836855" lon="11.558972730438981"><ele>1172.0</ele><time>2026-04-19T11:54:17Z</time></trkpt><trkpt lat="45.89613401091904" lon="11.558971331292394"><ele>1172.0</ele><time>2026-04-19T11:54:18Z</time></trkpt><trkpt lat="45.89606769198017" lon="11.55907866368096"><ele>1172.0</ele><time>2026-04-19T11:54:19Z</time></trkpt><trkpt lat="45.89599926724769" lon="11.559232988378843"><ele>1172.0</ele><time>2026-04-19T11:54:20Z</time></trkpt><trkpt lat="45.89595585437803" lon="11.559436731221172"><ele>1172.0</ele><time>2026-04-19T11:54:21Z</time></trkpt><trkpt lat="45.89593458350566" lon="11.559672462497677"><ele>1172.0</ele><time>2026-04-19T11:54:22Z</time></trkpt><trkpt lat="45.89592703898222" lon="11.559879727780356"><ele>1168.75</ele><time>2026-04-19T11:54:23Z</time></trkpt><trkpt lat="45.895894587237024" lon="11.560075589389966"><ele>1165.5</ele><time>2026-04-19T11:54:24Z</time></trkpt><trkpt lat="45.89583064521082" lon="11.560248644707983"><ele>1162.25</ele><time>2026-04-19T11:54:25Z</time></trkpt><trkpt lat="45.895767760134355" lon="11.560428829917894"><ele>1159.0</ele><time>2026-04-19T11:54:26Z</time></trkpt><trkpt lat="45.895666862910645" lon="11.560558655887991"><ele>1154.6000000000001</ele><time>2026-04-19T11:54:27Z</time></trkpt><trkpt lat="45.89558933934297" lon="11.560660484582474"><ele>1150.2</ele><time>2026-04-19T11:54:28Z</time></trkpt><trkpt lat="45.89550524364924" lon="11.560650122589724"><ele>1145.8000000000002</ele><time>2026-04-19T11:54:29Z</time></trkpt><trkpt lat="45.89540957576154" lon="11.560647254272878"><ele>1141.4</ele><time>2026-04-19T11:54:30Z</time></trkpt><trkpt lat="45.89532586048939" lon="11.560585529265124"><ele>1137.0</ele><time>2026-04-19T11:54:31Z</time></trkpt><trkpt lat="45.89524415709828" lon="11.560426378598104"><ele>1138.25</ele><time>2026-04-19T11:54:32Z</time></trkpt><trkpt lat="45.895150138862356" lon="11.560276688617321"><ele>1139.5</ele><time>2026-04-19T11:54:33Z</time></trkpt><trkpt lat="45.89504793385664" lon="11.56012554657254"><ele>1140.75</ele><time>2026-04-19T11:54:34Z</time></trkpt><trkpt lat="45.89493147946397" lon="11.559976482418664"><ele>1142.0</ele><time>2026-04-19T11:54:35Z</time></trkpt><trkpt lat="45.894818714995" lon="11.559823818305293"><ele>1142.0</ele><time>2026-04-19T11:54:36Z</time></trkpt><trkpt lat="45.89470775438479" lon="11.559662423837473"><ele>1142.0</ele><time>2026-04-19T11:54:37Z</time></trkpt><trkpt lat="45.8946059597895" lon="11.559529784059784"><ele>1142.0</ele><time>2026-04-19T11:54:38Z</time></trkpt><trkpt lat="45.89450522549295" lon="11.559401463285221"><ele>1142.0</ele><time>2026-04-19T11:54:39Z</time></trkpt><trkpt lat="45.89439769602379" lon="11.55928636015152"><ele>1138.75</ele><time>2026-04-19T11:54:40Z</time></trkpt><trkpt lat="45.894285366409214" lon="11.559181921427824"><ele>1135.5</ele><time>2026-04-19T11:54:41Z</time></trkpt><trkpt lat="45.89416725585049" lon="11.559098092070391"><ele>1132.25</ele><time>2026-04-19T11:54:42Z</time></trkpt><trkpt lat="45.89405490277654" lon="11.558990227163713"><ele>1129.0</ele><time>2026-04-19T11:54:43Z</time></trkpt><trkpt lat="45.893944199454275" lon="11.558892281075257"><ele>1129.0</ele><time>2026-04-19T11:54:44Z</time></trkpt><trkpt lat="45.8938359396814" lon="11.55878567855258"><ele>1129.0</ele><time>2026-04-19T11:54:45Z</time></trkpt><trkpt lat="45.89373737370294" lon="11.55863155845195"><ele>1129.0</ele><time>2026-04-19T11:54:46Z</time></trkpt><trkpt lat="45.893621120361104" lon="11.558497189184756"><ele>1129.0</ele><time>2026-04-19T11:54:47Z</time></trkpt><trkpt lat="45.89351313204742" lon="11.55832723177662"><ele>1125.0</ele><time>2026-04-19T11:54:48Z</time></trkpt><trkpt lat="45.89340301078711" lon="11.558175826715544"><ele>1121.0</ele><time>2026-04-19T11:54:49Z</time></trkpt><trkpt lat="45.89329818905746" lon="11.558024415952046"><ele>1117.0</ele><time>2026-04-19T11:54:50Z</time></trkpt><trkpt lat="45.89319370419931" lon="11.557871994260255"><ele>1119.0</ele><time>2026-04-19T11:54:51Z</time></trkpt><trkpt lat="45.89309004952447" lon="11.557710633168092"><ele>1121.0</ele><time>2026-04-19T11:54:52Z</time></trkpt><trkpt lat="45.892997962170654" lon="11.557562052664277"><ele>1123.0</ele><time>2026-04-19T11:54:53Z</time></trkpt><trkpt lat="45.89290778691855" lon="11.557409666776984"><ele>1125.0</ele><time>2026-04-19T11:54:54Z</time></trkpt><trkpt lat="45.89281485405631" lon="11.557261374968268"><ele>1125.0</ele><time>2026-04-19T11:54:55Z</time></trkpt><trkpt lat="45.89272303556747" lon="11.55710960632033"><ele>1125.0</ele><time>2026-04-19T11:54:56Z</time></trkpt><trkpt lat="45.89265278920948" lon="11.556934015946316"><ele>1125.0</ele><time>2026-04-19T11:54:57Z</time></trkpt><trkpt lat="45.89256096591225" lon="11.556782247011126"><ele>1125.0</ele><time>2026-04-19T11:54:58Z</time></trkpt><trkpt lat="45.89249126668764" lon="11.556611724920023"><ele>1122.0</ele><time>2026-04-19T11:54:59Z</time></trkpt><trkpt lat="45.89242265143206" lon="11.556449302428101"><ele>1119.0</ele><time>2026-04-19T11:55:00Z</time></trkpt><trkpt lat="45.89238332075923" lon="11.556260729706944"><ele>1116.0</ele><time>2026-04-19T11:55:01Z</time></trkpt><trkpt lat="45.89234072793941" lon="11.556070857100831"><ele>1113.0</ele><time>2026-04-19T11:55:02Z</time></trkpt><trkpt lat="45.89231106193347" lon="11.555875890341817"><ele>1113.0</ele><time>2026-04-19T11:55:03Z</time></trkpt><trkpt lat="45.892290700304585" lon="11.555684114334609"><ele>1113.0</ele><time>2026-04-19T11:55:04Z</time></trkpt><trkpt lat="45.89225606346443" lon="11.555485704214002"><ele>1113.0</ele><time>2026-04-19T11:55:05Z</time></trkpt><trkpt lat="45.892238392366075" lon="11.555281588210796"><ele>1113.0</ele><time>2026-04-19T11:55:06Z</time></trkpt><trkpt lat="45.89219377546539" lon="11.555076800685233"><ele>1113.0</ele><time>2026-04-19T11:55:07Z</time></trkpt><trkpt lat="45.89214700937434" lon="11.554871713758518"><ele>1113.0</ele><time>2026-04-19T11:55:08Z</time></trkpt><trkpt lat="45.89211119229489" lon="11.55467912705995"><ele>1113.0</ele><time>2026-04-19T11:55:09Z</time></trkpt><trkpt lat="45.892085117998825" lon="11.554482585207513"><ele>1113.0</ele><time>2026-04-19T11:55:10Z</time></trkpt><trkpt lat="45.89206957101912" lon="11.554283467501671"><ele>1112.25</ele><time>2026-04-19T11:55:11Z</time></trkpt><trkpt lat="45.89205762175773" lon="11.55410361437708"><ele>1111.5</ele><time>2026-04-19T11:55:12Z</time></trkpt><trkpt lat="45.89207335553776" lon="11.553927670179352"><ele>1110.75</ele><time>2026-04-19T11:55:13Z</time></trkpt><trkpt lat="45.89206284491454" lon="11.553761513273828"><ele>1110.0</ele><time>2026-04-19T11:55:14Z</time></trkpt><trkpt lat="45.892073547621216" lon="11.553597820234371"><ele>1108.4</ele><time>2026-04-19T11:55:15Z</time></trkpt><trkpt lat="45.89208371385943" lon="11.55343877511948"><ele>1106.8</ele><time>2026-04-19T11:55:16Z</time></trkpt><trkpt lat="45.89209485080731" lon="11.55327917532935"><ele>1105.2</ele><time>2026-04-19T11:55:17Z</time></trkpt><trkpt lat="45.89209624985317" lon="11.553117184907952"><ele>1103.6</ele><time>2026-04-19T11:55:18Z</time></trkpt><trkpt lat="45.89207471596782" lon="11.552968609966497"><ele>1102.0</ele><time>2026-04-19T11:55:19Z</time></trkpt><trkpt lat="45.89207144063712" lon="11.552831434142218"><ele>1101.5</ele><time>2026-04-19T11:55:20Z</time></trkpt><trkpt lat="45.8920511114823" lon="11.552709808526716"><ele>1101.0</ele><time>2026-04-19T11:55:21Z</time></trkpt><trkpt lat="45.892021470228315" lon="11.552612740240138"><ele>1100.5</ele><time>2026-04-19T11:55:22Z</time></trkpt><trkpt lat="45.892020001662765" lon="11.552464919260316"><ele>1100.0</ele><time>2026-04-19T11:55:24Z</time></trkpt><trkpt lat="45.89184819564963" lon="11.55278971095989"><ele>1100.4</ele><time>2026-04-19T11:55:44.999Z</time></trkpt><trkpt lat="45.89180451296256" lon="11.552923625552369"><ele>1100.8</ele><time>2026-04-19T11:55:45.999Z</time></trkpt><trkpt lat="45.891781301268956" lon="11.553066773098664"><ele>1101.2</ele><time>2026-04-19T11:55:46.999Z</time></trkpt><trkpt lat="45.89173833724142" lon="11.553227204933311"><ele>1101.6</ele><time>2026-04-19T11:55:47.999Z</time></trkpt><trkpt lat="45.89170012449593" lon="11.553396435121543"><ele>1102.0</ele><time>2026-04-19T11:55:48.999Z</time></trkpt><trkpt lat="45.89167709514219" lon="11.553570083136874"><ele>1100.25</ele><time>2026-04-19T11:55:49.999Z</time></trkpt><trkpt lat="45.891644413209946" lon="11.553762041560526"><ele>1098.5</ele><time>2026-04-19T11:55:50.999Z</time></trkpt><trkpt lat="45.89160811591412" lon="11.553957191864058"><ele>1096.75</ele><time>2026-04-19T11:55:51.999Z</time></trkpt><trkpt lat="45.89158321403917" lon="11.55415975772606"><ele>1095.0</ele><time>2026-04-19T11:55:52.999Z</time></trkpt><trkpt lat="45.89155708449953" lon="11.554379188912812"><ele>1095.0</ele><time>2026-04-19T11:55:53.999Z</time></trkpt><trkpt lat="45.89152902462481" lon="11.554587460916512"><ele>1095.0</ele><time>2026-04-19T11:55:54.999Z</time></trkpt><trkpt lat="45.89149771043256" lon="11.554831035855099"><ele>1095.0</ele><time>2026-04-19T11:55:55.999Z</time></trkpt><trkpt lat="45.89146036419514" lon="11.55514050397667"><ele>1096.6666666666667</ele><time>2026-04-19T11:55:57.999Z</time></trkpt><trkpt lat="45.89142318908515" lon="11.555379718846767"><ele>1098.3333333333335</ele><time>2026-04-19T11:55:58.999Z</time></trkpt><trkpt lat="45.89139184721977" lon="11.555605771640279"><ele>1100.0</ele><time>2026-04-19T11:56:00Z</time></trkpt><trkpt lat="45.89136595103946" lon="11.555804460408122"><ele>1100.0</ele><time>2026-04-19T11:56:01Z</time></trkpt><trkpt lat="45.891340649412875" lon="11.556009547839329"><ele>1100.0</ele><time>2026-04-19T11:56:02Z</time></trkpt><trkpt lat="45.89133321127951" lon="11.556207565876688"><ele>1100.0</ele><time>2026-04-19T11:56:03Z</time></trkpt><trkpt lat="45.89131608473328" lon="11.556400829703025"><ele>1100.0</ele><time>2026-04-19T11:56:04Z</time></trkpt><trkpt lat="45.891308743972765" lon="11.556577215970286"><ele>1100.3333333333335</ele><time>2026-04-19T11:56:05Z</time></trkpt><trkpt lat="45.891344038243126" lon="11.556743817596889"><ele>1100.6666666666667</ele><time>2026-04-19T11:56:06Z</time></trkpt><trkpt lat="45.89143841409111" lon="11.556894267440901"><ele>1101.0</ele><time>2026-04-19T11:56:07Z</time></trkpt><trkpt lat="45.89157795128608" lon="11.557074995006856"><ele>1103.0</ele><time>2026-04-19T11:56:08Z</time></trkpt><trkpt lat="45.891743676603" lon="11.557307537404528"><ele>1105.0</ele><time>2026-04-19T11:56:09Z</time></trkpt><trkpt lat="45.89190522148013" lon="11.557503747967639"><ele>1107.0</ele><time>2026-04-19T11:56:10Z</time></trkpt><trkpt lat="45.89205323587098" lon="11.557685497309956"><ele>1104.0</ele><time>2026-04-19T11:56:11Z</time></trkpt><trkpt lat="45.89217238060164" lon="11.557869119622266"><ele>1101.0</ele><time>2026-04-19T11:56:12Z</time></trkpt><trkpt lat="45.8921700581033" lon="11.558098254454844"><ele>1098.0</ele><time>2026-04-19T11:56:13Z</time></trkpt><trkpt lat="45.892162702878004" lon="11.558314723056842"><ele>1098.0</ele><time>2026-04-19T11:56:14Z</time></trkpt><trkpt lat="45.89218885668882" lon="11.55853609351364"><ele>1098.0</ele><time>2026-04-19T11:56:15Z</time></trkpt><trkpt lat="45.89224083263752" lon="11.55871904857294"><ele>1098.0</ele><time>2026-04-19T11:56:16Z</time></trkpt><trkpt lat="45.89234116113566" lon="11.558870049180532"><ele>1098.0</ele><time>2026-04-19T11:56:17Z</time></trkpt><trkpt lat="45.89241864453384" lon="11.55900865511083"><ele>1100.3333333333333</ele><time>2026-04-19T11:56:18Z</time></trkpt><trkpt lat="45.892629123987895" lon="11.559116344050556"><ele>1102.6666666666665</ele><time>2026-04-19T11:56:19Z</time></trkpt><trkpt lat="45.8927978632247" lon="11.559294524916517"><ele>1105.0</ele><time>2026-04-19T11:56:20Z</time></trkpt><trkpt lat="45.89300275625193" lon="11.559485446601668"><ele>1092.0</ele><time>2026-04-19T11:56:21Z</time></trkpt><trkpt lat="45.89325006709995" lon="11.55969008814158"><ele>1079.0</ele><time>2026-04-19T11:56:22Z</time></trkpt><trkpt lat="45.89339835120477" lon="11.559879311907487"><ele>1084.0</ele><time>2026-04-19T11:56:23Z</time></trkpt><trkpt lat="45.8935241645572" lon="11.560115408593644"><ele>1089.0</ele><time>2026-04-19T11:56:24Z</time></trkpt><trkpt lat="45.893618189833596" lon="11.560353142367616"><ele>1094.0</ele><time>2026-04-19T11:56:25Z</time></trkpt><trkpt lat="45.893715739799276" lon="11.560619496100637"><ele>1094.0</ele><time>2026-04-19T11:56:26Z</time></trkpt><trkpt lat="45.89380860701477" lon="11.56086650641665"><ele>1094.0</ele><time>2026-04-19T11:56:27Z</time></trkpt><trkpt lat="45.89390660563834" lon="11.561112130855946"><ele>1094.0</ele><time>2026-04-19T11:56:28Z</time></trkpt><trkpt lat="45.894014374574475" lon="11.561321408717033"><ele>1097.0</ele><time>2026-04-19T11:56:29Z</time></trkpt><trkpt lat="45.89411134619868" lon="11.561520340070675"><ele>1100.0</ele><time>2026-04-19T11:56:30Z</time></trkpt><trkpt lat="45.8942486003203" lon="11.561648537070653"><ele>1103.0</ele><time>2026-04-19T11:56:31Z</time></trkpt><trkpt lat="45.89439467615795" lon="11.561799932546604"><ele>1103.0</ele><time>2026-04-19T11:56:32Z</time></trkpt><trkpt lat="45.894571223818765" lon="11.56189730577293"><ele>1103.0</ele><time>2026-04-19T11:56:33Z</time></trkpt><trkpt lat="45.89474131739678" lon="11.562035481278507"><ele>1103.0</ele><time>2026-04-19T11:56:34Z</time></trkpt><trkpt lat="45.89489025250052" lon="11.562164926576473"><ele>1095.0</ele><time>2026-04-19T11:56:35Z</time></trkpt><trkpt lat="45.89506773702581" lon="11.56224620097369"><ele>1087.0</ele><time>2026-04-19T11:56:36Z</time></trkpt><trkpt lat="45.89524853648843" lon="11.562282993447353"><ele>1079.0</ele><time>2026-04-19T11:56:37Z</time></trkpt><trkpt lat="45.89543392396624" lon="11.562316865965187"><ele>1078.3333333333335</ele><time>2026-04-19T11:56:38Z</time></trkpt><trkpt lat="45.8956156494645" lon="11.562298306279452"><ele>1077.6666666666667</ele><time>2026-04-19T11:56:39Z</time></trkpt><trkpt lat="45.89578624516249" lon="11.562293121146391"><ele>1077.0</ele><time>2026-04-19T11:56:40Z</time></trkpt><trkpt lat="45.8959384948835" lon="11.562248912431524"><ele>1077.75</ele><time>2026-04-19T11:56:41Z</time></trkpt><trkpt lat="45.896028704998756" lon="11.562180323788898"><ele>1078.5</ele><time>2026-04-19T11:56:42Z</time></trkpt><trkpt lat="45.89611893168672" lon="11.56206311953735"><ele>1079.25</ele><time>2026-04-19T11:56:43Z</time></trkpt><trkpt lat="45.896208957800255" lon="11.561822471563488"><ele>1080.0</ele><time>2026-04-19T11:56:44Z</time></trkpt><trkpt lat="45.89643233732912" lon="11.561479060600508"><ele>1080.0</ele><time>2026-04-19T11:56:45Z</time></trkpt><trkpt lat="45.89655011371391" lon="11.561354306421599"><ele>1080.0</ele><time>2026-04-19T11:56:46Z</time></trkpt><trkpt lat="45.89664657044459" lon="11.561224016734442"><ele>1080.0</ele><time>2026-04-19T11:56:47Z</time></trkpt><trkpt lat="45.89677504265017" lon="11.56122538990217"><ele>1080.0</ele><time>2026-04-19T11:56:48Z</time></trkpt><trkpt lat="45.89686916105714" lon="11.56130376939624"><ele>1086.0</ele><time>2026-04-19T11:56:49Z</time></trkpt><trkpt lat="45.896964424765216" lon="11.561471863043234"><ele>1092.0</ele><time>2026-04-19T11:56:50Z</time></trkpt><trkpt lat="45.89710913848073" lon="11.561719265246573"><ele>1098.0</ele><time>2026-04-19T11:56:51Z</time></trkpt><trkpt lat="45.897269884943306" lon="11.56200087159436"><ele>1098.3333333333333</ele><time>2026-04-19T11:56:52Z</time></trkpt><trkpt lat="45.8974274421741" lon="11.562199714698334"><ele>1098.6666666666665</ele><time>2026-04-19T11:56:53Z</time></trkpt><trkpt lat="45.897585842777744" lon="11.562397856972366"><ele>1099.0</ele><time>2026-04-19T11:56:54Z</time></trkpt><trkpt lat="45.897812161407785" lon="11.562579898235583"><ele>1099.0</ele><time>2026-04-19T11:56:55Z</time></trkpt><trkpt lat="45.89806818117614" lon="11.562755398982063"><ele>1099.0</ele><time>2026-04-19T11:56:56Z</time></trkpt><trkpt lat="45.8982392889875" lon="11.562975434261322"><ele>1101.3333333333333</ele><time>2026-04-19T11:56:57Z</time></trkpt><trkpt lat="45.89839707634302" lon="11.563177033773192"><ele>1103.6666666666667</ele><time>2026-04-19T11:56:58Z</time></trkpt><trkpt lat="45.89852180686127" lon="11.563430384479387"><ele>1106.0</ele><time>2026-04-19T11:56:59Z</time></trkpt><trkpt lat="45.89863474978241" lon="11.563722481010595"><ele>1099.0</ele><time>2026-04-19T11:57:00Z</time></trkpt><trkpt lat="45.89877881118952" lon="11.564006750992371"><ele>1092.0</ele><time>2026-04-19T11:57:01Z</time></trkpt><trkpt lat="45.898930150200314" lon="11.56425017145169"><ele>1092.0</ele><time>2026-04-19T11:57:02Z</time></trkpt><trkpt lat="45.89902412154088" lon="11.564432485226682"><ele>1092.0</ele><time>2026-04-19T11:57:03Z</time></trkpt><trkpt lat="45.89906582044966" lon="11.564624660901025"><ele>1092.0</ele><time>2026-04-19T11:57:04Z</time></trkpt><trkpt lat="45.899065985791815" lon="11.564795878027851"><ele>1092.0</ele><time>2026-04-19T11:57:05Z</time></trkpt><trkpt lat="45.89900296790738" lon="11.565016211636204"><ele>1090.6666666666667</ele><time>2026-04-19T11:57:06Z</time></trkpt><trkpt lat="45.898863564773144" lon="11.565173784780898"><ele>1089.3333333333335</ele><time>2026-04-19T11:57:07Z</time></trkpt><trkpt lat="45.89869611870349" lon="11.565241045136508"><ele>1088.0</ele><time>2026-04-19T11:57:08Z</time></trkpt><trkpt lat="45.89851849378019" lon="11.565336511017815"><ele>1088.0</ele><time>2026-04-19T11:57:09Z</time></trkpt><trkpt lat="45.89827294691929" lon="11.56542586774434"><ele>1088.0</ele><time>2026-04-19T11:57:10Z</time></trkpt><trkpt lat="45.898070265142294" lon="11.565444974910323"><ele>1088.0</ele><time>2026-04-19T11:57:11Z</time></trkpt><trkpt lat="45.897859115389075" lon="11.56548636243999"><ele>1088.0</ele><time>2026-04-19T11:57:12Z</time></trkpt><trkpt lat="45.89765416146677" lon="11.565610521181801"><ele>1088.0</ele><time>2026-04-19T11:57:13Z</time></trkpt><trkpt lat="45.897484079592196" lon="11.565731158654364"><ele>1079.3333333333335</ele><time>2026-04-19T11:57:14Z</time></trkpt><trkpt lat="45.89733196049818" lon="11.565865763328786"><ele>1070.6666666666667</ele><time>2026-04-19T11:57:15Z</time></trkpt><trkpt lat="45.8972423663761" lon="11.565993723579423"><ele>1062.0</ele><time>2026-04-19T11:57:16Z</time></trkpt><trkpt lat="45.89721231476963" lon="11.566223299845703"><ele>1062.0</ele><time>2026-04-19T11:57:17Z</time></trkpt><trkpt lat="45.897315027828014" lon="11.5663620817514"><ele>1062.0</ele><time>2026-04-19T11:57:18Z</time></trkpt><trkpt lat="45.89740651076562" lon="11.566558128850893"><ele>1062.0</ele><time>2026-04-19T11:57:19Z</time></trkpt><trkpt lat="45.89750171676883" lon="11.566705094562694"><ele>1062.0</ele><time>2026-04-19T11:57:20Z</time></trkpt><trkpt lat="45.89762733853461" lon="11.56686602882233"><ele>1067.5</ele><time>2026-04-19T11:57:21Z</time></trkpt><trkpt lat="45.89770549638571" lon="11.567001705531258"><ele>1073.0</ele><time>2026-04-19T11:57:22Z</time></trkpt><trkpt lat="45.897671458480296" lon="11.56713676309463"><ele>1078.5</ele><time>2026-04-19T11:57:23Z</time></trkpt><trkpt lat="45.89756907561905" lon="11.567218621132831"><ele>1084.0</ele><time>2026-04-19T11:57:24Z</time></trkpt><trkpt lat="45.8974617651269" lon="11.567258708227959"><ele>1084.0</ele><time>2026-04-19T11:57:25Z</time></trkpt><trkpt lat="45.897285414093815" lon="11.567288496152026"><ele>1084.0</ele><time>2026-04-19T11:57:26Z</time></trkpt><trkpt lat="45.89707663752341" lon="11.56735768963164"><ele>1084.0</ele><time>2026-04-19T11:57:27Z</time></trkpt><trkpt lat="45.89686183635399" lon="11.567419469880463"><ele>1079.3333333333333</ele><time>2026-04-19T11:57:28Z</time></trkpt><trkpt lat="45.89666950350735" lon="11.567429601703232"><ele>1074.6666666666667</ele><time>2026-04-19T11:57:29Z</time></trkpt><trkpt lat="45.89643912263407" lon="11.567348590569678"><ele>1070.0</ele><time>2026-04-19T11:57:30Z</time></trkpt><trkpt lat="45.896230775242564" lon="11.567308166802208"><ele>1070.0</ele><time>2026-04-19T11:57:31Z</time></trkpt><trkpt lat="45.89605322282266" lon="11.56738343476735"><ele>1070.0</ele><time>2026-04-19T11:57:32Z</time></trkpt><trkpt lat="45.89585836386336" lon="11.56744543815601"><ele>1070.0</ele><time>2026-04-19T11:57:33Z</time></trkpt><trkpt lat="45.89562427057799" lon="11.567618402434203"><ele>1067.6666666666667</ele><time>2026-04-19T11:57:34Z</time></trkpt><trkpt lat="45.8954360117417" lon="11.567693299199487"><ele>1065.3333333333333</ele><time>2026-04-19T11:57:35Z</time></trkpt><trkpt lat="45.895276392828144" lon="11.567725116182896"><ele>1063.0</ele><time>2026-04-19T11:57:36.001Z</time></trkpt><trkpt lat="45.89512575438323" lon="11.5676960374344"><ele>1064.3333333333333</ele><time>2026-04-19T11:57:37.001Z</time></trkpt><trkpt lat="45.89497209084599" lon="11.567579397242357"><ele>1065.6666666666667</ele><time>2026-04-19T11:57:38.001Z</time></trkpt><trkpt lat="45.89476766040593" lon="11.567421125847519"><ele>1067.0</ele><time>2026-04-19T11:57:39.001Z</time></trkpt><trkpt lat="45.894582559247716" lon="11.567286833723534"><ele>1067.0</ele><time>2026-04-19T11:57:40.001Z</time></trkpt><trkpt lat="45.89434705554003" lon="11.56720387830868"><ele>1067.0</ele><time>2026-04-19T11:57:41.001Z</time></trkpt><trkpt lat="45.89414436133432" lon="11.567222059547925"><ele>1067.0</ele><time>2026-04-19T11:57:42.001Z</time></trkpt><trkpt lat="45.89396047171791" lon="11.567239788669452"><ele>1068.3333333333335</ele><time>2026-04-19T11:57:43.001Z</time></trkpt><trkpt lat="45.89372813420052" lon="11.567317221538005"><ele>1069.6666666666667</ele><time>2026-04-19T11:57:44.001Z</time></trkpt><trkpt lat="45.89356952851766" lon="11.567441758658259"><ele>1071.0</ele><time>2026-04-19T11:57:45.001Z</time></trkpt><trkpt lat="45.89344772973473" lon="11.567592902770848"><ele>1063.3333333333333</ele><time>2026-04-19T11:57:46.001Z</time></trkpt><trkpt lat="45.8933220320413" lon="11.567800168934046"><ele>1055.6666666666665</ele><time>2026-04-19T11:57:46.999Z</time></trkpt><trkpt lat="45.893221610011345" lon="11.56810566267205"><ele>1048.0</ele><time>2026-04-19T11:57:47.999Z</time></trkpt><trkpt lat="45.89313734956956" lon="11.568437693146194"><ele>1052.0</ele><time>2026-04-19T11:57:48.999Z</time></trkpt><trkpt lat="45.893040705068515" lon="11.568720826331"><ele>1056.0</ele><time>2026-04-19T11:57:49.999Z</time></trkpt><trkpt lat="45.892934480825154" lon="11.56894494547532"><ele>1060.0</ele><time>2026-04-19T11:57:50.999Z</time></trkpt><trkpt lat="45.89284174160355" lon="11.56915059661342"><ele>1060.0</ele><time>2026-04-19T11:57:51.999Z</time></trkpt><trkpt lat="45.89276675103347" lon="11.569351042159147"><ele>1060.0</ele><time>2026-04-19T11:57:52.999Z</time></trkpt><trkpt lat="45.89270557555302" lon="11.569551862403808"><ele>1060.0</ele><time>2026-04-19T11:57:53.999Z</time></trkpt><trkpt lat="45.892649277206395" lon="11.569748808652955"><ele>1062.75</ele><time>2026-04-19T11:57:54.999Z</time></trkpt><trkpt lat="45.892600961801875" lon="11.56993477645182"><ele>1065.5</ele><time>2026-04-19T11:57:55.999Z</time></trkpt><trkpt lat="45.89252523105945" lon="11.570118677185224"><ele>1068.25</ele><time>2026-04-19T11:57:56.999Z</time></trkpt><trkpt lat="45.89248234948262" lon="11.570290261626871"><ele>1071.0</ele><time>2026-04-19T11:57:57.999Z</time></trkpt><trkpt lat="45.892457307089636" lon="11.570453717486737"><ele>1064.25</ele><time>2026-04-19T11:57:58.999Z</time></trkpt><trkpt lat="45.89245779022954" lon="11.570634382867226"><ele>1057.5</ele><time>2026-04-19T11:57:59.999Z</time></trkpt><trkpt lat="45.89245618528892" lon="11.570822980664731"><ele>1050.75</ele><time>2026-04-19T11:58:00.999Z</time></trkpt><trkpt lat="45.89247288871521" lon="11.571012009832415"><ele>1044.0</ele><time>2026-04-19T11:58:01.999Z</time></trkpt><trkpt lat="45.89249552728035" lon="11.571191091626345"><ele>1043.25</ele><time>2026-04-19T11:58:02.999Z</time></trkpt><trkpt lat="45.89253144187764" lon="11.57138077713269"><ele>1042.5</ele><time>2026-04-19T11:58:03.999Z</time></trkpt><trkpt lat="45.89257705660066" lon="11.571576381591326"><ele>1041.75</ele><time>2026-04-19T11:58:04.999Z</time></trkpt><trkpt lat="45.892617191171134" lon="11.571769146930155"><ele>1041.0</ele><time>2026-04-19T11:58:05.999Z</time></trkpt><trkpt lat="45.892655020471" lon="11.57195011032981"><ele>1042.25</ele><time>2026-04-19T11:58:06.999Z</time></trkpt><trkpt lat="45.89263858278024" lon="11.57213005690349"><ele>1043.5</ele><time>2026-04-19T11:58:07.999Z</time></trkpt><trkpt lat="45.89265547495611" lon="11.572328979087372"><ele>1044.75</ele><time>2026-04-19T11:58:08.999Z</time></trkpt><trkpt lat="45.89255043908466" lon="11.572512412151287"><ele>1046.0</ele><time>2026-04-19T11:58:10Z</time></trkpt><trkpt lat="45.89247038231073" lon="11.572657134805988"><ele>1046.0</ele><time>2026-04-19T11:58:11Z</time></trkpt><trkpt lat="45.892307670884854" lon="11.57272531046531"><ele>1046.0</ele><time>2026-04-19T11:58:12Z</time></trkpt><trkpt lat="45.89222983772377" lon="11.572880979338397"><ele>1046.0</ele><time>2026-04-19T11:58:13Z</time></trkpt><trkpt lat="45.89216835044517" lon="11.573057351354635"><ele>1046.0</ele><time>2026-04-19T11:58:14Z</time></trkpt><trkpt lat="45.89212076501783" lon="11.573223984187543"><ele>1048.3999999999999</ele><time>2026-04-19T11:58:15Z</time></trkpt><trkpt lat="45.89208523892804" lon="11.573391973817234"><ele>1050.8</ele><time>2026-04-19T11:58:16Z</time></trkpt><trkpt lat="45.89204993451426" lon="11.573537765459225"><ele>1053.1999999999998</ele><time>2026-04-19T11:58:17Z</time></trkpt><trkpt lat="45.89202855616093" lon="11.573681573613758"><ele>1055.6</ele><time>2026-04-19T11:58:18Z</time></trkpt><trkpt lat="45.892025430755176" lon="11.5738327235056"><ele>1058.0</ele><time>2026-04-19T11:58:19Z</time></trkpt><trkpt lat="45.89204782289816" lon="11.573989599807646"><ele>1058.0</ele><time>2026-04-19T11:58:20Z</time></trkpt><trkpt lat="45.89209327416702" lon="11.574138790315503"><ele>1058.0</ele><time>2026-04-19T11:58:21Z</time></trkpt><trkpt lat="45.89214776985792" lon="11.574292378266867"><ele>1058.0</ele><time>2026-04-19T11:58:22Z</time></trkpt><trkpt lat="45.892211539799305" lon="11.574446953174334"><ele>1058.0</ele><time>2026-04-19T11:58:23Z</time></trkpt><trkpt lat="45.89228254103388" lon="11.57460214871232"><ele>1058.0</ele><time>2026-04-19T11:58:24Z</time></trkpt><trkpt lat="45.892322693169355" lon="11.574775029336033"><ele>1058.0</ele><time>2026-04-19T11:58:25Z</time></trkpt><trkpt lat="45.892337059445836" lon="11.574941278952"><ele>1058.0</ele><time>2026-04-19T11:58:26Z</time></trkpt><trkpt lat="45.89232466748443" lon="11.575125027982091"><ele>1058.0</ele><time>2026-04-19T11:58:27Z</time></trkpt><trkpt lat="45.89228651239266" lon="11.575327141060077"><ele>1058.3333333333335</ele><time>2026-04-19T11:58:28Z</time></trkpt><trkpt lat="45.89222521482499" lon="11.575557081090881"><ele>1058.6666666666667</ele><time>2026-04-19T11:58:29Z</time></trkpt><trkpt lat="45.89217131218947" lon="11.57578457476677"><ele>1059.0</ele><time>2026-04-19T11:58:30Z</time></trkpt><trkpt lat="45.89214435572962" lon="11.576026149526575"><ele>1056.6666666666667</ele><time>2026-04-19T11:58:31Z</time></trkpt><trkpt lat="45.89216660206167" lon="11.576246663396176"><ele>1054.3333333333335</ele><time>2026-04-19T11:58:32Z</time></trkpt><trkpt lat="45.89225541371578" lon="11.576447052831337"><ele>1052.0</ele><time>2026-04-19T11:58:33Z</time></trkpt><trkpt lat="45.89237009833041" lon="11.57663624207697"><ele>1052.0</ele><time>2026-04-19T11:58:34Z</time></trkpt><trkpt lat="45.892494678350666" lon="11.57682958644548"><ele>1052.0</ele><time>2026-04-19T11:58:35Z</time></trkpt><trkpt lat="45.89257467407395" lon="11.577045802013675"><ele>1052.0</ele><time>2026-04-19T11:58:36Z</time></trkpt><trkpt lat="45.8925948549267" lon="11.57734909209194"><ele>1065.0</ele><time>2026-04-19T11:58:37Z</time></trkpt><trkpt lat="45.892617113903896" lon="11.577607670017933"><ele>1078.0</ele><time>2026-04-19T11:58:38Z</time></trkpt><trkpt lat="45.8926512410422" lon="11.577813106418063"><ele>1091.0</ele><time>2026-04-19T11:58:39Z</time></trkpt><trkpt lat="45.89264804088881" lon="11.577996002491856"><ele>1083.75</ele><time>2026-04-19T11:58:40Z</time></trkpt><trkpt lat="45.892580023549954" lon="11.578132085569138"><ele>1076.5</ele><time>2026-04-19T11:58:41Z</time></trkpt><trkpt lat="45.8924718091286" lon="11.578217222733912"><ele>1069.25</ele><time>2026-04-19T11:58:42Z</time></trkpt><trkpt lat="45.892310455088605" lon="11.57826789934016"><ele>1062.0</ele><time>2026-04-19T11:58:43Z</time></trkpt><trkpt lat="45.892143537991174" lon="11.57834155422959"><ele>1062.0</ele><time>2026-04-19T11:58:44Z</time></trkpt><trkpt lat="45.89201815999116" lon="11.578413092810877"><ele>1062.0</ele><time>2026-04-19T11:58:45Z</time></trkpt><trkpt lat="45.891930660569145" lon="11.578533641861119"><ele>1062.0</ele><time>2026-04-19T11:58:46Z</time></trkpt><trkpt lat="45.89188992795144" lon="11.578712656743978"><ele>1062.0</ele><time>2026-04-19T11:58:47Z</time></trkpt><trkpt lat="45.89186398538942" lon="11.578920094817695"><ele>1065.25</ele><time>2026-04-19T11:58:48Z</time></trkpt><trkpt lat="45.89183068802216" lon="11.579157542225767"><ele>1068.5</ele><time>2026-04-19T11:58:49Z</time></trkpt><trkpt lat="45.891780119431296" lon="11.579319061247343"><ele>1071.75</ele><time>2026-04-19T11:58:50Z</time></trkpt><trkpt lat="45.891725934798494" lon="11.57944948022342"><ele>1075.0</ele><time>2026-04-19T11:58:51Z</time></trkpt><trkpt lat="45.89165889180219" lon="11.579569888620087"><ele>1068.4</ele><time>2026-04-19T11:58:52Z</time></trkpt><trkpt lat="45.89159163152072" lon="11.579691033868302"><ele>1061.8</ele><time>2026-04-19T11:58:53Z</time></trkpt><trkpt lat="45.89153596273835" lon="11.579832283629834"><ele>1055.2</ele><time>2026-04-19T11:58:54Z</time></trkpt><trkpt lat="45.89151404573957" lon="11.579986219024073"><ele>1048.6</ele><time>2026-04-19T11:58:55Z</time></trkpt><trkpt lat="45.891511358443054" lon="11.580146806268226"><ele>1042.0</ele><time>2026-04-19T11:58:56Z</time></trkpt><trkpt lat="45.89153798734995" lon="11.58029501224762"><ele>1041.0</ele><time>2026-04-19T11:58:57Z</time></trkpt><trkpt lat="45.89161015379822" lon="11.58038524431597"><ele>1040.0</ele><time>2026-04-19T11:58:58Z</time></trkpt><trkpt lat="45.891665079408746" lon="11.580497090029597"><ele>1039.0</ele><time>2026-04-19T11:58:59Z</time></trkpt><trkpt lat="45.89171600165251" lon="11.580607221391077"><ele>1038.0</ele><time>2026-04-19T11:59:00Z</time></trkpt><trkpt lat="45.89176901535576" lon="11.580728532147011"><ele>1037.0</ele><time>2026-04-19T11:59:01Z</time></trkpt><trkpt lat="45.89181370819585" lon="11.5808538045662"><ele>1040.6</ele><time>2026-04-19T11:59:02Z</time></trkpt><trkpt lat="45.891871546246314" lon="11.580986373484146"><ele>1044.2</ele><time>2026-04-19T11:59:03Z</time></trkpt><trkpt lat="45.891929071721904" lon="11.58112924508993"><ele>1047.8</ele><time>2026-04-19T11:59:04Z</time></trkpt><trkpt lat="45.891981460975565" lon="11.581260377210484"><ele>1051.4</ele><time>2026-04-19T11:59:05Z</time></trkpt><trkpt lat="45.8920099953146" lon="11.581406320243598"><ele>1055.0</ele><time>2026-04-19T11:59:06Z</time></trkpt><trkpt lat="45.89205382423811" lon="11.581548924236964"><ele>1055.0</ele><time>2026-04-19T11:59:07Z</time></trkpt><trkpt lat="45.89210092448729" lon="11.581696422823713"><ele>1055.0</ele><time>2026-04-19T11:59:08Z</time></trkpt><trkpt lat="45.89214767953828" lon="11.581847331438654"><ele>1055.0</ele><time>2026-04-19T11:59:09Z</time></trkpt><trkpt lat="45.892195749790325" lon="11.582001183953244"><ele>1055.0</ele><time>2026-04-19T11:59:10Z</time></trkpt><trkpt lat="45.892246713143074" lon="11.582161259203573"><ele>1052.4</ele><time>2026-04-19T11:59:11Z</time></trkpt><trkpt lat="45.89229778882323" lon="11.582314020515257"><ele>1049.8</ele><time>2026-04-19T11:59:12Z</time></trkpt><trkpt lat="45.892349552679605" lon="11.582456887683318"><ele>1047.2</ele><time>2026-04-19T11:59:13Z</time></trkpt><trkpt lat="45.89239893553049" lon="11.582583852600386"><ele>1044.6</ele><time>2026-04-19T11:59:14Z</time></trkpt><trkpt lat="45.89244182307033" lon="11.582703108360292"><ele>1042.0</ele><time>2026-04-19T11:59:15Z</time></trkpt><trkpt lat="45.89248984473902" lon="11.582822934890673"><ele>1042.6</ele><time>2026-04-19T11:59:16Z</time></trkpt><trkpt lat="45.892525570778076" lon="11.582938586216908"><ele>1043.2</ele><time>2026-04-19T11:59:17Z</time></trkpt><trkpt lat="45.89254970824445" lon="11.583073481577662"><ele>1043.8</ele><time>2026-04-19T11:59:18Z</time></trkpt><trkpt lat="45.8925845537947" lon="11.583184200733035"><ele>1044.4</ele><time>2026-04-19T11:59:19Z</time></trkpt><trkpt lat="45.89261968046238" lon="11.583304579373902"><ele>1045.0</ele><time>2026-04-19T11:59:20Z</time></trkpt><trkpt lat="45.89267501568396" lon="11.58345426436992"><ele>1045.0</ele><time>2026-04-19T11:59:21Z</time></trkpt><trkpt lat="45.89277792225924" lon="11.583607630404087"><ele>1045.0</ele><time>2026-04-19T11:59:22Z</time></trkpt><trkpt lat="45.89291933303269" lon="11.583711953091571"><ele>1045.0</ele><time>2026-04-19T11:59:23Z</time></trkpt><trkpt lat="45.893073821683636" lon="11.583760174757858"><ele>1041.75</ele><time>2026-04-19T11:59:24Z</time></trkpt><trkpt lat="45.89320261788863" lon="11.583792085101267"><ele>1038.5</ele><time>2026-04-19T11:59:25Z</time></trkpt><trkpt lat="45.893335714029114" lon="11.583836704562156"><ele>1035.25</ele><time>2026-04-19T11:59:26Z</time></trkpt><trkpt lat="45.893428075736836" lon="11.58387909503207"><ele>1032.0</ele><time>2026-04-19T11:59:27Z</time></trkpt><trkpt lat="45.89350396306085" lon="11.58394433526864"><ele>1038.75</ele><time>2026-04-19T11:59:28Z</time></trkpt><trkpt lat="45.89355362186767" lon="11.584018386846424"><ele>1045.5</ele><time>2026-04-19T11:59:29Z</time></trkpt><trkpt lat="45.89361940869435" lon="11.584197566762896"><ele>1052.25</ele><time>2026-04-19T11:59:30Z</time></trkpt><trkpt lat="45.89365642334534" lon="11.584398223117399"><ele>1059.0</ele><time>2026-04-19T11:59:31Z</time></trkpt><trkpt lat="45.8936892107983" lon="11.584620653151257"><ele>1059.0</ele><time>2026-04-19T11:59:32Z</time></trkpt><trkpt lat="45.89371955877729" lon="11.584833277989063"><ele>1059.0</ele><time>2026-04-19T11:59:33.001Z</time></trkpt><trkpt lat="45.893750709625344" lon="11.585051529212922"><ele>1059.0</ele><time>2026-04-19T11:59:34.001Z</time></trkpt><trkpt lat="45.89378215551188" lon="11.585269728652014"><ele>1055.0</ele><time>2026-04-19T11:59:35.001Z</time></trkpt><trkpt lat="45.89381557894055" lon="11.58549562073381"><ele>1051.0</ele><time>2026-04-19T11:59:36.001Z</time></trkpt><trkpt lat="45.89384751905811" lon="11.585711487094109"><ele>1047.0</ele><time>2026-04-19T11:59:37.001Z</time></trkpt><trkpt lat="45.89387925408792" lon="11.585931654990668"><ele>1047.0</ele><time>2026-04-19T11:59:38.001Z</time></trkpt><trkpt lat="45.89391131475763" lon="11.586149533721441"><ele>1047.0</ele><time>2026-04-19T11:59:39.001Z</time></trkpt><trkpt lat="45.893952271091166" lon="11.586362101346802"><ele>1047.0</ele><time>2026-04-19T11:59:40.001Z</time></trkpt><trkpt lat="45.89401256105496" lon="11.58657095785263"><ele>1046.0</ele><time>2026-04-19T11:59:41.001Z</time></trkpt><trkpt lat="45.894069226260605" lon="11.586786561335822"><ele>1045.0</ele><time>2026-04-19T11:59:42.001Z</time></trkpt><trkpt lat="45.89415407627855" lon="11.58698747954287"><ele>1044.0</ele><time>2026-04-19T11:59:43.001Z</time></trkpt><trkpt lat="45.89425522644004" lon="11.587169168299306"><ele>1044.0</ele><time>2026-04-19T11:59:44.001Z</time></trkpt><trkpt lat="45.894360634457776" lon="11.58734839559029"><ele>1044.0</ele><time>2026-04-19T11:59:45.001Z</time></trkpt><trkpt lat="45.894440594747934" lon="11.587527745912306"><ele>1044.0</ele><time>2026-04-19T11:59:46.001Z</time></trkpt><trkpt lat="45.89452934070504" lon="11.58770967989575"><ele>1041.3333333333333</ele><time>2026-04-19T11:59:47.001Z</time></trkpt><trkpt lat="45.894595811930735" lon="11.587912813199466"><ele>1038.6666666666665</ele><time>2026-04-19T11:59:48.001Z</time></trkpt><trkpt lat="45.89463452209293" lon="11.58814580248182"><ele>1036.0</ele><time>2026-04-19T11:59:49.001Z</time></trkpt><trkpt lat="45.894673257635944" lon="11.588384085010672"><ele>1036.0</ele><time>2026-04-19T11:59:50.001Z</time></trkpt><trkpt lat="45.89471952934541" lon="11.588618442131668"><ele>1036.0</ele><time>2026-04-19T11:59:51.001Z</time></trkpt><trkpt lat="45.894732793692334" lon="11.58886797740801"><ele>1036.0</ele><time>2026-04-19T11:59:52.001Z</time></trkpt><trkpt lat="45.89469883269218" lon="11.589122759680267"><ele>1036.6666666666665</ele><time>2026-04-19T11:59:52.999Z</time></trkpt><trkpt lat="45.89466993045632" lon="11.58938475737627"><ele>1037.3333333333333</ele><time>2026-04-19T11:59:53.999Z</time></trkpt><trkpt lat="45.8946502384391" lon="11.58966562593427"><ele>1038.0</ele><time>2026-04-19T11:59:54.999Z</time></trkpt><trkpt lat="45.89464889503687" lon="11.589963100796593"><ele>1038.3333333333333</ele><time>2026-04-19T11:59:55.999Z</time></trkpt><trkpt lat="45.89465108872256" lon="11.590251570190393"><ele>1038.6666666666665</ele><time>2026-04-19T11:59:56.999Z</time></trkpt><trkpt lat="45.894653380720385" lon="11.590552968963673"><ele>1039.0</ele><time>2026-04-19T11:59:57.999Z</time></trkpt><trkpt lat="45.89465546780599" lon="11.590844414560856"><ele>1039.0</ele><time>2026-04-19T11:59:58.999Z</time></trkpt><trkpt lat="45.894657502300205" lon="11.591130066695102"><ele>1039.0</ele><time>2026-04-19T11:59:59.999Z</time></trkpt><trkpt lat="45.8946594710717" lon="11.591414292806757"><ele>1039.0</ele><time>2026-04-19T12:00:00.999Z</time></trkpt><trkpt lat="45.89466200744843" lon="11.591666251036663"><ele>1037.6666666666665</ele><time>2026-04-19T12:00:01.999Z</time></trkpt><trkpt lat="45.89466937542464" lon="11.591940053523242"><ele>1036.3333333333333</ele><time>2026-04-19T12:00:02.999Z</time></trkpt><trkpt lat="45.89466779871242" lon="11.592198294055052"><ele>1035.0</ele><time>2026-04-19T12:00:03.999Z</time></trkpt><trkpt lat="45.894678139409706" lon="11.592470812265724"><ele>1034.3333333333333</ele><time>2026-04-19T12:00:04.999Z</time></trkpt><trkpt lat="45.89470958994896" lon="11.592726584097917"><ele>1033.6666666666665</ele><time>2026-04-19T12:00:05.999Z</time></trkpt><trkpt lat="45.89478570899299" lon="11.592979908938233"><ele>1033.0</ele><time>2026-04-19T12:00:06.999Z</time></trkpt><trkpt lat="45.89488258624194" lon="11.593202479717634"><ele>1029.6666666666665</ele><time>2026-04-19T12:00:07.999Z</time></trkpt><trkpt lat="45.894965237156555" lon="11.593431264206071"><ele>1026.3333333333333</ele><time>2026-04-19T12:00:08.999Z</time></trkpt><trkpt lat="45.89503446403765" lon="11.593668214529536"><ele>1023.0</ele><time>2026-04-19T12:00:09.999Z</time></trkpt><trkpt lat="45.895062751790356" lon="11.593904172308429"><ele>1021.0</ele><time>2026-04-19T12:00:10.999Z</time></trkpt><trkpt lat="45.89505146115936" lon="11.594176517531897"><ele>1019.0</ele><time>2026-04-19T12:00:11.999Z</time></trkpt><trkpt lat="45.895009780939596" lon="11.594444214884021"><ele>1017.0</ele><time>2026-04-19T12:00:12.999Z</time></trkpt><trkpt lat="45.894996645854754" lon="11.594698685883275"><ele>1016.6666666666667</ele><time>2026-04-19T12:00:13.999Z</time></trkpt><trkpt lat="45.894984366781514" lon="11.594968309815131"><ele>1016.3333333333334</ele><time>2026-04-19T12:00:14.999Z</time></trkpt><trkpt lat="45.89500577129719" lon="11.595235606827016"><ele>1016.0</ele><time>2026-04-19T12:00:15.999Z</time></trkpt><trkpt lat="45.895058929513574" lon="11.595496112206565"><ele>1023.0</ele><time>2026-04-19T12:00:16.999Z</time></trkpt><trkpt lat="45.89514029700867" lon="11.595753356049872"><ele>1030.0</ele><time>2026-04-19T12:00:17.999Z</time></trkpt><trkpt lat="45.89522123077972" lon="11.596002390746051"><ele>1037.0</ele><time>2026-04-19T12:00:19Z</time></trkpt><trkpt lat="45.89529538331582" lon="11.596267594752563"><ele>1037.0</ele><time>2026-04-19T12:00:20Z</time></trkpt><trkpt lat="45.89536370628633" lon="11.596540416250454"><ele>1037.0</ele><time>2026-04-19T12:00:21Z</time></trkpt><trkpt lat="45.895411212094466" lon="11.596827845447878"><ele>1037.0</ele><time>2026-04-19T12:00:22Z</time></trkpt><trkpt lat="45.89542254360733" lon="11.597122009405975"><ele>1036.3333333333335</ele><time>2026-04-19T12:00:23Z</time></trkpt><trkpt lat="45.89542111507283" lon="11.597424569944286"><ele>1035.6666666666667</ele><time>2026-04-19T12:00:24Z</time></trkpt><trkpt lat="45.89540934854583" lon="11.597741626384089"><ele>1035.0</ele><time>2026-04-19T12:00:25Z</time></trkpt><trkpt lat="45.89540538542515" lon="11.598029984064882"><ele>1035.0</ele><time>2026-04-19T12:00:26Z</time></trkpt><trkpt lat="45.89540453107918" lon="11.598292954151532"><ele>1035.0</ele><time>2026-04-19T12:00:27Z</time></trkpt><trkpt lat="45.895386391200546" lon="11.598547520435904"><ele>1035.0</ele><time>2026-04-19T12:00:28Z</time></trkpt><trkpt lat="45.895384851852455" lon="11.598787863406363"><ele>1035.3333333333333</ele><time>2026-04-19T12:00:29Z</time></trkpt><trkpt lat="45.89535863712369" lon="11.599039106655356"><ele>1035.6666666666665</ele><time>2026-04-19T12:00:30Z</time></trkpt><trkpt lat="45.89531251659373" lon="11.59931386992076"><ele>1036.0</ele><time>2026-04-19T12:00:31Z</time></trkpt><trkpt lat="45.89525431646643" lon="11.599581541829943"><ele>1035.0</ele><time>2026-04-19T12:00:32Z</time></trkpt><trkpt lat="45.89517535689936" lon="11.59984110226964"><ele>1034.0</ele><time>2026-04-19T12:00:33Z</time></trkpt><trkpt lat="45.895113547023" lon="11.600078858497408"><ele>1033.0</ele><time>2026-04-19T12:00:34Z</time></trkpt><trkpt lat="45.89505669661673" lon="11.600298483494347"><ele>1027.5</ele><time>2026-04-19T12:00:35Z</time></trkpt><trkpt lat="45.895029364312116" lon="11.600497197777683"><ele>1022.0</ele><time>2026-04-19T12:00:36Z</time></trkpt><trkpt lat="45.895040275732875" lon="11.600659403336506"><ele>1016.5</ele><time>2026-04-19T12:00:37Z</time></trkpt><trkpt lat="45.89511202788043" lon="11.600812922621904"><ele>1011.0</ele><time>2026-04-19T12:00:38Z</time></trkpt><trkpt lat="45.895252556327044" lon="11.600935106175498"><ele>1011.0</ele><time>2026-04-19T12:00:39Z</time></trkpt><trkpt lat="45.89543949783679" lon="11.600972063759588"><ele>1011.0</ele><time>2026-04-19T12:00:40Z</time></trkpt><trkpt lat="45.89565648773555" lon="11.600992113688486"><ele>1011.0</ele><time>2026-04-19T12:00:41Z</time></trkpt><trkpt lat="45.89583895477605" lon="11.60102552657921"><ele>1013.6666666666667</ele><time>2026-04-19T12:00:42Z</time></trkpt><trkpt lat="45.895996646319276" lon="11.601074304135516"><ele>1016.3333333333334</ele><time>2026-04-19T12:00:43Z</time></trkpt><trkpt lat="45.89608813985877" lon="11.601140259557985"><ele>1019.0</ele><time>2026-04-19T12:00:44Z</time></trkpt><trkpt lat="45.896200651664515" lon="11.601353621838815"><ele>1019.0</ele><time>2026-04-19T12:00:45Z</time></trkpt><trkpt lat="45.89620565037079" lon="11.60160923507175"><ele>1019.0</ele><time>2026-04-19T12:00:46Z</time></trkpt><trkpt lat="45.89613865800203" lon="11.601838112334724"><ele>1019.0</ele><time>2026-04-19T12:00:47Z</time></trkpt><trkpt lat="45.8960557154341" lon="11.602155000804286"><ele>1031.0</ele><time>2026-04-19T12:00:48Z</time></trkpt><trkpt lat="45.89595839596498" lon="11.602466380928728"><ele>1043.0</ele><time>2026-04-19T12:00:49Z</time></trkpt><trkpt lat="45.89583953662026" lon="11.60279238627728"><ele>1032.0</ele><time>2026-04-19T12:00:50Z</time></trkpt><trkpt lat="45.89574365866402" lon="11.603100085774473"><ele>1021.0</ele><time>2026-04-19T12:00:51Z</time></trkpt><trkpt lat="45.89565838250393" lon="11.603374667403214"><ele>1010.0</ele><time>2026-04-19T12:00:52Z</time></trkpt><trkpt lat="45.89558095267664" lon="11.603624047555522"><ele>1020.6666666666667</ele><time>2026-04-19T12:00:53Z</time></trkpt><trkpt lat="45.895501489590366" lon="11.603871273697122"><ele>1031.3333333333333</ele><time>2026-04-19T12:00:54Z</time></trkpt><trkpt lat="45.89540429588731" lon="11.604087733379698"><ele>1042.0</ele><time>2026-04-19T12:00:55Z</time></trkpt><trkpt lat="45.89525390980096" lon="11.604292205675206"><ele>1034.3333333333333</ele><time>2026-04-19T12:00:56Z</time></trkpt><trkpt lat="45.89507351807669" lon="11.604506793533341"><ele>1026.6666666666667</ele><time>2026-04-19T12:00:57Z</time></trkpt><trkpt lat="45.89492469226309" lon="11.604681882850235"><ele>1019.0</ele><time>2026-04-19T12:00:58Z</time></trkpt><trkpt lat="45.89477407643253" lon="11.604885758445826"><ele>1019.0</ele><time>2026-04-19T12:00:59Z</time></trkpt><trkpt lat="45.894658373659844" lon="11.605108194210723"><ele>1019.0</ele><time>2026-04-19T12:01:00Z</time></trkpt><trkpt lat="45.8945855802301" lon="11.605355311994302"><ele>1019.0</ele><time>2026-04-19T12:01:01Z</time></trkpt><trkpt lat="45.894548361411594" lon="11.605618845637986"><ele>1024.6666666666667</ele><time>2026-04-19T12:01:02Z</time></trkpt><trkpt lat="45.8945499616462" lon="11.605872717572778"><ele>1030.3333333333333</ele><time>2026-04-19T12:01:03Z</time></trkpt><trkpt lat="45.894557566925336" lon="11.606134807144278"><ele>1036.0</ele><time>2026-04-19T12:01:04Z</time></trkpt><trkpt lat="45.894567110194146" lon="11.60641947651678"><ele>1036.0</ele><time>2026-04-19T12:01:05Z</time></trkpt><trkpt lat="45.89458318640284" lon="11.606694822181195"><ele>1036.0</ele><time>2026-04-19T12:01:06Z</time></trkpt><trkpt lat="45.89461218783686" lon="11.606959450075182"><ele>1036.0</ele><time>2026-04-19T12:01:07Z</time></trkpt><trkpt lat="45.894627973889655" lon="11.607216035187749"><ele>1036.0</ele><time>2026-04-19T12:01:08Z</time></trkpt><trkpt lat="45.894582571655505" lon="11.607487613863261"><ele>1036.0</ele><time>2026-04-19T12:01:09Z</time></trkpt><trkpt lat="45.89451091528586" lon="11.60781127276431"><ele>1036.0</ele><time>2026-04-19T12:01:10Z</time></trkpt><trkpt lat="45.894478114952214" lon="11.608167100807453"><ele>1036.0</ele><time>2026-04-19T12:01:11Z</time></trkpt><trkpt lat="45.894472964740324" lon="11.608520721166302"><ele>1036.0</ele><time>2026-04-19T12:01:12Z</time></trkpt><trkpt lat="45.894474310088476" lon="11.608852410174796"><ele>1037.3333333333333</ele><time>2026-04-19T12:01:13Z</time></trkpt><trkpt lat="45.894451135494805" lon="11.609158352331283"><ele>1038.6666666666667</ele><time>2026-04-19T12:01:14Z</time></trkpt><trkpt lat="45.894387138441445" lon="11.609437921076172"><ele>1040.0</ele><time>2026-04-19T12:01:15Z</time></trkpt><trkpt lat="45.89427641619581" lon="11.609723372454992"><ele>1042.6666666666667</ele><time>2026-04-19T12:01:16Z</time></trkpt><trkpt lat="45.89414817759886" lon="11.609966903475106"><ele>1045.3333333333333</ele><time>2026-04-19T12:01:17Z</time></trkpt><trkpt lat="45.89400367420573" lon="11.610181717292006"><ele>1048.0</ele><time>2026-04-19T12:01:18Z</time></trkpt><trkpt lat="45.89385467207738" lon="11.610381869630363"><ele>1048.0</ele><time>2026-04-19T12:01:19Z</time></trkpt><trkpt lat="45.89366962503531" lon="11.610538939281163"><ele>1048.0</ele><time>2026-04-19T12:01:20Z</time></trkpt><trkpt lat="45.8934707987111" lon="11.610691364755537"><ele>1048.0</ele><time>2026-04-19T12:01:21Z</time></trkpt><trkpt lat="45.89325215146644" lon="11.610851190066088"><ele>1033.5</ele><time>2026-04-19T12:01:22Z</time></trkpt><trkpt lat="45.89302855978441" lon="11.610965331659598"><ele>1019.0</ele><time>2026-04-19T12:01:23.001Z</time></trkpt><trkpt lat="45.89280538192187" lon="11.611035811159994"><ele>1019.0</ele><time>2026-04-19T12:01:24.001Z</time></trkpt><trkpt lat="45.89257530449254" lon="11.611121439902082"><ele>1019.0</ele><time>2026-04-19T12:01:25.001Z</time></trkpt><trkpt lat="45.89235592806659" lon="11.611258121767339"><ele>1019.0</ele><time>2026-04-19T12:01:26.001Z</time></trkpt><trkpt lat="45.89218391978604" lon="11.611410867979117"><ele>1019.0</ele><time>2026-04-19T12:01:27.001Z</time></trkpt><trkpt lat="45.89207482738031" lon="11.611508283381738"><ele>1019.0</ele><time>2026-04-19T12:01:28.001Z</time></trkpt><trkpt lat="45.891963289604014" lon="11.61160788240194"><ele>1019.0</ele><time>2026-04-19T12:01:29.001Z</time></trkpt><trkpt lat="45.89189835127799" lon="11.611822659287498"><ele>1019.0</ele><time>2026-04-19T12:01:32.001Z</time></trkpt><trkpt lat="45.89185591738709" lon="11.611955869689881"><ele>1019.0</ele><time>2026-04-19T12:01:33.001Z</time></trkpt><trkpt lat="45.8918437035796" lon="11.612098774611736"><ele>1019.0</ele><time>2026-04-19T12:01:34.001Z</time></trkpt><trkpt lat="45.89183690839084" lon="11.61224592599957"><ele>1021.4000000000001</ele><time>2026-04-19T12:01:35.001Z</time></trkpt><trkpt lat="45.89186053189357" lon="11.61239818539424"><ele>1023.8000000000001</ele><time>2026-04-19T12:01:36.001Z</time></trkpt><trkpt lat="45.891889418272335" lon="11.612551206604651"><ele>1026.1999999999998</ele><time>2026-04-19T12:01:37.001Z</time></trkpt><trkpt lat="45.89193228070663" lon="11.612697592273607"><ele>1028.6</ele><time>2026-04-19T12:01:38.001Z</time></trkpt><trkpt lat="45.891981891330104" lon="11.61284398139751"><ele>1031.0</ele><time>2026-04-19T12:01:39.001Z</time></trkpt><trkpt lat="45.89204365453115" lon="11.61299412016883"><ele>1031.5</ele><time>2026-04-19T12:01:40.001Z</time></trkpt><trkpt lat="45.892097011040164" lon="11.613155800759854"><ele>1032.0</ele><time>2026-04-19T12:01:41.001Z</time></trkpt><trkpt lat="45.89212494865172" lon="11.613313695385614"><ele>1032.5</ele><time>2026-04-19T12:01:42.001Z</time></trkpt><trkpt lat="45.892138881982596" lon="11.61352074124556"><ele>1033.0</ele><time>2026-04-19T12:01:43.001Z</time></trkpt><trkpt lat="45.89217375777735" lon="11.61370177547733"><ele>1031.0</ele><time>2026-04-19T12:01:44.001Z</time></trkpt><trkpt lat="45.89219401353318" lon="11.613891596119355"><ele>1029.0</ele><time>2026-04-19T12:01:45.001Z</time></trkpt><trkpt lat="45.89218155360745" lon="11.614097657357151"><ele>1027.0</ele><time>2026-04-19T12:01:46.001Z</time></trkpt><trkpt lat="45.892154292179804" lon="11.614298350359892"><ele>1025.0</ele><time>2026-04-19T12:01:47.001Z</time></trkpt><trkpt lat="45.89211339363005" lon="11.614485656296614"><ele>1026.75</ele><time>2026-04-19T12:01:48.001Z</time></trkpt><trkpt lat="45.89205947946994" lon="11.614666113440064"><ele>1028.5</ele><time>2026-04-19T12:01:49.001Z</time></trkpt><trkpt lat="45.8919825785091" lon="11.614831851084428"><ele>1030.25</ele><time>2026-04-19T12:01:50.001Z</time></trkpt><trkpt lat="45.89190912771701" lon="11.614991207207684"><ele>1032.0</ele><time>2026-04-19T12:01:51.001Z</time></trkpt><trkpt lat="45.89184678513972" lon="11.615142763035841"><ele>1032.0</ele><time>2026-04-19T12:01:52.001Z</time></trkpt><trkpt lat="45.891759300369905" lon="11.61528260772714"><ele>1032.0</ele><time>2026-04-19T12:01:53.001Z</time></trkpt><trkpt lat="45.89164059530586" lon="11.615406528207728"><ele>1032.0</ele><time>2026-04-19T12:01:54.001Z</time></trkpt><trkpt lat="45.89150680759533" lon="11.615522986658933"><ele>1032.0</ele><time>2026-04-19T12:01:55.001Z</time></trkpt><trkpt lat="45.89135976948409" lon="11.615622574128546"><ele>1029.75</ele><time>2026-04-19T12:01:56.001Z</time></trkpt><trkpt lat="45.89123939949065" lon="11.615690250662553"><ele>1027.5</ele><time>2026-04-19T12:01:57.001Z</time></trkpt><trkpt lat="45.89107950590921" lon="11.615731971777755"><ele>1025.25</ele><time>2026-04-19T12:01:58.001Z</time></trkpt><trkpt lat="45.890940683525024" lon="11.615761689954919"><ele>1023.0</ele><time>2026-04-19T12:01:58.999Z</time></trkpt><trkpt lat="45.890822980773486" lon="11.615782425680006"><ele>1020.75</ele><time>2026-04-19T12:01:59.999Z</time></trkpt><trkpt lat="45.89076473235002" lon="11.615823122481814"><ele>1018.5</ele><time>2026-04-19T12:02:00.999Z</time></trkpt><trkpt lat="45.890712757907245" lon="11.615963117457948"><ele>1016.25</ele><time>2026-04-19T12:02:02.999Z</time></trkpt><trkpt lat="45.89073490906947" lon="11.616062652632923"><ele>1014.0</ele><time>2026-04-19T12:02:03.999Z</time></trkpt><trkpt lat="45.89066579608773" lon="11.616653973614348"><ele>1014.0</ele><time>2026-04-19T12:02:04.999Z</time></trkpt><trkpt lat="45.89072259661396" lon="11.616776445189213"><ele>1014.0</ele><time>2026-04-19T12:02:05.999Z</time></trkpt><trkpt lat="45.89080249228668" lon="11.616878318682582"><ele>1014.0</ele><time>2026-04-19T12:02:06.999Z</time></trkpt><trkpt lat="45.8909257221324" lon="11.616915421043126"><ele>1014.0</ele><time>2026-04-19T12:02:07.999Z</time></trkpt><trkpt lat="45.891056037213076" lon="11.616869308435266"><ele>1015.5</ele><time>2026-04-19T12:02:08.999Z</time></trkpt><trkpt lat="45.89118342101592" lon="11.616829972371727"><ele>1017.0</ele><time>2026-04-19T12:02:09.999Z</time></trkpt><trkpt lat="45.891318007038244" lon="11.616790061490121"><ele>1018.5</ele><time>2026-04-19T12:02:10.999Z</time></trkpt><trkpt lat="45.891458135516494" lon="11.616749930210025"><ele>1020.0</ele><time>2026-04-19T12:02:11.999Z</time></trkpt><trkpt lat="45.891595538134915" lon="11.616702571985842"><ele>1020.0</ele><time>2026-04-19T12:02:12.999Z</time></trkpt><trkpt lat="45.89173503311392" lon="11.616649360937064"><ele>1020.0</ele><time>2026-04-19T12:02:13.999Z</time></trkpt><trkpt lat="45.8918613156642" lon="11.616585164766128"><ele>1020.0</ele><time>2026-04-19T12:02:14.999Z</time></trkpt><trkpt lat="45.89199537739492" lon="11.61651389010616"><ele>1020.0</ele><time>2026-04-19T12:02:15.999Z</time></trkpt><trkpt lat="45.89214394295677" lon="11.616424650420146"><ele>1022.6666666666667</ele><time>2026-04-19T12:02:16.999Z</time></trkpt><trkpt lat="45.89228674730733" lon="11.616322034737289"><ele>1025.3333333333335</ele><time>2026-04-19T12:02:17.999Z</time></trkpt><trkpt lat="45.89243934307089" lon="11.616220762094626"><ele>1028.0</ele><time>2026-04-19T12:02:18.999Z</time></trkpt><trkpt lat="45.89258814537084" lon="11.616119345035232"><ele>1022.0</ele><time>2026-04-19T12:02:19.999Z</time></trkpt><trkpt lat="45.89270979275172" lon="11.615968552564208"><ele>1016.0</ele><time>2026-04-19T12:02:20.999Z</time></trkpt><trkpt lat="45.89284728735001" lon="11.61582766907775"><ele>1010.0</ele><time>2026-04-19T12:02:21.999Z</time></trkpt><trkpt lat="45.89297559602728" lon="11.615681046993096"><ele>1010.0</ele><time>2026-04-19T12:02:22.999Z</time></trkpt><trkpt lat="45.89311781745276" lon="11.615533162727468"><ele>1010.0</ele><time>2026-04-19T12:02:23.999Z</time></trkpt><trkpt lat="45.89325132468107" lon="11.615392412722557"><ele>1010.0</ele><time>2026-04-19T12:02:24.999Z</time></trkpt><trkpt lat="45.89337833797596" lon="11.615270696302254"><ele>1014.0</ele><time>2026-04-19T12:02:25.999Z</time></trkpt><trkpt lat="45.893506801749126" lon="11.6151485633336"><ele>1018.0</ele><time>2026-04-19T12:02:27Z</time></trkpt><trkpt lat="45.893619898547264" lon="11.615032917219525"><ele>1022.0</ele><time>2026-04-19T12:02:28Z</time></trkpt><trkpt lat="45.89374690598996" lon="11.614954266165237"><ele>1026.0</ele><time>2026-04-19T12:02:29Z</time></trkpt><trkpt lat="45.893878990723536" lon="11.614917784764554"><ele>1026.0</ele><time>2026-04-19T12:02:30Z</time></trkpt><trkpt lat="45.89400629698179" lon="11.614937528128475"><ele>1026.0</ele><time>2026-04-19T12:02:31Z</time></trkpt><trkpt lat="45.894141306037014" lon="11.61501637737614"><ele>1026.0</ele><time>2026-04-19T12:02:32Z</time></trkpt><trkpt lat="45.89427052375033" lon="11.615107838746551"><ele>1026.0</ele><time>2026-04-19T12:02:33Z</time></trkpt><trkpt lat="45.894399075720465" lon="11.615180706564201"><ele>1022.75</ele><time>2026-04-19T12:02:34Z</time></trkpt><trkpt lat="45.894530143577214" lon="11.615243516187714"><ele>1019.5</ele><time>2026-04-19T12:02:35Z</time></trkpt><trkpt lat="45.89466365823131" lon="11.615312436730258"><ele>1016.25</ele><time>2026-04-19T12:02:36Z</time></trkpt><trkpt lat="45.89479887532765" lon="11.615377785959268"><ele>1013.0</ele><time>2026-04-19T12:02:37Z</time></trkpt><trkpt lat="45.89493535740339" lon="11.615444131102524"><ele>1013.0</ele><time>2026-04-19T12:02:38Z</time></trkpt><trkpt lat="45.895068202985506" lon="11.615512262937036"><ele>1013.0</ele><time>2026-04-19T12:02:39Z</time></trkpt><trkpt lat="45.8951999387074" lon="11.61559443715888"><ele>1013.0</ele><time>2026-04-19T12:02:40Z</time></trkpt><trkpt lat="45.89532323649007" lon="11.615693853772582"><ele>1013.0</ele><time>2026-04-19T12:02:41Z</time></trkpt><trkpt lat="45.89544035813426" lon="11.615808424125618"><ele>1012.75</ele><time>2026-04-19T12:02:42Z</time></trkpt><trkpt lat="45.89556576391959" lon="11.615924331851232"><ele>1012.5</ele><time>2026-04-19T12:02:43Z</time></trkpt><trkpt lat="45.89568434171361" lon="11.61603575847611"><ele>1012.25</ele><time>2026-04-19T12:02:44Z</time></trkpt><trkpt lat="45.895800728264035" lon="11.616157213214471"><ele>1012.0</ele><time>2026-04-19T12:02:45Z</time></trkpt><trkpt lat="45.89591236372603" lon="11.616291190467791"><ele>1020.6666666666666</ele><time>2026-04-19T12:02:46Z</time></trkpt><trkpt lat="45.89603766107355" lon="11.616419621596233"><ele>1029.3333333333333</ele><time>2026-04-19T12:02:47Z</time></trkpt><trkpt lat="45.896162028550734" lon="11.616540344912758"><ele>1038.0</ele><time>2026-04-19T12:02:48Z</time></trkpt><trkpt lat="45.896287833657425" lon="11.616663448666307"><ele>1038.0</ele><time>2026-04-19T12:02:49Z</time></trkpt><trkpt lat="45.89641580709507" lon="11.616796082738327"><ele>1038.0</ele><time>2026-04-19T12:02:50Z</time></trkpt><trkpt lat="45.8965377685877" lon="11.6169344180011"><ele>1038.0</ele><time>2026-04-19T12:02:51Z</time></trkpt><trkpt lat="45.89666629989137" lon="11.617069848657161"><ele>1036.6666666666667</ele><time>2026-04-19T12:02:52Z</time></trkpt><trkpt lat="45.89680341003085" lon="11.617194146457477"><ele>1035.3333333333335</ele><time>2026-04-19T12:02:53Z</time></trkpt><trkpt lat="45.89693068423825" lon="11.617317980334828"><ele>1034.0</ele><time>2026-04-19T12:02:54Z</time></trkpt><trkpt lat="45.89708006487481" lon="11.6174018774408"><ele>1034.0</ele><time>2026-04-19T12:02:55Z</time></trkpt><trkpt lat="45.897226374670055" lon="11.61746682560446"><ele>1034.0</ele><time>2026-04-19T12:02:56Z</time></trkpt><trkpt lat="45.89739198657893" lon="11.617527379055371"><ele>1034.0</ele><time>2026-04-19T12:02:57Z</time></trkpt><trkpt lat="45.89756050979798" lon="11.617531202607474"><ele>1034.75</ele><time>2026-04-19T12:02:58Z</time></trkpt><trkpt lat="45.897705011195285" lon="11.617591973590304"><ele>1035.5</ele><time>2026-04-19T12:02:59Z</time></trkpt><trkpt lat="45.89782501595303" lon="11.617669144694547"><ele>1036.25</ele><time>2026-04-19T12:03:00Z</time></trkpt><trkpt lat="45.897914178602804" lon="11.617777268696274"><ele>1037.0</ele><time>2026-04-19T12:03:01Z</time></trkpt><trkpt lat="45.89799302993095" lon="11.617952517933436"><ele>1037.0</ele><time>2026-04-19T12:03:02Z</time></trkpt><trkpt lat="45.89808319515226" lon="11.618150071422276"><ele>1037.0</ele><time>2026-04-19T12:03:03Z</time></trkpt><trkpt lat="45.898179321146884" lon="11.618350236923579"><ele>1037.0</ele><time>2026-04-19T12:03:04Z</time></trkpt><trkpt lat="45.89828132300639" lon="11.618546866324287"><ele>1039.3333333333335</ele><time>2026-04-19T12:03:05Z</time></trkpt><trkpt lat="45.898387820341" lon="11.61872756546669"><ele>1041.6666666666667</ele><time>2026-04-19T12:03:06Z</time></trkpt><trkpt lat="45.8985079269801" lon="11.618881161090188"><ele>1044.0</ele><time>2026-04-19T12:03:07Z</time></trkpt><trkpt lat="45.89861995420223" lon="11.619055487838338"><ele>1044.0</ele><time>2026-04-19T12:03:08Z</time></trkpt><trkpt lat="45.898743712985656" lon="11.619225783435208"><ele>1044.0</ele><time>2026-04-19T12:03:09Z</time></trkpt><trkpt lat="45.898852467078065" lon="11.619382607707003"><ele>1044.0</ele><time>2026-04-19T12:03:10Z</time></trkpt><trkpt lat="45.89895886060181" lon="11.619539704613311"><ele>1044.3333333333333</ele><time>2026-04-19T12:03:11Z</time></trkpt><trkpt lat="45.89906359699288" lon="11.619701864188853"><ele>1044.6666666666665</ele><time>2026-04-19T12:03:12Z</time></trkpt><trkpt lat="45.899172524230316" lon="11.619847204872498"><ele>1045.0</ele><time>2026-04-19T12:03:13Z</time></trkpt><trkpt lat="45.89928310144817" lon="11.62000265645382"><ele>1045.0</ele><time>2026-04-19T12:03:14Z</time></trkpt><trkpt lat="45.899386647790976" lon="11.620156669860489"><ele>1045.0</ele><time>2026-04-19T12:03:15Z</time></trkpt><trkpt lat="45.899489345526476" lon="11.620326088148095"><ele>1045.0</ele><time>2026-04-19T12:03:16.001Z</time></trkpt><trkpt lat="45.89960692104332" lon="11.620462208531675"><ele>1041.6666666666665</ele><time>2026-04-19T12:03:17.001Z</time></trkpt><trkpt lat="45.899713756403536" lon="11.62064490763161"><ele>1038.3333333333333</ele><time>2026-04-19T12:03:18.001Z</time></trkpt><trkpt lat="45.89982180857153" lon="11.620798151918288"><ele>1035.0</ele><time>2026-04-19T12:03:19.001Z</time></trkpt><trkpt lat="45.899929706797664" lon="11.620951149529978"><ele>1035.0</ele><time>2026-04-19T12:03:20.001Z</time></trkpt><trkpt lat="45.900034663465775" lon="11.621099539142785"><ele>1035.0</ele><time>2026-04-19T12:03:21.001Z</time></trkpt><trkpt lat="45.90013735761821" lon="11.621244729883397"><ele>1035.0</ele><time>2026-04-19T12:03:22.001Z</time></trkpt><trkpt lat="45.90025697366098" lon="11.621381538953813"><ele>1035.0</ele><time>2026-04-19T12:03:23.001Z</time></trkpt><trkpt lat="45.90034874762999" lon="11.621548436988705"><ele>1040.0</ele><time>2026-04-19T12:03:24.001Z</time></trkpt><trkpt lat="45.900458765108795" lon="11.621687123510581"><ele>1045.0</ele><time>2026-04-19T12:03:25.001Z</time></trkpt><trkpt lat="45.90053468210432" lon="11.621866544266997"><ele>1050.0</ele><time>2026-04-19T12:03:26.001Z</time></trkpt><trkpt lat="45.90060118746814" lon="11.622048317129972"><ele>1055.0</ele><time>2026-04-19T12:03:27.001Z</time></trkpt><trkpt lat="45.900645853704695" lon="11.622229969603959"><ele>1055.0</ele><time>2026-04-19T12:03:28.001Z</time></trkpt><trkpt lat="45.90067660324019" lon="11.622427890843737"><ele>1055.0</ele><time>2026-04-19T12:03:29.001Z</time></trkpt><trkpt lat="45.90068265844207" lon="11.622620617012059"><ele>1055.0</ele><time>2026-04-19T12:03:30.001Z</time></trkpt><trkpt lat="45.900672716875434" lon="11.622804819129112"><ele>1055.0</ele><time>2026-04-19T12:03:31.001Z</time></trkpt><trkpt lat="45.90065043304592" lon="11.622997277562403"><ele>1054.0</ele><time>2026-04-19T12:03:32.001Z</time></trkpt><trkpt lat="45.90062484813561" lon="11.623178450666849"><ele>1053.0</ele><time>2026-04-19T12:03:33.001Z</time></trkpt><trkpt lat="45.90061677425437" lon="11.623361356329658"><ele>1052.0</ele><time>2026-04-19T12:03:34.001Z</time></trkpt><trkpt lat="45.900614069599506" lon="11.623532471295249"><ele>1051.0</ele><time>2026-04-19T12:03:35.001Z</time></trkpt><trkpt lat="45.900615510810056" lon="11.623698321762607"><ele>1051.0</ele><time>2026-04-19T12:03:36.001Z</time></trkpt><trkpt lat="45.900615592755116" lon="11.623857085751563"><ele>1051.0</ele><time>2026-04-19T12:03:37.001Z</time></trkpt><trkpt lat="45.90062666375786" lon="11.624005525994535"><ele>1051.0</ele><time>2026-04-19T12:03:38.001Z</time></trkpt><trkpt lat="45.900643553991685" lon="11.624153556897092"><ele>1051.0</ele><time>2026-04-19T12:03:39.001Z</time></trkpt><trkpt lat="45.900654079636546" lon="11.624296400727458"><ele>1051.0</ele><time>2026-04-19T12:03:40.001Z</time></trkpt><trkpt lat="45.90065808690446" lon="11.624416690427598"><ele>1051.8</ele><time>2026-04-19T12:03:41.001Z</time></trkpt><trkpt lat="45.90066866319119" lon="11.624548736262803"><ele>1052.6</ele><time>2026-04-19T12:03:42.001Z</time></trkpt><trkpt lat="45.90067226041617" lon="11.624675823546717"><ele>1053.4</ele><time>2026-04-19T12:03:43.001Z</time></trkpt><trkpt lat="45.90066043732131" lon="11.624792593998224"><ele>1054.2</ele><time>2026-04-19T12:03:44.001Z</time></trkpt><trkpt lat="45.90059738997945" lon="11.624894838705828"><ele>1055.0</ele><time>2026-04-19T12:03:45.001Z</time></trkpt><trkpt lat="45.90051593108683" lon="11.624978556860565"><ele>1055.0</ele><time>2026-04-19T12:03:46.001Z</time></trkpt><trkpt lat="45.900434337442945" lon="11.625019236195152"><ele>1055.0</ele><time>2026-04-19T12:03:47.001Z</time></trkpt><trkpt lat="45.900344451293684" lon="11.624980516124348"><ele>1055.0</ele><time>2026-04-19T12:03:48.001Z</time></trkpt><trkpt lat="45.900205828272426" lon="11.624985509411896"><ele>1055.0</ele><time>2026-04-19T12:03:49.001Z</time></trkpt><trkpt lat="45.900092902104056" lon="11.624969529880127"><ele>1055.0</ele><time>2026-04-19T12:03:50.001Z</time></trkpt><trkpt lat="45.89997859972121" lon="11.624982618050753"><ele>1052.5</ele><time>2026-04-19T12:03:51.001Z</time></trkpt><trkpt lat="45.89986819159494" lon="11.62501637169255"><ele>1050.0</ele><time>2026-04-19T12:03:52.001Z</time></trkpt><trkpt lat="45.89976909159509" lon="11.625077196447755"><ele>1047.5</ele><time>2026-04-19T12:03:53.001Z</time></trkpt><trkpt lat="45.899684067431075" lon="11.62518308499142"><ele>1045.0</ele><time>2026-04-19T12:03:54.001Z</time></trkpt><trkpt lat="45.899607734227985" lon="11.625312974283599"><ele>1050.25</ele><time>2026-04-19T12:03:55.001Z</time></trkpt><trkpt lat="45.89954956614679" lon="11.625451077170363"><ele>1055.5</ele><time>2026-04-19T12:03:56.001Z</time></trkpt><trkpt lat="45.89952196920098" lon="11.625623615149616"><ele>1060.75</ele><time>2026-04-19T12:03:57.001Z</time></trkpt><trkpt lat="45.89950663678746" lon="11.625789885187798"><ele>1066.0</ele><time>2026-04-19T12:03:58.001Z</time></trkpt><trkpt lat="45.8994920366738" lon="11.62595014028333"><ele>1066.0</ele><time>2026-04-19T12:03:59.001Z</time></trkpt><trkpt lat="45.89948041667258" lon="11.626107465075297"><ele>1066.0</ele><time>2026-04-19T12:04:00.001Z</time></trkpt><trkpt lat="45.899463728101054" lon="11.626268039549522"><ele>1066.0</ele><time>2026-04-19T12:04:01.001Z</time></trkpt><trkpt lat="45.899443054376086" lon="11.626417026282326"><ele>1066.0</ele><time>2026-04-19T12:04:02.001Z</time></trkpt><trkpt lat="45.899387448771925" lon="11.626551936049188"><ele>1066.0</ele><time>2026-04-19T12:04:03.001Z</time></trkpt><trkpt lat="45.89932874930587" lon="11.626678896235255"><ele>1066.6</ele><time>2026-04-19T12:04:04.001Z</time></trkpt><trkpt lat="45.899280754990194" lon="11.626803794580159"><ele>1067.1999999999998</ele><time>2026-04-19T12:04:04.999Z</time></trkpt><trkpt lat="45.89924979043616" lon="11.626935155602123"><ele>1067.8000000000002</ele><time>2026-04-19T12:04:05.999Z</time></trkpt><trkpt lat="45.89924292315493" lon="11.627069363895188"><ele>1068.4</ele><time>2026-04-19T12:04:06.999Z</time></trkpt><trkpt lat="45.89927687305512" lon="11.627197428573993"><ele>1069.0</ele><time>2026-04-19T12:04:07.999Z</time></trkpt><trkpt lat="45.8993240924394" lon="11.627298050932623"><ele>1069.0</ele><time>2026-04-19T12:04:08.999Z</time></trkpt><trkpt lat="45.8993647447303" lon="11.627419986169755"><ele>1069.0</ele><time>2026-04-19T12:04:09.999Z</time></trkpt><trkpt lat="45.89937675225207" lon="11.627544443941488"><ele>1069.0</ele><time>2026-04-19T12:04:10.999Z</time></trkpt><trkpt lat="45.89935287208751" lon="11.627668572780744"><ele>1069.0</ele><time>2026-04-19T12:04:11.999Z</time></trkpt><trkpt lat="45.89930699187963" lon="11.627767853162233"><ele>1069.0</ele><time>2026-04-19T12:04:13Z</time></trkpt><trkpt lat="45.89924779372769" lon="11.627816199256515"><ele>1069.0</ele><time>2026-04-19T12:04:14Z</time></trkpt><trkpt lat="45.89918040569785" lon="11.627803596745746"><ele>1068.25</ele><time>2026-04-19T12:04:15Z</time></trkpt><trkpt lat="45.89911001022637" lon="11.627847993786594"><ele>1067.5</ele><time>2026-04-19T12:04:18Z</time></trkpt><trkpt lat="45.89914657004338" lon="11.628024176131921"><ele>1066.75</ele><time>2026-04-19T12:04:21Z</time></trkpt><trkpt lat="45.89932705131351" lon="11.627988678444199"><ele>1066.0</ele><time>2026-04-19T12:04:23Z</time></trkpt><trkpt lat="45.89946296209109" lon="11.627937961265314"><ele>1067.0</ele><time>2026-04-19T12:04:24Z</time></trkpt><trkpt lat="45.89957042866277" lon="11.627673357310186"><ele>1068.0</ele><time>2026-04-19T12:04:26Z</time></trkpt><trkpt lat="45.89948491587212" lon="11.627439288719293"><ele>1069.0</ele><time>2026-04-19T12:04:27Z</time></trkpt><trkpt lat="45.899390010987545" lon="11.627347294299359"><ele>1069.0</ele><time>2026-04-19T12:04:28Z</time></trkpt><trkpt lat="45.8993535726501" lon="11.627224609349078"><ele>1069.0</ele><time>2026-04-19T12:04:29Z</time></trkpt><trkpt lat="45.899313312483955" lon="11.627093360717865"><ele>1069.0</ele><time>2026-04-19T12:04:30Z</time></trkpt><trkpt lat="45.89928142773497" lon="11.626962372698827"><ele>1069.0</ele><time>2026-04-19T12:04:31Z</time></trkpt><trkpt lat="45.89929640607215" lon="11.62683796193211"><ele>1069.0</ele><time>2026-04-19T12:04:32Z</time></trkpt><trkpt lat="45.89934877074965" lon="11.626700743279798"><ele>1068.25</ele><time>2026-04-19T12:04:33Z</time></trkpt><trkpt lat="45.899396892448614" lon="11.626564097758585"><ele>1067.5</ele><time>2026-04-19T12:04:34Z</time></trkpt><trkpt lat="45.89944157567082" lon="11.626401176838172"><ele>1066.75</ele><time>2026-04-19T12:04:35Z</time></trkpt><trkpt lat="45.899493263933785" lon="11.62622704915935"><ele>1066.0</ele><time>2026-04-19T12:04:36Z</time></trkpt><trkpt lat="45.89953212024189" lon="11.626051851181476"><ele>1066.0</ele><time>2026-04-19T12:04:37Z</time></trkpt><trkpt lat="45.89954261616021" lon="11.625863392455487"><ele>1066.0</ele><time>2026-04-19T12:04:38Z</time></trkpt><trkpt lat="45.89955852280137" lon="11.625703821367253"><ele>1066.0</ele><time>2026-04-19T12:04:39Z</time></trkpt><trkpt lat="45.89957759612054" lon="11.62554476717691"><ele>1066.0</ele><time>2026-04-19T12:04:40Z</time></trkpt><trkpt lat="45.899604997891196" lon="11.625388612614046"><ele>1060.75</ele><time>2026-04-19T12:04:41Z</time></trkpt><trkpt lat="45.89966993983225" lon="11.625256086531984"><ele>1055.5</ele><time>2026-04-19T12:04:42Z</time></trkpt><trkpt lat="45.89975108333355" lon="11.625133407644007"><ele>1050.25</ele><time>2026-04-19T12:04:43Z</time></trkpt><trkpt lat="45.89986535011882" lon="11.62505203720108"><ele>1045.0</ele><time>2026-04-19T12:04:44Z</time></trkpt><trkpt lat="45.89998205489645" lon="11.625004597180062"><ele>1047.5</ele><time>2026-04-19T12:04:45Z</time></trkpt><trkpt lat="45.90012352737431" lon="11.62500026564144"><ele>1050.0</ele><time>2026-04-19T12:04:46Z</time></trkpt><trkpt lat="45.900271813064684" lon="11.625013357015446"><ele>1052.5</ele><time>2026-04-19T12:04:47Z</time></trkpt><trkpt lat="45.90040551871351" lon="11.62501507288974"><ele>1055.0</ele><time>2026-04-19T12:04:48Z</time></trkpt><trkpt lat="45.90052175643087" lon="11.625002345526639"><ele>1055.0</ele><time>2026-04-19T12:04:49Z</time></trkpt><trkpt lat="45.90062479930609" lon="11.624930851181256"><ele>1055.0</ele><time>2026-04-19T12:04:50Z</time></trkpt><trkpt lat="45.90067945921342" lon="11.624840281748655"><ele>1055.0</ele><time>2026-04-19T12:04:51Z</time></trkpt><trkpt lat="45.90073585032892" lon="11.624713915461227"><ele>1055.0</ele><time>2026-04-19T12:04:52Z</time></trkpt><trkpt lat="45.90074282206111" lon="11.624554618619651"><ele>1055.0</ele><time>2026-04-19T12:04:53Z</time></trkpt><trkpt lat="45.900726701776534" lon="11.62437866508427"><ele>1054.0</ele><time>2026-04-19T12:04:54Z</time></trkpt><trkpt lat="45.900706835738696" lon="11.624182312151447"><ele>1053.0</ele><time>2026-04-19T12:04:55Z</time></trkpt><trkpt lat="45.90067598021572" lon="11.62398680781107"><ele>1052.0</ele><time>2026-04-19T12:04:56Z</time></trkpt><trkpt lat="45.90065753211771" lon="11.623787972912641"><ele>1051.0</ele><time>2026-04-19T12:04:57Z</time></trkpt><trkpt lat="45.900647058802775" lon="11.623588360266396"><ele>1050.6666666666665</ele><time>2026-04-19T12:04:58Z</time></trkpt><trkpt lat="45.90064783186628" lon="11.62338478510205"><ele>1050.3333333333333</ele><time>2026-04-19T12:04:59Z</time></trkpt><trkpt lat="45.90066978259235" lon="11.623168229876432"><ele>1050.0</ele><time>2026-04-19T12:05:00.001Z</time></trkpt><trkpt lat="45.90071200230291" lon="11.622948212477478"><ele>1051.25</ele><time>2026-04-19T12:05:01.001Z</time></trkpt><trkpt lat="45.90073826839659" lon="11.622742063501402"><ele>1052.5</ele><time>2026-04-19T12:05:02.001Z</time></trkpt><trkpt lat="45.90075485068911" lon="11.62253456994648"><ele>1053.75</ele><time>2026-04-19T12:05:03.001Z</time></trkpt><trkpt lat="45.900704711915864" lon="11.622323390985429"><ele>1055.0</ele><time>2026-04-19T12:05:04.001Z</time></trkpt><trkpt lat="45.9006674532063" lon="11.622122256999747"><ele>1056.6666666666667</ele><time>2026-04-19T12:05:05.001Z</time></trkpt><trkpt lat="45.90061317220488" lon="11.621920869094543"><ele>1058.3333333333333</ele><time>2026-04-19T12:05:06.001Z</time></trkpt><trkpt lat="45.90053547395771" lon="11.6217364075834"><ele>1060.0</ele><time>2026-04-19T12:05:07.001Z</time></trkpt><trkpt lat="45.90043126677406" lon="11.621554776491022"><ele>1060.0</ele><time>2026-04-19T12:05:08.001Z</time></trkpt><trkpt lat="45.90032097823729" lon="11.621409634780056"><ele>1060.0</ele><time>2026-04-19T12:05:09.001Z</time></trkpt><trkpt lat="45.900206820605455" lon="11.621264618902256"><ele>1060.0</ele><time>2026-04-19T12:05:10.001Z</time></trkpt><trkpt lat="45.90009011505079" lon="11.621118678874636"><ele>1051.6666666666665</ele><time>2026-04-19T12:05:11.001Z</time></trkpt><trkpt lat="45.8999737780078" lon="11.620967299675353"><ele>1043.3333333333333</ele><time>2026-04-19T12:05:12.001Z</time></trkpt><trkpt lat="45.8998683497402" lon="11.620822519499006"><ele>1035.0</ele><time>2026-04-19T12:05:13.001Z</time></trkpt><trkpt lat="45.89976155939135" lon="11.620668230789152"><ele>1035.0</ele><time>2026-04-19T12:05:14.001Z</time></trkpt><trkpt lat="45.899652174791775" lon="11.620516837269008"><ele>1035.0</ele><time>2026-04-19T12:05:15.001Z</time></trkpt><trkpt lat="45.89954543514426" lon="11.620355501364886"><ele>1035.0</ele><time>2026-04-19T12:05:16.001Z</time></trkpt><trkpt lat="45.89943182773187" lon="11.62020105985799"><ele>1038.3333333333333</ele><time>2026-04-19T12:05:17.001Z</time></trkpt><trkpt lat="45.89932266643197" lon="11.620048829163773"><ele>1041.6666666666665</ele><time>2026-04-19T12:05:18.001Z</time></trkpt><trkpt lat="45.89921520990443" lon="11.619895607835357"><ele>1045.0</ele><time>2026-04-19T12:05:19.001Z</time></trkpt><trkpt lat="45.89910854523162" lon="11.619741926365414"><ele>1044.6666666666665</ele><time>2026-04-19T12:05:20.001Z</time></trkpt><trkpt lat="45.89900414984402" lon="11.61958559954814"><ele>1044.3333333333333</ele><time>2026-04-19T12:05:21.001Z</time></trkpt><trkpt lat="45.898896897670774" lon="11.61943216077581"><ele>1044.0</ele><time>2026-04-19T12:05:22.001Z</time></trkpt><trkpt lat="45.89879874688403" lon="11.619259079990996"><ele>1044.0</ele><time>2026-04-19T12:05:23.001Z</time></trkpt><trkpt lat="45.89868890320794" lon="11.619102166020845"><ele>1044.0</ele><time>2026-04-19T12:05:24.001Z</time></trkpt><trkpt lat="45.89858170602073" lon="11.618946598497848"><ele>1044.0</ele><time>2026-04-19T12:05:25.001Z</time></trkpt><trkpt lat="45.898472557404574" lon="11.618783364384722"><ele>1041.6666666666667</ele><time>2026-04-19T12:05:26.001Z</time></trkpt><trkpt lat="45.89837413027648" lon="11.618628670609576"><ele>1039.3333333333335</ele><time>2026-04-19T12:05:27.001Z</time></trkpt><trkpt lat="45.89826856892206" lon="11.618450003331231"><ele>1037.0</ele><time>2026-04-19T12:05:28.001Z</time></trkpt><trkpt lat="45.898182801031034" lon="11.6182588277209"><ele>1037.0</ele><time>2026-04-19T12:05:29.001Z</time></trkpt><trkpt lat="45.89809922115148" lon="11.618068560723326"><ele>1037.0</ele><time>2026-04-19T12:05:30.001Z</time></trkpt><trkpt lat="45.89801939258875" lon="11.617887089246304"><ele>1037.0</ele><time>2026-04-19T12:05:31.001Z</time></trkpt><trkpt lat="45.897938182731" lon="11.617716482288056"><ele>1036.25</ele><time>2026-04-19T12:05:32.001Z</time></trkpt><trkpt lat="45.89784253635397" lon="11.617575337422636"><ele>1035.5</ele><time>2026-04-19T12:05:33.001Z</time></trkpt><trkpt lat="45.89771458785925" lon="11.61748519417527"><ele>1034.75</ele><time>2026-04-19T12:05:34.001Z</time></trkpt><trkpt lat="45.89754767794598" lon="11.617458520216454"><ele>1034.0</ele><time>2026-04-19T12:05:35.001Z</time></trkpt><trkpt lat="45.897386184883494" lon="11.61742457839418"><ele>1034.0</ele><time>2026-04-19T12:05:36.001Z</time></trkpt><trkpt lat="45.89722390571277" lon="11.617379706844952"><ele>1034.0</ele><time>2026-04-19T12:05:37.001Z</time></trkpt><trkpt lat="45.897049284773104" lon="11.617328568034003"><ele>1034.0</ele><time>2026-04-19T12:05:38.001Z</time></trkpt><trkpt lat="45.896880457863766" lon="11.617199256498685"><ele>1035.3333333333335</ele><time>2026-04-19T12:05:39.001Z</time></trkpt><trkpt lat="45.89671351546305" lon="11.617041146421546"><ele>1036.6666666666667</ele><time>2026-04-19T12:05:40.001Z</time></trkpt><trkpt lat="45.896537834775685" lon="11.616863925259139"><ele>1038.0</ele><time>2026-04-19T12:05:41.001Z</time></trkpt><trkpt lat="45.89636014362329" lon="11.616669174336531"><ele>1038.0</ele><time>2026-04-19T12:05:42.001Z</time></trkpt><trkpt lat="45.896175099857814" lon="11.61646714019196"><ele>1038.0</ele><time>2026-04-19T12:05:43.001Z</time></trkpt><trkpt lat="45.89598258580512" lon="11.616268115476467"><ele>1038.5</ele><time>2026-04-19T12:05:44.001Z</time></trkpt><trkpt lat="45.89578347196955" lon="11.616058671114596"><ele>1039.0</ele><time>2026-04-19T12:05:45.001Z</time></trkpt><trkpt lat="45.8956006111644" lon="11.615870937077132"><ele>1039.0</ele><time>2026-04-19T12:05:46.001Z</time></trkpt><trkpt lat="45.89542729808545" lon="11.615710267065674"><ele>1039.0</ele><time>2026-04-19T12:05:47.001Z</time></trkpt><trkpt lat="45.89525465755513" lon="11.615569328204387"><ele>1039.0</ele><time>2026-04-19T12:05:48.001Z</time></trkpt><trkpt lat="45.89508729266658" lon="11.615445046166215"><ele>1040.3333333333333</ele><time>2026-04-19T12:05:49.001Z</time></trkpt><trkpt lat="45.89491757705439" lon="11.61535314656809"><ele>1041.6666666666667</ele><time>2026-04-19T12:05:50.001Z</time></trkpt><trkpt lat="45.894749832835494" lon="11.615282167739231"><ele>1043.0</ele><time>2026-04-19T12:05:51.001Z</time></trkpt><trkpt lat="45.89457811077312" lon="11.615202970346367"><ele>1043.0</ele><time>2026-04-19T12:05:52.001Z</time></trkpt><trkpt lat="45.894405821714656" lon="11.615130330854258"><ele>1043.0</ele><time>2026-04-19T12:05:53.001Z</time></trkpt><trkpt lat="45.894236731372494" lon="11.61504483857599"><ele>1043.0</ele><time>2026-04-19T12:05:54.001Z</time></trkpt><trkpt lat="45.894075715026425" lon="11.614967149890946"><ele>1037.3333333333335</ele><time>2026-04-19T12:05:55.001Z</time></trkpt><trkpt lat="45.893925087669615" lon="11.614910093768119"><ele>1031.6666666666667</ele><time>2026-04-19T12:05:56.002Z</time></trkpt><trkpt lat="45.89378659977012" lon="11.61489866464811"><ele>1026.0</ele><time>2026-04-19T12:05:57.002Z</time></trkpt><trkpt lat="45.893636280021745" lon="11.614959405240816"><ele>1026.0</ele><time>2026-04-19T12:05:58.002Z</time></trkpt><trkpt lat="45.89347665310341" lon="11.61507849384378"><ele>1026.0</ele><time>2026-04-19T12:05:59.002Z</time></trkpt><trkpt lat="45.89332754632321" lon="11.615246861163167"><ele>1026.0</ele><time>2026-04-19T12:06:00.002Z</time></trkpt><trkpt lat="45.89315760482495" lon="11.615432789833553"><ele>1018.0</ele><time>2026-04-19T12:06:01.002Z</time></trkpt><trkpt lat="45.89293980540356" lon="11.61568517537135"><ele>1010.0</ele><time>2026-04-19T12:06:02.002Z</time></trkpt><trkpt lat="45.89274873474969" lon="11.615866407423196"><ele>1009.0</ele><time>2026-04-19T12:06:03.002Z</time></trkpt><trkpt lat="45.89258134650472" lon="11.616031754217426"><ele>1008.0</ele><time>2026-04-19T12:06:04.002Z</time></trkpt><trkpt lat="45.89242509686173" lon="11.616170897741119"><ele>1007.0</ele><time>2026-04-19T12:06:05.002Z</time></trkpt><trkpt lat="45.89227047780638" lon="11.616293177749117"><ele>1007.0</ele><time>2026-04-19T12:06:06.002Z</time></trkpt><trkpt lat="45.89210677300693" lon="11.616393604853187"><ele>1007.0</ele><time>2026-04-19T12:06:07.002Z</time></trkpt><trkpt lat="45.89192560198091" lon="11.616481967807408"><ele>1007.0</ele><time>2026-04-19T12:06:08.002Z</time></trkpt><trkpt lat="45.89174394488576" lon="11.616557890360303"><ele>1011.3333333333334</ele><time>2026-04-19T12:06:09.002Z</time></trkpt><trkpt lat="45.89156225419711" lon="11.616612553115116"><ele>1015.6666666666667</ele><time>2026-04-19T12:06:10.002Z</time></trkpt><trkpt lat="45.891401671815764" lon="11.616642629748496"><ele>1020.0</ele><time>2026-04-19T12:06:11Z</time></trkpt><trkpt lat="45.89124130019519" lon="11.616691477833456"><ele>1020.0</ele><time>2026-04-19T12:06:12Z</time></trkpt><trkpt lat="45.891098609379476" lon="11.616732277979397"><ele>1020.0</ele><time>2026-04-19T12:06:13Z</time></trkpt><trkpt lat="45.89098822865671" lon="11.616782600996741"><ele>1020.0</ele><time>2026-04-19T12:06:14Z</time></trkpt><trkpt lat="45.890888846587465" lon="11.616789057605455"><ele>1020.0</ele><time>2026-04-19T12:06:15Z</time></trkpt><trkpt lat="45.89079864362516" lon="11.616714895703659"><ele>1018.8</ele><time>2026-04-19T12:06:16Z</time></trkpt><trkpt lat="45.89074787469998" lon="11.616620361022703"><ele>1017.6</ele><time>2026-04-19T12:06:17Z</time></trkpt><trkpt lat="45.89069524562913" lon="11.61649538254596"><ele>1016.4000000000001</ele><time>2026-04-19T12:06:18Z</time></trkpt><trkpt lat="45.890703395624826" lon="11.616330186351362"><ele>1015.2</ele><time>2026-04-19T12:06:19Z</time></trkpt><trkpt lat="45.89074634152401" lon="11.616201943870056"><ele>1014.0</ele><time>2026-04-19T12:06:20Z</time></trkpt><trkpt lat="45.89082096770351" lon="11.616087336672091"><ele>1013.8000000000001</ele><time>2026-04-19T12:06:21Z</time></trkpt><trkpt lat="45.89089287631857" lon="11.615971213996128"><ele>1013.6000000000001</ele><time>2026-04-19T12:06:22Z</time></trkpt><trkpt lat="45.89098959557262" lon="11.615902169012017"><ele>1013.4</ele><time>2026-04-19T12:06:23Z</time></trkpt><trkpt lat="45.89110377089704" lon="11.615847454549494"><ele>1013.2</ele><time>2026-04-19T12:06:24Z</time></trkpt><trkpt lat="45.891211031319735" lon="11.615799074330006"><ele>1013.0</ele><time>2026-04-19T12:06:25Z</time></trkpt><trkpt lat="45.891316022133246" lon="11.615746672120093"><ele>1015.0</ele><time>2026-04-19T12:06:26Z</time></trkpt><trkpt lat="45.891414485287896" lon="11.615682639174059"><ele>1017.0</ele><time>2026-04-19T12:06:27Z</time></trkpt><trkpt lat="45.891507474235425" lon="11.615605189982464"><ele>1019.0</ele><time>2026-04-19T12:06:28Z</time></trkpt><trkpt lat="45.891604446287296" lon="11.615530161436812"><ele>1021.0</ele><time>2026-04-19T12:06:29Z</time></trkpt><trkpt lat="45.89169896060077" lon="11.61543579734105"><ele>1023.0</ele><time>2026-04-19T12:06:30Z</time></trkpt><trkpt lat="45.891791186856224" lon="11.615331857175432"><ele>1025.25</ele><time>2026-04-19T12:06:31Z</time></trkpt><trkpt lat="45.89188444154168" lon="11.615225532092552"><ele>1027.5</ele><time>2026-04-19T12:06:32Z</time></trkpt><trkpt lat="45.89195816683421" lon="11.615103584856573"><ele>1029.75</ele><time>2026-04-19T12:06:33Z</time></trkpt><trkpt lat="45.89203164918105" lon="11.614975337538898"><ele>1032.0</ele><time>2026-04-19T12:06:34Z</time></trkpt><trkpt lat="45.892084960170244" lon="11.614818552124953"><ele>1032.0</ele><time>2026-04-19T12:06:35Z</time></trkpt><trkpt lat="45.8921447390391" lon="11.614657945624465"><ele>1032.0</ele><time>2026-04-19T12:06:36Z</time></trkpt><trkpt lat="45.89219566426313" lon="11.61448823488412"><ele>1032.0</ele><time>2026-04-19T12:06:37Z</time></trkpt><trkpt lat="45.89222971350165" lon="11.614312947053032"><ele>1032.0</ele><time>2026-04-19T12:06:38Z</time></trkpt><trkpt lat="45.89224464499479" lon="11.614123857726565"><ele>1032.25</ele><time>2026-04-19T12:06:39Z</time></trkpt><trkpt lat="45.89224508826822" lon="11.613940943499035"><ele>1032.5</ele><time>2026-04-19T12:06:40Z</time></trkpt><trkpt lat="45.89222827489639" lon="11.613746023611826"><ele>1032.75</ele><time>2026-04-19T12:06:41Z</time></trkpt><trkpt lat="45.89220306793731" lon="11.613558340584579"><ele>1033.0</ele><time>2026-04-19T12:06:42.001Z</time></trkpt><trkpt lat="45.89216932068632" lon="11.613365968467951"><ele>1033.0</ele><time>2026-04-19T12:06:43.001Z</time></trkpt><trkpt lat="45.892138970823446" lon="11.613184521554585"><ele>1033.0</ele><time>2026-04-19T12:06:44.001Z</time></trkpt><trkpt lat="45.89211473296259" lon="11.61300078253908"><ele>1033.0</ele><time>2026-04-19T12:06:45.001Z</time></trkpt><trkpt lat="45.8920552771538" lon="11.6128092522617"><ele>1033.0</ele><time>2026-04-19T12:06:46.001Z</time></trkpt><trkpt lat="45.89200094838497" lon="11.61262121161139"><ele>1032.5</ele><time>2026-04-19T12:06:47.001Z</time></trkpt><trkpt lat="45.89195682957573" lon="11.612409654208399"><ele>1032.0</ele><time>2026-04-19T12:06:48.001Z</time></trkpt><trkpt lat="45.89195273662778" lon="11.612203319191478"><ele>1031.5</ele><time>2026-04-19T12:06:49.001Z</time></trkpt><trkpt lat="45.8919611382225" lon="11.612024944798991"><ele>1031.0</ele><time>2026-04-19T12:06:50.001Z</time></trkpt><trkpt lat="45.89200206184578" lon="11.611852216463369"><ele>1027.0</ele><time>2026-04-19T12:06:51.001Z</time></trkpt><trkpt lat="45.89208913836351" lon="11.61167717054404"><ele>1023.0</ele><time>2026-04-19T12:06:52.001Z</time></trkpt><trkpt lat="45.89218618683351" lon="11.611506044374195"><ele>1019.0</ele><time>2026-04-19T12:06:53.001Z</time></trkpt><trkpt lat="45.892313878875626" lon="11.611358592229845"><ele>1019.0</ele><time>2026-04-19T12:06:54.001Z</time></trkpt><trkpt lat="45.89241848137876" lon="11.611195686571238"><ele>1019.0</ele><time>2026-04-19T12:06:55.001Z</time></trkpt><trkpt lat="45.89258044611094" lon="11.611148298346462"><ele>1019.0</ele><time>2026-04-19T12:06:56.001Z</time></trkpt><trkpt lat="45.892738797728335" lon="11.611091258697327"><ele>1019.0</ele><time>2026-04-19T12:06:57.001Z</time></trkpt><trkpt lat="45.89291543745369" lon="11.61102482463444"><ele>1019.0</ele><time>2026-04-19T12:06:58.001Z</time></trkpt><trkpt lat="45.89309637153523" lon="11.610932964383451"><ele>1019.0</ele><time>2026-04-19T12:06:59.001Z</time></trkpt><trkpt lat="45.89329865799183" lon="11.610872323362505"><ele>1033.5</ele><time>2026-04-19T12:07:00.001Z</time></trkpt><trkpt lat="45.89354266430258" lon="11.610690106304228"><ele>1048.0</ele><time>2026-04-19T12:07:01.001Z</time></trkpt><trkpt lat="45.89372956328474" lon="11.610547172888307"><ele>1048.0</ele><time>2026-04-19T12:07:02.001Z</time></trkpt><trkpt lat="45.89389659672259" lon="11.61039117016139"><ele>1048.0</ele><time>2026-04-19T12:07:03.001Z</time></trkpt><trkpt lat="45.89404139820265" lon="11.610219661379444"><ele>1048.0</ele><time>2026-04-19T12:07:04.001Z</time></trkpt><trkpt lat="45.89417883350013" lon="11.610009447090636"><ele>1045.3333333333333</ele><time>2026-04-19T12:07:05.001Z</time></trkpt><trkpt lat="45.89431298404107" lon="11.609795609826492"><ele>1042.6666666666667</ele><time>2026-04-19T12:07:06.001Z</time></trkpt><trkpt lat="45.89441834483886" lon="11.60957643168352"><ele>1040.0</ele><time>2026-04-19T12:07:07.001Z</time></trkpt><trkpt lat="45.89450460350381" lon="11.609382646187258"><ele>1040.0</ele><time>2026-04-19T12:07:08.001Z</time></trkpt><trkpt lat="45.89453906976336" lon="11.60916223846821"><ele>1040.0</ele><time>2026-04-19T12:07:09.001Z</time></trkpt><trkpt lat="45.89451695917372" lon="11.608947120950571"><ele>1040.0</ele><time>2026-04-19T12:07:10.001Z</time></trkpt><trkpt lat="45.8945199897328" lon="11.608728650699053"><ele>1038.6666666666667</ele><time>2026-04-19T12:07:11.001Z</time></trkpt><trkpt lat="45.89450340325967" lon="11.60851043639604"><ele>1037.3333333333333</ele><time>2026-04-19T12:07:12.001Z</time></trkpt><trkpt lat="45.89450443499423" lon="11.608287694814697"><ele>1036.0</ele><time>2026-04-19T12:07:13.001Z</time></trkpt><trkpt lat="45.8945119272861" lon="11.608054254418597"><ele>1035.3333333333333</ele><time>2026-04-19T12:07:14.001Z</time></trkpt><trkpt lat="45.894540734040696" lon="11.607806517962594"><ele>1034.6666666666667</ele><time>2026-04-19T12:07:15.001Z</time></trkpt><trkpt lat="45.89458928997185" lon="11.607538841163349"><ele>1034.0</ele><time>2026-04-19T12:07:16.001Z</time></trkpt><trkpt lat="45.89464189803351" lon="11.60727087571261"><ele>1034.0</ele><time>2026-04-19T12:07:17.001Z</time></trkpt><trkpt lat="45.89465429201832" lon="11.607009056094212"><ele>1034.0</ele><time>2026-04-19T12:07:18.001Z</time></trkpt><trkpt lat="45.894629080279394" lon="11.606736466820397"><ele>1034.0</ele><time>2026-04-19T12:07:19.001Z</time></trkpt><trkpt lat="45.894607209400256" lon="11.606440065308595"><ele>1035.0</ele><time>2026-04-19T12:07:20.001Z</time></trkpt><trkpt lat="45.894589408203466" lon="11.606084121147582"><ele>1036.0</ele><time>2026-04-19T12:07:21.001Z</time></trkpt><trkpt lat="45.89456584601845" lon="11.605789328365978"><ele>1036.0</ele><time>2026-04-19T12:07:22.001Z</time></trkpt><trkpt lat="45.89457940652669" lon="11.605519901516454"><ele>1036.0</ele><time>2026-04-19T12:07:23.001Z</time></trkpt><trkpt lat="45.89464119003456" lon="11.60527323954488"><ele>1036.0</ele><time>2026-04-19T12:07:24.001Z</time></trkpt><trkpt lat="45.89472047209971" lon="11.605049373564515"><ele>1030.3333333333333</ele><time>2026-04-19T12:07:25.001Z</time></trkpt><trkpt lat="45.894835507451106" lon="11.604857803559335"><ele>1024.6666666666667</ele><time>2026-04-19T12:07:26.001Z</time></trkpt><trkpt lat="45.894966119868" lon="11.604694832001272"><ele>1019.0</ele><time>2026-04-19T12:07:27.001Z</time></trkpt><trkpt lat="45.895112171705314" lon="11.604522936430255"><ele>1026.6666666666667</ele><time>2026-04-19T12:07:28.001Z</time></trkpt><trkpt lat="45.89527510656905" lon="11.604328966177427"><ele>1034.3333333333333</ele><time>2026-04-19T12:07:29.001Z</time></trkpt><trkpt lat="45.89543157035386" lon="11.604109120769598"><ele>1042.0</ele><time>2026-04-19T12:07:30.001Z</time></trkpt><trkpt lat="45.895531815728894" lon="11.603868628625793"><ele>1031.3333333333333</ele><time>2026-04-19T12:07:31.001Z</time></trkpt><trkpt lat="45.89562066411561" lon="11.603613409300145"><ele>1020.6666666666667</ele><time>2026-04-19T12:07:32.001Z</time></trkpt><trkpt lat="45.89569319702392" lon="11.603328108174276"><ele>1010.0</ele><time>2026-04-19T12:07:33.001Z</time></trkpt><trkpt lat="45.89578831514438" lon="11.603073907065044"><ele>1002.3333333333334</ele><time>2026-04-19T12:07:34.001Z</time></trkpt><trkpt lat="45.895856698418555" lon="11.602801048221721"><ele>994.6666666666667</ele><time>2026-04-19T12:07:35.001Z</time></trkpt><trkpt lat="45.895942048113206" lon="11.602566713018316"><ele>987.0</ele><time>2026-04-19T12:07:36.001Z</time></trkpt><trkpt lat="45.896013856531624" lon="11.602343616132115"><ele>995.0</ele><time>2026-04-19T12:07:37.001Z</time></trkpt><trkpt lat="45.89609089073313" lon="11.602130416319891"><ele>1003.0</ele><time>2026-04-19T12:07:38.001Z</time></trkpt><trkpt lat="45.89615509663009" lon="11.601936547610867"><ele>1011.0</ele><time>2026-04-19T12:07:39.001Z</time></trkpt><trkpt lat="45.896206443221125" lon="11.601760879480121"><ele>1019.0</ele><time>2026-04-19T12:07:40.001Z</time></trkpt><trkpt lat="45.89623287306231" lon="11.601579317138997"><ele>1019.0</ele><time>2026-04-19T12:07:41.001Z</time></trkpt><trkpt lat="45.89623051683706" lon="11.601410245835085"><ele>1019.0</ele><time>2026-04-19T12:07:42.002Z</time></trkpt><trkpt lat="45.89617726824715" lon="11.60124412388851"><ele>1019.0</ele><time>2026-04-19T12:07:43.002Z</time></trkpt><trkpt lat="45.89608750537291" lon="11.60111350878959"><ele>1019.0</ele><time>2026-04-19T12:07:44.002Z</time></trkpt><trkpt lat="45.89597208001917" lon="11.601016254622554"><ele>1017.0</ele><time>2026-04-19T12:07:45.002Z</time></trkpt><trkpt lat="45.89584225151654" lon="11.600974123144725"><ele>1015.0</ele><time>2026-04-19T12:07:46.002Z</time></trkpt><trkpt lat="45.89570624153078" lon="11.600953118040696"><ele>1013.0</ele><time>2026-04-19T12:07:47.002Z</time></trkpt><trkpt lat="45.8955703424386" lon="11.600946160109933"><ele>1011.0</ele><time>2026-04-19T12:07:48.002Z</time></trkpt><trkpt lat="45.895429677662555" lon="11.600902620986856"><ele>1011.0</ele><time>2026-04-19T12:07:49.002Z</time></trkpt><trkpt lat="45.89530524080317" lon="11.600856875049212"><ele>1011.0</ele><time>2026-04-19T12:07:50.002Z</time></trkpt><trkpt lat="45.895222277724606" lon="11.600771600755106"><ele>1011.0</ele><time>2026-04-19T12:07:51.002Z</time></trkpt><trkpt lat="45.895152854093524" lon="11.600623829916692"><ele>1011.0</ele><time>2026-04-19T12:07:52.002Z</time></trkpt><trkpt lat="45.895119040182806" lon="11.600458355741742"><ele>1018.3333333333333</ele><time>2026-04-19T12:07:53.002Z</time></trkpt><trkpt lat="45.89515464237853" lon="11.600244418544055"><ele>1025.6666666666665</ele><time>2026-04-19T12:07:54.002Z</time></trkpt><trkpt lat="45.89518938446118" lon="11.600051250021426"><ele>1033.0</ele><time>2026-04-19T12:07:55.002Z</time></trkpt><trkpt lat="45.89520937567376" lon="11.599825889885809"><ele>1033.0</ele><time>2026-04-19T12:07:56.002Z</time></trkpt><trkpt lat="45.89527147584263" lon="11.599588712246716"><ele>1033.0</ele><time>2026-04-19T12:07:57.002Z</time></trkpt><trkpt lat="45.8953237599773" lon="11.599365553038089"><ele>1033.0</ele><time>2026-04-19T12:07:58.002Z</time></trkpt><trkpt lat="45.89538321925057" lon="11.599073943844578"><ele>1034.0</ele><time>2026-04-19T12:07:59.002Z</time></trkpt><trkpt lat="45.895436265205454" lon="11.598714896619596"><ele>1035.0</ele><time>2026-04-19T12:08:00.002Z</time></trkpt><trkpt lat="45.895461448062015" lon="11.598426476116094"><ele>1035.0</ele><time>2026-04-19T12:08:01.002Z</time></trkpt><trkpt lat="45.89547456146912" lon="11.598177314864452"><ele>1035.0</ele><time>2026-04-19T12:08:02.002Z</time></trkpt><trkpt lat="45.89547515035306" lon="11.597882763144522"><ele>1035.0</ele><time>2026-04-19T12:08:03.002Z</time></trkpt><trkpt lat="45.89548594449351" lon="11.597597078954085"><ele>1035.6666666666667</ele><time>2026-04-19T12:08:04.002Z</time></trkpt><trkpt lat="45.89549068940905" lon="11.597307508776124"><ele>1036.3333333333335</ele><time>2026-04-19T12:08:05.002Z</time></trkpt><trkpt lat="45.89549641205952" lon="11.597028460900072"><ele>1037.0</ele><time>2026-04-19T12:08:06.002Z</time></trkpt><trkpt lat="45.89549238067865" lon="11.596741820079368"><ele>1037.0</ele><time>2026-04-19T12:08:07.002Z</time></trkpt><trkpt lat="45.895452999884206" lon="11.59645721576752"><ele>1037.0</ele><time>2026-04-19T12:08:08.002Z</time></trkpt><trkpt lat="45.89539926055378" lon="11.596192825717116"><ele>1037.0</ele><time>2026-04-19T12:08:09.002Z</time></trkpt><trkpt lat="45.89530784504994" lon="11.595931502279981"><ele>1041.3333333333335</ele><time>2026-04-19T12:08:10.002Z</time></trkpt><trkpt lat="45.89521173460243" lon="11.595669377018247"><ele>1045.6666666666667</ele><time>2026-04-19T12:08:11.002Z</time></trkpt><trkpt lat="45.89513045750821" lon="11.595429175215976"><ele>1050.0</ele><time>2026-04-19T12:08:12.002Z</time></trkpt><trkpt lat="45.89506257821359" lon="11.595199946348583"><ele>1039.0</ele><time>2026-04-19T12:08:13.002Z</time></trkpt><trkpt lat="45.89501750067085" lon="11.594974136229942"><ele>1028.0</ele><time>2026-04-19T12:08:14.002Z</time></trkpt><trkpt lat="45.89501267424679" lon="11.594730748287791"><ele>1017.0</ele><time>2026-04-19T12:08:15.002Z</time></trkpt><trkpt lat="45.89504005703262" lon="11.594473312327455"><ele>1017.0</ele><time>2026-04-19T12:08:16.002Z</time></trkpt><trkpt lat="45.89508016099803" lon="11.594203446742888"><ele>1017.0</ele><time>2026-04-19T12:08:17.001Z</time></trkpt><trkpt lat="45.89508680034374" lon="11.593922603601564"><ele>1017.0</ele><time>2026-04-19T12:08:18.001Z</time></trkpt><trkpt lat="45.89505169999386" lon="11.59362756113488"><ele>1019.0</ele><time>2026-04-19T12:08:19.001Z</time></trkpt><trkpt lat="45.89496092365595" lon="11.593365865861648"><ele>1021.0</ele><time>2026-04-19T12:08:20.001Z</time></trkpt><trkpt lat="45.894872939969716" lon="11.593105034688506"><ele>1023.0</ele><time>2026-04-19T12:08:21.001Z</time></trkpt><trkpt lat="45.894801041278626" lon="11.592857784788105"><ele>1026.3333333333333</ele><time>2026-04-19T12:08:22.001Z</time></trkpt><trkpt lat="45.894751108455814" lon="11.592603424752127"><ele>1029.6666666666665</ele><time>2026-04-19T12:08:23.001Z</time></trkpt><trkpt lat="45.89472136874205" lon="11.592346392961273"><ele>1033.0</ele><time>2026-04-19T12:08:24.001Z</time></trkpt><trkpt lat="45.89468953197919" lon="11.592107883438056"><ele>1033.6666666666665</ele><time>2026-04-19T12:08:25.001Z</time></trkpt><trkpt lat="45.894697314056415" lon="11.591830997959063"><ele>1034.3333333333333</ele><time>2026-04-19T12:08:26.001Z</time></trkpt><trkpt lat="45.89469387407052" lon="11.591550190902584"><ele>1035.0</ele><time>2026-04-19T12:08:27.001Z</time></trkpt><trkpt lat="45.89469180589954" lon="11.591274789351695"><ele>1036.3333333333333</ele><time>2026-04-19T12:08:28.001Z</time></trkpt><trkpt lat="45.894689873479756" lon="11.59100176251262"><ele>1037.6666666666665</ele><time>2026-04-19T12:08:29.001Z</time></trkpt><trkpt lat="45.894685794770965" lon="11.590709894331148"><ele>1039.0</ele><time>2026-04-19T12:08:30.001Z</time></trkpt><trkpt lat="45.894684868084966" lon="11.590407023263117"><ele>1039.3333333333333</ele><time>2026-04-19T12:08:31.001Z</time></trkpt><trkpt lat="45.894683289760714" lon="11.590103921356645"><ele>1039.6666666666667</ele><time>2026-04-19T12:08:32.001Z</time></trkpt><trkpt lat="45.89467133611992" lon="11.589812363070594"><ele>1040.0</ele><time>2026-04-19T12:08:33.001Z</time></trkpt><trkpt lat="45.89468778835731" lon="11.589525164897035"><ele>1039.3333333333335</ele><time>2026-04-19T12:08:34.001Z</time></trkpt><trkpt lat="45.89471981454994" lon="11.589230521513045"><ele>1038.6666666666667</ele><time>2026-04-19T12:08:35.001Z</time></trkpt><trkpt lat="45.89474719097703" lon="11.588954495182932"><ele>1038.0</ele><time>2026-04-19T12:08:36.001Z</time></trkpt><trkpt lat="45.894753296753485" lon="11.588689397904835"><ele>1037.3333333333333</ele><time>2026-04-19T12:08:37.001Z</time></trkpt><trkpt lat="45.8947137318545" lon="11.588424492404249"><ele>1036.6666666666665</ele><time>2026-04-19T12:08:38.001Z</time></trkpt><trkpt lat="45.894674311121626" lon="11.588164937621238"><ele>1036.0</ele><time>2026-04-19T12:08:39.001Z</time></trkpt><trkpt lat="45.89462395509085" lon="11.587920254893323"><ele>1038.6666666666665</ele><time>2026-04-19T12:08:40.001Z</time></trkpt><trkpt lat="45.89455989812754" lon="11.587686806502743"><ele>1041.3333333333333</ele><time>2026-04-19T12:08:41.001Z</time></trkpt><trkpt lat="45.894454116732334" lon="11.587497970136443"><ele>1044.0</ele><time>2026-04-19T12:08:42.001Z</time></trkpt><trkpt lat="45.89435417921471" lon="11.587303802138482"><ele>1040.0</ele><time>2026-04-19T12:08:43.001Z</time></trkpt><trkpt lat="45.89425277765536" lon="11.587122637882237"><ele>1036.0</ele><time>2026-04-19T12:08:44.001Z</time></trkpt><trkpt lat="45.894162004684446" lon="11.586955984382303"><ele>1032.0</ele><time>2026-04-19T12:08:45.001Z</time></trkpt><trkpt lat="45.89409229614784" lon="11.58677557340993"><ele>1032.0</ele><time>2026-04-19T12:08:46.001Z</time></trkpt><trkpt lat="45.89403033132607" lon="11.586578409161499"><ele>1032.0</ele><time>2026-04-19T12:08:47.001Z</time></trkpt><trkpt lat="45.89398355261926" lon="11.586384135242144"><ele>1032.0</ele><time>2026-04-19T12:08:48.001Z</time></trkpt><trkpt lat="45.89393767659693" lon="11.5861693688366"><ele>1037.0</ele><time>2026-04-19T12:08:49.001Z</time></trkpt><trkpt lat="45.893899358418" lon="11.585946307476712"><ele>1042.0</ele><time>2026-04-19T12:08:50.001Z</time></trkpt><trkpt lat="45.89387074107228" lon="11.58573106362078"><ele>1047.0</ele><time>2026-04-19T12:08:51.001Z</time></trkpt><trkpt lat="45.89383909043115" lon="11.585505334403509"><ele>1051.0</ele><time>2026-04-19T12:08:52.001Z</time></trkpt><trkpt lat="45.89381230231374" lon="11.58526261714554"><ele>1055.0</ele><time>2026-04-19T12:08:53.001Z</time></trkpt><trkpt lat="45.89376358585805" lon="11.584999336648513"><ele>1059.0</ele><time>2026-04-19T12:08:54.001Z</time></trkpt><trkpt lat="45.89373270925016" lon="11.584687401739941"><ele>1062.3333333333333</ele><time>2026-04-19T12:08:55.001Z</time></trkpt><trkpt lat="45.89368487057323" lon="11.584410768957188"><ele>1065.6666666666665</ele><time>2026-04-19T12:08:56.001Z</time></trkpt><trkpt lat="45.89365343189906" lon="11.58417445959122"><ele>1069.0</ele><time>2026-04-19T12:08:57.001Z</time></trkpt><trkpt lat="45.89361377095594" lon="11.583977733348283"><ele>1069.0</ele><time>2026-04-19T12:08:58.001Z</time></trkpt><trkpt lat="45.89350027857098" lon="11.583858144173082"><ele>1069.0</ele><time>2026-04-19T12:08:59.001Z</time></trkpt><trkpt lat="45.8933477121388" lon="11.583769126734316"><ele>1069.0</ele><time>2026-04-19T12:09:00.001Z</time></trkpt><trkpt lat="45.89317318268115" lon="11.583711732384774"><ele>1061.0</ele><time>2026-04-19T12:09:01.001Z</time></trkpt><trkpt lat="45.89298502989525" lon="11.583693016145059"><ele>1053.0</ele><time>2026-04-19T12:09:02.001Z</time></trkpt><trkpt lat="45.89284761304677" lon="11.58362315082402"><ele>1045.0</ele><time>2026-04-19T12:09:03.001Z</time></trkpt><trkpt lat="45.89275489571827" lon="11.583518367725793"><ele>1045.0</ele><time>2026-04-19T12:09:04.001Z</time></trkpt><trkpt lat="45.89267121431371" lon="11.583360494515448"><ele>1045.0</ele><time>2026-04-19T12:09:05.001Z</time></trkpt><trkpt lat="45.89261428128147" lon="11.583162656788826"><ele>1045.0</ele><time>2026-04-19T12:09:06.001Z</time></trkpt><trkpt lat="45.89254483449804" lon="11.582937100333233"><ele>1044.25</ele><time>2026-04-19T12:09:07.001Z</time></trkpt><trkpt lat="45.892479311755665" lon="11.582745730158729"><ele>1043.5</ele><time>2026-04-19T12:09:08.001Z</time></trkpt><trkpt lat="45.892422475634156" lon="11.582552063863801"><ele>1042.75</ele><time>2026-04-19T12:09:09.001Z</time></trkpt><trkpt lat="45.89236195023955" lon="11.58236485151014"><ele>1042.0</ele><time>2026-04-19T12:09:10.001Z</time></trkpt><trkpt lat="45.89230730736074" lon="11.582174860324406"><ele>1045.25</ele><time>2026-04-19T12:09:11.001Z</time></trkpt><trkpt lat="45.892243452853904" lon="11.581996080130974"><ele>1048.5</ele><time>2026-04-19T12:09:12.001Z</time></trkpt><trkpt lat="45.89218384320093" lon="11.581821747325558"><ele>1051.75</ele><time>2026-04-19T12:09:13.001Z</time></trkpt><trkpt lat="45.89211737565112" lon="11.581650426924615"><ele>1055.0</ele><time>2026-04-19T12:09:14.001Z</time></trkpt><trkpt lat="45.892074499113164" lon="11.581463880252734"><ele>1055.0</ele><time>2026-04-19T12:09:15.001Z</time></trkpt><trkpt lat="45.89201158601348" lon="11.581306699739516"><ele>1055.0</ele><time>2026-04-19T12:09:16.001Z</time></trkpt><trkpt lat="45.891966077126476" lon="11.58114295469972"><ele>1055.0</ele><time>2026-04-19T12:09:17.001Z</time></trkpt><trkpt lat="45.89192059183266" lon="11.580994654647998"><ele>1055.0</ele><time>2026-04-19T12:09:18.001Z</time></trkpt><trkpt lat="45.89187029576859" lon="11.58084523511994"><ele>1057.0</ele><time>2026-04-19T12:09:19.001Z</time></trkpt><trkpt lat="45.891805923683535" lon="11.58071969809762"><ele>1059.0</ele><time>2026-04-19T12:09:20.001Z</time></trkpt><trkpt lat="45.89174562688005" lon="11.580598748867363"><ele>1061.0</ele><time>2026-04-19T12:09:21.001Z</time></trkpt><trkpt lat="45.89168873836953" lon="11.580486223635"><ele>1063.0</ele><time>2026-04-19T12:09:22.001Z</time></trkpt><trkpt lat="45.891631480686215" lon="11.580375575432948"><ele>1065.0</ele><time>2026-04-19T12:09:23.001Z</time></trkpt><trkpt lat="45.8915824518022" lon="11.580259822636718"><ele>1060.4</ele><time>2026-04-19T12:09:24.001Z</time></trkpt><trkpt lat="45.89154025958222" lon="11.580140261812975"><ele>1055.8</ele><time>2026-04-19T12:09:25.001Z</time></trkpt><trkpt lat="45.891519084540796" lon="11.580010351376007"><ele>1051.2</ele><time>2026-04-19T12:09:26.001Z</time></trkpt><trkpt lat="45.89156211417442" lon="11.57987176058629"><ele>1046.6</ele><time>2026-04-19T12:09:27.001Z</time></trkpt><trkpt lat="45.891588015881624" lon="11.579733185752888"><ele>1042.0</ele><time>2026-04-19T12:09:28.001Z</time></trkpt><trkpt lat="45.89166663175692" lon="11.57962537207238"><ele>1040.8</ele><time>2026-04-19T12:09:29.001Z</time></trkpt><trkpt lat="45.89172844079219" lon="11.579493682237088"><ele>1039.6</ele><time>2026-04-19T12:09:30.001Z</time></trkpt><trkpt lat="45.89180153048144" lon="11.57939170066961"><ele>1038.3999999999999</ele><time>2026-04-19T12:09:31.001Z</time></trkpt><trkpt lat="45.89184376935106" lon="11.579261556944083"><ele>1037.2</ele><time>2026-04-19T12:09:32.001Z</time></trkpt><trkpt lat="45.891872407979484" lon="11.57912020548602"><ele>1036.0</ele><time>2026-04-19T12:09:33.001Z</time></trkpt><trkpt lat="45.891893060348515" lon="11.57896285511225"><ele>1041.2</ele><time>2026-04-19T12:09:34.001Z</time></trkpt><trkpt lat="45.89191174203411" lon="11.57879671241761"><ele>1046.3999999999999</ele><time>2026-04-19T12:09:35.001Z</time></trkpt><trkpt lat="45.89193018100498" lon="11.578643602143115"><ele>1051.6</ele><time>2026-04-19T12:09:36.001Z</time></trkpt><trkpt lat="45.89197531281768" lon="11.578505741434626"><ele>1056.8</ele><time>2026-04-19T12:09:37.001Z</time></trkpt><trkpt lat="45.892048036081505" lon="11.578392660792584"><ele>1062.0</ele><time>2026-04-19T12:09:38.001Z</time></trkpt><trkpt lat="45.89215856326552" lon="11.578357277092767"><ele>1062.0</ele><time>2026-04-19T12:09:39.001Z</time></trkpt><trkpt lat="45.892265142554464" lon="11.578318640083758"><ele>1062.0</ele><time>2026-04-19T12:09:40.001Z</time></trkpt><trkpt lat="45.89237759267472" lon="11.57830093349029"><ele>1062.0</ele><time>2026-04-19T12:09:41.001Z</time></trkpt><trkpt lat="45.89248323670633" lon="11.578260512354012"><ele>1062.0</ele><time>2026-04-19T12:09:42.001Z</time></trkpt><trkpt lat="45.892586551141605" lon="11.578205048889213"><ele>1062.0</ele><time>2026-04-19T12:09:43.002Z</time></trkpt><trkpt lat="45.89267876758772" lon="11.578122121810267"><ele>1069.25</ele><time>2026-04-19T12:09:44.002Z</time></trkpt><trkpt lat="45.89268707527553" lon="11.5779316839132"><ele>1076.5</ele><time>2026-04-19T12:09:45.002Z</time></trkpt><trkpt lat="45.892677237639255" lon="11.57774957810808"><ele>1083.75</ele><time>2026-04-19T12:09:46.002Z</time></trkpt><trkpt lat="45.892649556760645" lon="11.577571994965627"><ele>1091.0</ele><time>2026-04-19T12:09:47.002Z</time></trkpt><trkpt lat="45.89263072527486" lon="11.577389348629858"><ele>1091.0</ele><time>2026-04-19T12:09:48.002Z</time></trkpt><trkpt lat="45.89260451378687" lon="11.577206307564568"><ele>1091.0</ele><time>2026-04-19T12:09:49.002Z</time></trkpt><trkpt lat="45.892582187566894" lon="11.577017317398447"><ele>1091.0</ele><time>2026-04-19T12:09:50.002Z</time></trkpt><trkpt lat="45.892546226020116" lon="11.57684046336021"><ele>1091.0</ele><time>2026-04-19T12:09:51.002Z</time></trkpt><trkpt lat="45.89247235875791" lon="11.576679461282447"><ele>1083.0</ele><time>2026-04-19T12:09:52.002Z</time></trkpt><trkpt lat="45.892370587769264" lon="11.576527992481113"><ele>1075.0</ele><time>2026-04-19T12:09:53.002Z</time></trkpt><trkpt lat="45.892275238370026" lon="11.576391760578838"><ele>1067.0</ele><time>2026-04-19T12:09:54.002Z</time></trkpt><trkpt lat="45.89220494191059" lon="11.57624486181116"><ele>1059.0</ele><time>2026-04-19T12:09:55.002Z</time></trkpt><trkpt lat="45.8921721049277" lon="11.576090009485219"><ele>1059.0</ele><time>2026-04-19T12:09:56.002Z</time></trkpt><trkpt lat="45.892179218476755" lon="11.575922881798308"><ele>1059.0</ele><time>2026-04-19T12:09:57.002Z</time></trkpt><trkpt lat="45.89220002079821" lon="11.575749127428642"><ele>1059.0</ele><time>2026-04-19T12:09:58.002Z</time></trkpt><trkpt lat="45.89224838491177" lon="11.575583829418807"><ele>1059.0</ele><time>2026-04-19T12:09:59.002Z</time></trkpt><trkpt lat="45.89229381855446" lon="11.575429107318813"><ele>1058.75</ele><time>2026-04-19T12:10:00.002Z</time></trkpt><trkpt lat="45.89234386668715" lon="11.575264449059759"><ele>1058.5</ele><time>2026-04-19T12:10:01.002Z</time></trkpt><trkpt lat="45.89237516759681" lon="11.575097325796131"><ele>1058.25</ele><time>2026-04-19T12:10:02.002Z</time></trkpt><trkpt lat="45.89238228630581" lon="11.574929409569771"><ele>1058.0</ele><time>2026-04-19T12:10:03.002Z</time></trkpt><trkpt lat="45.89237048699784" lon="11.574764646192728"><ele>1058.0</ele><time>2026-04-19T12:10:04.002Z</time></trkpt><trkpt lat="45.892335471790446" lon="11.574603702005106"><ele>1058.0</ele><time>2026-04-19T12:10:05.002Z</time></trkpt><trkpt lat="45.892271861132485" lon="11.574438303717963"><ele>1058.0</ele><time>2026-04-19T12:10:06.002Z</time></trkpt><trkpt lat="45.89221408240619" lon="11.574290674952909"><ele>1058.0</ele><time>2026-04-19T12:10:07.002Z</time></trkpt><trkpt lat="45.89215062794183" lon="11.574144688431154"><ele>1058.0</ele><time>2026-04-19T12:10:08.002Z</time></trkpt><trkpt lat="45.89210071028435" lon="11.574010339365557"><ele>1058.0</ele><time>2026-04-19T12:10:09.002Z</time></trkpt><trkpt lat="45.89206672351989" lon="11.573879217033832"><ele>1058.0</ele><time>2026-04-19T12:10:10.002Z</time></trkpt><trkpt lat="45.892051805550956" lon="11.573740868125528"><ele>1058.0</ele><time>2026-04-19T12:10:11.002Z</time></trkpt><trkpt lat="45.89206997119723" lon="11.57358910433496"><ele>1058.0</ele><time>2026-04-19T12:10:12.002Z</time></trkpt><trkpt lat="45.89209959719119" lon="11.573445724702731"><ele>1058.0</ele><time>2026-04-19T12:10:13.002Z</time></trkpt><trkpt lat="45.89216319462402" lon="11.573308742460021"><ele>1058.0</ele><time>2026-04-19T12:10:14.002Z</time></trkpt><trkpt lat="45.89220505838184" lon="11.573152981966421"><ele>1058.0</ele><time>2026-04-19T12:10:15.002Z</time></trkpt><trkpt lat="45.89224980337814" lon="11.572998778244703"><ele>1058.0</ele><time>2026-04-19T12:10:16.002Z</time></trkpt><trkpt lat="45.892278518199355" lon="11.572830874026161"><ele>1055.0</ele><time>2026-04-19T12:10:17.002Z</time></trkpt><trkpt lat="45.89234394124638" lon="11.57268378390878"><ele>1052.0</ele><time>2026-04-19T12:10:18.002Z</time></trkpt><trkpt lat="45.892426355675944" lon="11.57254544053198"><ele>1049.0</ele><time>2026-04-19T12:10:19.002Z</time></trkpt><trkpt lat="45.89251096084506" lon="11.572407224597324"><ele>1046.0</ele><time>2026-04-19T12:10:20.002Z</time></trkpt><trkpt lat="45.8926057916934" lon="11.572293209804918"><ele>1054.75</ele><time>2026-04-19T12:10:21.002Z</time></trkpt><trkpt lat="45.89266441984157" lon="11.572143113740234"><ele>1063.5</ele><time>2026-04-19T12:10:22.002Z</time></trkpt><trkpt lat="45.892685596908045" lon="11.57195755347691"><ele>1072.25</ele><time>2026-04-19T12:10:23.001Z</time></trkpt><trkpt lat="45.8926658125414" lon="11.571763463441007"><ele>1081.0</ele><time>2026-04-19T12:10:24.001Z</time></trkpt><trkpt lat="45.89263563041228" lon="11.571580530679409"><ele>1081.0</ele><time>2026-04-19T12:10:25.001Z</time></trkpt><trkpt lat="45.892596671639176" lon="11.571404459674127"><ele>1081.0</ele><time>2026-04-19T12:10:26.001Z</time></trkpt><trkpt lat="45.892558171065076" lon="11.571225235123675"><ele>1081.0</ele><time>2026-04-19T12:10:27.001Z</time></trkpt><trkpt lat="45.892529291397" lon="11.571048968385337"><ele>1081.0</ele><time>2026-04-19T12:10:28.001Z</time></trkpt><trkpt lat="45.89250581544511" lon="11.570866215582694"><ele>1071.75</ele><time>2026-04-19T12:10:29.001Z</time></trkpt><trkpt lat="45.89251449418273" lon="11.570668465339322"><ele>1062.5</ele><time>2026-04-19T12:10:30.001Z</time></trkpt><trkpt lat="45.89252646195001" lon="11.570487025384349"><ele>1053.25</ele><time>2026-04-19T12:10:31.001Z</time></trkpt><trkpt lat="45.892545574658165" lon="11.57030872866785"><ele>1044.0</ele><time>2026-04-19T12:10:32.001Z</time></trkpt><trkpt lat="45.892578178247966" lon="11.570150591823902"><ele>1048.0</ele><time>2026-04-19T12:10:33.001Z</time></trkpt><trkpt lat="45.89261926908644" lon="11.569988976469716"><ele>1052.0</ele><time>2026-04-19T12:10:34.001Z</time></trkpt><trkpt lat="45.89266132930203" lon="11.569832827825683"><ele>1056.0</ele><time>2026-04-19T12:10:35.001Z</time></trkpt><trkpt lat="45.89271492364145" lon="11.569672499923653"><ele>1060.0</ele><time>2026-04-19T12:10:36.001Z</time></trkpt><trkpt lat="45.89276284367404" lon="11.569519406943725"><ele>1060.0</ele><time>2026-04-19T12:10:37.001Z</time></trkpt><trkpt lat="45.89281187820493" lon="11.569371653034086"><ele>1060.0</ele><time>2026-04-19T12:10:38.001Z</time></trkpt><trkpt lat="45.89285623578125" lon="11.569229145704465"><ele>1060.0</ele><time>2026-04-19T12:10:39.001Z</time></trkpt><trkpt lat="45.89291306990168" lon="11.569086025721557"><ele>1060.0</ele><time>2026-04-19T12:10:40.001Z</time></trkpt><trkpt lat="45.89296826352833" lon="11.568940016901534"><ele>1060.0</ele><time>2026-04-19T12:10:41.001Z</time></trkpt><trkpt lat="45.89303083738914" lon="11.568804510595768"><ele>1060.0</ele><time>2026-04-19T12:10:42.001Z</time></trkpt><trkpt lat="45.89309515425825" lon="11.568666860914691"><ele>1060.0</ele><time>2026-04-19T12:10:43.001Z</time></trkpt><trkpt lat="45.89314442728119" lon="11.568532702661452"><ele>1060.0</ele><time>2026-04-19T12:10:44.001Z</time></trkpt><trkpt lat="45.89318522769108" lon="11.568395843160419"><ele>1060.0</ele><time>2026-04-19T12:10:45.001Z</time></trkpt><trkpt lat="45.89324665086224" lon="11.568275204071806"><ele>1062.2</ele><time>2026-04-19T12:10:46.001Z</time></trkpt><trkpt lat="45.89328935787783" lon="11.56814819667498"><ele>1064.4</ele><time>2026-04-19T12:10:47.001Z</time></trkpt><trkpt lat="45.89332919664182" lon="11.56802036058729"><ele>1066.6</ele><time>2026-04-19T12:10:48.001Z</time></trkpt><trkpt lat="45.893376602846814" lon="11.567889049590717"><ele>1068.8</ele><time>2026-04-19T12:10:49.001Z</time></trkpt><trkpt lat="45.89343936453564" lon="11.567769724085792"><ele>1071.0</ele><time>2026-04-19T12:10:50.001Z</time></trkpt><trkpt lat="45.89349487300115" lon="11.567643991912401"><ele>1071.0</ele><time>2026-04-19T12:10:51.001Z</time></trkpt><trkpt lat="45.893550542161016" lon="11.56753662176966"><ele>1071.0</ele><time>2026-04-19T12:10:52.001Z</time></trkpt><trkpt lat="45.89362420490267" lon="11.567451417223884"><ele>1071.0</ele><time>2026-04-19T12:10:53.001Z</time></trkpt><trkpt lat="45.89371030496391" lon="11.567393809524589"><ele>1071.0</ele><time>2026-04-19T12:10:54.001Z</time></trkpt><trkpt lat="45.893801501617354" lon="11.567342939359666"><ele>1071.0</ele><time>2026-04-19T12:10:55.001Z</time></trkpt><trkpt lat="45.89389607473286" lon="11.567317678373012"><ele>1071.0</ele><time>2026-04-19T12:10:56.001Z</time></trkpt><trkpt lat="45.89398909531951" lon="11.567301810016144"><ele>1071.0</ele><time>2026-04-19T12:10:57.001Z</time></trkpt><trkpt lat="45.89408802805654" lon="11.567292957188107"><ele>1071.0</ele><time>2026-04-19T12:10:58.001Z</time></trkpt><trkpt lat="45.89418111281778" lon="11.567289392596829"><ele>1071.0</ele><time>2026-04-19T12:10:59.001Z</time></trkpt><trkpt lat="45.89427529217002" lon="11.567288671493174"><ele>1071.0</ele><time>2026-04-19T12:11:00.001Z</time></trkpt><trkpt lat="45.8943605695798" lon="11.567280209255516"><ele>1070.2</ele><time>2026-04-19T12:11:01.001Z</time></trkpt><trkpt lat="45.89445373915837" lon="11.567287601769475"><ele>1069.3999999999999</ele><time>2026-04-19T12:11:02.001Z</time></trkpt><trkpt lat="45.89452958424954" lon="11.567315082641507"><ele>1068.6</ele><time>2026-04-19T12:11:03.001Z</time></trkpt><trkpt lat="45.89460095588142" lon="11.567367777357548"><ele>1067.8</ele><time>2026-04-19T12:11:04.001Z</time></trkpt><trkpt lat="45.89469600603065" lon="11.567455420878039"><ele>1067.0</ele><time>2026-04-19T12:11:05.001Z</time></trkpt><trkpt lat="45.89480931793957" lon="11.567544472070438"><ele>1067.0</ele><time>2026-04-19T12:11:06.001Z</time></trkpt><trkpt lat="45.89496436666468" lon="11.567668430184849"><ele>1067.0</ele><time>2026-04-19T12:11:07.001Z</time></trkpt><trkpt lat="45.89508695660975" lon="11.567757873477733"><ele>1067.0</ele><time>2026-04-19T12:11:08.001Z</time></trkpt><trkpt lat="45.89522412704418" lon="11.567817062076248"><ele>1065.6666666666667</ele><time>2026-04-19T12:11:09.001Z</time></trkpt><trkpt lat="45.8953415252759" lon="11.567793332853421"><ele>1064.3333333333333</ele><time>2026-04-19T12:11:10.001Z</time></trkpt><trkpt lat="45.89548309985572" lon="11.56773242224708"><ele>1063.0</ele><time>2026-04-19T12:11:11.001Z</time></trkpt><trkpt lat="45.89566034748434" lon="11.567665571159749"><ele>1066.5</ele><time>2026-04-19T12:11:12.001Z</time></trkpt><trkpt lat="45.8959232540521" lon="11.567492249130979"><ele>1070.0</ele><time>2026-04-19T12:11:13.001Z</time></trkpt><trkpt lat="45.89609803605883" lon="11.567404824484193"><ele>1070.0</ele><time>2026-04-19T12:11:14.001Z</time></trkpt><trkpt lat="45.89623904560162" lon="11.56735849836997"><ele>1070.0</ele><time>2026-04-19T12:11:15.001Z</time></trkpt><trkpt lat="45.89639428561728" lon="11.56737952660507"><ele>1070.0</ele><time>2026-04-19T12:11:16.001Z</time></trkpt><trkpt lat="45.89653274887848" lon="11.56743247538189"><ele>1070.0</ele><time>2026-04-19T12:11:17.001Z</time></trkpt><trkpt lat="45.89672595330881" lon="11.567481628523264"><ele>1074.6666666666667</ele><time>2026-04-19T12:11:18.001Z</time></trkpt><trkpt lat="45.89695894135813" lon="11.567442873199703"><ele>1079.3333333333333</ele><time>2026-04-19T12:11:19.001Z</time></trkpt><trkpt lat="45.897149847695864" lon="11.567382851037856"><ele>1084.0</ele><time>2026-04-19T12:11:20.001Z</time></trkpt><trkpt lat="45.89733548195231" lon="11.567320641610015"><ele>1084.0</ele><time>2026-04-19T12:11:21.001Z</time></trkpt><trkpt lat="45.89748219310631" lon="11.567269836908707"><ele>1084.0</ele><time>2026-04-19T12:11:22.001Z</time></trkpt><trkpt lat="45.897607689267275" lon="11.567206371442524"><ele>1084.0</ele><time>2026-04-19T12:11:23.001Z</time></trkpt><trkpt lat="45.89769970111593" lon="11.567109343647692"><ele>1084.0</ele><time>2026-04-19T12:11:24.001Z</time></trkpt><trkpt lat="45.89774089079539" lon="11.566966785501519"><ele>1087.25</ele><time>2026-04-19T12:11:25.001Z</time></trkpt><trkpt lat="45.89772513770945" lon="11.566819300291028"><ele>1090.5</ele><time>2026-04-19T12:11:26.001Z</time></trkpt><trkpt lat="45.89762963836505" lon="11.566686450783989"><ele>1093.75</ele><time>2026-04-19T12:11:27.001Z</time></trkpt><trkpt lat="45.897530452076985" lon="11.566610241031633"><ele>1097.0</ele><time>2026-04-19T12:11:28.001Z</time></trkpt><trkpt lat="45.897440138133405" lon="11.56650618367211"><ele>1088.25</ele><time>2026-04-19T12:11:29.001Z</time></trkpt><trkpt lat="45.89735602575612" lon="11.56639387340766"><ele>1079.5</ele><time>2026-04-19T12:11:30.001Z</time></trkpt><trkpt lat="45.89732335047734" lon="11.56628327824387"><ele>1070.75</ele><time>2026-04-19T12:11:31.001Z</time></trkpt><trkpt lat="45.89735079139028" lon="11.566111196343927"><ele>1062.0</ele><time>2026-04-19T12:11:33.001Z</time></trkpt><trkpt lat="45.89746311995176" lon="11.565928720985188"><ele>1070.6666666666667</ele><time>2026-04-19T12:11:34.001Z</time></trkpt><trkpt lat="45.897659586074504" lon="11.565783225672254"><ele>1079.3333333333335</ele><time>2026-04-19T12:11:35.001Z</time></trkpt><trkpt lat="45.89781570617287" lon="11.565630081129996"><ele>1088.0</ele><time>2026-04-19T12:11:36.001Z</time></trkpt><trkpt lat="45.897993689066325" lon="11.565560364077998"><ele>1088.0</ele><time>2026-04-19T12:11:37.001Z</time></trkpt><trkpt lat="45.89818330682231" lon="11.565507944109193"><ele>1088.0</ele><time>2026-04-19T12:11:38.001Z</time></trkpt><trkpt lat="45.898413015943454" lon="11.565468689681726"><ele>1088.0</ele><time>2026-04-19T12:11:39.001Z</time></trkpt><trkpt lat="45.89861906837912" lon="11.56539749643938"><ele>1088.0</ele><time>2026-04-19T12:11:40.001Z</time></trkpt><trkpt lat="45.8988130954883" lon="11.565316655517181"><ele>1088.0</ele><time>2026-04-19T12:11:41.001Z</time></trkpt><trkpt lat="45.89895698273305" lon="11.56519440326895"><ele>1088.0</ele><time>2026-04-19T12:11:42.001Z</time></trkpt><trkpt lat="45.899074514523285" lon="11.565044231770363"><ele>1088.0</ele><time>2026-04-19T12:11:43.001Z</time></trkpt><trkpt lat="45.89912301446234" lon="11.564899594680783"><ele>1088.0</ele><time>2026-04-19T12:11:44.001Z</time></trkpt><trkpt lat="45.89914643138477" lon="11.56474043359052"><ele>1088.0</ele><time>2026-04-19T12:11:45.001Z</time></trkpt><trkpt lat="45.899115190600774" lon="11.564546434916176"><ele>1088.0</ele><time>2026-04-19T12:11:46.001Z</time></trkpt><trkpt lat="45.899056110310724" lon="11.564381890704238"><ele>1089.3333333333335</ele><time>2026-04-19T12:11:47.001Z</time></trkpt><trkpt lat="45.89896723000148" lon="11.564220615673545"><ele>1090.6666666666667</ele><time>2026-04-19T12:11:48.001Z</time></trkpt><trkpt lat="45.89884879946219" lon="11.564051532218317"><ele>1092.0</ele><time>2026-04-19T12:11:49.001Z</time></trkpt><trkpt lat="45.89873199011192" lon="11.56384250875858"><ele>1096.6666666666667</ele><time>2026-04-19T12:11:50.001Z</time></trkpt><trkpt lat="45.89861622856525" lon="11.563573906988676"><ele>1101.3333333333335</ele><time>2026-04-19T12:11:51.001Z</time></trkpt><trkpt lat="45.898511839444865" lon="11.563312462038528"><ele>1106.0</ele><time>2026-04-19T12:11:52.001Z</time></trkpt><trkpt lat="45.89839107945062" lon="11.563102834696009"><ele>1102.5</ele><time>2026-04-19T12:11:53.001Z</time></trkpt><trkpt lat="45.89820486136597" lon="11.562875375463648"><ele>1099.0</ele><time>2026-04-19T12:11:54.001Z</time></trkpt><trkpt lat="45.89799788299978" lon="11.562648457633381"><ele>1099.0</ele><time>2026-04-19T12:11:55.001Z</time></trkpt><trkpt lat="45.897839053585706" lon="11.562489185811259"><ele>1099.0</ele><time>2026-04-19T12:11:56.001Z</time></trkpt><trkpt lat="45.89766576253176" lon="11.562356162398304"><ele>1099.0</ele><time>2026-04-19T12:11:57.001Z</time></trkpt><trkpt lat="45.89752827992355" lon="11.562252012000112"><ele>1098.6666666666665</ele><time>2026-04-19T12:11:58.001Z</time></trkpt><trkpt lat="45.89740026862892" lon="11.562116458487392"><ele>1098.3333333333333</ele><time>2026-04-19T12:11:59.001Z</time></trkpt><trkpt lat="45.897280576129354" lon="11.561947388533557"><ele>1098.0</ele><time>2026-04-19T12:12:00.001Z</time></trkpt><trkpt lat="45.89717933581669" lon="11.561768159681879"><ele>1098.0</ele><time>2026-04-19T12:12:01.001Z</time></trkpt><trkpt lat="45.89708176586903" lon="11.56159761116042"><ele>1098.0</ele><time>2026-04-19T12:12:02.001Z</time></trkpt><trkpt lat="45.89699036719179" lon="11.561441907165348"><ele>1098.0</ele><time>2026-04-19T12:12:03.001Z</time></trkpt><trkpt lat="45.89689462795073" lon="11.561294588125765"><ele>1098.0</ele><time>2026-04-19T12:12:04.002Z</time></trkpt><trkpt lat="45.896756109501275" lon="11.561203205873204"><ele>1092.0</ele><time>2026-04-19T12:12:05.002Z</time></trkpt><trkpt lat="45.896594314183254" lon="11.561214141077652"><ele>1086.0</ele><time>2026-04-19T12:12:06.002Z</time></trkpt><trkpt lat="45.896449066614544" lon="11.56132006508179"><ele>1080.0</ele><time>2026-04-19T12:12:07.002Z</time></trkpt><trkpt lat="45.89632313171301" lon="11.561473152699838"><ele>1080.0</ele><time>2026-04-19T12:12:08.002Z</time></trkpt><trkpt lat="45.89619408784522" lon="11.56167410692435"><ele>1080.0</ele><time>2026-04-19T12:12:09.002Z</time></trkpt><trkpt lat="45.89610431450252" lon="11.561843414766214"><ele>1080.0</ele><time>2026-04-19T12:12:10.002Z</time></trkpt><trkpt lat="45.89602990686093" lon="11.561986988643127"><ele>1079.25</ele><time>2026-04-19T12:12:11.002Z</time></trkpt><trkpt lat="45.89595036632747" lon="11.562105948074185"><ele>1078.5</ele><time>2026-04-19T12:12:12.002Z</time></trkpt><trkpt lat="45.89585976230725" lon="11.562168894308956"><ele>1077.75</ele><time>2026-04-19T12:12:13.002Z</time></trkpt><trkpt lat="45.89570992028683" lon="11.562194524351531"><ele>1077.0</ele><time>2026-04-19T12:12:14.002Z</time></trkpt><trkpt lat="45.89555683388666" lon="11.562188697181165"><ele>1077.0</ele><time>2026-04-19T12:12:15.002Z</time></trkpt><trkpt lat="45.8953709305435" lon="11.562185866859751"><ele>1077.0</ele><time>2026-04-19T12:12:16.002Z</time></trkpt><trkpt lat="45.895174216973885" lon="11.562186447061555"><ele>1077.0</ele><time>2026-04-19T12:12:17.002Z</time></trkpt><trkpt lat="45.894999043633966" lon="11.56217421593865"><ele>1077.6666666666667</ele><time>2026-04-19T12:12:18.002Z</time></trkpt><trkpt lat="45.894842973211496" lon="11.562065803149693"><ele>1078.3333333333335</ele><time>2026-04-19T12:12:19.002Z</time></trkpt><trkpt lat="45.89470590592768" lon="11.561967031911575"><ele>1079.0</ele><time>2026-04-19T12:12:20.002Z</time></trkpt><trkpt lat="45.89455646026391" lon="11.56184361608528"><ele>1077.6666666666667</ele><time>2026-04-19T12:12:21.002Z</time></trkpt><trkpt lat="45.89441739829391" lon="11.561716028807261"><ele>1076.3333333333333</ele><time>2026-04-19T12:12:22.002Z</time></trkpt><trkpt lat="45.894259545664944" lon="11.561608147298873"><ele>1075.0</ele><time>2026-04-19T12:12:23.002Z</time></trkpt><trkpt lat="45.894133579781794" lon="11.561464879927565"><ele>1075.0</ele><time>2026-04-19T12:12:24.002Z</time></trkpt><trkpt lat="45.89404298072404" lon="11.561320077863485"><ele>1075.0</ele><time>2026-04-19T12:12:25.002Z</time></trkpt><trkpt lat="45.893957832228544" lon="11.561143794512066"><ele>1075.0</ele><time>2026-04-19T12:12:26.002Z</time></trkpt><trkpt lat="45.893881869172006" lon="11.56095767124856"><ele>1075.0</ele><time>2026-04-19T12:12:27.002Z</time></trkpt><trkpt lat="45.89380526603816" lon="11.560759408565554"><ele>1081.3333333333333</ele><time>2026-04-19T12:12:28.002Z</time></trkpt><trkpt lat="45.89372894614481" lon="11.56055282376321"><ele>1087.6666666666667</ele><time>2026-04-19T12:12:29.002Z</time></trkpt><trkpt lat="45.893649180646655" lon="11.560334862404991"><ele>1094.0</ele><time>2026-04-19T12:12:30.002Z</time></trkpt><trkpt lat="45.89356653883363" lon="11.560127458631444"><ele>1089.0</ele><time>2026-04-19T12:12:31.002Z</time></trkpt><trkpt lat="45.893471890574986" lon="11.559928920632617"><ele>1084.0</ele><time>2026-04-19T12:12:32.002Z</time></trkpt><trkpt lat="45.89337553002859" lon="11.559780141933716"><ele>1079.0</ele><time>2026-04-19T12:12:33.002Z</time></trkpt><trkpt lat="45.89326403449002" lon="11.559645337380235"><ele>1079.0</ele><time>2026-04-19T12:12:34.002Z</time></trkpt><trkpt lat="45.893154359154295" lon="11.559527583407327"><ele>1105.0</ele><time>2026-04-19T12:12:35.002Z</time></trkpt><trkpt lat="45.89304359609047" lon="11.559409272401552"><ele>1105.0</ele><time>2026-04-19T12:12:36.002Z</time></trkpt></trkseg></trk></gpx>